# Wetter Temperatur Luftdruck Luftfeuchtigkeit Sichtweite Windgeschwindigkeit Windrichtung Zeit
1 Clouds 8 986 87 10000 12.86 250 08:31 02.10.2022
2 Clouds 8 986 87 10000 12.86 250 08:31 02.10.2022
3 Clouds 8 982 93 6000 12.35 250 05:32 02.10.2022
4 Clouds 8 978 93 5000 12.86 240 02:54 02.10.2022
5 Rain 8 976 93 9000 11.32 240 00:45 02.10.2022
6 Rain 8 976 93 7000 10.29 230 23:42 01.10.2022
7 Clouds 8 976 87 5000 10.29 240 22:31 01.10.2022
8 Clouds 9 973 87 9000 6.17 260 19:58 01.10.2022
9 Clouds 10 972 76 10000 3.6 260 17:49 01.10.2022
10 Clouds 9 972 81 10000 3.6 260 16:29 01.10.2022
11 Rain 9 970 76 10000 9.26 320 14:19 01.10.2022
12 Rain 8 969 81 10000 11.32 320 12:57 01.10.2022
13 Clouds 8 969 81 10000 11.32 320 12:29 01.10.2022
14 Clouds 8 969 81 10000 10.8 330 11:19 01.10.2022
15 Clouds 8 969 81 10000 7.72 330 10:31 01.10.2022
16 Rain 8 969 81 10000 8.23 330 09:27 01.10.2022
17 Clouds 9 969 76 10000 9.77 340 08:41 01.10.2022
18 Clouds 9 968 76 10000 6.69 350 03:55 01.10.2022
19 Clouds 9 968 76 10000 6.69 350 03:28 01.10.2022
20 Clouds 9 969 76 10000 5.14 330 23:33 30.09.2022
21 Clouds 9 969 81 10000 6.17 340 22:19 30.09.2022
22 Clouds 10 969 76 10000 7.72 360 21:22 30.09.2022
23 Clouds 11 969 71 10000 4.63 360 20:43 30.09.2022
24 Clouds 12 969 71 10000 6.17 10 19:32 30.09.2022
25 Clouds 12 968 71 10000 4.12 340 17:27 30.09.2022
26 Clouds 10 969 81 10000 3.09 350 15:26 30.09.2022
27 Rain 10 968 76 10000 2.06 10 13:27 30.09.2022
28 Rain 10 968 76 10000 2.06 40 11:56 30.09.2022
29 Rain 9 968 81 10000 1.03 30 10:18 30.09.2022
30 Clouds 9 968 81 10000 2.57 60 08:22 30.09.2022
31 Rain 9 970 88 10000 3.6 60 04:55 30.09.2022
32 Rain 9 971 81 10000 4.12 70 02:27 30.09.2022
33 Clouds 9 975 87 10000 7.2 80 22:24 29.09.2022
34 Clouds 10 976 81 10000 8.23 80 21:26 29.09.2022
35 Drizzle 10 977 81 10000 9.77 90 20:31 29.09.2022
36 Drizzle 10 979 81 10000 8.23 90 18:32 29.09.2022
37 Drizzle 11 981 82 10000 8.23 100 17:22 29.09.2022
38 Clouds 11 983 82 10000 7.72 120 16:28 29.09.2022
39 Clouds 11 985 82 9000 7.72 120 15:35 29.09.2022
40 Clouds 11 987 82 8000 7.72 120 14:24 29.09.2022
41 Clouds 10 995 81 10000 6.17 120 09:45 29.09.2022
42 Clouds 9 999 87 10000 3.09 100 06:45 29.09.2022
43 Clouds 8 1003 81 10000 2.57 120 02:45 29.09.2022
44 Clouds 8 1005 87 10000 4.12 180 23:54 28.09.2022
45 Clouds 8 1005 87 10000 3.09 190 22:32 28.09.2022
46 Drizzle 9 1005 87 10000 4.12 170 21:29 28.09.2022
47 Clouds 9 1005 81 10000 4.12 200 20:22 28.09.2022
48 Clouds 10 1005 71 10000 3.6 190 18:20 28.09.2022
49 Clouds 9 1006 76 10000 4.12 90 14:51 28.09.2022
50 Clouds 8 1007 76 10000 4.12 100 12:49 28.09.2022
51 Clouds 7 1007 76 10000 3.6 80 10:51 28.09.2022
52 Clouds 7 1007 76 10000 4.12 80 08:26 28.09.2022
53 Clouds 7 1008 76 10000 3.09 70 06:50 28.09.2022
54 Clouds 7 1010 70 10000 1.54 210 01:56 28.09.2022
55 Clouds 7 1010 70 10000 1.54 210 01:31 28.09.2022
56 Clouds 7 1010 70 10000 1.54 210 01:31 28.09.2022
57 Clear 8 1010 57 10000 0.51 0 23:19 27.09.2022
58 Clear 9 1010 49 10000 1.54 340 21:42 27.09.2022
59 Clear 9 1010 53 10000 2.06 300 20:37 27.09.2022
60 Clear 9 1010 46 10000 1.54 290 19:47 27.09.2022
61 Clear 9 1011 46 10000 1.03 0 18:37 27.09.2022
62 Clear 8 1011 46 10000 1.03 0 17:44 27.09.2022
63 Clear 7 1011 42 10000 1.03 0 15:29 27.09.2022
64 Clear 7 1011 39 10000 0.51 0 14:55 27.09.2022
65 Clouds 5 1011 45 10000 1.03 110 12:42 27.09.2022
66 Clear 4 1011 48 10000 2.06 110 10:58 27.09.2022
67 Clear 4 1011 60 10000 1.54 180 08:49 27.09.2022
68 Clear 3 1011 60 10000 0.51 90 06:39 27.09.2022
69 Clear 4 1013 41 10000 1.03 0 01:57 27.09.2022
70 Clear 4 1013 41 10000 1.03 0 01:27 27.09.2022
71 Clear 4 1013 35 10000 4.12 110 23:26 26.09.2022
72 Clear 5 1014 45 10000 2.06 100 22:34 26.09.2022
73 Clear 7 1014 39 10000 6.17 10 20:45 26.09.2022
74 Clear 8 1014 34 10000 5.14 10 19:31 26.09.2022
75 Clear 9 1014 40 10000 4.12 350 18:32 26.09.2022
76 Clear 9 1015 43 10000 7.2 360 16:34 26.09.2022
77 Clear 7 1015 53 10000 2.06 0 14:28 26.09.2022
78 Clear 4 1014 75 10000 1.03 0 11:29 26.09.2022
79 Clear 3 1014 87 10000 0 0 10:38 26.09.2022
80 Clear 3 1014 87 10000 0 0 10:20 26.09.2022
81 Clear 3 1013 87 10000 1.03 0 09:54 26.09.2022
82 Clear 3 1013 87 10000 1.03 0 09:24 26.09.2022
83 Clouds 4 1012 81 10000 0.51 0 07:37 26.09.2022
84 Clouds 5 1011 81 10000 4.12 160 02:54 26.09.2022
85 Clouds 8 1010 66 10000 4.12 320 23:50 25.09.2022
86 Clouds 8 1009 66 10000 1.54 340 22:29 25.09.2022
87 Clouds 9 1008 61 10000 4.63 320 21:35 25.09.2022
88 Clouds 9 1007 61 10000 6.17 320 20:47 25.09.2022
89 Clouds 9 1006 61 10000 7.72 310 19:43 25.09.2022
90 Clouds 9 1005 53 10000 8.75 300 18:43 25.09.2022
91 Clouds 9 1005 53 10000 8.75 300 18:20 25.09.2022
92 Clouds 9 1002 49 10000 6.69 320 16:36 25.09.2022
93 Clouds 8 1000 53 10000 8.23 340 15:44 25.09.2022
94 Clouds 7 998 49 10000 11.32 360 14:22 25.09.2022
95 Clouds 8 992 66 10000 12.35 330 12:55 25.09.2022
96 Clouds 9 987 53 10000 16.46 290 10:32 25.09.2022
97 Clouds 9 985 66 6000 15.43 270 08:24 25.09.2022
98 Clouds 11 985 66 7000 16.46 240 05:47 25.09.2022
99 Clouds 12 991 87 5000 14.4 220 01:55 25.09.2022
100 Drizzle 13 996 88 6000 16.46 200 22:35 24.09.2022
101 Clouds 13 1002 82 9000 13.38 200 20:55 24.09.2022
102 Clouds 12 1004 87 10000 12.35 200 19:23 24.09.2022
103 Clouds 13 1008 82 10000 11.32 210 17:49 24.09.2022
104 Clouds 12 1010 87 9000 9.26 220 16:25 24.09.2022
105 Clouds 12 1011 87 10000 10.8 220 15:21 24.09.2022
106 Drizzle 11 1012 93 8000 8.75 220 13:27 24.09.2022
107 Drizzle 11 1012 93 10000 9.26 220 12:50 24.09.2022
108 Mist 11 1013 87 5000 7.72 210 11:21 24.09.2022
109 Drizzle 10 1014 93 2000 6.17 200 09:46 24.09.2022
110 Drizzle 10 1014 87 4300 5.14 200 08:45 24.09.2022
111 Drizzle 10 1015 93 4000 6.17 220 07:38 24.09.2022
112 Drizzle 9 1015 94 4100 5.14 210 04:46 24.09.2022
113 Drizzle 9 1016 87 8000 4.63 200 02:24 24.09.2022
114 Clouds 9 1015 81 10000 3.6 200 22:29 23.09.2022
115 Clouds 10 1015 76 10000 2.06 200 21:28 23.09.2022
116 Clouds 10 1015 76 10000 4.63 240 20:56 23.09.2022
117 Clouds 10 1015 76 10000 4.63 240 20:20 23.09.2022
118 Clouds 10 1014 76 10000 1.54 240 18:50 23.09.2022
119 Clouds 10 1013 71 10000 4.63 220 14:33 23.09.2022
120 Clouds 6 1012 87 10000 2.57 130 10:55 23.09.2022
121 Clouds 6 1012 93 10000 2.57 160 09:32 23.09.2022
122 Clouds 7 1010 76 10000 4.12 310 05:20 23.09.2022
123 Clouds 7 1008 81 10000 5.66 290 00:32 23.09.2022
124 Clouds 8 1008 81 10000 5.14 290 23:21 22.09.2022
125 Clouds 8 1007 81 10000 7.2 290 22:26 22.09.2022
126 Clouds 9 1005 87 10000 6.69 290 20:51 22.09.2022
127 Drizzle 10 1004 81 10000 4.12 240 19:37 22.09.2022
128 Clouds 10 1003 87 10000 5.66 270 16:57 22.09.2022
129 Clouds 9 1001 87 10000 3.6 290 12:46 22.09.2022
130 Clouds 10 1000 87 10000 3.6 300 10:32 22.09.2022
131 Clouds 9 999 81 10000 4.12 290 08:52 22.09.2022
132 Clouds 9 998 76 10000 4.12 280 06:57 22.09.2022
133 Clouds 9 997 93 10000 5.14 310 03:46 22.09.2022
134 Clouds 10 996 87 10000 0 0 23:31 21.09.2022
135 Clouds 10 995 93 10000 1.03 280 21:50 21.09.2022
136 Clouds 11 995 87 10000 1.54 310 20:18 21.09.2022
137 Clouds 12 995 82 10000 2.57 100 17:49 21.09.2022
138 Clouds 11 996 87 10000 3.09 110 16:51 21.09.2022
139 Clouds 10 996 87 10000 2.57 70 14:37 21.09.2022
140 Clouds 11 997 82 10000 3.09 120 12:54 21.09.2022
141 Clouds 10 997 87 10000 3.09 90 11:29 21.09.2022
142 Clouds 9 997 93 10000 4.12 90 10:29 21.09.2022
143 Clouds 9 997 81 10000 4.63 70 09:21 21.09.2022
144 Clouds 9 998 81 10000 3.09 90 07:41 21.09.2022
145 Clouds 8 1001 87 10000 2.57 120 02:48 21.09.2022
146 Clouds 8 1001 87 10000 2.57 120 02:28 21.09.2022
147 Clear 9 1001 87 10000 3.09 160 00:44 21.09.2022
148 Clouds 10 1002 87 10000 2.06 200 23:18 20.09.2022
149 Clouds 12 1001 82 10000 3.6 180 20:52 20.09.2022
150 Rain 12 1001 87 10000 6.17 190 19:37 20.09.2022
151 Rain 12 1003 82 10000 4.12 110 16:41 20.09.2022
152 Clouds 12 1004 82 10000 4.12 130 14:51 20.09.2022
153 Clouds 12 1004 76 10000 5.14 130 13:48 20.09.2022
154 Clouds 10 1005 87 10000 2.06 150 10:33 20.09.2022
155 Clouds 11 1005 87 10000 3.09 170 08:28 20.09.2022
156 Clouds 10 1005 93 10000 4.12 190 05:48 20.09.2022
157 Clouds 11 1005 87 10000 3.6 190 04:28 20.09.2022
158 Clouds 13 1004 82 10000 2.06 100 23:32 19.09.2022
159 Clouds 13 1004 82 10000 2.57 60 22:23 19.09.2022
160 Clouds 13 1004 82 10000 2.06 100 20:58 19.09.2022
161 Clouds 13 1004 82 10000 2.06 100 20:39 19.09.2022
162 Clouds 12 1005 87 6000 4.63 90 17:55 19.09.2022
163 Rain 12 1005 82 10000 3.6 80 15:53 19.09.2022
164 Clouds 11 1007 82 10000 5.66 100 13:39 19.09.2022
165 Clouds 11 1008 82 10000 6.17 100 11:30 19.09.2022
166 Clouds 10 1009 81 10000 7.72 90 09:20 19.09.2022
167 Clouds 10 1009 87 10000 6.69 80 08:19 19.09.2022
168 Clouds 9 1013 87 10000 9.26 110 02:31 19.09.2022
169 Clouds 9 1014 81 10000 9.77 110 23:24 18.09.2022
170 Clouds 10 1014 76 10000 9.26 110 21:47 18.09.2022
171 Clouds 10 1015 81 10000 7.2 110 20:34 18.09.2022
172 Clouds 10 1016 76 7500 11.32 120 18:41 18.09.2022
173 Rain 11 1016 71 6000 9.77 130 17:43 18.09.2022
174 Clouds 12 1017 66 9000 10.29 120 15:56 18.09.2022
175 Clouds 12 1017 66 10000 9.26 120 14:35 18.09.2022
176 Clouds 10 1018 76 10000 8.23 110 12:55 18.09.2022
177 Clouds 10 1017 76 10000 7.2 110 11:46 18.09.2022
178 Clouds 10 1018 71 10000 6.17 110 06:30 18.09.2022
179 Clouds 10 1019 66 10000 2.57 90 01:30 18.09.2022
180 Clouds 10 1020 66 10000 2.57 110 00:48 18.09.2022
181 Clouds 10 1020 71 10000 0 0 22:23 17.09.2022
182 Clouds 11 1020 62 10000 2.57 290 20:48 17.09.2022
183 Clouds 12 1020 62 10000 2.06 280 19:28 17.09.2022
184 Clouds 11 1020 66 10000 1.54 10 17:19 17.09.2022
185 Clouds 10 1021 71 10000 1.03 0 14:18 17.09.2022
186 Clouds 9 1021 87 10000 0 0 12:33 17.09.2022
187 Fog 7 1021 87 10000 1.03 0 10:47 17.09.2022
188 Clouds 8 1021 87 10000 1.54 160 06:29 17.09.2022
189 Clouds 8 1022 93 10000 2.06 170 03:34 17.09.2022
190 Clouds 9 1022 81 10000 1.54 210 23:23 16.09.2022
191 Clouds 10 1022 71 10000 2.57 260 21:46 16.09.2022
192 Clouds 10 1022 76 10000 2.57 230 20:41 16.09.2022
193 Drizzle 9 1022 87 10000 3.09 240 18:28 16.09.2022
194 Clouds 10 1023 71 10000 2.06 180 16:18 16.09.2022
195 Clouds 9 1023 71 10000 4.63 190 14:44 16.09.2022
196 Clouds 8 1023 76 10000 2.57 140 12:35 16.09.2022
197 Clouds 4 1024 81 10000 2.57 130 09:37 16.09.2022
198 Clear 3 1024 87 10000 1.54 140 07:22 16.09.2022
199 Clear 2 1024 93 10000 1.54 140 06:47 16.09.2022
200 Clear 3 1024 87 10000 1.03 150 05:43 16.09.2022
201 Clear 6 1024 81 10000 1.54 160 01:30 16.09.2022
202 Clear 9 1024 71 10000 0.51 0 21:31 15.09.2022
203 Clear 10 1024 62 10000 2.57 320 20:29 15.09.2022
204 Clear 11 1024 58 10000 4.63 320 18:57 15.09.2022
205 Clear 11 1023 58 10000 2.06 300 17:38 15.09.2022
206 Clear 11 1023 58 10000 2.06 300 17:20 15.09.2022
207 Clear 9 1023 71 10000 2.06 290 15:37 15.09.2022
208 Clear 9 1023 57 10000 1.1 65 12:49 15.09.2022
209 Clear 5 1021 93 10000 0.51 0 11:47 15.09.2022
210 Clear 2 1020 93 10000 1.54 130 09:43 15.09.2022
211 Clear 4 1018 93 10000 1.54 130 05:37 15.09.2022
212 Clear 6 1017 87 10000 0 0 02:58 15.09.2022
213 Clear 9 1016 71 10000 6.17 330 22:51 14.09.2022
214 -273 0 0 0 0 0 20:30 14.09.2022
215 Clear 10 1015 66 10000 5.66 320 19:32 14.09.2022
216 Clear 10 1015 68 10000 3.09 340 17:35 14.09.2022
217 Clear 9 1014 66 10000 3.6 300 16:36 14.09.2022
218 Clear 8 1014 71 10000 0.51 0 14:50 14.09.2022
219 Clear 6 1014 81 10000 1.03 0 12:34 14.09.2022
220 Clear 4 1014 87 10000 1.03 190 09:51 14.09.2022
221 Clear 3 1013 93 10000 1.54 170 08:21 14.09.2022
222 Clear 4 1013 87 10000 1.54 140 06:49 14.09.2022
223 Clear 4 1013 87 10000 1.54 140 06:25 14.09.2022
224 Clear 8 1012 71 10000 5.14 360 02:19 14.09.2022
225 Clear 9 1012 66 10000 4.12 360 01:32 14.09.2022
226 Clear 9 1011 66 10000 5.14 10 00:52 14.09.2022
227 Clear 10 1011 66 10000 5.14 360 23:54 13.09.2022
228 Clear 10 1011 66 10000 5.14 360 23:36 13.09.2022
229 Clear 10 1011 66 10000 5.14 360 23:18 13.09.2022
230 Clouds 9 1010 81 10000 3.09 340 22:22 13.09.2022
231 Clouds 9 1010 81 10000 3.09 340 22:22 13.09.2022
232 Clouds 9 1009 76 10000 4.63 320 20:45 13.09.2022
233 Clouds 9 1009 76 10000 3.6 290 18:43 13.09.2022
234 Clouds 9 1008 76 10000 3.09 270 16:19 13.09.2022
235 Clouds 9 1008 76 10000 3.6 260 15:18 13.09.2022
236 Clouds 10 1008 76 10000 2.57 250 13:31 13.09.2022
237 Clouds 10 1006 71 10000 2.57 280 09:58 13.09.2022
238 Clouds 10 1005 81 10000 2.57 220 07:47 13.09.2022
239 Drizzle 9 1005 87 9000 4.12 210 00:58 13.09.2022
240 Clouds 10 1005 81 9000 5.14 210 23:21 12.09.2022
241 Clouds 10 1005 81 9000 4.63 220 22:26 12.09.2022
242 Drizzle 10 1005 81 9000 4.63 210 20:54 12.09.2022
243 Drizzle 10 1005 87 9000 4.12 210 19:26 12.09.2022
244 Clouds 11 1006 76 10000 4.63 220 17:47 12.09.2022
245 Clouds 11 1007 82 10000 5.14 230 15:40 12.09.2022
246 Clear 9 1008 57 10000 3.09 130 12:26 12.09.2022
247 Clear 7 1009 87 10000 2.06 100 10:27 12.09.2022
248 Clear 7 1010 87 10000 2.06 190 07:21 12.09.2022
249 Clear 6 1012 87 10000 1.54 140 04:32 12.09.2022
250 Clear 9 1013 81 10000 6.69 350 00:42 12.09.2022
251 Clear 10 1013 76 10000 5.66 350 22:45 11.09.2022
252 Clear 11 1013 66 10000 8.23 360 21:25 11.09.2022
253 Clear 12 1012 66 10000 9.26 350 20:43 11.09.2022
254 Clear 12 1012 66 10000 8.75 350 19:27 11.09.2022
255 Clear 12 1012 66 10000 8.23 350 18:58 11.09.2022
256 Clear 11 1012 71 10000 5.14 350 17:26 11.09.2022
257 Clouds 10 1012 76 10000 10.8 350 15:46 11.09.2022
258 Clouds 11 1012 71 10000 3.6 30 13:22 11.09.2022
259 Clouds 9 1012 76 10000 6.69 340 11:25 11.09.2022
260 Clouds 10 1011 71 10000 5.14 20 08:19 11.09.2022
261 Clear 8 1011 87 10000 2.06 140 05:19 11.09.2022
262 Rain 12 1010 76 10000 1.03 0 23:51 10.09.2022
263 Clouds 12 1010 76 10000 6.69 360 22:22 10.09.2022
264 Clouds 14 1010 77 10000 4.12 10 20:33 10.09.2022
265 Rain 13 1010 82 10000 5.14 350 19:44 10.09.2022
266 Clouds 13 1010 82 10000 5.14 350 19:25 10.09.2022
267 Rain 15 1011 72 10000 2.06 360 17:49 10.09.2022
268 Clouds 15 1011 72 10000 2.57 60 15:35 10.09.2022
269 Clouds 14 1011 77 10000 3.09 90 13:41 10.09.2022
270 Clouds 14 1011 77 10000 2.06 90 12:30 10.09.2022
271 Clouds 14 1011 72 10000 4.12 80 10:31 10.09.2022
272 Clouds 14 1010 72 10000 3.09 30 08:42 10.09.2022
273 Clouds 14 1010 72 10000 3.09 30 08:20 10.09.2022
274 Clouds 14 1010 72 10000 3.09 30 08:20 10.09.2022
275 Clouds 14 1011 72 10000 2.57 60 04:30 10.09.2022
276 Drizzle 12 1011 87 10000 2.57 60 23:37 09.09.2022
277 Drizzle 13 1011 82 10000 6.17 90 22:36 09.09.2022
278 Rain 12 1011 87 10000 3.09 70 20:57 09.09.2022
279 Rain 12 1011 87 10000 3.09 70 20:19 09.09.2022
280 Rain 12 1011 87 10000 3.6 80 19:22 09.09.2022
281 Rain 11 1011 93 6000 1.03 0 17:29 09.09.2022
282 Rain 11 1011 87 8000 1.54 360 15:19 09.09.2022
283 Rain 11 1011 87 6000 1.54 50 13:33 09.09.2022
284 Clouds 10 1011 93 6000 2.06 160 11:27 09.09.2022
285 Clouds 12 1011 82 10000 3.6 90 07:57 09.09.2022
286 Clouds 12 1013 82 10000 6.69 130 03:37 09.09.2022
287 Clouds 11 1015 76 10000 6.17 140 00:21 09.09.2022
288 Clear 13 1015 71 10000 8.23 140 21:52 08.09.2022
289 Clear 14 1015 58 10000 6.69 140 20:49 08.09.2022
290 Clear 14 1015 58 10000 6.69 140 20:49 08.09.2022
291 Clear 14 1015 58 10000 6.69 140 20:27 08.09.2022
292 Clear 15 1015 44 10000 6.17 130 19:18 08.09.2022
293 Clear 17 1016 51 10000 6.69 140 17:29 08.09.2022
294 Clear 15 1016 67 10000 7.72 140 15:53 08.09.2022
295 Clear 15 1017 67 10000 2.57 100 13:30 08.09.2022
296 Clear 14 1017 77 10000 3.09 120 12:41 08.09.2022
297 Clouds 14 1017 72 10000 3.09 120 11:23 08.09.2022
298 Clouds 13 1017 76 10000 2.57 120 09:46 08.09.2022
299 Clouds 13 1017 71 10000 3.09 80 07:25 08.09.2022
300 Clouds 12 1018 81 10000 2.06 110 04:44 08.09.2022
301 Clouds 12 1019 82 10000 0.51 0 02:36 08.09.2022
302 Clouds 12 1019 82 10000 0.51 0 02:18 08.09.2022
303 Clear 12 1019 83 10000 2.06 270 22:58 07.09.2022
304 Clear 12 1018 82 10000 1.54 290 21:46 07.09.2022
305 Clear 12 1018 82 10000 1.54 290 21:21 07.09.2022
306 Clear 13 1018 71 10000 1.03 0 20:28 07.09.2022
307 Clear 13 1018 67 10000 2.57 290 18:54 07.09.2022
308 Clear 12 1018 76 10000 1.54 270 16:24 07.09.2022
309 Clear 6 1019 87 10000 2.06 150 10:52 07.09.2022
310 Clear 6 1019 87 10000 2.06 150 10:32 07.09.2022
311 Clear 6 1018 87 10000 0 0 08:26 07.09.2022
312 Clear 7 1019 87 10000 0 0 05:46 07.09.2022
313 Clear 10 1020 87 10000 3.09 180 00:31 07.09.2022
314 Clear 12 1021 76 10000 2.57 240 21:51 06.09.2022
315 Clear 12 1021 76 10000 2.57 240 21:51 06.09.2022
316 Clear 12 1021 76 10000 2.57 240 21:32 06.09.2022
317 Clear 12 1021 76 10000 2.57 250 19:38 06.09.2022
318 Clear 13 1021 71 10000 3.6 280 18:39 06.09.2022
319 Clear 12 1021 76 10000 3.09 290 17:39 06.09.2022
320 Clear 13 1022 76 10000 2.57 250 16:47 06.09.2022
321 Clear 12 1022 76 10000 2.57 280 15:58 06.09.2022
322 Clear 11 1022 82 10000 1.54 270 13:48 06.09.2022
323 Clear 11 1022 82 10000 1.54 270 13:27 06.09.2022
324 Clear 10 1023 81 10000 1.03 0 12:57 06.09.2022
325 Clear 7 1023 87 10000 0.51 170 10:55 06.09.2022
326 Clear 7 1023 87 10000 1.03 170 09:18 06.09.2022
327 Clear 7 1023 87 10000 1.03 0 07:53 06.09.2022
328 Clear 7 1023 87 10000 0 0 06:19 06.09.2022
329 Clear 11 1024 76 10000 1.03 0 00:54 06.09.2022
330 Clear 12 1025 66 10000 1.54 0 22:49 05.09.2022
331 Clear 13 1024 67 10000 0.51 0 21:38 05.09.2022
332 Clear 14 1024 58 10000 4.12 330 20:20 05.09.2022
333 Clear 14 1025 58 10000 3.6 330 18:53 05.09.2022
334 Clear 14 1025 58 10000 3.6 330 18:24 05.09.2022
335 Clear 14 1025 62 10000 3.6 360 17:50 05.09.2022
336 Clear 13 1026 67 10000 2.06 350 15:54 05.09.2022
337 Clear 13 1026 62 10000 2.06 340 14:40 05.09.2022
338 Clear 11 1027 82 10000 1.54 240 12:51 05.09.2022
339 Clear 9 1027 87 10000 0 0 10:37 05.09.2022
340 Clear 9 1026 81 10000 1.54 100 08:45 05.09.2022
341 Clouds 11 1026 82 10000 2.06 360 03:57 05.09.2022
342 Clouds 10 1026 71 10000 1.03 340 00:30 05.09.2022
343 Clouds 10 1025 81 10000 1.03 250 22:29 04.09.2022
344 Clouds 11 1025 82 10000 2.06 260 21:57 04.09.2022
345 Clouds 11 1024 82 10000 2.06 10 20:26 04.09.2022
346 Clouds 13 1024 76 10000 2.06 300 18:35 04.09.2022
347 Clouds 13 1024 76 10000 2.57 290 17:43 04.09.2022
348 Clouds 11 1024 82 10000 2.06 290 16:24 04.09.2022
349 Fog 10 1024 81 10000 2.57 20 14:25 04.09.2022
350 Fog 10 1024 81 10000 1.03 0 12:52 04.09.2022
351 Fog 9 1024 87 10000 1.03 0 11:28 04.09.2022
352 Clouds 9 1025 87 10000 0 0 09:38 04.09.2022
353 Mist 9 1025 87 9000 1.03 0 06:40 04.09.2022
354 Fog 8 1025 93 5000 0.51 0 03:18 04.09.2022
355 Mist 10 1027 87 9000 3.09 280 22:56 03.09.2022
356 Fog 10 1026 87 800 3.6 270 22:18 03.09.2022
357 Mist 10 1026 87 9000 2.06 250 21:22 03.09.2022
358 Clouds 13 1027 71 10000 2.06 290 18:49 03.09.2022
359 Clouds 14 1027 67 10000 1.54 250 17:22 03.09.2022
360 Clouds 14 1027 67 10000 1.54 250 17:22 03.09.2022
361 Clouds 13 1027 76 10000 2.06 260 15:54 03.09.2022
362 Clouds 13 1028 76 10000 2.57 300 14:42 03.09.2022
363 Clouds 12 1028 76 10000 1.54 270 13:50 03.09.2022
364 Clear 10 1028 81 10000 1.03 0 11:34 03.09.2022
365 Clear 6 1028 100 10000 1.03 0 09:37 03.09.2022
366 Clear 8 1028 87 10000 1.54 150 07:54 03.09.2022
367 Clear 9 1028 81 10000 0.51 0 04:56 03.09.2022
368 Clear 10 1027 81 10000 2.06 360 03:29 03.09.2022
369 Clear 13 1026 67 10000 5.66 10 23:49 02.09.2022
370 Clear 13 1025 67 10000 6.17 20 22:27 02.09.2022
371 Clouds 15 1023 58 10000 7.2 360 20:56 02.09.2022
372 Clouds 15 1023 58 10000 7.2 360 20:22 02.09.2022
373 Clouds 15 1021 58 10000 4.63 10 18:51 02.09.2022
374 Clouds 15 1021 58 10000 4.63 10 18:26 02.09.2022
375 Clouds 14 1021 58 10000 6.17 30 17:30 02.09.2022
376 Clouds 12 1020 66 10000 8.75 20 16:44 02.09.2022
377 Clouds 9 1018 76 10000 10.29 10 13:51 02.09.2022
378 Clouds 8 1017 76 10000 7.2 20 11:36 02.09.2022
379 Clouds 8 1017 76 10000 8.23 20 09:46 02.09.2022
380 Clouds 8 1017 81 10000 6.69 360 08:49 02.09.2022
381 Clear 6 1015 93 10000 1.03 0 06:50 02.09.2022
382 Clear 6 1015 93 10000 1.03 0 06:24 02.09.2022
383 Clouds 7 1015 93 10000 1.54 130 02:34 02.09.2022
384 Clouds 10 1013 76 10000 2.06 300 22:24 01.09.2022
385 Clouds 10 1013 76 10000 2.06 360 21:39 01.09.2022
386 Clouds 10 1013 76 10000 2.06 360 21:20 01.09.2022
387 Clouds 10 1013 76 10000 2.06 330 20:31 01.09.2022
388 Clouds 12 1012 58 10000 1.54 220 18:37 01.09.2022
389 Clouds 12 1012 58 10000 4.12 180 16:58 01.09.2022
390 Clouds 12 1012 58 10000 4.12 180 15:29 01.09.2022
391 Clouds 10 1013 66 10000 4.63 150 13:44 01.09.2022
392 Clouds 10 1013 76 10000 3.09 160 12:56 01.09.2022
393 Clouds 9 1013 76 10000 2.57 140 11:51 01.09.2022
394 Clouds 9 1013 76 10000 2.57 140 11:29 01.09.2022
395 Clouds 7 1012 81 10000 3.6 130 09:49 01.09.2022
396 Clouds 6 1012 87 10000 3.09 150 07:50 01.09.2022
397 Clouds 7 1013 87 10000 3.09 170 05:56 01.09.2022
398 Clouds 9 1012 87 10000 4.63 200 01:31 01.09.2022
399 Clouds 9 1011 87 8000 5.66 260 22:56 31.08.2022
400 Clouds 9 1008 87 10000 7.72 270 20:48 31.08.2022
401 Clouds 10 1006 87 8000 9.26 280 19:23 31.08.2022
402 Clouds 13 1006 88 8500 11.32 170 16:49 31.08.2022
403 Clouds 13 1007 88 7000 13.38 160 15:28 31.08.2022
404 Clouds 13 1009 82 10000 10.29 150 13:38 31.08.2022
405 Clouds 9 1012 87 6000 2.06 50 12:18 31.08.2022
406 Clouds 11 1016 87 10000 3.6 170 09:36 31.08.2022
407 Clouds 11 1016 87 10000 4.63 130 08:31 31.08.2022
408 Clouds 9 1019 87 10000 0 0 02:59 31.08.2022
409 Clouds 10 1018 87 10000 1.54 210 22:42 30.08.2022
410 Clouds 10 1017 93 10000 1.03 0 21:31 30.08.2022
411 Clouds 10 1017 87 9000 2.57 180 20:35 30.08.2022
412 Rain 13 1015 88 9000 10.29 140 17:24 30.08.2022
413 Clouds 13 1017 88 5000 12.35 120 14:19 30.08.2022
414 Drizzle 14 1018 82 9000 13.38 130 12:25 30.08.2022
415 Drizzle 13 1018 88 9000 13.38 140 11:20 30.08.2022
416 Drizzle 13 1018 82 8000 12.86 140 10:20 30.08.2022
417 Drizzle 13 1018 88 6000 11.32 130 06:49 30.08.2022
418 Clouds 13 1019 82 10000 8.75 110 01:26 30.08.2022
419 Clouds 15 1019 72 6000 10.29 120 22:44 29.08.2022
420 Sand 15 1019 72 8000 10.8 120 21:55 29.08.2022
421 Sand 15 1019 72 8000 10.8 120 21:23 29.08.2022
422 Sand 15 1019 72 8000 10.8 120 21:23 29.08.2022
423 Sand 16 1019 72 8000 11.32 120 19:41 29.08.2022
424 Sand 14 1020 77 5000 12.35 120 17:39 29.08.2022
425 Sand 14 1020 77 5000 12.35 120 17:18 29.08.2022
426 Sand 15 1020 67 5000 12.35 120 15:38 29.08.2022
427 Clouds 14 1020 62 10000 7.72 100 13:58 29.08.2022
428 Clouds 13 1020 74 10000 10.8 120 12:32 29.08.2022
429 Clouds 13 1020 67 10000 7.2 100 10:49 29.08.2022
430 Clouds 11 1020 71 10000 7.2 90 09:30 29.08.2022
431 Clouds 11 1021 71 10000 7.72 100 07:35 29.08.2022
432 Clouds 11 1022 76 10000 6.69 120 02:34 29.08.2022
433 Clouds 12 1023 71 10000 5.14 120 23:37 28.08.2022
434 Clouds 12 1023 66 10000 5.66 150 21:57 28.08.2022
435 Clouds 12 1023 66 10000 5.66 150 21:31 28.08.2022
436 Clouds 13 1023 62 10000 7.2 130 20:24 28.08.2022
437 Clouds 13 1023 62 10000 8.23 140 18:38 28.08.2022
438 Clouds 13 1023 62 10000 8.23 140 18:18 28.08.2022
439 Clouds 13 1023 62 10000 6.69 140 16:55 28.08.2022
440 Clouds 13 1023 62 10000 8.75 150 15:42 28.08.2022
441 Clouds 12 1023 66 10000 7.2 140 13:34 28.08.2022
442 Clouds 12 1023 62 10000 7.2 130 12:20 28.08.2022
443 Clouds 11 1023 66 10000 6.17 120 10:27 28.08.2022
444 Clouds 10 1022 71 10000 5.66 110 09:38 28.08.2022
445 Clouds 10 1022 76 10000 4.12 120 08:31 28.08.2022
446 Clouds 11 1022 71 10000 5.14 120 07:34 28.08.2022
447 Clear 11 1022 71 10000 4.12 120 01:28 28.08.2022
448 Clear 11 1022 66 10000 3.6 120 00:20 28.08.2022
449 Clear 12 1021 66 10000 3.6 170 22:27 27.08.2022
450 Clear 15 1020 51 10000 5.14 160 20:53 27.08.2022
451 Clear 15 1020 51 10000 5.14 190 19:38 27.08.2022
452 Clear 16 1020 27 10000 4.12 140 16:37 27.08.2022
453 Clear 16 1020 29 10000 3.6 120 15:31 27.08.2022
454 Clear 15 1019 31 10000 3.6 100 14:18 27.08.2022
455 Clear 12 1020 43 10000 3.6 30 12:22 27.08.2022
456 Clear 8 1019 57 10000 2.06 80 10:33 27.08.2022
457 Clear 5 1019 60 10000 2.06 110 09:40 27.08.2022
458 Clear 5 1019 65 10000 0.51 0 06:55 27.08.2022
459 Clear 6 1018 61 10000 1.54 220 02:31 27.08.2022
460 Clear 11 1017 43 10000 6.69 10 23:51 26.08.2022
461 Clear 11 1016 46 10000 8.23 360 22:24 26.08.2022
462 Clear 13 1015 38 10000 7.72 360 20:25 26.08.2022
463 Clear 14 1015 33 10000 8.75 20 18:59 26.08.2022
464 Clear 13 1014 35 10000 9.77 20 16:46 26.08.2022
465 Clear 13 1014 44 10000 9.26 10 15:27 26.08.2022
466 Clear 12 1013 37 10000 9.26 10 13:44 26.08.2022
467 Clear 11 1013 40 10000 11.32 10 12:35 26.08.2022
468 Clear 10 1012 43 10000 11.83 20 11:22 26.08.2022
469 Clear 9 1012 57 10000 7.72 350 10:25 26.08.2022
470 Clear 7 1011 70 10000 3.6 10 06:50 26.08.2022
471 Clouds 8 1010 71 10000 3.92 18 01:22 26.08.2022
472 Clouds 11 1009 62 10000 4.12 10 23:29 25.08.2022
473 Clouds 12 1009 62 10000 5.14 360 21:26 25.08.2022
474 Clouds 12 1008 71 10000 5.66 330 20:21 25.08.2022
475 Clouds 12 1008 66 10000 7.2 360 18:49 25.08.2022
476 Clouds 13 1008 62 10000 7.2 360 17:32 25.08.2022
477 Clouds 12 1008 66 10000 6.17 320 16:50 25.08.2022
478 Clouds 12 1008 66 10000 6.17 320 16:50 25.08.2022
479 Clouds 12 1008 66 10000 6.17 350 15:39 25.08.2022
480 Clouds 12 1007 71 10000 6.69 350 14:31 25.08.2022
481 Clouds 11 1007 71 10000 6.69 360 11:52 25.08.2022
482 Clouds 10 1007 76 10000 6.17 350 10:46 25.08.2022
483 Clouds 8 1007 87 10000 0.51 0 08:52 25.08.2022
484 Clear 9 1007 81 10000 1.03 0 05:19 25.08.2022
485 Clear 11 1007 87 10000 1.54 260 00:59 25.08.2022
486 Clouds 12 1007 82 10000 2.57 200 23:26 24.08.2022
487 Clouds 11 1008 87 10000 1.54 220 22:22 24.08.2022
488 Clouds 12 1007 82 10000 2.06 270 21:34 24.08.2022
489 Clouds 12 1007 76 10000 2.57 260 20:32 24.08.2022
490 Clouds 13 1007 71 10000 2.57 280 18:46 24.08.2022
491 Clouds 14 1007 67 10000 2.57 240 16:36 24.08.2022
492 Clear 14 1007 58 10000 2.57 350 15:52 24.08.2022
493 Clear 10 1007 76 10000 0.51 0 13:33 24.08.2022
494 Clouds 8 1007 87 10000 1.03 0 11:24 24.08.2022
495 Clear 5 1006 87 10000 1.54 180 09:33 24.08.2022
496 Clouds 5 1006 87 10000 1.54 210 07:47 24.08.2022
497 Clear 9 1008 76 10000 5.66 360 02:29 24.08.2022
498 Clear 11 1008 71 10000 7.2 20 23:26 23.08.2022
499 Clear 12 1008 66 10000 7.2 10 22:30 23.08.2022
500 Clouds 13 1008 67 10000 7.72 10 21:29 23.08.2022
501 Clouds 14 1008 58 10000 6.69 10 20:20 23.08.2022
502 Clouds 15 1008 55 10000 7.2 20 18:44 23.08.2022
503 Clouds 15 1009 55 10000 7.2 10 17:48 23.08.2022
504 Clouds 15 1009 55 10000 4.63 360 16:53 23.08.2022
505 Clouds 14 1009 67 10000 3.09 360 15:37 23.08.2022
506 Clear 13 1010 67 10000 0 0 13:26 23.08.2022
507 Clear 13 1010 67 10000 0 0 13:26 23.08.2022
508 Clear 9 1010 87 10000 3.09 210 11:31 23.08.2022
509 Clear 8 1010 93 10000 2.06 190 10:36 23.08.2022
510 Clear 7 1010 93 10000 1.54 170 09:54 23.08.2022
511 Clear 8 1010 87 10000 1.03 310 08:51 23.08.2022
512 Clear 8 1010 87 10000 1.03 310 08:20 23.08.2022
513 Clear 8 1010 87 10000 1.03 310 08:20 23.08.2022
514 Clear 8 1010 93 10000 1.54 120 07:34 23.08.2022
515 Clear 8 1010 93 10000 2.06 130 06:28 23.08.2022
516 Clear 9 1010 90 10000 1.03 0 04:38 23.08.2022
517 Clouds 11 1009 87 10000 1.03 0 00:28 23.08.2022
518 Clouds 11 1008 87 10000 2.06 60 23:37 22.08.2022
519 Rain 11 1008 82 10000 2.57 50 22:44 22.08.2022
520 Clouds 12 1007 66 10000 1.03 0 21:29 22.08.2022
521 Clouds 12 1007 66 10000 3.09 350 19:48 22.08.2022
522 Clouds 13 1007 62 10000 2.57 130 18:50 22.08.2022
523 Clouds 10 1008 78 10000 1.83 104 17:22 22.08.2022
524 Clouds 13 1006 62 10000 3.09 110 15:39 22.08.2022
525 Clouds 13 1006 58 10000 3.09 120 14:31 22.08.2022
526 Clouds 10 1005 76 10000 3.09 80 10:43 22.08.2022
527 Clouds 9 1005 81 10000 4.63 90 07:59 22.08.2022
528 Clear 10 1005 71 10000 4.12 80 04:25 22.08.2022
529 Clear 11 1005 62 10000 2.06 20 00:49 22.08.2022
530 Clear 11 1005 62 10000 2.06 20 00:26 22.08.2022
531 Clear 12 1005 54 10000 4.12 10 22:53 21.08.2022
532 Clear 13 1005 50 10000 4.12 360 21:28 21.08.2022
533 Clear 13 1005 50 10000 4.12 360 20:56 21.08.2022
534 Clear 13 1005 47 10000 4.12 360 19:26 21.08.2022
535 Clear 12 1006 59 10000 5.14 360 17:39 21.08.2022
536 Clear 10 1007 57 10000 3.6 350 15:58 21.08.2022
537 Clear 10 1007 57 10000 3.6 350 15:22 21.08.2022
538 Clear 9 1007 66 10000 2.06 290 13:53 21.08.2022
539 Clear 9 1007 66 10000 2.06 290 13:30 21.08.2022
540 Clear 8 1007 66 10000 0.51 0 11:54 21.08.2022
541 Clear 5 1008 75 10000 3.6 100 09:31 21.08.2022
542 Clear 4 1008 81 10000 2.06 90 08:56 21.08.2022
543 Clear 4 1008 81 10000 2.06 90 08:38 21.08.2022
544 Clear 5 1007 81 10000 2.57 120 07:27 21.08.2022
545 Clear 7 1007 76 10000 7.2 10 03:41 21.08.2022
546 Clouds 8 1006 71 10000 10.8 360 00:24 21.08.2022
547 Clouds 9 1006 66 10000 12.35 10 22:41 20.08.2022
548 Clouds 10 1006 62 10000 10.8 10 21:38 20.08.2022
549 Clouds 10 1005 62 10000 11.83 10 20:41 20.08.2022
550 Clouds 10 1005 66 10000 12.86 360 19:41 20.08.2022
551 Clouds 10 1004 66 10000 11.32 360 18:31 20.08.2022
552 Clouds 11 1004 62 10000 9.26 10 17:51 20.08.2022
553 Clouds 11 1004 62 10000 9.26 10 17:18 20.08.2022
554 Clouds 10 1003 66 10000 6.69 320 15:37 20.08.2022
555 Clouds 9 1002 66 10000 9.26 10 13:27 20.08.2022
556 Clouds 9 1000 66 10000 9.77 10 11:52 20.08.2022
557 Clouds 8 999 76 10000 7.72 360 09:43 20.08.2022
558 Clouds 9 998 71 10000 11.32 360 08:50 20.08.2022
559 Clouds 10 995 76 10000 7.2 350 05:57 20.08.2022
560 Clouds 11 991 71 10000 7.72 20 01:46 20.08.2022
561 Clouds 10 991 81 10000 7.72 10 00:35 20.08.2022
562 Clouds 10 989 81 10000 10.29 10 23:19 19.08.2022
563 Clouds 11 989 76 10000 9.77 10 22:33 19.08.2022
564 Clouds 11 988 82 10000 6.69 20 20:28 19.08.2022
565 Rain 11 987 87 10000 5.66 350 18:28 19.08.2022
566 Clouds 13 986 67 10000 1.03 0 15:21 19.08.2022
567 Clouds 10 986 76 10000 3.6 350 13:26 19.08.2022
568 Clouds 9 986 87 10000 2.57 360 10:55 19.08.2022
569 Clouds 9 986 87 10000 2.57 360 10:26 19.08.2022
570 Clouds 10 986 76 10000 3.09 330 06:58 19.08.2022
571 Clouds 11 987 76 10000 4.63 10 00:58 19.08.2022
572 Clouds 11 987 76 10000 4.63 10 00:30 19.08.2022
573 Rain 11 987 76 10000 1.54 10 23:44 18.08.2022
574 Clouds 12 987 76 10000 5.14 350 22:50 18.08.2022
575 Rain 12 986 71 10000 6.17 330 21:57 18.08.2022
576 Clouds 12 986 71 10000 6.17 330 21:34 18.08.2022
577 Clouds 13 986 71 10000 6.69 330 20:25 18.08.2022
578 Clouds 12 987 76 10000 6.17 320 19:30 18.08.2022
579 Clouds 13 987 67 10000 4.63 320 17:50 18.08.2022
580 Clouds 13 988 62 10000 2.57 350 16:59 18.08.2022
581 Clouds 13 988 62 10000 2.06 10 14:52 18.08.2022
582 Clouds 13 988 62 10000 2.06 10 14:19 18.08.2022
583 Clouds 12 989 62 10000 2.57 350 13:29 18.08.2022
584 Clouds 11 989 71 10000 2.06 10 11:42 18.08.2022
585 Clouds 8 990 87 10000 2.06 20 09:43 18.08.2022
586 Clouds 8 990 81 10000 2.06 70 08:42 18.08.2022
587 Clouds 8 990 87 10000 3.09 80 07:19 18.08.2022
588 Clouds 9 991 87 10000 2.06 110 04:37 18.08.2022
589 Clouds 10 993 81 10000 3.6 100 23:35 17.08.2022
590 Clouds 10 993 81 10000 4.63 170 21:53 17.08.2022
591 Rain 12 993 76 10000 6.69 150 20:20 17.08.2022
592 Clouds 11 993 82 10000 5.14 150 19:29 17.08.2022
593 Rain 11 993 87 3500 11.32 110 17:37 17.08.2022
594 Mist 9 993 87 2500 11.32 90 16:39 17.08.2022
595 Rain 10 993 81 10000 10.29 90 15:28 17.08.2022
596 Clouds 10 996 81 10000 13.38 110 13:30 17.08.2022
597 Clouds 10 999 87 10000 11.32 100 11:39 17.08.2022
598 Clouds 10 1001 76 5000 10.29 100 09:59 17.08.2022
599 Clouds 9 1003 81 6000 10.8 100 08:24 17.08.2022
600 Clouds 11 1010 82 10000 4.12 110 03:39 17.08.2022
601 Clouds 11 1013 76 10000 5.66 120 00:24 17.08.2022
602 Clouds 11 1014 71 10000 4.12 120 22:42 16.08.2022
603 Clouds 13 1014 47 10000 4.12 150 20:59 16.08.2022
604 Clouds 13 1015 50 10000 2.06 0 19:54 16.08.2022
605 Clouds 13 1015 50 10000 2.06 0 19:19 16.08.2022
606 Clouds 13 1015 50 10000 2.06 320 17:54 16.08.2022
607 Clouds 12 1016 58 10000 2.57 330 16:18 16.08.2022
608 Clouds 12 1016 62 10000 2.57 290 15:39 16.08.2022
609 Clouds 11 1017 66 10000 2.57 290 14:43 16.08.2022
610 Clouds 11 1017 66 10000 2.57 290 14:25 16.08.2022
611 Clear 10 1016 71 10000 1.03 0 11:39 16.08.2022
612 Clear 6 1016 81 10000 2.06 140 09:58 16.08.2022
613 Clouds 5 1016 87 10000 2.06 150 08:48 16.08.2022
614 Clouds 5 1016 87 10000 2.06 150 08:19 16.08.2022
615 Clear 5 1016 87 10000 2.06 150 05:28 16.08.2022
616 Clouds 10 1015 66 10000 4.12 310 23:18 15.08.2022
617 Clouds 10 1015 66 10000 5.66 310 22:18 15.08.2022
618 Clouds 11 1015 62 10000 6.69 300 21:41 15.08.2022
619 Clouds 11 1014 62 10000 6.69 300 20:30 15.08.2022
620 Clouds 11 1014 62 10000 6.69 300 18:56 15.08.2022
621 Clouds 10 1014 62 10000 5.66 330 17:59 15.08.2022
622 Clouds 10 1014 62 10000 6.17 320 16:24 15.08.2022
623 Clouds 10 1014 57 10000 5.66 350 14:49 15.08.2022
624 Clouds 9 1014 57 10000 5.14 340 13:23 15.08.2022
625 Clouds 8 1013 66 10000 5.66 10 10:37 15.08.2022
626 Clouds 7 1013 70 10000 4.63 360 08:54 15.08.2022
627 Clouds 7 1013 70 10000 4.12 360 06:49 15.08.2022
628 Clear 8 1012 66 10000 5.66 350 03:56 15.08.2022
629 Clear 10 1011 62 10000 5.14 360 23:38 14.08.2022
630 Clear 10 1011 62 10000 5.14 360 23:38 14.08.2022
631 Clouds 12 1010 54 10000 6.17 360 21:49 14.08.2022
632 Clouds 13 1009 54 10000 6.69 360 20:54 14.08.2022
633 Clouds 13 1009 54 10000 6.17 360 19:45 14.08.2022
634 Clouds 13 1009 58 10000 5.66 330 18:32 14.08.2022
635 Clouds 13 1008 58 10000 6.69 330 17:41 14.08.2022
636 Clouds 13 1008 62 10000 6.17 310 16:26 14.08.2022
637 Clouds 13 1008 54 10000 4.63 360 15:44 14.08.2022
638 Clouds 11 1008 71 10000 5.14 330 13:52 14.08.2022
639 Clouds 11 1008 71 10000 5.14 330 13:34 14.08.2022
640 Clouds 11 1008 71 10000 4.12 320 12:54 14.08.2022
641 Clouds 10 1008 76 10000 3.09 340 11:31 14.08.2022
642 Clouds 9 1007 87 10000 0 0 10:18 14.08.2022
643 Clouds 7 1007 87 10000 1.54 160 08:20 14.08.2022
644 Clouds 9 1007 81 10000 0 0 06:18 14.08.2022
645 Clouds 11 1008 66 10000 1.54 80 01:48 14.08.2022
646 Clouds 11 1009 62 10000 2.57 130 23:23 13.08.2022
647 Clouds 11 1009 66 10000 3.09 140 22:28 13.08.2022
648 Clouds 12 1010 62 10000 5.14 160 20:58 13.08.2022
649 Clouds 12 1010 58 10000 3.6 160 19:50 13.08.2022
650 Clouds 12 1010 58 10000 3.6 160 19:19 13.08.2022
651 Clouds 12 1011 58 10000 3.09 180 17:22 13.08.2022
652 Clouds 12 1012 58 10000 3.09 180 15:18 13.08.2022
653 Clouds 10 1013 62 10000 2.06 230 14:24 13.08.2022
654 Clouds 10 1013 66 10000 1.54 200 13:37 13.08.2022
655 Clouds 10 1013 66 10000 2.57 180 11:49 13.08.2022
656 Clouds 9 1013 71 10000 1.54 150 09:43 13.08.2022
657 Clouds 9 1013 71 10000 3.09 150 07:50 13.08.2022
658 Clouds 9 1014 76 10000 1.54 280 02:33 13.08.2022
659 Clouds 10 1013 76 10000 3.6 300 23:45 12.08.2022
660 Clouds 11 1012 71 10000 4.63 270 21:40 12.08.2022
661 Clouds 12 1012 66 10000 4.63 270 19:51 12.08.2022
662 Clouds 12 1012 66 10000 4.63 270 19:26 12.08.2022
663 Clouds 12 1011 71 10000 5.14 260 18:34 12.08.2022
664 Clouds 12 1011 62 10000 3.09 250 16:28 12.08.2022
665 Clouds 12 1010 66 10000 4.12 250 15:23 12.08.2022
666 Clouds 11 1010 76 10000 4.63 250 14:27 12.08.2022
667 Clouds 10 1009 87 10000 4.63 280 12:51 12.08.2022
668 Clouds 10 1008 87 10000 3.09 210 09:50 12.08.2022
669 Clouds 10 1007 93 10000 4.12 220 07:47 12.08.2022
670 Clouds 10 1007 93 10000 5.66 210 06:28 12.08.2022
671 Clouds 10 1007 81 10000 4.12 100 01:45 12.08.2022
672 Clouds 10 1007 81 10000 4.12 90 00:20 12.08.2022
673 Clouds 10 1008 76 10000 4.12 120 23:34 11.08.2022
674 Rain 11 1008 71 10000 3.09 140 21:58 11.08.2022
675 Clouds 11 1008 71 10000 3.09 140 21:35 11.08.2022
676 Drizzle 10 1009 76 10000 4.63 160 20:32 11.08.2022
677 Clouds 10 1009 76 10000 6.69 190 19:53 11.08.2022
678 Clouds 10 1009 76 10000 6.69 190 19:30 11.08.2022
679 Clouds 11 1009 76 10000 4.12 190 17:34 11.08.2022
680 Clouds 11 1009 66 10000 5.14 200 16:32 11.08.2022
681 Clouds 11 1009 71 10000 5.66 210 15:20 11.08.2022
682 Clouds 11 1008 76 10000 3.6 210 12:39 11.08.2022
683 Clouds 10 1008 81 10000 3.6 180 09:29 11.08.2022
684 Clouds 9 1008 87 10000 3.6 200 06:59 11.08.2022
685 Clouds 9 1007 87 10000 3.6 200 03:45 11.08.2022
686 Clouds 10 1007 81 10000 5.14 200 00:35 11.08.2022
687 Clouds 10 1006 87 10000 5.66 230 22:21 10.08.2022
688 Clouds 10 1006 81 10000 3.6 230 21:20 10.08.2022
689 Clouds 10 1005 81 10000 2.57 270 20:47 10.08.2022
690 Clouds 11 1004 76 10000 4.12 230 18:55 10.08.2022
691 Drizzle 10 1004 81 10000 5.14 250 17:37 10.08.2022
692 Drizzle 10 1004 81 10000 5.14 250 16:33 10.08.2022
693 Clouds 9 1001 81 10000 5.14 270 13:35 10.08.2022
694 Drizzle 9 1001 81 10000 6.69 260 12:27 10.08.2022
695 Clouds 9 999 81 10000 6.69 260 09:24 10.08.2022
696 Clouds 9 998 87 10000 7.2 250 08:32 10.08.2022
697 Clouds 9 997 92 10000 9.94 270 06:23 10.08.2022
698 Drizzle 10 994 87 8000 9.77 260 03:24 10.08.2022
699 Clouds 11 990 93 7000 9.26 190 23:34 09.08.2022
700 Clouds 11 990 93 3000 7.72 190 22:56 09.08.2022
701 Drizzle 12 990 87 2400 8.23 190 21:35 09.08.2022
702 Clouds 12 990 87 10000 7.2 200 20:26 09.08.2022
703 Clouds 13 991 82 10000 7.2 170 18:42 09.08.2022
704 Clouds 12 991 89 10000 7.2 180 17:28 09.08.2022
705 Clouds 12 991 89 10000 7.2 180 17:28 09.08.2022
706 Drizzle 12 991 87 10000 6.17 180 16:40 09.08.2022
707 Drizzle 12 991 87 10000 6.69 190 15:58 09.08.2022
708 Clouds 13 990 88 10000 6.17 190 12:51 09.08.2022
709 Clouds 12 991 87 9000 5.14 120 09:36 09.08.2022
710 Clouds 12 992 87 9000 6.17 120 08:50 09.08.2022
711 Clouds 12 992 82 10000 9.77 120 07:52 09.08.2022
712 Clouds 11 997 87 10000 5.14 170 04:22 09.08.2022
713 Drizzle 12 999 87 8000 6.69 180 23:27 08.08.2022
714 Clouds 12 999 87 7000 6.69 190 22:54 08.08.2022
715 Drizzle 12 999 87 5000 7.72 180 21:58 08.08.2022
716 Drizzle 12 999 87 5000 7.72 180 21:18 08.08.2022
717 Clouds 12 999 87 4000 10.29 180 19:51 08.08.2022
718 Clouds 12 1000 87 4000 9.77 180 18:45 08.08.2022
719 Clouds 12 1000 82 7000 8.75 170 16:44 08.08.2022
720 Rain 11 1001 82 8000 7.72 160 15:40 08.08.2022
721 Clouds 11 1002 76 10000 8.75 170 13:55 08.08.2022
722 Clouds 11 1002 76 10000 8.75 170 12:19 08.08.2022
723 Rain 10 1002 81 10000 6.69 170 09:48 08.08.2022
724 Clouds 9 1001 87 10000 6.17 170 06:51 08.08.2022
725 Clouds 11 1001 76 10000 6.69 190 02:56 08.08.2022
726 Clouds 11 1000 82 10000 5.14 200 22:42 07.08.2022
727 Clouds 11 1000 76 10000 4.63 220 21:40 07.08.2022
728 Clouds 11 999 82 10000 6.17 240 20:26 07.08.2022
729 Clouds 11 999 82 10000 7.2 240 19:57 07.08.2022
730 Clouds 11 999 82 10000 7.2 240 19:39 07.08.2022
731 Clouds 10 999 93 10000 7.2 230 18:35 07.08.2022
732 Clouds 12 998 87 3500 5.66 220 16:54 07.08.2022
733 Clouds 13 998 82 10000 7.72 150 16:35 07.08.2022
734 Rain 13 998 76 10000 10.29 130 15:23 07.08.2022
735 Clouds 12 999 76 10000 8.23 110 13:34 07.08.2022
736 Rain 11 1002 82 10000 7.72 100 11:58 07.08.2022
737 Clouds 11 1003 82 10000 5.14 110 10:34 07.08.2022
738 Clouds 10 1005 81 10000 3.09 120 07:38 07.08.2022
739 Clouds 10 1008 87 10000 2.57 180 03:32 07.08.2022
740 Drizzle 10 1009 93 4500 5.14 230 01:45 07.08.2022
741 Drizzle 11 1008 93 1000 3.09 240 22:25 06.08.2022
742 Drizzle 12 1008 87 10000 3.6 250 21:18 06.08.2022
743 Clouds 12 1007 87 10000 3.6 260 19:41 06.08.2022
744 Clouds 13 1007 82 10000 3.09 280 18:33 06.08.2022
745 Clouds 13 1006 82 10000 2.57 290 17:37 06.08.2022
746 Clouds 13 1006 76 10000 1.03 0 14:52 06.08.2022
747 Clouds 12 1006 87 10000 2.06 260 13:49 06.08.2022
748 Clouds 12 1005 87 10000 2.06 280 12:19 06.08.2022
749 Clouds 12 1004 87 10000 1.03 210 10:33 06.08.2022
750 Clouds 11 1004 87 10000 2.06 230 09:21 06.08.2022
751 Drizzle 12 1004 82 10000 6.17 90 03:55 06.08.2022
752 Drizzle 12 1007 82 10000 4.63 110 23:56 05.08.2022
753 Clouds 13 1008 71 10000 7.2 130 22:33 05.08.2022
754 Clouds 13 1009 71 10000 8.23 150 20:30 05.08.2022
755 Clouds 12 1010 82 10000 6.69 150 18:53 05.08.2022
756 Clouds 12 1010 82 10000 6.69 150 18:35 05.08.2022
757 Clouds 12 1012 76 10000 5.14 150 16:51 05.08.2022
758 Clouds 12 1012 71 10000 4.12 180 15:23 05.08.2022
759 Rain 13 1013 58 10000 4.12 180 14:34 05.08.2022
760 Rain 13 1013 58 10000 4.12 180 14:34 05.08.2022
761 Clear 12 1013 62 10000 3.09 220 13:26 05.08.2022
762 Clouds 12 1014 66 10000 2.06 160 12:59 05.08.2022
763 Clouds 10 1014 81 10000 2.57 120 11:20 05.08.2022
764 Clouds 7 1015 87 10000 2.06 150 08:46 05.08.2022
765 Clouds 7 1016 87 10000 2.06 130 07:34 05.08.2022
766 Clear 10 1017 81 10000 3.6 300 02:33 05.08.2022
767 Clear 12 1017 66 10000 4.63 320 23:18 04.08.2022
768 Clouds 12 1018 71 10000 6.17 290 21:28 04.08.2022
769 Clear 12 1018 66 10000 6.69 300 20:57 04.08.2022
770 Clear 12 1018 66 10000 6.69 300 20:36 04.08.2022
771 Clouds 12 1018 66 10000 6.69 300 18:59 04.08.2022
772 Clouds 12 1018 66 10000 6.69 300 18:34 04.08.2022
773 Clouds 11 1018 62 10000 6.17 320 15:53 04.08.2022
774 Clouds 10 1018 62 10000 6.69 350 13:26 04.08.2022
775 Clouds 10 1018 62 10000 6.69 350 13:26 04.08.2022
776 Clouds 9 1017 66 10000 5.66 360 11:40 04.08.2022
777 Clouds 8 1017 71 10000 6.69 360 10:22 04.08.2022
778 Clouds 8 1017 71 10000 6.69 360 10:22 04.08.2022
779 Clouds 8 1016 71 10000 5.66 10 07:47 04.08.2022
780 Clouds 8 1014 71 10000 6.69 10 02:50 04.08.2022
781 Clouds 9 1014 66 10000 4.63 10 00:52 04.08.2022
782 Clouds 10 1013 66 10000 6.69 10 23:41 03.08.2022
783 Clouds 11 1012 62 10000 4.12 360 21:34 03.08.2022
784 Clouds 10 1012 76 10000 4.63 340 20:21 03.08.2022
785 Clouds 11 1012 62 10000 4.63 360 19:27 03.08.2022
786 Clouds 10 1011 68 10000 6.69 10 16:53 03.08.2022
787 Clouds 10 1011 66 10000 6.69 10 16:23 03.08.2022
788 Clouds 10 1010 62 10000 6.17 340 14:23 03.08.2022
789 Clouds 10 1009 62 10000 6.69 350 11:46 03.08.2022
790 Clouds 8 1008 71 10000 5.66 340 07:45 03.08.2022
791 Clouds 9 1007 77 10000 5.14 360 04:22 03.08.2022
792 Clouds 9 1007 71 10000 6.69 10 03:26 03.08.2022
793 Clouds 9 1005 71 10000 6.17 360 00:58 03.08.2022
794 Clouds 11 1005 66 10000 6.17 10 22:53 02.08.2022
795 Clouds 11 1004 62 10000 9.26 360 21:53 02.08.2022
796 Clouds 11 1004 62 10000 9.26 360 20:37 02.08.2022
797 Clouds 12 1004 58 10000 7.72 360 18:42 02.08.2022
798 Clouds 12 1004 66 10000 9.77 10 16:21 02.08.2022
799 Clouds 10 1002 62 10000 7.72 20 11:45 02.08.2022
800 Clouds 9 1002 66 10000 8.75 20 09:18 02.08.2022
801 Clouds 8 1001 71 10000 10.29 10 07:53 02.08.2022
802 Clouds 8 1002 71 10000 10.29 10 06:43 02.08.2022
803 Clouds 8 1002 77 10000 5.14 350 04:55 02.08.2022
804 Clouds 10 1003 66 10000 7.72 10 23:51 01.08.2022
805 Clouds 11 1004 62 10000 7.72 10 22:25 01.08.2022
806 Clouds 12 1004 58 10000 7.72 340 20:53 01.08.2022
807 Clouds 11 1005 66 10000 7.72 330 19:32 01.08.2022
808 Clouds 12 1005 54 10000 10.29 340 18:42 01.08.2022
809 Clouds 11 1006 62 10000 8.75 340 16:54 01.08.2022
810 Clouds 11 1006 62 10000 8.75 340 16:28 01.08.2022
811 Clouds 11 1007 66 10000 7.72 340 15:30 01.08.2022
812 Clouds 11 1007 62 10000 6.69 340 14:43 01.08.2022
813 Clouds 11 1008 66 10000 7.2 340 12:47 01.08.2022
814 Clouds 9 1008 71 10000 5.66 340 10:22 01.08.2022
815 Clouds 9 1008 76 10000 7.2 340 08:34 01.08.2022
816 Clouds 9 1008 83 10000 3.6 320 04:56 01.08.2022
817 Clouds 9 1008 83 10000 3.6 320 04:20 01.08.2022
818 Clouds 10 1008 76 10000 6.69 300 00:49 01.08.2022
819 Clear 11 1008 71 10000 8.75 300 22:41 31.07.2022
820 Clouds 11 1008 66 10000 8.75 300 21:33 31.07.2022
821 Clouds 12 1007 71 10000 8.75 300 19:56 31.07.2022
822 Clouds 12 1007 71 10000 7.72 290 18:36 31.07.2022
823 Clouds 12 1007 66 10000 5.66 290 15:54 31.07.2022
824 Clouds 10 1008 71 10000 5.14 290 13:51 31.07.2022
825 Clouds 10 1007 76 10000 5.14 290 12:28 31.07.2022
826 Clouds 10 1007 76 10000 4.12 280 09:55 31.07.2022
827 Clouds 9 1008 81 10000 3.6 290 08:18 31.07.2022
828 Clouds 9 1009 71 10000 6.69 310 03:49 31.07.2022
829 Clouds 11 1008 66 10000 6.17 290 23:53 30.07.2022
830 Clouds 11 1008 71 10000 6.17 280 22:19 30.07.2022
831 Clouds 11 1008 71 10000 6.17 280 22:19 30.07.2022
832 Clouds 11 1008 71 10000 6.17 290 21:50 30.07.2022
833 Clouds 12 1008 66 10000 6.17 290 20:58 30.07.2022
834 Clouds 11 1008 71 10000 5.66 280 19:59 30.07.2022
835 Clouds 11 1008 71 10000 5.66 280 19:20 30.07.2022
836 Clouds 11 1008 71 10000 6.17 280 17:45 30.07.2022
837 Clouds 12 1008 62 10000 5.14 290 15:55 30.07.2022
838 Clouds 12 1008 62 10000 5.14 290 15:25 30.07.2022
839 Clouds 10 1008 66 10000 4.12 290 13:21 30.07.2022
840 Clouds 10 1008 62 10000 4.12 310 12:20 30.07.2022
841 Clouds 9 1007 61 10000 3.6 330 10:36 30.07.2022
842 Clouds 9 1006 66 10000 4.12 360 09:57 30.07.2022
843 Clouds 7 1006 70 10000 3.09 350 07:55 30.07.2022
844 Clouds 7 1006 70 10000 5.66 360 05:29 30.07.2022
845 Clouds 8 1004 75 10000 7.2 360 02:31 30.07.2022
846 Clouds 12 1003 62 10000 8.23 360 22:57 29.07.2022
847 Clouds 13 1002 58 10000 8.75 360 21:30 29.07.2022
848 Clouds 13 1002 58 10000 8.75 340 20:50 29.07.2022
849 Clouds 13 1002 58 10000 6.17 350 19:29 29.07.2022
850 Clouds 12 1003 62 10000 6.17 360 16:44 29.07.2022
851 Clouds 11 1003 62 10000 6.17 10 14:23 29.07.2022
852 Clouds 10 1003 76 10000 1.54 360 12:32 29.07.2022
853 Clouds 9 1003 87 10000 1.03 360 08:51 29.07.2022
854 Clouds 9 1003 87 10000 1.03 360 08:22 29.07.2022
855 Clouds 8 1003 87 10000 4.63 280 04:39 29.07.2022
856 Clouds 9 1003 81 10000 5.14 250 23:46 28.07.2022
857 Clouds 9 1003 87 10000 5.14 250 21:38 28.07.2022
858 Clouds 9 1003 81 10000 4.12 250 20:50 28.07.2022
859 Clouds 9 1003 81 10000 4.12 250 20:18 28.07.2022
860 Clouds 9 1002 87 10000 4.12 250 19:40 28.07.2022
861 Clouds 11 1002 71 10000 6.17 200 17:46 28.07.2022
862 Clouds 11 1002 71 10000 6.17 200 17:23 28.07.2022
863 Clouds 11 1002 71 10000 7.2 200 16:40 28.07.2022
864 Clouds 10 1001 76 10000 7.72 200 13:57 28.07.2022
865 Clouds 9 1001 81 10000 7.2 190 12:40 28.07.2022
866 Clouds 9 999 81 10000 7.2 200 08:49 28.07.2022
867 Clouds 10 1000 81 10000 7.2 200 05:41 28.07.2022
868 Clouds 10 1000 81 10000 7.2 200 05:20 28.07.2022
869 Clouds 11 999 87 10000 5.66 200 23:41 27.07.2022
870 Clouds 12 998 82 10000 6.69 210 21:31 27.07.2022
871 Clouds 12 998 82 10000 6.69 210 21:31 27.07.2022
872 Clouds 12 998 87 10000 7.2 210 20:19 27.07.2022
873 Clouds 12 997 87 10000 6.69 200 19:26 27.07.2022
874 Clouds 12 998 87 8000 6.17 200 16:32 27.07.2022
875 Drizzle 13 998 88 10000 7.2 200 15:51 27.07.2022
876 Clouds 13 998 88 10000 6.69 190 14:42 27.07.2022
877 Clouds 13 999 88 10000 7.2 180 13:57 27.07.2022
878 Clouds 13 999 88 10000 6.69 170 11:18 27.07.2022
879 Clouds 13 1001 88 5000 4.63 170 07:53 27.07.2022
880 Drizzle 13 1003 88 10000 5.14 170 05:18 27.07.2022
881 Clouds 12 1007 87 10000 5.14 100 23:29 26.07.2022
882 Clouds 12 1007 87 6000 5.66 90 22:20 26.07.2022
883 Rain 12 1008 82 7000 4.63 90 21:18 26.07.2022
884 Rain 12 1009 87 9000 4.63 120 19:39 26.07.2022
885 Rain 13 1010 71 10000 6.17 130 18:41 26.07.2022
886 Clouds 13 1011 71 10000 6.17 130 17:55 26.07.2022
887 Clouds 14 1011 62 10000 6.17 140 15:47 26.07.2022
888 Clouds 13 1012 71 10000 4.12 130 14:43 26.07.2022
889 Clouds 11 1012 87 10000 2.06 100 12:35 26.07.2022
890 Clouds 11 1013 87 10000 2.57 120 10:35 26.07.2022
891 Drizzle 10 1013 87 10000 3.09 110 08:29 26.07.2022
892 Clouds 10 1014 81 10000 3.09 210 02:25 26.07.2022
893 Clouds 11 1014 82 10000 4.63 240 00:22 26.07.2022
894 Clouds 12 1014 66 10000 4.63 220 22:41 25.07.2022
895 Clouds 12 1014 66 10000 4.63 220 22:21 25.07.2022
896 Clouds 11 1013 82 10000 0 0 21:31 25.07.2022
897 Clouds 11 1013 76 10000 1.54 340 20:39 25.07.2022
898 Clouds 12 1013 71 10000 0 0 19:25 25.07.2022
899 Clouds 11 1014 76 10000 3.09 300 18:18 25.07.2022
900 Clouds 11 1014 76 10000 3.09 300 18:18 25.07.2022
901 Clouds 11 1014 71 10000 1.54 300 17:24 25.07.2022
902 Clouds 11 1014 76 10000 2.06 300 14:19 25.07.2022
903 Clouds 10 1014 81 10000 3.09 230 10:56 25.07.2022
904 Clouds 9 1013 93 10000 3.09 200 08:22 25.07.2022
905 Clouds 11 1014 66 10000 1.54 270 01:49 25.07.2022
906 Clouds 11 1014 66 10000 3.6 280 23:49 24.07.2022
907 Clouds 11 1014 76 10000 4.12 280 22:51 24.07.2022
908 Clouds 11 1014 76 10000 4.12 280 22:24 24.07.2022
909 Clouds 12 1014 76 10000 4.12 280 21:18 24.07.2022
910 Clouds 12 1014 71 10000 4.63 300 20:45 24.07.2022
911 Clouds 12 1014 71 10000 5.14 290 19:37 24.07.2022
912 Clouds 13 1014 71 10000 5.14 300 18:27 24.07.2022
913 Clouds 14 1014 72 10000 2.06 270 15:57 24.07.2022
914 Clouds 14 1014 72 10000 2.06 270 15:32 24.07.2022
915 Clouds 12 1014 76 10000 2.57 190 13:51 24.07.2022
916 Clouds 11 1014 82 10000 2.06 210 12:50 24.07.2022
917 Clouds 11 1014 82 10000 1.03 0 11:35 24.07.2022
918 Clouds 10 1014 87 10000 1.03 160 10:48 24.07.2022
919 Clouds 10 1014 87 10000 1.54 220 08:30 24.07.2022
920 Clouds 10 1014 87 10000 2.06 180 07:46 24.07.2022
921 Clouds 9 1015 93 10000 0 0 03:57 24.07.2022
922 Clouds 10 1015 87 10000 2.57 300 23:48 23.07.2022
923 Clouds 13 1015 76 10000 5.66 300 20:51 23.07.2022
924 Clouds 12 1015 82 10000 5.14 290 19:31 23.07.2022
925 Clouds 13 1015 76 10000 4.12 290 18:50 23.07.2022
926 Clouds 13 1016 82 10000 4.63 300 17:28 23.07.2022
927 Clouds 12 1016 82 10000 3.6 300 16:30 23.07.2022
928 Clouds 12 1016 82 10000 3.6 290 15:22 23.07.2022
929 Clouds 12 1017 87 10000 3.09 270 14:56 23.07.2022
930 Clouds 12 1017 87 10000 3.09 270 14:24 23.07.2022
931 Clouds 12 1017 87 10000 3.09 270 14:24 23.07.2022
932 Clouds 11 1017 93 10000 3.09 290 12:44 23.07.2022
933 Clouds 11 1017 87 10000 2.57 250 10:45 23.07.2022
934 Clouds 11 1017 93 10000 2.06 260 09:54 23.07.2022
935 Clouds 11 1017 87 10000 2.57 270 08:30 23.07.2022
936 Clouds 11 1018 87 10000 2.57 210 03:38 23.07.2022
937 Drizzle 12 1018 87 3000 2.06 270 00:41 23.07.2022
938 Clouds 13 1018 90 10000 1.54 280 22:19 22.07.2022
939 Drizzle 13 1018 88 10000 2.06 300 20:39 22.07.2022
940 Drizzle 12 1018 87 10000 2.57 40 19:32 22.07.2022
941 Clouds 14 1018 87 10000 1.51 116 18:23 22.07.2022
942 Drizzle 13 1018 82 10000 2.06 250 16:47 22.07.2022
943 Clouds 14 1018 77 10000 1.03 0 14:40 22.07.2022
944 Clouds 12 1018 82 10000 3.6 80 10:59 22.07.2022
945 Clouds 12 1018 82 10000 3.09 70 09:25 22.07.2022
946 Clouds 11 1018 87 10000 3.09 70 08:27 22.07.2022
947 Clouds 12 1019 91 10000 1.03 0 04:48 22.07.2022
948 Clouds 12 1020 82 10000 2.06 210 00:40 22.07.2022
949 Clouds 13 1019 76 10000 3.09 230 22:25 21.07.2022
950 Clouds 13 1019 76 10000 4.12 220 20:48 21.07.2022
951 Clouds 14 1019 77 10000 4.63 220 19:26 21.07.2022
952 Clouds 12 1020 87 10000 3.09 280 17:39 21.07.2022
953 Clouds 12 1020 87 10000 3.09 280 17:19 21.07.2022
954 Clouds 13 1020 71 10000 3.09 180 14:55 21.07.2022
955 Clouds 13 1020 71 10000 3.09 180 14:29 21.07.2022
956 Clear 12 1020 66 10000 2.57 150 12:28 21.07.2022
957 Clouds 10 1020 81 10000 2.06 180 10:56 21.07.2022
958 Clouds 10 1020 87 10000 2.06 200 09:33 21.07.2022
959 Clouds 10 1020 81 10000 2.06 200 08:50 21.07.2022
960 Clouds 10 1020 81 10000 2.57 230 07:42 21.07.2022
961 Clouds 10 1020 86 10000 3.6 240 04:46 21.07.2022
962 Clouds 11 1018 87 10000 3.6 240 00:36 21.07.2022
963 Clouds 11 1018 87 10000 5.66 290 22:22 20.07.2022
964 Clouds 12 1017 82 10000 8.23 300 20:55 20.07.2022
965 Clear 13 1016 76 10000 8.23 300 19:52 20.07.2022
966 Clear 13 1016 76 10000 8.23 300 19:24 20.07.2022
967 Clear 14 1016 72 10000 7.72 300 18:34 20.07.2022
968 Clouds 14 1016 67 10000 6.69 310 17:59 20.07.2022
969 Clouds 14 1015 62 10000 5.66 340 16:45 20.07.2022
970 Clouds 14 1015 62 10000 6.17 340 15:31 20.07.2022
971 Clouds 13 1014 67 10000 7.2 350 14:20 20.07.2022
972 Clouds 13 1014 67 10000 7.2 350 14:20 20.07.2022
973 Clouds 12 1013 66 10000 7.72 10 11:34 20.07.2022
974 Clear 11 1011 76 10000 3.6 20 08:50 20.07.2022
975 Clear 12 1008 76 10000 5.14 350 03:49 20.07.2022
976 Clear 14 1006 72 10000 3.09 340 00:51 20.07.2022
977 Clear 13 1006 76 10000 4.12 300 23:41 19.07.2022
978 Clouds 13 1006 71 10000 4.63 300 22:33 19.07.2022
979 Clouds 13 1006 76 10000 2.57 290 21:35 19.07.2022
980 Clouds 13 1006 71 10000 4.12 310 20:33 19.07.2022
981 Clouds 13 1005 76 10000 5.66 300 18:58 19.07.2022
982 Clouds 13 1005 76 10000 5.66 300 18:28 19.07.2022
983 Clouds 13 1005 82 10000 4.63 290 17:46 19.07.2022
984 Clouds 13 1005 71 10000 2.06 350 14:57 19.07.2022
985 Clouds 12 1005 76 10000 3.09 350 11:44 19.07.2022
986 Clouds 11 1006 89 10000 2.47 359 11:18 19.07.2022
987 Clouds 11 1005 82 10000 1.03 0 09:26 19.07.2022
988 Clouds 11 1005 76 10000 3.6 60 08:39 19.07.2022
989 Rain 10 1005 81 10000 3.6 80 07:19 19.07.2022
990 Drizzle 11 1006 82 10000 3.09 70 05:48 19.07.2022
991 Clouds 10 1006 91 10000 2.06 50 04:58 19.07.2022
992 Rain 12 1007 76 10000 1.03 0 01:58 19.07.2022
993 Clouds 13 1007 62 10000 2.06 150 23:50 18.07.2022
994 Clouds 13 1007 62 10000 2.06 150 23:19 18.07.2022
995 Clouds 13 1007 67 10000 2.06 110 22:23 18.07.2022
996 Clouds 12 1008 76 10000 2.06 320 20:57 18.07.2022
997 Clouds 12 1008 76 10000 2.06 320 19:52 18.07.2022
998 Clouds 13 1008 67 10000 2.57 350 17:53 18.07.2022
999 Clouds 12 1009 71 10000 2.06 340 16:28 18.07.2022
1000 Clouds 12 1009 71 10000 3.09 340 15:19 18.07.2022
1001 Clouds 12 1009 71 10000 3.09 140 13:31 18.07.2022
1002 Clouds 11 1009 66 10000 1.03 0 11:31 18.07.2022
1003 Clouds 10 1008 76 10000 2.06 100 09:54 18.07.2022
1004 Clouds 10 1008 76 10000 1.54 180 07:49 18.07.2022
1005 Clouds 10 1008 81 10000 2.57 230 02:51 18.07.2022
1006 Clouds 11 1007 76 10000 2.06 260 22:56 17.07.2022
1007 Clouds 11 1007 76 10000 2.06 260 22:29 17.07.2022
1008 Clouds 11 1006 76 10000 1.54 280 21:35 17.07.2022
1009 Clouds 11 1006 76 10000 2.57 300 20:45 17.07.2022
1010 Clouds 11 1006 76 10000 3.6 270 19:49 17.07.2022
1011 Clouds 11 1006 76 10000 3.6 270 19:20 17.07.2022
1012 Clouds 12 1005 76 10000 5.14 290 17:43 17.07.2022
1013 Clouds 12 1005 76 10000 5.14 290 17:25 17.07.2022
1014 Clouds 12 1005 76 10000 4.63 290 16:32 17.07.2022
1015 Clouds 12 1005 76 10000 3.6 280 15:49 17.07.2022
1016 Clouds 11 1004 82 10000 2.57 290 13:51 17.07.2022
1017 Clouds 11 1004 82 10000 3.09 300 12:43 17.07.2022
1018 Clouds 10 1003 87 10000 4.12 300 10:20 17.07.2022
1019 Clouds 9 1001 93 10000 1.54 140 06:59 17.07.2022
1020 Clouds 10 1001 81 10000 1.54 100 02:35 17.07.2022
1021 Clouds 11 1000 76 10000 2.06 100 23:28 16.07.2022
1022 Clouds 11 1000 71 10000 3.09 150 22:33 16.07.2022
1023 Clouds 12 1000 66 10000 3.09 170 20:40 16.07.2022
1024 Clouds 13 1000 67 10000 5.66 110 18:58 16.07.2022
1025 Clouds 13 1000 62 10000 6.17 130 17:47 16.07.2022
1026 Clouds 12 1002 71 10000 5.66 150 15:54 16.07.2022
1027 Clouds 11 1002 82 10000 3.6 180 13:26 16.07.2022
1028 Clouds 12 1002 82 10000 5.66 120 10:29 16.07.2022
1029 Clouds 12 1002 82 10000 7.72 100 09:26 16.07.2022
1030 Clouds 11 1003 82 10000 5.14 80 08:41 16.07.2022
1031 Clouds 11 1003 82 10000 6.69 90 07:23 16.07.2022
1032 Clouds 11 1006 82 9000 6.17 90 03:35 16.07.2022
1033 Clouds 11 1008 82 10000 7.72 110 00:48 16.07.2022
1034 Clouds 11 1010 82 10000 6.17 110 22:57 15.07.2022
1035 Clouds 11 1010 82 10000 6.17 110 22:26 15.07.2022
1036 Clouds 11 1011 76 10000 5.66 90 20:44 15.07.2022
1037 Clouds 11 1012 82 10000 7.2 100 19:34 15.07.2022
1038 Clouds 12 1012 71 10000 7.2 100 18:23 15.07.2022
1039 Clouds 12 1013 76 10000 5.66 110 17:19 15.07.2022
1040 Clouds 12 1014 66 10000 6.17 130 14:19 15.07.2022
1041 Clouds 12 1015 62 10000 5.66 130 12:37 15.07.2022
1042 Clouds 10 1015 71 10000 1.03 0 10:52 15.07.2022
1043 Clear 8 1015 87 10000 2.06 100 07:55 15.07.2022
1044 Clouds 8 1015 81 10000 1.54 110 04:54 15.07.2022
1045 Clouds 10 1015 76 10000 1.54 350 00:43 15.07.2022
1046 Clouds 11 1014 71 10000 2.06 300 23:25 14.07.2022
1047 Clouds 11 1014 71 10000 3.09 290 22:32 14.07.2022
1048 Clouds 11 1014 71 10000 3.09 300 21:41 14.07.2022
1049 Clouds 11 1014 71 10000 3.09 300 21:22 14.07.2022
1050 Clouds 11 1013 71 10000 2.57 290 20:43 14.07.2022
1051 Clouds 11 1013 71 10000 2.57 290 20:19 14.07.2022
1052 Clouds 11 1013 71 10000 3.6 290 18:38 14.07.2022
1053 Clouds 11 1012 66 10000 3.09 300 16:20 14.07.2022
1054 Clouds 11 1012 71 10000 2.06 280 15:26 14.07.2022
1055 Clouds 10 1011 76 10000 3.09 280 13:52 14.07.2022
1056 Clouds 10 1011 76 10000 3.6 250 12:39 14.07.2022
1057 Clouds 10 1011 81 10000 4.12 220 11:28 14.07.2022
1058 Drizzle 9 1011 87 10000 3.09 220 10:58 14.07.2022
1059 Clouds 8 1010 93 10000 4.12 230 09:29 14.07.2022
1060 Clouds 8 1009 87 10000 3.09 190 05:18 14.07.2022
1061 Clouds 8 1009 87 10000 6.17 200 01:22 14.07.2022
1062 Clouds 8 1009 87 10000 6.17 200 01:22 14.07.2022
1063 Clouds 9 1009 81 3200 6.17 200 00:52 14.07.2022
1064 Clouds 10 1009 71 10000 4.12 240 22:32 13.07.2022
1065 Clouds 10 1009 76 10000 7.2 230 21:51 13.07.2022
1066 Clouds 11 1008 66 10000 6.69 230 20:44 13.07.2022
1067 Clouds 11 1009 71 10000 3.09 280 18:48 13.07.2022
1068 Clouds 11 1009 71 10000 2.06 290 17:35 13.07.2022
1069 Clouds 11 1009 71 10000 4.63 270 16:23 13.07.2022
1070 Clouds 11 1009 66 10000 3.6 270 15:24 13.07.2022
1071 Clouds 10 1009 62 10000 3.09 290 12:39 13.07.2022
1072 Clear 9 1009 61 10000 3.6 340 10:45 13.07.2022
1073 Clear 9 1008 66 10000 3.6 350 09:57 13.07.2022
1074 Clear 9 1008 66 10000 3.6 350 09:21 13.07.2022
1075 Clouds 8 1008 66 10000 3.09 330 05:52 13.07.2022
1076 Clouds 9 1005 66 10000 4.63 20 01:27 13.07.2022
1077 Clouds 11 1004 58 10000 5.14 10 23:42 12.07.2022
1078 Clouds 11 1002 66 10000 6.69 360 21:55 12.07.2022
1079 Clouds 11 1002 66 10000 6.69 360 21:19 12.07.2022
1080 Clouds 12 1001 62 10000 6.17 350 20:41 12.07.2022
1081 Clouds 13 1001 58 10000 6.69 360 19:25 12.07.2022
1082 Clouds 12 1000 62 10000 6.69 350 17:49 12.07.2022
1083 Clouds 11 999 66 10000 8.75 360 15:57 12.07.2022
1084 Clouds 11 998 66 10000 9.26 350 14:30 12.07.2022
1085 Clouds 11 997 66 10000 8.23 10 12:29 12.07.2022
1086 Clouds 10 996 71 10000 9.26 20 11:22 12.07.2022
1087 Clouds 10 994 76 10000 3.09 300 09:38 12.07.2022
1088 Clouds 9 993 81 10000 9.26 350 08:23 12.07.2022
1089 Clouds 11 992 76 10000 0.51 0 06:49 12.07.2022
1090 Clouds 11 992 82 10000 1.54 140 05:42 12.07.2022
1091 Clouds 13 991 76 10000 4.63 320 02:32 12.07.2022
1092 Clouds 13 990 82 10000 5.66 330 23:30 11.07.2022
1093 Clouds 12 991 82 10000 6.69 320 22:31 11.07.2022
1094 Clouds 12 992 82 10000 7.2 340 20:41 11.07.2022
1095 Clouds 12 993 82 10000 6.17 320 19:44 11.07.2022
1096 Clouds 12 993 82 10000 6.17 340 18:32 11.07.2022
1097 Clouds 13 994 76 10000 3.09 360 17:49 11.07.2022
1098 Clouds 14 995 62 10000 2.57 100 16:21 11.07.2022
1099 Clouds 13 996 71 10000 5.14 120 14:49 11.07.2022
1100 Clouds 11 998 82 10000 5.14 120 11:59 11.07.2022
1101 Clouds 11 998 82 10000 5.14 150 10:37 11.07.2022
1102 Clouds 11 998 82 10000 4.63 130 09:49 11.07.2022
1103 Clouds 10 999 87 10000 1.54 140 08:34 11.07.2022
1104 Drizzle 10 999 93 10000 2.57 170 07:24 11.07.2022
1105 Clouds 12 1000 76 10000 2.57 150 00:24 11.07.2022
1106 Clouds 11 1000 82 10000 4.63 180 23:48 10.07.2022
1107 Clouds 12 1000 76 10000 3.6 180 22:26 10.07.2022
1108 Clouds 12 1000 76 10000 4.12 190 20:55 10.07.2022
1109 Drizzle 12 1000 82 10000 5.66 200 19:55 10.07.2022
1110 Drizzle 12 1000 82 10000 5.66 200 19:20 10.07.2022
1111 Clouds 13 1000 76 10000 5.66 210 17:51 10.07.2022
1112 Clouds 12 1001 87 10000 3.09 310 16:59 10.07.2022
1113 Clouds 12 1001 87 10000 3.09 310 16:20 10.07.2022
1114 Clouds 14 1001 72 10000 6.17 160 14:43 10.07.2022
1115 Clouds 12 1003 76 10000 5.66 160 12:42 10.07.2022
1116 Clouds 11 1004 82 10000 4.63 160 11:36 10.07.2022
1117 Clouds 11 1005 82 10000 6.17 140 09:44 10.07.2022
1118 Clouds 10 1006 87 10000 4.12 170 08:43 10.07.2022
1119 Drizzle 10 1007 87 10000 5.14 160 06:36 10.07.2022
1120 Drizzle 13 1009 82 6000 8.23 170 23:44 09.07.2022
1121 Clouds 14 1009 77 10000 6.69 140 22:26 09.07.2022
1122 Clouds 14 1009 77 10000 6.17 140 21:40 09.07.2022
1123 Clouds 14 1010 77 10000 8.23 150 19:44 09.07.2022
1124 Clouds 14 1011 77 10000 8.23 140 18:26 09.07.2022
1125 Clouds 15 1011 72 10000 10.29 140 17:27 09.07.2022
1126 Clouds 13 1011 76 10000 7.72 130 16:25 09.07.2022
1127 Clouds 12 1012 87 10000 8.23 120 15:38 09.07.2022
1128 Clouds 13 1011 76 10000 9.26 110 14:22 09.07.2022
1129 Clouds 13 1012 71 10000 10.29 120 13:48 09.07.2022
1130 Drizzle 11 1013 82 10000 7.72 90 11:54 09.07.2022
1131 Drizzle 10 1014 81 10000 6.17 90 10:27 09.07.2022
1132 Clouds 9 1015 87 10000 5.66 90 09:56 09.07.2022
1133 Rain 9 1016 81 9000 4.63 90 07:44 09.07.2022
1134 Clouds 9 1019 82 10000 4.12 130 04:45 09.07.2022
1135 Clouds 11 1021 71 10000 1.54 270 23:43 08.07.2022
1136 Clouds 11 1021 66 10000 2.06 300 22:34 08.07.2022
1137 Clouds 11 1022 71 10000 2.57 290 21:27 08.07.2022
1138 Clouds 11 1021 71 10000 3.09 280 20:38 08.07.2022
1139 Clouds 11 1021 76 10000 3.6 280 19:38 08.07.2022
1140 Clouds 11 1021 71 10000 5.14 300 17:56 08.07.2022
1141 Clouds 12 1021 66 10000 5.66 290 16:33 08.07.2022
1142 Clouds 11 1019 71 10000 6.69 310 14:51 08.07.2022
1143 Drizzle 10 1018 81 10000 7.2 310 12:42 08.07.2022
1144 Clouds 9 1017 88 10000 8.23 290 10:52 08.07.2022
1145 Clouds 9 1016 81 10000 8.23 290 10:21 08.07.2022
1146 Clouds 9 1013 87 10000 7.2 270 07:55 08.07.2022
1147 Clouds 9 1013 93 10000 7.72 250 06:23 08.07.2022
1148 Drizzle 9 1012 93 4200 9.77 240 01:19 08.07.2022
1149 Mist 10 1012 81 10000 8.75 250 22:57 07.07.2022
1150 Clouds 10 1012 87 8000 9.26 230 21:57 07.07.2022
1151 Drizzle 10 1011 87 6000 10.8 240 19:47 07.07.2022
1152 Clouds 10 1010 93 6000 11.32 250 17:56 07.07.2022
1153 Clouds 11 1010 87 7000 12.86 240 16:32 07.07.2022
1154 Drizzle 10 1007 93 2000 14.4 230 14:21 07.07.2022
1155 Drizzle 11 1005 82 4500 14.4 230 12:46 07.07.2022
1156 Clouds 10 1006 92 10000 14.94 233 12:23 07.07.2022
1157 Clouds 10 1004 87 3000 14.92 230 11:34 07.07.2022
1158 Clouds 10 1003 93 2300 13.38 220 10:46 07.07.2022
1159 Clouds 10 1003 93 2300 13.38 220 10:28 07.07.2022
1160 Drizzle 10 1002 93 2000 12.35 210 09:32 07.07.2022
1161 Drizzle 10 1003 87 8000 9.77 190 06:31 07.07.2022
1162 Clouds 11 1010 93 3174 10.28 134 00:28 07.07.2022
1163 Rain 11 1010 93 3174 10.28 134 23:36 06.07.2022
1164 Clouds 11 1011 93 3384 8.86 131 23:18 06.07.2022
1165 Clouds 13 1012 82 10000 6.17 120 22:52 06.07.2022
1166 Clouds 13 1012 82 10000 6.17 120 22:33 06.07.2022
1167 Clouds 13 1015 76 10000 5.66 160 20:23 06.07.2022
1168 Clouds 15 1015 67 10000 5.66 190 19:22 06.07.2022
1169 Clouds 15 1016 72 10000 4.12 200 17:21 06.07.2022
1170 Drizzle 13 1016 82 10000 3.09 250 15:57 06.07.2022
1171 Clouds 13 1015 76 10000 3.09 260 12:44 06.07.2022
1172 Clouds 13 1015 76 10000 3.09 260 12:21 06.07.2022
1173 Clouds 12 1014 82 10000 3.6 200 10:55 06.07.2022
1174 Clouds 12 1013 87 10000 4.12 210 09:27 06.07.2022
1175 Clouds 12 1013 87 10000 4.12 210 09:27 06.07.2022
1176 Clouds 11 1011 93 10000 3.6 200 07:44 06.07.2022
1177 Clouds 11 1011 93 10000 3.09 220 06:49 06.07.2022
1178 Clouds 12 1006 87 10000 3.09 80 00:38 06.07.2022
1179 Clouds 12 1006 87 10000 3.09 70 22:43 05.07.2022
1180 Rain 14 1007 72 10000 2.06 260 20:57 05.07.2022
1181 Rain 14 1007 72 10000 2.06 260 20:33 05.07.2022
1182 Drizzle 14 1008 72 10000 2.06 310 19:39 05.07.2022
1183 Clouds 15 1009 63 10000 3.09 110 17:55 05.07.2022
1184 Clouds 15 1009 63 10000 3.09 110 17:25 05.07.2022
1185 Clouds 15 1009 58 10000 4.12 70 16:33 05.07.2022
1186 Clouds 13 1011 67 10000 3.6 70 14:55 05.07.2022
1187 Clouds 12 1011 66 10000 3.09 70 13:36 05.07.2022
1188 Drizzle 11 1012 76 10000 3.6 80 12:26 05.07.2022
1189 Clouds 10 1012 84 10000 3.6 100 10:46 05.07.2022
1190 Clouds 9 1012 76 10000 3.6 90 09:58 05.07.2022
1191 Clouds 7 1012 78 10000 2.25 86 08:23 05.07.2022
1192 Clouds 9 1013 76 10000 2.06 120 07:20 05.07.2022
1193 Clouds 9 1014 77 10000 2.06 210 04:40 05.07.2022
1194 Clouds 10 1014 66 10000 2.57 260 01:54 05.07.2022
1195 Clouds 10 1014 66 10000 3.09 270 23:40 04.07.2022
1196 Clouds 10 1014 71 10000 4.12 300 22:58 04.07.2022
1197 Clouds 10 1014 71 10000 4.12 300 22:19 04.07.2022
1198 Clouds 11 1014 71 10000 3.6 280 20:58 04.07.2022
1199 Clouds 11 1014 71 10000 3.6 280 20:37 04.07.2022
1200 Clouds 11 1014 66 10000 3.6 290 19:57 04.07.2022
1201 Clouds 11 1014 66 10000 3.6 290 19:37 04.07.2022
1202 Clouds 11 1014 66 10000 3.09 300 18:54 04.07.2022
1203 Clouds 11 1014 66 10000 4.12 290 17:23 04.07.2022
1204 Clouds 10 1014 71 10000 3.6 290 15:41 04.07.2022
1205 Clouds 10 1014 71 10000 4.12 290 14:21 04.07.2022
1206 Clouds 10 1014 76 10000 4.12 280 12:56 04.07.2022
1207 Clouds 10 1013 81 10000 3.6 290 11:32 04.07.2022
1208 Clouds 10 1013 71 10000 2.06 290 10:33 04.07.2022
1209 Clouds 10 1013 71 10000 2.06 300 09:33 04.07.2022
1210 Clouds 8 1012 76 10000 2.57 360 06:42 04.07.2022
1211 Clouds 10 1011 87 10000 6.69 300 02:59 04.07.2022
1212 Clouds 11 1010 82 10000 8.75 300 23:53 03.07.2022
1213 Clouds 12 1010 76 10000 7.72 290 22:48 03.07.2022
1214 Clouds 12 1009 66 10000 7.72 320 20:46 03.07.2022
1215 Clouds 12 1009 66 10000 7.72 320 19:59 03.07.2022
1216 Clouds 12 1009 66 10000 7.72 320 19:25 03.07.2022
1217 Clouds 12 1009 66 10000 8.23 320 18:30 03.07.2022
1218 Clouds 12 1008 66 10000 7.2 330 17:41 03.07.2022
1219 Clouds 11 1008 71 10000 5.14 360 15:28 03.07.2022
1220 Clouds 11 1008 71 10000 5.66 360 14:54 03.07.2022
1221 Clouds 11 1007 71 10000 5.14 340 13:50 03.07.2022
1222 Clouds 10 1007 76 10000 6.69 360 12:49 03.07.2022
1223 Clouds 10 1007 76 10000 6.69 360 12:21 03.07.2022
1224 Clouds 10 1007 76 10000 4.12 350 10:55 03.07.2022
1225 Clouds 10 1007 76 10000 4.12 350 10:36 03.07.2022
1226 Clouds 10 1006 76 10000 4.12 10 08:21 03.07.2022
1227 Clouds 10 1006 76 10000 4.63 350 07:34 03.07.2022
1228 Clouds 10 1009 81 10000 6.17 300 00:41 03.07.2022
1229 Clouds 10 1009 81 10000 5.66 300 23:38 02.07.2022
1230 Clouds 10 1010 81 10000 4.63 310 22:31 02.07.2022
1231 Clouds 9 1011 81 10000 4.63 290 20:36 02.07.2022
1232 Clouds 10 1011 76 10000 5.14 300 19:50 02.07.2022
1233 Clouds 10 1012 76 10000 5.66 300 18:48 02.07.2022
1234 Clouds 10 1012 76 10000 5.14 290 17:40 02.07.2022
1235 Clouds 10 1012 76 10000 5.66 310 16:32 02.07.2022
1236 Clouds 9 1013 87 10000 3.09 300 13:51 02.07.2022
1237 Clouds 8 1013 87 10000 3.09 310 11:51 02.07.2022
1238 Drizzle 8 1013 87 10000 3.6 300 10:52 02.07.2022
1239 Drizzle 8 1013 87 10000 3.6 300 10:28 02.07.2022
1240 Clouds 9 1013 81 10000 2.57 290 08:39 02.07.2022
1241 Clouds 9 1013 81 10000 2.57 290 08:19 02.07.2022
1242 Clouds 9 1013 81 10000 2.06 280 05:51 02.07.2022
1243 Clouds 10 1013 81 10000 3.09 300 00:47 02.07.2022
1244 Clouds 10 1012 87 10000 2.06 270 23:31 01.07.2022
1245 Clouds 10 1012 87 10000 3.6 280 22:35 01.07.2022
1246 Clouds 12 1011 82 10000 4.12 270 21:39 01.07.2022
1247 Clouds 12 1011 82 10000 5.14 290 20:59 01.07.2022
1248 Clouds 12 1011 82 10000 5.14 290 20:37 01.07.2022
1249 Clouds 13 1010 76 10000 4.63 290 19:41 01.07.2022
1250 Clouds 13 1009 82 10000 4.63 290 17:45 01.07.2022
1251 Clouds 14 1009 77 10000 5.14 290 15:21 01.07.2022
1252 Clouds 13 1008 82 10000 4.12 300 13:54 01.07.2022
1253 Mist 12 1007 87 10000 2.06 240 11:49 01.07.2022
1254 Clouds 11 1007 87 10000 2.06 260 10:19 01.07.2022
1255 Clouds 12 1006 82 10000 2.06 320 08:46 01.07.2022
1256 Clouds 12 1005 82 10000 1.03 110 02:49 01.07.2022
1257 Clouds 13 1005 76 10000 2.57 110 00:25 01.07.2022
1258 Clouds 14 1005 72 10000 4.12 120 22:54 30.06.2022
1259 Clouds 14 1005 72 10000 4.12 120 22:33 30.06.2022
1260 Rain 14 1005 72 10000 3.09 130 21:59 30.06.2022
1261 Clouds 14 1005 72 10000 3.09 130 21:35 30.06.2022
1262 Clouds 14 1004 67 10000 3.09 150 20:22 30.06.2022
1263 Clouds 13 1004 76 10000 2.57 240 19:53 30.06.2022
1264 Clouds 13 1004 76 10000 2.57 240 19:18 30.06.2022
1265 Clouds 13 1004 76 10000 2.06 0 18:42 30.06.2022
1266 Clouds 12 1004 87 10000 2.57 350 17:38 30.06.2022
1267 Clouds 11 1005 87 10000 2.06 350 16:48 30.06.2022
1268 Clouds 11 1005 87 10000 2.57 350 15:27 30.06.2022
1269 Clouds 13 1005 76 10000 3.6 150 13:34 30.06.2022
1270 Clouds 13 1005 76 10000 3.6 120 12:35 30.06.2022
1271 Clouds 11 1005 82 10000 1.54 20 11:37 30.06.2022
1272 Clouds 10 1005 87 10000 0.51 0 09:54 30.06.2022
1273 Clouds 10 1005 87 10000 0.51 0 09:34 30.06.2022
1274 Clouds 9 1005 87 10000 2.06 230 08:18 30.06.2022
1275 Fog 9 1006 93 10000 1.54 220 06:21 30.06.2022
1276 Clouds 12 1006 82 10000 3.09 200 01:29 30.06.2022
1277 Clouds 12 1006 78 10000 3.09 230 23:34 29.06.2022
1278 Clouds 13 1006 76 10000 3.09 240 22:39 29.06.2022
1279 Clouds 12 1007 82 10000 4.63 270 21:39 29.06.2022
1280 Clouds 14 1006 67 10000 6.17 310 20:34 29.06.2022
1281 Clouds 13 1007 76 10000 7.72 300 19:37 29.06.2022
1282 Clouds 15 1007 63 10000 6.17 330 17:45 29.06.2022
1283 Clouds 15 1008 63 10000 6.17 330 16:41 29.06.2022
1284 Clouds 15 1008 63 10000 6.17 320 15:19 29.06.2022
1285 Clouds 13 1009 67 10000 5.14 10 12:47 29.06.2022
1286 Clouds 13 1009 67 10000 3.6 360 11:32 29.06.2022
1287 Clear 11 1009 87 10000 1.03 0 09:33 29.06.2022
1288 Clear 10 1009 87 10000 2.06 210 08:26 29.06.2022
1289 Clouds 11 1009 89 10000 1.03 210 04:57 29.06.2022
1290 Clouds 12 1008 76 10000 1.03 210 01:41 29.06.2022
1291 Clouds 12 1008 82 10000 2.06 180 00:36 29.06.2022
1292 Clouds 12 1007 71 10000 6.69 330 22:55 28.06.2022
1293 Clouds 12 1007 71 10000 6.69 330 22:34 28.06.2022
1294 Clouds 13 1006 67 10000 6.69 320 21:55 28.06.2022
1295 Clouds 13 1006 67 10000 6.69 320 21:33 28.06.2022
1296 Clear 14 1006 62 10000 5.66 320 20:50 28.06.2022
1297 Clouds 14 1006 62 10000 5.14 330 19:34 28.06.2022
1298 Clouds 13 1006 67 10000 4.63 340 18:53 28.06.2022
1299 Clouds 13 1006 71 10000 4.63 340 17:44 28.06.2022
1300 Clouds 13 1005 67 10000 4.63 360 16:24 28.06.2022
1301 Clouds 13 1005 71 10000 2.06 0 15:53 28.06.2022
1302 Clouds 13 1005 67 10000 2.57 100 14:21 28.06.2022
1303 Clouds 12 1004 71 10000 2.57 90 13:54 28.06.2022
1304 Clouds 12 1004 71 10000 2.57 90 13:20 28.06.2022
1305 Clouds 12 1003 66 10000 3.09 100 11:21 28.06.2022
1306 Clear 11 1002 66 10000 4.12 90 09:41 28.06.2022
1307 Clear 11 1001 76 10000 0.51 0 08:45 28.06.2022
1308 Clear 10 1001 76 10000 1.03 100 07:58 28.06.2022
1309 Clear 10 1001 76 10000 1.03 100 07:19 28.06.2022
1310 Clouds 12 999 71 10000 1.03 0 01:36 28.06.2022
1311 Clouds 13 999 62 10000 1.54 310 23:45 27.06.2022
1312 Clouds 12 999 71 10000 3.09 350 22:55 27.06.2022
1313 Clouds 12 999 71 10000 3.6 350 21:38 27.06.2022
1314 Clouds 12 999 71 10000 3.6 350 21:38 27.06.2022
1315 Clouds 12 999 66 10000 5.66 20 20:54 27.06.2022
1316 Clouds 13 999 62 10000 3.6 360 19:44 27.06.2022
1317 Clouds 12 1000 66 10000 2.57 350 18:40 27.06.2022
1318 Clouds 11 1000 62 10000 4.63 300 16:44 27.06.2022
1319 Clouds 11 1001 62 10000 5.14 330 15:42 27.06.2022
1320 Clouds 10 1001 62 10000 3.09 350 13:40 27.06.2022
1321 Clouds 9 1002 71 10000 3.09 30 12:57 27.06.2022
1322 Clear 8 1002 76 10000 1.03 0 10:43 27.06.2022
1323 Clear 7 1002 81 10000 1.03 0 09:37 27.06.2022
1324 Clouds 5 1003 86 10000 1.54 120 08:32 27.06.2022
1325 Clouds 5 1003 81 10000 1.03 0 07:39 27.06.2022
1326 Clouds 6 1005 81 10000 1.54 130 04:40 27.06.2022
1327 Clouds 6 1006 81 10000 1.54 350 01:20 27.06.2022
1328 Clouds 7 1008 76 10000 1.54 350 22:47 26.06.2022
1329 Rain 8 1009 71 10000 5.14 10 20:55 26.06.2022
1330 Rain 7 1009 70 10000 7.2 360 19:59 26.06.2022
1331 Rain 8 1010 71 10000 7.72 10 18:33 26.06.2022
1332 Rain 9 1010 61 10000 6.17 10 17:37 26.06.2022
1333 Clouds 9 1010 66 10000 7.72 20 15:31 26.06.2022
1334 Clouds 9 1011 61 10000 7.72 10 13:55 26.06.2022
1335 Clouds 9 1011 61 10000 7.72 10 13:23 26.06.2022
1336 Clouds 8 1012 61 10000 10.8 10 11:31 26.06.2022
1337 Clouds 7 1012 65 10000 11.32 10 10:30 26.06.2022
1338 Clouds 6 1013 70 10000 10.29 10 09:45 26.06.2022
1339 Clouds 6 1013 70 10000 8.75 360 07:47 26.06.2022
1340 Clouds 5 1014 77 10000 8.23 10 04:29 26.06.2022
1341 Clouds 7 1015 65 10000 9.77 10 00:36 26.06.2022
1342 Clouds 7 1015 65 10000 9.77 10 00:18 26.06.2022
1343 Clouds 8 1015 57 10000 10.29 10 23:25 25.06.2022
1344 Clouds 8 1015 61 10000 10.8 360 22:28 25.06.2022
1345 Clouds 10 1015 53 10000 8.23 20 21:52 25.06.2022
1346 Clouds 10 1015 53 10000 8.23 20 21:20 25.06.2022
1347 Clouds 9 1015 61 10000 8.23 20 20:32 25.06.2022
1348 Clouds 11 1015 50 10000 10.8 10 19:55 25.06.2022
1349 Clouds 11 1015 50 10000 10.8 10 19:55 25.06.2022
1350 Clouds 12 1015 50 10000 7.72 10 18:22 25.06.2022
1351 Clouds 12 1016 54 10000 8.23 320 17:26 25.06.2022
1352 Clouds 11 1016 58 10000 8.75 320 16:25 25.06.2022
1353 Clouds 11 1017 54 10000 5.14 330 14:28 25.06.2022
1354 Clouds 9 1018 53 10000 6.17 350 12:43 25.06.2022
1355 Clouds 9 1018 57 10000 5.14 350 11:39 25.06.2022
1356 Clear 8 1019 53 10000 3.6 360 09:24 25.06.2022
1357 Clear 7 1019 57 10000 3.6 10 08:48 25.06.2022
1358 Clear 7 1019 57 10000 3.6 10 08:20 25.06.2022
1359 Clear 7 1019 57 10000 5.14 10 06:26 25.06.2022
1360 Clouds 10 1018 53 10000 5.66 20 00:44 25.06.2022
1361 Clouds 10 1018 53 10000 7.72 360 23:32 24.06.2022
1362 Clouds 11 1017 54 10000 6.17 30 21:59 24.06.2022
1363 Clouds 11 1017 54 10000 6.17 30 21:22 24.06.2022
1364 Clouds 10 1016 57 10000 6.69 20 20:23 24.06.2022
1365 Clouds 10 1016 57 10000 6.69 10 19:24 24.06.2022
1366 Clouds 11 1016 54 10000 7.2 10 18:50 24.06.2022
1367 Clouds 11 1016 54 10000 7.2 10 18:31 24.06.2022
1368 Clouds 11 1015 50 10000 8.23 10 17:46 24.06.2022
1369 Clouds 11 1015 54 10000 9.77 10 16:34 24.06.2022
1370 Clouds 9 1014 57 10000 8.23 10 14:30 24.06.2022
1371 Clouds 9 1014 57 10000 9.26 360 13:55 24.06.2022
1372 Clouds 8 1013 57 10000 9.26 10 12:28 24.06.2022
1373 Clouds 8 1013 61 10000 9.26 360 11:40 24.06.2022
1374 Clouds 7 1012 61 10000 6.69 360 10:34 24.06.2022
1375 Clouds 8 1012 75 10000 5.62 20 09:41 24.06.2022
1376 Clouds 7 1012 77 10000 5.85 21 08:53 24.06.2022
1377 Clouds 5 1011 78 10000 5.6 17 07:39 24.06.2022
1378 Clouds 5 1011 81 10000 5.61 16 06:42 24.06.2022
1379 Clouds 5 1010 81 10000 5.77 15 06:18 24.06.2022
1380 Clouds 6 1009 79 10000 5.83 15 03:47 24.06.2022
1381 Clouds 8 1006 57 10000 11.32 10 22:59 23.06.2022
1382 Clouds 8 1006 57 10000 11.32 10 22:40 23.06.2022
1383 Clouds 8 1005 61 10000 11.83 10 20:59 23.06.2022
1384 Clouds 8 1005 61 10000 11.83 10 20:35 23.06.2022
1385 Clouds 9 1004 57 10000 11.32 10 19:40 23.06.2022
1386 Clouds 10 1003 46 10000 11.83 10 17:53 23.06.2022
1387 Clouds 10 1003 46 10000 11.83 10 17:33 23.06.2022
1388 Clouds 9 1001 49 10000 12.86 10 15:57 23.06.2022
1389 Clouds 9 1001 49 10000 12.86 10 15:24 23.06.2022
1390 Clouds 9 1000 53 10000 10.8 10 13:45 23.06.2022
1391 Clouds 7 999 57 10000 6.69 20 11:27 23.06.2022
1392 Clouds 8 998 57 10000 3.09 50 10:40 23.06.2022
1393 Clouds 7 997 57 10000 4.12 50 09:18 23.06.2022
1394 Clouds 8 994 76 10000 2.57 60 03:40 23.06.2022
1395 Clouds 8 993 87 10000 1.03 0 00:27 23.06.2022
1396 Clouds 8 993 87 10000 1.03 0 23:43 22.06.2022
1397 Clouds 8 992 87 10000 1.03 0 22:50 22.06.2022
1398 Clouds 8 992 81 10000 2.06 170 21:27 22.06.2022
1399 Clouds 8 992 87 10000 1.03 0 20:48 22.06.2022
1400 Drizzle 8 991 87 10000 1.54 250 19:58 22.06.2022
1401 Clouds 8 991 81 10000 4.12 270 18:50 22.06.2022
1402 Clouds 8 991 76 10000 4.63 260 17:29 22.06.2022
1403 Clouds 9 991 71 10000 5.14 280 16:37 22.06.2022
1404 Clouds 8 990 76 10000 5.14 270 15:27 22.06.2022
1405 Clouds 8 990 81 10000 6.69 280 14:31 22.06.2022
1406 Clouds 9 989 71 10000 5.66 260 13:44 22.06.2022
1407 Clouds 9 989 71 10000 5.66 260 13:23 22.06.2022
1408 Clouds 8 989 87 10000 8.23 230 11:50 22.06.2022
1409 Clouds 8 989 81 10000 8.75 260 10:58 22.06.2022
1410 Clouds 8 989 81 10000 8.75 260 10:58 22.06.2022
1411 Rain 8 989 81 10000 8.75 260 10:20 22.06.2022
1412 Clouds 9 990 76 10000 11.32 230 08:48 22.06.2022
1413 Clouds 9 991 81 10000 9.77 230 06:21 22.06.2022
1414 Clouds 8 993 87 10000 8.23 260 01:50 22.06.2022
1415 Drizzle 8 993 87 6000 8.23 250 00:39 22.06.2022
1416 Drizzle 9 994 87 10000 8.75 240 22:40 21.06.2022
1417 Clouds 10 995 87 2000 9.26 220 20:40 21.06.2022
1418 Clouds 11 997 87 2500 8.75 200 18:53 21.06.2022
1419 Clouds 10 999 81 6000 10.29 170 17:44 21.06.2022
1420 Rain 10 1000 81 3000 7.72 180 16:34 21.06.2022
1421 Clouds 11 1009 71 10000 6.69 160 11:56 21.06.2022
1422 Clouds 11 1010 71 10000 4.12 180 10:27 21.06.2022
1423 Clouds 8 1011 87 10000 0 0 08:54 21.06.2022
1424 Clouds 7 1011 87 10000 2.57 170 07:35 21.06.2022
1425 Clouds 7 1011 90 10000 2.57 170 04:40 21.06.2022
1426 Clouds 11 1010 71 10000 3.6 280 23:45 20.06.2022
1427 Clouds 11 1009 76 10000 3.6 280 22:21 20.06.2022
1428 Clouds 11 1009 82 10000 3.6 280 21:32 20.06.2022
1429 Clouds 11 1008 82 10000 3.09 260 20:25 20.06.2022
1430 Clouds 11 1008 76 10000 3.6 270 19:23 20.06.2022
1431 Clouds 11 1008 71 10000 4.12 290 18:25 20.06.2022
1432 Clouds 11 1008 76 10000 4.63 290 17:44 20.06.2022
1433 Clouds 11 1007 82 10000 4.63 290 16:24 20.06.2022
1434 Clouds 10 1007 87 10000 4.12 290 14:41 20.06.2022
1435 Mist 9 1006 93 10000 4.12 270 11:47 20.06.2022
1436 Drizzle 9 1006 93 5000 3.6 260 09:55 20.06.2022
1437 Drizzle 9 1006 93 3800 4.12 280 08:46 20.06.2022
1438 Mist 9 1005 93 5000 4.12 270 07:36 20.06.2022
1439 Drizzle 9 1006 95 5000 7.2 250 04:56 20.06.2022
1440 Drizzle 9 1006 93 2500 5.66 250 01:32 20.06.2022
1441 Drizzle 10 1006 93 6000 7.72 230 23:48 19.06.2022
1442 Mist 10 1006 93 1900 8.23 230 22:25 19.06.2022
1443 Mist 10 1007 93 2500 7.72 220 21:42 19.06.2022
1444 Clouds 11 1007 87 2500 5.66 200 20:52 19.06.2022
1445 Clouds 11 1007 87 2500 5.66 200 20:25 19.06.2022
1446 Mist 11 1007 93 3500 8.23 210 19:45 19.06.2022
1447 Clouds 12 1008 87 8000 6.69 210 18:33 19.06.2022
1448 Clouds 12 1009 87 10000 4.12 170 17:48 19.06.2022
1449 Clouds 12 1009 87 10000 4.12 170 17:20 19.06.2022
1450 Mist 11 1010 93 6000 4.12 160 16:34 19.06.2022
1451 Mist 11 1011 93 5000 4.63 160 15:35 19.06.2022
1452 Drizzle 11 1012 93 3500 4.12 170 14:43 19.06.2022
1453 Mist 11 1013 87 3000 4.12 180 13:54 19.06.2022
1454 Mist 10 1014 93 3500 4.12 190 12:39 19.06.2022
1455 Clouds 11 1015 76 10000 4.63 230 10:53 19.06.2022
1456 Mist 10 1015 81 9000 6.17 220 09:34 19.06.2022
1457 Mist 10 1015 81 8000 5.66 200 08:43 19.06.2022
1458 Mist 9 1016 87 7000 5.66 200 07:36 19.06.2022
1459 Mist 9 1017 93 4000 5.66 210 04:41 19.06.2022
1460 Clear 11 1019 62 10000 3.6 220 01:28 19.06.2022
1461 Clear 11 1019 62 10000 3.6 220 01:28 19.06.2022
1462 Clouds 10 1019 71 10000 1.54 200 00:23 19.06.2022
1463 Clouds 10 1020 76 10000 2.06 230 23:35 18.06.2022
1464 Clouds 10 1021 81 10000 4.12 260 22:36 18.06.2022
1465 Clouds 11 1019 76 10000 7.2 290 20:55 18.06.2022
1466 Clouds 11 1019 76 10000 7.2 290 20:27 18.06.2022
1467 Clear 12 1019 71 10000 8.23 300 19:31 18.06.2022
1468 Clouds 13 1019 62 10000 7.72 310 18:44 18.06.2022
1469 Clouds 12 1019 71 10000 9.77 300 17:30 18.06.2022
1470 Clouds 12 1019 76 10000 8.23 300 16:37 18.06.2022
1471 Clouds 12 1018 66 10000 7.2 320 15:22 18.06.2022
1472 Clouds 12 1018 71 10000 7.72 330 14:42 18.06.2022
1473 Clouds 11 1017 71 10000 8.23 320 13:21 18.06.2022
1474 Clouds 10 1014 77 10000 10.8 320 11:34 18.06.2022
1475 Clouds 10 1014 77 10000 9.26 330 10:46 18.06.2022
1476 Clouds 9 1012 71 10000 9.26 330 09:20 18.06.2022
1477 Clouds 9 1012 71 10000 9.26 330 09:20 18.06.2022
1478 Clouds 9 1010 76 10000 9.77 330 08:19 18.06.2022
1479 Clouds 9 1007 76 10000 11.32 330 06:43 18.06.2022
1480 Clouds 9 1002 76 10000 11.32 330 03:24 18.06.2022
1481 Drizzle 9 998 76 10000 12.35 340 01:24 18.06.2022
1482 Drizzle 9 997 76 10000 11.32 340 00:45 18.06.2022
1483 Clouds 9 996 76 10000 10.8 340 23:52 17.06.2022
1484 Clouds 9 996 76 10000 10.8 340 23:52 17.06.2022
1485 Clouds 10 995 71 10000 7.72 320 22:56 17.06.2022
1486 Clouds 11 994 66 10000 9.26 320 20:42 17.06.2022
1487 Clouds 12 993 66 10000 9.77 320 19:30 17.06.2022
1488 Clouds 11 993 76 10000 8.75 320 18:34 17.06.2022
1489 Clouds 11 993 76 10000 7.72 320 17:43 17.06.2022
1490 Clouds 12 993 71 10000 8.23 320 16:43 17.06.2022
1491 Clouds 11 992 71 10000 6.17 320 15:43 17.06.2022
1492 Clouds 12 992 66 10000 4.12 330 14:58 17.06.2022
1493 Clouds 12 992 66 10000 4.12 330 14:20 17.06.2022
1494 Clouds 11 992 71 10000 5.14 310 13:45 17.06.2022
1495 Clouds 11 993 76 10000 3.6 10 12:53 17.06.2022
1496 Clouds 10 994 76 10000 4.63 350 11:57 17.06.2022
1497 Clouds 10 994 76 10000 4.63 350 11:36 17.06.2022
1498 Clouds 9 994 76 10000 2.06 340 10:48 17.06.2022
1499 Clouds 9 995 81 10000 4.63 70 08:30 17.06.2022
1500 Clouds 9 995 81 10000 4.63 70 07:47 17.06.2022
1501 Clear 9 997 81 10000 4.12 70 05:57 17.06.2022
1502 Clouds 9 999 81 10000 3.6 90 02:52 17.06.2022
1503 Clouds 11 1001 71 10000 5.14 100 00:42 17.06.2022
1504 Clouds 10 1003 66 10000 3.6 110 22:45 16.06.2022
1505 Clouds 10 1003 66 10000 3.6 110 22:20 16.06.2022
1506 Clouds 11 1003 62 10000 8.23 140 21:19 16.06.2022
1507 Clouds 11 1003 58 10000 8.23 140 20:50 16.06.2022
1508 Clouds 12 1004 60 10000 8.23 160 19:57 16.06.2022
1509 Clouds 12 1004 60 10000 9.26 150 18:44 16.06.2022
1510 Clouds 12 1004 62 10000 8.23 170 17:44 16.06.2022
1511 Clouds 12 1004 62 10000 8.23 170 17:44 16.06.2022
1512 Clouds 10 1004 76 10000 8.75 180 16:46 16.06.2022
1513 Clouds 12 1004 54 10000 9.26 170 15:37 16.06.2022
1514 Clouds 12 1004 54 10000 9.26 170 15:18 16.06.2022
1515 Clouds 11 1004 62 10000 8.75 170 13:49 16.06.2022
1516 Clouds 11 1004 71 10000 5.66 170 12:38 16.06.2022
1517 Clouds 11 1004 66 10000 4.12 160 11:55 16.06.2022
1518 Rain 11 1004 66 10000 4.12 160 11:19 16.06.2022
1519 Clouds 8 1004 81 10000 7.2 150 10:35 16.06.2022
1520 Clouds 9 1004 76 10000 5.14 140 09:37 16.06.2022
1521 Clouds 8 1004 81 10000 3.09 120 08:50 16.06.2022
1522 Clouds 7 1004 81 8000 3.09 150 07:38 16.06.2022
1523 Clouds 8 1004 76 10000 5.14 140 05:43 16.06.2022
1524 Clouds 9 1005 66 10000 4.12 140 03:44 16.06.2022
1525 Clouds 9 1004 71 10000 4.63 120 01:52 16.06.2022
1526 Clouds 9 1004 71 10000 4.63 120 01:52 16.06.2022
1527 Clouds 9 1004 71 10000 4.63 120 01:22 16.06.2022
1528 Clouds 11 1004 66 10000 7.2 150 23:58 15.06.2022
1529 Clouds 11 1004 58 10000 7.2 160 22:53 15.06.2022
1530 Clouds 12 1003 54 10000 6.69 160 21:34 15.06.2022
1531 Clouds 11 1003 58 10000 7.2 160 20:58 15.06.2022
1532 Clouds 11 1003 58 10000 7.2 160 20:36 15.06.2022
1533 Clouds 12 1003 66 10000 6.69 170 19:57 15.06.2022
1534 Clouds 13 1002 50 10000 7.2 160 18:37 15.06.2022
1535 Clouds 13 1002 50 10000 6.69 170 17:46 15.06.2022
1536 Clouds 12 1002 62 10000 6.69 140 16:23 15.06.2022
1537 Clouds 12 1002 58 10000 6.69 170 15:19 15.06.2022
1538 Clouds 11 1002 62 10000 6.17 140 13:29 15.06.2022
1539 Clouds 11 1002 62 10000 5.66 150 12:47 15.06.2022
1540 Clouds 10 1002 66 10000 6.17 140 11:25 15.06.2022
1541 Clouds 10 1002 66 10000 5.14 150 10:22 15.06.2022
1542 Clouds 10 1002 71 10000 6.69 140 09:34 15.06.2022
1543 Clouds 8 1002 81 10000 3.6 140 07:43 15.06.2022
1544 Clouds 8 1002 76 10000 4.12 110 05:57 15.06.2022
1545 Clouds 8 1002 76 10000 4.63 120 02:55 15.06.2022
1546 Clouds 8 1002 81 10000 2.57 140 01:37 15.06.2022
1547 Clouds 9 1002 75 10000 4.63 130 00:37 15.06.2022
1548 Clouds 8 1001 81 10000 5.14 190 23:38 14.06.2022
1549 Clouds 10 1001 71 10000 6.17 160 22:48 14.06.2022
1550 Clouds 10 1001 76 10000 6.69 160 21:44 14.06.2022
1551 Clouds 10 1001 76 10000 6.69 160 21:21 14.06.2022
1552 Clouds 11 1000 62 10000 7.72 160 20:40 14.06.2022
1553 Clouds 11 1000 62 10000 7.2 180 19:58 14.06.2022
1554 Clouds 11 999 62 10000 8.23 160 18:45 14.06.2022
1555 Clouds 10 999 81 10000 6.17 180 17:20 14.06.2022
1556 Clouds 11 999 66 10000 8.23 160 16:43 14.06.2022
1557 Clouds 12 998 58 10000 8.23 170 15:49 14.06.2022
1558 Clouds 11 998 62 10000 6.69 160 14:56 14.06.2022
1559 Clouds 11 998 62 10000 6.69 160 14:18 14.06.2022
1560 Clouds 11 998 62 10000 8.23 170 13:29 14.06.2022
1561 Clouds 11 997 62 10000 6.17 180 12:25 14.06.2022
1562 Clouds 9 997 76 10000 3.09 180 10:59 14.06.2022
1563 Clouds 9 997 76 10000 3.09 180 10:59 14.06.2022
1564 Clouds 9 997 76 10000 3.09 180 10:33 14.06.2022
1565 Clouds 9 996 76 10000 3.09 190 09:28 14.06.2022
1566 Clouds 9 996 76 10000 3.09 190 09:28 14.06.2022
1567 Clouds 8 996 87 10000 3.09 190 08:41 14.06.2022
1568 Clouds 8 994 87 8000 6.69 230 06:54 14.06.2022
1569 Clouds 10 993 87 10000 5.66 190 04:28 14.06.2022
1570 Drizzle 11 992 82 10000 5.66 140 01:50 14.06.2022
1571 Drizzle 12 992 76 10000 6.17 140 00:27 14.06.2022
1572 Clouds 12 992 76 10000 5.66 120 23:18 13.06.2022
1573 Clouds 12 992 76 10000 5.14 120 22:24 13.06.2022
1574 Clouds 12 993 76 10000 6.69 130 21:41 13.06.2022
1575 Clouds 12 994 82 10000 7.2 120 19:59 13.06.2022
1576 Clouds 12 994 82 10000 7.2 120 19:26 13.06.2022
1577 Clouds 11 995 82 10000 6.69 150 17:57 13.06.2022
1578 Rain 11 995 82 10000 6.69 150 17:35 13.06.2022
1579 Clouds 12 996 76 10000 7.72 150 16:32 13.06.2022
1580 Clouds 12 997 76 10000 8.23 150 14:53 13.06.2022
1581 Clouds 12 997 76 10000 8.23 150 14:33 13.06.2022
1582 Clouds 12 997 76 10000 6.17 150 13:41 13.06.2022
1583 Clouds 11 998 82 10000 6.69 140 12:25 13.06.2022
1584 Clouds 11 998 82 10000 3.09 130 11:25 13.06.2022
1585 Clouds 11 998 82 10000 3.6 140 10:26 13.06.2022
1586 Rain 10 999 87 10000 2.06 150 09:23 13.06.2022
1587 Rain 10 999 81 10000 4.12 100 07:34 13.06.2022
1588 Clouds 9 1000 81 10000 6.17 110 05:39 13.06.2022
1589 Clouds 9 1002 76 10000 3.6 100 02:47 13.06.2022
1590 Clouds 9 1002 71 10000 4.12 120 01:37 13.06.2022
1591 Rain 9 1004 76 10000 1.03 0 23:52 12.06.2022
1592 Rain 9 1004 76 10000 1.03 0 23:24 12.06.2022
1593 Clouds 9 1004 76 10000 1.54 280 22:22 12.06.2022
1594 Clouds 9 1004 76 10000 2.57 290 21:20 12.06.2022
1595 Clouds 9 1005 76 10000 2.57 270 20:27 12.06.2022
1596 Clouds 10 1005 76 10000 3.6 280 19:30 12.06.2022
1597 Clouds 10 1005 76 10000 3.6 280 19:30 12.06.2022
1598 Clouds 11 1005 71 10000 5.14 260 17:51 12.06.2022
1599 Clouds 11 1005 71 10000 5.14 270 16:24 12.06.2022
1600 Clouds 11 1005 66 10000 4.12 290 14:58 12.06.2022
1601 Clouds 11 1005 66 10000 4.12 290 14:23 12.06.2022
1602 Clouds 11 1005 66 10000 5.66 320 13:55 12.06.2022
1603 Clouds 11 1005 66 10000 4.63 290 12:40 12.06.2022
1604 Clear 10 1005 66 10000 3.09 310 11:39 12.06.2022
1605 Clear 10 1004 71 10000 4.12 330 10:38 12.06.2022
1606 Clouds 9 1004 79 10000 2.9 338 09:19 12.06.2022
1607 Clouds 9 1003 76 10000 4.12 340 08:45 12.06.2022
1608 Clouds 9 1002 76 10000 4.12 340 07:33 12.06.2022
1609 Clouds 10 1001 82 10000 2.57 330 04:52 12.06.2022
1610 Clouds 10 1000 81 10000 5.14 300 03:24 12.06.2022
1611 Drizzle 10 999 76 10000 6.69 310 01:42 12.06.2022
1612 Clouds 10 999 81 10000 6.69 300 00:58 12.06.2022
1613 Clouds 10 999 81 10000 6.69 300 00:21 12.06.2022
1614 Clouds 11 998 71 10000 6.17 310 23:44 11.06.2022
1615 Clouds 11 998 71 10000 8.23 300 22:39 11.06.2022
1616 Clouds 11 998 71 10000 8.75 300 21:53 11.06.2022
1617 Clouds 12 997 66 10000 7.72 320 20:38 11.06.2022
1618 Clouds 13 997 62 10000 8.75 320 19:59 11.06.2022
1619 Clouds 13 997 62 10000 8.75 320 19:26 11.06.2022
1620 Clouds 13 996 62 10000 8.23 320 18:34 11.06.2022
1621 Clouds 12 996 66 10000 8.75 320 17:51 11.06.2022
1622 Clouds 12 996 66 10000 8.75 320 17:28 11.06.2022
1623 Clouds 13 996 58 10000 6.17 330 16:57 11.06.2022
1624 Clouds 13 996 58 10000 6.17 330 16:30 11.06.2022
1625 Clouds 13 995 62 10000 7.2 350 15:43 11.06.2022
1626 Clouds 11 995 66 10000 7.72 350 13:53 11.06.2022
1627 Clear 13 995 58 10000 2.06 300 12:57 11.06.2022
1628 Clear 11 994 66 10000 2.57 330 10:55 11.06.2022
1629 Clear 11 994 66 10000 2.57 330 10:19 11.06.2022
1630 Clear 11 994 66 10000 1.03 0 09:19 11.06.2022
1631 Clear 9 994 81 10000 2.57 70 07:43 11.06.2022
1632 Clouds 9 993 81 10000 1.54 60 06:30 11.06.2022
1633 Clear 9 993 81 10000 2.06 120 05:19 11.06.2022
1634 Clear 14 993 51 10000 2.57 70 01:53 11.06.2022
1635 Clear 14 993 51 10000 2.57 70 01:33 11.06.2022
1636 Clouds 11 993 68 10000 2.99 3 00:21 11.06.2022
1637 Clouds 16 992 44 10000 5.14 360 22:32 10.06.2022
1638 Clouds 16 992 44 10000 6.69 10 21:52 10.06.2022
1639 Clouds 16 992 44 10000 7.2 20 20:42 10.06.2022
1640 Clouds 16 992 44 10000 7.2 20 20:22 10.06.2022
1641 Clouds 17 992 45 10000 5.14 10 19:48 10.06.2022
1642 Clouds 17 992 45 10000 5.14 10 19:18 10.06.2022
1643 Clouds 17 992 42 10000 5.66 10 18:19 10.06.2022
1644 Clouds 17 992 42 10000 5.66 340 17:36 10.06.2022
1645 Clear 15 993 47 10000 5.14 330 16:55 10.06.2022
1646 Clear 16 993 53 10000 5.14 350 15:47 10.06.2022
1647 Clear 15 994 47 10000 4.63 360 14:57 10.06.2022
1648 Clear 13 994 50 10000 4.12 340 13:41 10.06.2022
1649 Clear 11 994 66 10000 3.09 360 12:28 10.06.2022
1650 Clear 12 995 62 10000 1.03 0 11:40 10.06.2022
1651 Clouds 10 995 76 10000 1.03 0 10:37 10.06.2022
1652 Clear 10 995 81 10000 0.51 0 09:43 10.06.2022
1653 Clouds 9 996 81 10000 0.51 0 08:23 10.06.2022
1654 Haze 9 997 81 7000 1.54 140 06:52 10.06.2022
1655 Haze 9 997 81 7000 1.54 140 06:32 10.06.2022
1656 Haze 9 998 87 8000 2.57 250 05:45 10.06.2022
1657 Haze 10 1000 76 9000 3.09 280 02:55 10.06.2022
1658 Clear 10 1001 76 10000 2.06 240 01:38 10.06.2022
1659 Clouds 10 1001 72 10000 3.57 24 00:25 10.06.2022
1660 Clear 12 1002 71 10000 3.09 270 23:25 09.06.2022
1661 Clouds 12 1003 76 10000 5.14 250 21:47 09.06.2022
1662 Clouds 12 1003 76 10000 5.14 250 21:29 09.06.2022
1663 Haze 13 1004 71 10000 5.14 290 20:54 09.06.2022
1664 Haze 14 1004 58 10000 2.57 260 19:55 09.06.2022
1665 Clouds 17 1005 27 10000 5.66 110 18:49 09.06.2022
1666 Clouds 17 1005 27 10000 5.66 110 18:21 09.06.2022
1667 Clear 17 1006 25 10000 5.66 90 16:46 09.06.2022
1668 Clear 17 1007 22 10000 6.17 90 15:47 09.06.2022
1669 Clear 16 1007 21 10000 5.14 110 14:35 09.06.2022
1670 Clear 15 1008 31 10000 5.14 80 13:47 09.06.2022
1671 Clear 15 1008 31 10000 5.14 80 13:26 09.06.2022
1672 Clear 12 1009 40 10000 4.12 80 11:54 09.06.2022
1673 Clear 11 1009 43 10000 4.12 90 10:53 09.06.2022
1674 Clear 10 1010 76 10000 1.54 190 09:42 09.06.2022
1675 Clear 10 1010 76 10000 1.54 190 09:23 09.06.2022
1676 Clear 10 1010 71 10000 1.03 0 07:44 09.06.2022
1677 Clouds 10 1011 71 10000 2.06 40 05:47 09.06.2022
1678 Clouds 11 1011 66 10000 2.06 140 01:59 09.06.2022
1679 Clouds 11 1011 71 10000 3.6 230 23:34 08.06.2022
1680 Clouds 12 1011 71 10000 3.6 240 22:56 08.06.2022
1681 Clouds 12 1011 71 10000 3.6 240 22:26 08.06.2022
1682 Clouds 13 1011 71 10000 2.57 260 21:52 08.06.2022
1683 Drizzle 12 1011 76 10000 3.6 340 20:57 08.06.2022
1684 Clouds 13 1011 71 10000 4.63 340 19:55 08.06.2022
1685 Clouds 13 1011 71 10000 4.63 340 19:27 08.06.2022
1686 Rain 12 1011 71 10000 3.6 330 18:42 08.06.2022
1687 Rain 13 1011 58 10000 3.09 340 16:39 08.06.2022
1688 Clouds 12 1011 58 10000 1.03 0 15:27 08.06.2022
1689 Clouds 12 1011 62 10000 3.09 120 13:37 08.06.2022
1690 Clouds 12 1011 62 10000 4.63 100 11:51 08.06.2022
1691 Clouds 12 1011 62 10000 4.63 100 11:25 08.06.2022
1692 Clouds 9 1011 76 10000 2.57 100 09:48 08.06.2022
1693 Clouds 9 1011 76 10000 2.57 100 09:20 08.06.2022
1694 Clear 9 1011 76 10000 3.6 90 08:18 08.06.2022
1695 Clouds 10 1011 81 10000 1.54 90 05:47 08.06.2022
1696 Drizzle 11 1011 71 10000 1.03 100 03:20 08.06.2022
1697 Clouds 12 1012 72 10000 3.09 120 00:28 08.06.2022
1698 Clouds 12 1011 66 10000 3.6 130 23:25 07.06.2022
1699 Clouds 13 1012 58 10000 3.6 110 22:42 07.06.2022
1700 Clouds 13 1012 58 10000 3.6 110 22:20 07.06.2022
1701 Clouds 13 1011 62 10000 5.66 120 21:28 07.06.2022
1702 Clouds 14 1011 54 10000 6.17 150 20:53 07.06.2022
1703 Clouds 14 1011 54 10000 6.17 150 20:31 07.06.2022
1704 Clouds 14 1012 54 10000 7.72 140 19:27 07.06.2022
1705 Clouds 14 1012 54 10000 6.69 130 18:19 07.06.2022
1706 Clouds 15 1012 51 10000 7.72 140 17:21 07.06.2022
1707 Clouds 14 1012 58 10000 7.72 140 16:41 07.06.2022
1708 Clouds 14 1012 58 10000 6.69 140 15:44 07.06.2022
1709 Clouds 14 1012 58 10000 6.69 140 15:24 07.06.2022
1710 Clouds 13 1013 62 10000 8.23 140 14:46 07.06.2022
1711 Clouds 13 1013 62 10000 8.23 140 14:27 07.06.2022
1712 Clouds 12 1013 66 10000 5.14 120 13:30 07.06.2022
1713 Clouds 12 1013 66 10000 6.17 120 12:45 07.06.2022
1714 Clouds 12 1013 66 10000 5.66 130 11:37 07.06.2022
1715 Clouds 11 1013 76 10000 7.2 120 10:26 07.06.2022
1716 Clouds 11 1012 76 10000 8.75 120 08:49 07.06.2022
1717 Clouds 11 1012 76 10000 8.75 120 08:49 07.06.2022
1718 Clouds 11 1012 76 10000 8.75 120 08:49 07.06.2022
1719 Clouds 11 1012 76 10000 8.75 120 08:49 07.06.2022
1720 Clouds 10 1012 81 10000 7.2 120 07:32 07.06.2022
1721 Clouds 11 1013 76 10000 7.72 140 05:56 07.06.2022
1722 Drizzle 11 1013 82 10000 5.14 140 03:22 07.06.2022
1723 Drizzle 11 1013 82 10000 5.66 140 00:44 07.06.2022
1724 Clouds 12 1013 71 10000 4.63 150 23:35 06.06.2022
1725 Drizzle 12 1013 71 10000 4.12 150 22:47 06.06.2022
1726 Clouds 12 1013 71 10000 4.63 140 21:49 06.06.2022
1727 Clouds 12 1013 71 10000 5.66 150 20:35 06.06.2022
1728 Clouds 12 1013 66 10000 3.09 130 19:24 06.06.2022
1729 Clouds 12 1013 66 10000 2.57 120 18:47 06.06.2022
1730 Clouds 11 1013 71 10000 2.06 140 17:55 06.06.2022
1731 Clouds 12 1014 62 10000 3.09 150 16:51 06.06.2022
1732 Clouds 12 1013 47 10000 3.09 90 15:44 06.06.2022
1733 Clouds 11 1013 40 10000 3.09 90 14:57 06.06.2022
1734 Clear 11 1013 35 10000 4.12 90 13:40 06.06.2022
1735 Clear 11 1013 35 10000 4.12 90 13:19 06.06.2022
1736 Clear 9 1014 46 10000 4.63 90 12:33 06.06.2022
1737 Clear 8 1014 49 10000 4.63 70 11:45 06.06.2022
1738 Clear 7 1014 49 10000 3.09 90 09:51 06.06.2022
1739 Clear 6 1013 61 10000 3.09 110 08:44 06.06.2022
1740 Clear 6 1013 56 10000 2.57 110 07:44 06.06.2022
1741 Clear 6 1013 61 10000 1.54 110 06:49 06.06.2022
1742 Clear 7 1013 75 10000 4.12 90 04:38 06.06.2022
1743 Clouds 8 1013 61 10000 2.57 320 01:53 06.06.2022
1744 Clouds 8 1013 76 10000 2.57 310 00:57 06.06.2022
1745 Clouds 8 1013 76 10000 2.57 310 00:34 06.06.2022
1746 Rain 8 1012 87 10000 4.63 300 22:59 05.06.2022
1747 Rain 8 1012 87 10000 4.63 300 22:19 05.06.2022
1748 Rain 9 1011 87 5000 4.12 300 20:23 05.06.2022
1749 Rain 10 1011 93 3000 5.66 230 18:57 05.06.2022
1750 Rain 10 1011 93 3000 5.66 230 18:18 05.06.2022
1751 Rain 9 1011 87 2000 1.54 120 17:38 05.06.2022
1752 Rain 9 1011 87 2000 1.54 120 17:20 05.06.2022
1753 Drizzle 8 1012 81 3000 3.09 90 16:47 05.06.2022
1754 Clouds 10 1012 57 10000 5.66 150 15:25 05.06.2022
1755 Clouds 11 1013 35 10000 4.12 180 14:21 05.06.2022
1756 Clear 9 1015 57 10000 1.03 0 11:59 05.06.2022
1757 Clear 7 1016 70 10000 1.03 0 10:45 05.06.2022
1758 Clear 7 1016 70 10000 1.03 0 10:24 05.06.2022
1759 Clear 7 1016 70 10000 1.54 120 09:42 05.06.2022
1760 Clear 6 1016 81 10000 0.51 0 08:25 05.06.2022
1761 Clear 3 1017 87 10000 1.54 120 06:25 05.06.2022
1762 Clear 5 1018 66 10000 0.8 336 05:19 05.06.2022
1763 Clear 7 1018 70 10000 1.03 340 02:57 05.06.2022
1764 Clear 7 1019 70 10000 2.06 320 01:24 05.06.2022
1765 Clear 7 1019 70 10000 2.06 320 01:24 05.06.2022
1766 Clear 8 1020 75 10000 3.09 290 23:36 04.06.2022
1767 Clouds 8 1020 76 10000 3.6 290 21:31 04.06.2022
1768 Clear 8 1020 71 10000 3.6 290 19:46 04.06.2022
1769 Clear 8 1021 66 10000 4.63 290 17:28 04.06.2022
1770 Clear 8 1021 66 10000 3.6 280 16:22 04.06.2022
1771 Clear 8 1021 66 10000 3.6 270 15:51 04.06.2022
1772 Clear 8 1022 66 10000 3.09 300 14:22 04.06.2022
1773 Clouds 7 1022 65 10000 2.06 310 11:45 04.06.2022
1774 Clouds 7 1022 65 10000 3.09 330 10:55 04.06.2022
1775 Clouds 7 1022 65 10000 3.09 330 10:19 04.06.2022
1776 Clouds 6 1022 70 10000 3.6 340 09:39 04.06.2022
1777 Clouds 6 1022 70 10000 4.12 310 08:39 04.06.2022
1778 Clouds 6 1021 70 10000 4.63 300 07:27 04.06.2022
1779 Clouds 6 1022 77 10000 5.14 280 04:33 04.06.2022
1780 Clouds 6 1022 77 10000 5.14 280 04:33 04.06.2022
1781 Clouds 6 1022 77 10000 5.14 280 04:33 04.06.2022
1782 Clouds 6 1022 77 10000 5.14 280 04:33 04.06.2022
1783 Clouds 8 1021 71 10000 5.66 260 00:48 04.06.2022
1784 Clouds 8 1021 71 10000 5.66 260 23:31 03.06.2022
1785 Clouds 8 1020 71 10000 5.66 260 22:28 03.06.2022
1786 Clouds 9 1020 76 10000 5.66 250 20:42 03.06.2022
1787 Clouds 9 1020 76 10000 5.66 250 20:42 03.06.2022
1788 Clouds 9 1020 76 10000 5.66 250 20:18 03.06.2022
1789 Clouds 8 1020 76 10000 2.57 280 17:39 03.06.2022
1790 Rain 8 1020 76 10000 3.6 280 16:37 03.06.2022
1791 Rain 8 1020 82 10000 3.09 240 14:53 03.06.2022
1792 Rain 8 1020 81 10000 2.57 240 12:52 03.06.2022
1793 Rain 8 1020 87 10000 3.6 280 10:54 03.06.2022
1794 Rain 9 1019 81 10000 7.2 230 09:37 03.06.2022
1795 Clouds 9 1019 87 10000 3.6 180 08:32 03.06.2022
1796 Rain 8 1019 87 3300 4.12 180 07:26 03.06.2022
1797 Rain 9 1019 87 10000 3.09 200 06:32 03.06.2022
1798 Rain 9 1020 87 10000 3.6 160 05:19 03.06.2022
1799 Clouds 9 1020 71 10000 4.12 170 00:25 03.06.2022
1800 Clouds 9 1020 66 10000 5.14 220 22:41 02.06.2022
1801 Clouds 9 1020 66 10000 4.12 210 21:38 02.06.2022
1802 Clouds 9 1020 66 10000 6.17 230 20:22 02.06.2022
1803 Clouds 9 1020 71 10000 5.66 240 19:43 02.06.2022
1804 Clouds 9 1020 71 10000 5.66 240 19:23 02.06.2022
1805 Drizzle 9 1019 76 10000 4.12 240 16:47 02.06.2022
1806 Drizzle 9 1019 76 10000 4.12 240 16:27 02.06.2022
1807 Clouds 9 1019 76 10000 4.12 230 14:19 02.06.2022
1808 Clouds 9 1018 76 10000 3.6 220 13:29 02.06.2022
1809 Clouds 9 1018 76 10000 4.63 220 11:24 02.06.2022
1810 Drizzle 8 1018 87 10000 5.14 230 10:20 02.06.2022
1811 Drizzle 8 1018 87 10000 3.6 210 09:27 02.06.2022
1812 Clouds 8 1018 87 10000 2.57 180 08:26 02.06.2022
1813 Drizzle 8 1018 93 10000 3.09 210 07:21 02.06.2022
1814 Clouds 11 1018 71 10000 3.6 140 04:52 02.06.2022
1815 Clouds 11 1018 76 10000 2.57 150 02:38 02.06.2022
1816 Clouds 11 1019 76 10000 0 0 23:47 01.06.2022
1817 Clouds 11 1019 76 10000 2.06 280 22:32 01.06.2022
1818 Clouds 11 1019 76 10000 2.57 300 21:35 01.06.2022
1819 Clouds 11 1019 82 10000 2.06 290 20:58 01.06.2022
1820 Clouds 11 1019 82 10000 2.06 290 20:37 01.06.2022
1821 Clouds 11 1019 76 10000 2.57 290 19:25 01.06.2022
1822 Clouds 11 1019 76 10000 2.57 350 17:46 01.06.2022
1823 Drizzle 10 1019 81 10000 2.57 290 16:38 01.06.2022
1824 Clouds 11 1019 82 10000 3.6 290 14:59 01.06.2022
1825 Clouds 11 1018 82 10000 3.6 290 13:53 01.06.2022
1826 Clouds 11 1018 76 10000 3.6 330 12:26 01.06.2022
1827 Clouds 11 1018 76 10000 3.6 330 12:26 01.06.2022
1828 Clouds 10 1017 76 10000 3.09 60 09:48 01.06.2022
1829 Clouds 9 1017 76 10000 2.06 100 08:53 01.06.2022
1830 Clouds 9 1017 76 10000 2.57 90 07:24 01.06.2022
1831 Clouds 9 1017 81 10000 2.57 90 05:52 01.06.2022
1832 Drizzle 10 1016 87 3500 3.6 90 00:40 01.06.2022
1833 Drizzle 10 1015 87 10000 2.06 130 23:30 31.05.2022
1834 Drizzle 10 1015 87 10000 2.06 130 23:30 31.05.2022
1835 Clouds 11 1015 82 10000 2.57 110 22:37 31.05.2022
1836 Clouds 10 1015 87 10000 1.54 360 21:46 31.05.2022
1837 Clouds 10 1014 87 10000 2.57 310 20:45 31.05.2022
1838 Clouds 10 1014 87 10000 2.57 310 20:20 31.05.2022
1839 Clouds 10 1014 87 10000 2.57 290 18:53 31.05.2022
1840 Clouds 10 1014 87 10000 4.12 300 17:50 31.05.2022
1841 Clouds 11 1014 82 10000 2.57 0 16:57 31.05.2022
1842 Clouds 13 1014 71 10000 5.14 150 15:41 31.05.2022
1843 Clouds 11 1013 87 10000 1.54 220 14:18 31.05.2022
1844 Drizzle 10 1013 93 4000 1.54 280 12:20 31.05.2022
1845 Drizzle 10 1013 87 800 2.06 260 10:55 31.05.2022
1846 Drizzle 10 1013 87 800 2.06 260 10:55 31.05.2022
1847 Drizzle 9 1013 93 4000 2.06 240 09:31 31.05.2022
1848 Fog 9 1013 93 1000 1.54 170 07:25 31.05.2022
1849 Drizzle 9 1014 93 2000 1.03 260 05:20 31.05.2022
1850 Mist 9 1016 87 2000 1.54 250 00:52 31.05.2022
1851 Fog 9 1016 93 1000 2.57 280 23:27 30.05.2022
1852 Fog 9 1017 87 1000 1.54 240 22:56 30.05.2022
1853 Fog 9 1017 87 200 2.57 230 21:59 30.05.2022
1854 Clouds 10 1017 81 10000 2.06 240 21:33 30.05.2022
1855 Clouds 9 1018 87 10000 3.09 260 20:20 30.05.2022
1856 Fog 9 1019 87 500 2.57 250 18:41 30.05.2022
1857 Fog 9 1019 87 1000 3.09 280 17:38 30.05.2022
1858 Fog 10 1020 87 9000 2.57 270 16:44 30.05.2022
1859 Clouds 10 1021 81 10000 2.57 290 14:51 30.05.2022
1860 Clouds 9 1022 93 10000 1.03 0 12:29 30.05.2022
1861 Fog 7 1023 100 800 1.54 230 10:46 30.05.2022
1862 Fog 7 1024 93 900 1.54 180 09:38 30.05.2022
1863 Fog 7 1025 93 300 2.06 250 07:22 30.05.2022
1864 Fog 8 1026 93 800 1.03 0 05:49 30.05.2022
1865 Fog 8 1028 93 800 1.54 230 01:48 30.05.2022
1866 Fog 9 1029 87 700 1.54 260 23:21 29.05.2022
1867 Fog 9 1029 93 900 1.54 240 22:38 29.05.2022
1868 Fog 10 1030 87 800 4.12 290 20:57 29.05.2022
1869 Clear 12 1030 76 10000 4.63 290 19:34 29.05.2022
1870 Clear 13 1030 71 10000 4.63 330 18:59 29.05.2022
1871 Clear 13 1030 71 10000 5.66 290 17:31 29.05.2022
1872 Clear 13 1031 54 10000 4.63 330 15:49 29.05.2022
1873 Clear 13 1031 54 10000 4.63 330 15:23 29.05.2022
1874 Clear 14 1031 58 10000 3.09 330 14:18 29.05.2022
1875 Clear 13 1031 58 10000 1.54 240 11:48 29.05.2022
1876 Clear 12 1031 66 10000 2.06 80 10:40 29.05.2022
1877 Clear 10 1031 71 10000 3.09 90 09:31 29.05.2022
1878 Clear 8 1031 81 10000 4.12 90 06:51 29.05.2022
1879 Clear 8 1032 79 10000 4.63 80 04:47 29.05.2022
1880 Clouds 8 1033 83 10000 2.24 134 04:19 29.05.2022
1881 Clear 13 1030 54 10000 3.6 140 23:53 28.05.2022
1882 Clear 13 1030 54 10000 3.6 140 23:34 28.05.2022
1883 Clear 13 1030 54 10000 4.63 150 22:40 28.05.2022
1884 Clear 13 1030 54 10000 5.66 150 21:40 28.05.2022
1885 Clear 14 1030 51 10000 6.69 160 19:51 28.05.2022
1886 Clear 14 1030 51 10000 7.2 160 18:58 28.05.2022
1887 Clear 14 1030 51 10000 7.72 140 17:38 28.05.2022
1888 Clear 14 1030 55 10000 7.2 130 16:50 28.05.2022
1889 Clear 14 1029 51 10000 8.75 150 15:44 28.05.2022
1890 Clouds 13 1029 54 10000 6.69 130 14:35 28.05.2022
1891 Clouds 13 1029 54 10000 8.23 140 13:21 28.05.2022
1892 Clouds 12 1029 58 10000 7.2 120 12:40 28.05.2022
1893 Clouds 11 1029 62 10000 7.72 120 11:26 28.05.2022
1894 Clouds 11 1028 62 10000 6.69 120 10:25 28.05.2022
1895 Clouds 10 1028 66 10000 6.17 110 09:22 28.05.2022
1896 Clear 9 1027 76 10000 4.12 80 07:23 28.05.2022
1897 Clouds 8 1027 81 10000 3.6 100 06:32 28.05.2022
1898 Clear 9 1026 71 10000 3.09 110 03:53 28.05.2022
1899 Clouds 11 1025 62 10000 6.17 140 00:33 28.05.2022
1900 Clouds 12 1024 54 10000 5.66 150 23:34 27.05.2022
1901 Clouds 13 1024 47 10000 2.06 260 22:24 27.05.2022
1902 Clouds 14 1023 47 10000 3.6 290 20:58 27.05.2022
1903 Clouds 14 1023 47 10000 3.6 290 20:31 27.05.2022
1904 Clouds 14 1023 51 10000 4.63 320 19:55 27.05.2022
1905 Clouds 14 1023 51 10000 4.63 320 19:33 27.05.2022
1906 Clouds 14 1022 47 10000 4.63 330 18:37 27.05.2022
1907 Clouds 13 1022 47 10000 4.63 350 16:42 27.05.2022
1908 Clouds 12 1022 50 10000 4.63 360 15:44 27.05.2022
1909 Clouds 12 1021 54 10000 4.12 330 14:45 27.05.2022
1910 Clouds 11 1021 62 10000 3.09 340 13:30 27.05.2022
1911 Clouds 10 1019 62 10000 1.54 0 11:41 27.05.2022
1912 Clouds 10 1019 62 10000 1.54 0 11:23 27.05.2022
1913 Clear 9 1018 71 10000 1.03 0 10:35 27.05.2022
1914 Clouds 8 1018 71 10000 1.54 30 09:42 27.05.2022
1915 Clouds 7 1017 76 10000 1.03 0 08:24 27.05.2022
1916 Clouds 6 1015 81 10000 2.57 190 06:50 27.05.2022
1917 Clear 7 1011 70 10000 1.54 120 02:56 27.05.2022
1918 Clear 8 1009 71 10000 7.2 350 00:53 27.05.2022
1919 Clouds 10 1007 57 10000 5.14 360 22:50 26.05.2022
1920 Clouds 11 1006 54 10000 4.12 10 21:43 26.05.2022
1921 Clouds 12 1005 50 10000 6.69 10 20:59 26.05.2022
1922 Clouds 12 1003 50 10000 6.17 10 19:29 26.05.2022
1923 Clouds 12 1002 50 10000 7.2 10 18:24 26.05.2022
1924 Clouds 12 1000 54 10000 5.66 360 16:58 26.05.2022
1925 Clouds 10 999 66 10000 4.63 340 15:52 26.05.2022
1926 Clouds 10 999 66 10000 4.63 340 15:18 26.05.2022
1927 Clouds 9 997 71 10000 7.72 330 13:45 26.05.2022
1928 Clouds 8 995 71 10000 7.72 350 11:38 26.05.2022
1929 Clouds 7 994 70 10000 4.12 60 10:37 26.05.2022
1930 Clouds 6 993 81 10000 0.51 0 09:37 26.05.2022
1931 Clouds 6 992 81 10000 1.54 30 08:38 26.05.2022
1932 Drizzle 6 990 81 10000 0.51 0 05:25 26.05.2022
1933 Clear 7 989 81 10000 1.03 0 01:26 26.05.2022
1934 Clouds 8 989 76 10000 3.09 310 23:41 25.05.2022
1935 Clouds 9 989 66 10000 2.57 320 22:51 25.05.2022
1936 Clouds 9 989 71 10000 3.09 320 21:39 25.05.2022
1937 Clouds 9 988 66 10000 3.09 340 20:43 25.05.2022
1938 Clouds 9 988 66 10000 3.09 10 19:32 25.05.2022
1939 Clouds 8 988 66 10000 0 0 18:23 25.05.2022
1940 Clouds 8 988 71 10000 2.57 20 16:53 25.05.2022
1941 Clouds 8 988 71 10000 2.57 20 16:25 25.05.2022
1942 Clouds 8 988 71 10000 2.06 300 15:36 25.05.2022
1943 Clouds 7 988 76 10000 0.51 0 14:42 25.05.2022
1944 Clouds 7 988 76 10000 0.51 0 14:24 25.05.2022
1945 Clouds 7 988 76 10000 1.54 340 13:21 25.05.2022
1946 Clouds 7 988 78 10000 0.75 119 11:32 25.05.2022
1947 Clouds 7 987 76 10000 1.03 0 10:23 25.05.2022
1948 Clouds 5 987 83 10000 1.66 139 08:53 25.05.2022
1949 Clouds 5 987 91 10000 1.96 112 07:26 25.05.2022
1950 Clouds 5 987 87 10000 1.54 150 05:27 25.05.2022
1951 Clouds 5 988 92 3534 1.4 180 01:51 25.05.2022
1952 Clouds 7 988 81 10000 3.6 210 23:48 24.05.2022
1953 Clouds 8 988 76 10000 0 0 22:58 24.05.2022
1954 Rain 8 988 81 10000 0.51 0 21:47 24.05.2022
1955 Rain 8 988 81 10000 0.51 0 21:23 24.05.2022
1956 Clouds 7 988 87 10000 1.54 280 20:59 24.05.2022
1957 Rain 8 988 81 9000 2.06 230 19:20 24.05.2022
1958 Rain 8 989 81 9000 2.06 100 18:29 24.05.2022
1959 Rain 8 989 81 10000 7.2 120 16:39 24.05.2022
1960 Rain 9 990 76 10000 5.66 110 15:31 24.05.2022
1961 Clouds 9 991 71 10000 5.66 100 14:38 24.05.2022
1962 Rain 9 991 66 10000 6.17 110 13:46 24.05.2022
1963 Clouds 8 992 76 10000 5.66 110 12:24 24.05.2022
1964 Clouds 7 994 70 10000 2.57 130 09:52 24.05.2022
1965 Clouds 7 994 70 10000 2.06 120 08:52 24.05.2022
1966 Clouds 7 995 76 10000 2.57 140 07:56 24.05.2022
1967 Clouds 7 996 76 10000 2.06 160 06:39 24.05.2022
1968 Clouds 7 997 76 10000 2.06 260 03:38 24.05.2022
1969 Clouds 7 998 76 10000 2.57 260 01:46 24.05.2022
1970 Clouds 7 998 81 10000 3.09 290 00:34 24.05.2022
1971 Clouds 9 998 76 10000 3.6 290 22:24 23.05.2022
1972 Clouds 10 999 66 10000 4.12 290 21:53 23.05.2022
1973 Clouds 10 999 66 10000 3.6 280 20:49 23.05.2022
1974 Clouds 10 1000 71 10000 0.91 306 19:56 23.05.2022
1975 Clouds 10 1000 71 10000 1.11 18 19:27 23.05.2022
1976 Clouds 10 999 66 10000 5.14 290 18:41 23.05.2022
1977 Clouds 10 1000 62 10000 5.66 290 17:56 23.05.2022
1978 Clouds 11 1000 58 10000 4.12 320 16:40 23.05.2022
1979 Clouds 10 1001 62 10000 5.14 290 14:20 23.05.2022
1980 Clear 10 1002 66 10000 2.57 260 11:57 23.05.2022
1981 Clear 9 1003 61 10000 1.54 140 10:58 23.05.2022
1982 Clear 8 1004 71 10000 1.54 120 09:48 23.05.2022
1983 Clear 7 1004 70 10000 0.51 0 08:50 23.05.2022
1984 Clouds 6 1004 70 10000 1.03 0 07:41 23.05.2022
1985 Clear 4 1004 77 10000 2.44 54 06:41 23.05.2022
1986 Clear 6 1006 72 10000 3.09 110 04:40 23.05.2022
1987 Clear 9 1007 57 10000 4.63 90 02:19 23.05.2022
1988 Clear 9 1007 66 10000 3.6 50 01:33 23.05.2022
1989 Clear 11 1007 62 10000 3.09 360 23:22 22.05.2022
1990 Clear 11 1007 58 10000 5.14 360 22:34 22.05.2022
1991 Clouds 13 1006 50 10000 5.14 360 21:54 22.05.2022
1992 Clouds 13 1007 54 10000 5.66 360 20:51 22.05.2022
1993 Clouds 13 1007 54 10000 5.66 360 20:23 22.05.2022
1994 Clouds 12 1007 54 10000 6.17 350 19:54 22.05.2022
1995 Clouds 13 1007 54 10000 6.69 350 18:53 22.05.2022
1996 Clouds 13 1007 54 10000 6.69 350 18:24 22.05.2022
1997 Clouds 13 1007 54 10000 5.66 350 17:28 22.05.2022
1998 Clouds 13 1007 44 10000 2.57 20 15:59 22.05.2022
1999 Clouds 12 1007 54 10000 2.57 310 14:48 22.05.2022
2000 Clouds 11 1006 54 10000 3.09 290 13:38 22.05.2022
2001 Clouds 10 1006 62 10000 2.57 300 12:50 22.05.2022
2002 Clouds 10 1006 57 10000 1.54 190 11:37 22.05.2022
2003 Clear 8 1006 66 10000 1.03 0 09:42 22.05.2022
2004 Clouds 7 1005 76 10000 4.12 190 08:31 22.05.2022
2005 Clouds 5 1005 75 10000 1.03 0 07:21 22.05.2022
2006 Clouds 6 1004 75 10000 1.54 130 05:31 22.05.2022
2007 Clouds 9 1003 71 10000 2.57 360 01:41 22.05.2022
2008 Clouds 10 1002 66 10000 2.57 20 00:43 22.05.2022
2009 Clouds 10 1002 66 10000 7.2 360 23:54 21.05.2022
2010 Clouds 11 1001 66 10000 5.14 350 22:57 21.05.2022
2011 Clouds 12 1000 62 10000 7.72 360 21:42 21.05.2022
2012 Clouds 14 1000 54 10000 7.72 10 20:59 21.05.2022
2013 Clouds 14 1000 54 10000 7.72 10 20:22 21.05.2022
2014 Clouds 14 999 54 10000 7.2 360 19:30 21.05.2022
2015 Clouds 13 999 62 10000 8.75 360 17:51 21.05.2022
2016 Clouds 13 998 62 10000 7.72 350 16:43 21.05.2022
2017 Clouds 12 998 66 10000 6.69 350 14:37 21.05.2022
2018 Clouds 13 998 58 10000 5.66 360 13:42 21.05.2022
2019 Clear 11 997 62 10000 5.66 30 12:50 21.05.2022
2020 Clear 11 997 62 10000 5.66 30 12:25 21.05.2022
2021 Clear 10 997 76 10000 1.03 0 10:34 21.05.2022
2022 Clear 9 997 81 10000 1.03 0 09:43 21.05.2022
2023 Clear 8 996 93 10000 0.51 0 08:57 21.05.2022
2024 Clear 6 996 93 10000 1.03 300 07:54 21.05.2022
2025 Clouds 9 997 88 10000 1.91 352 04:29 21.05.2022
2026 Clouds 13 995 67 10000 2.57 0 23:54 20.05.2022
2027 Clouds 12 994 66 10000 3.09 350 22:57 20.05.2022
2028 Clouds 12 994 66 10000 3.09 350 22:24 20.05.2022
2029 Clouds 12 994 66 10000 3.09 50 21:43 20.05.2022
2030 Clouds 12 994 66 10000 5.14 360 20:56 20.05.2022
2031 Clouds 12 994 66 10000 5.14 360 20:25 20.05.2022
2032 Clouds 13 994 62 10000 3.6 90 19:26 20.05.2022
2033 Clouds 12 994 71 10000 4.63 80 18:46 20.05.2022
2034 Clouds 13 994 62 10000 5.14 90 17:24 20.05.2022
2035 Clouds 13 993 58 10000 6.69 90 16:20 20.05.2022
2036 Clouds 13 993 58 10000 4.63 70 15:53 20.05.2022
2037 Clouds 13 993 58 10000 4.63 80 14:31 20.05.2022
2038 Clouds 13 993 62 10000 6.17 70 13:55 20.05.2022
2039 Clouds 12 993 70 10000 4.47 115 11:38 20.05.2022
2040 Rain 11 993 66 10000 4.12 80 10:19 20.05.2022
2041 Rain 10 993 71 10000 3.6 60 08:45 20.05.2022
2042 Clouds 9 993 76 10000 4.12 80 07:18 20.05.2022
2043 Clouds 9 993 76 10000 2.57 90 06:34 20.05.2022
2044 Clouds 9 993 87 10000 4.12 90 04:59 20.05.2022
2045 Rain 11 993 71 10000 6.17 90 00:54 20.05.2022
2046 Clouds 12 993 62 10000 5.66 100 22:57 19.05.2022
2047 Clouds 12 993 62 10000 5.66 100 22:25 19.05.2022
2048 Clouds 10 993 76 10000 3.6 350 21:48 19.05.2022
2049 Clouds 10 993 76 10000 3.6 350 21:23 19.05.2022
2050 Clouds 12 992 62 10000 2.06 330 20:39 19.05.2022
2051 Clouds 13 992 58 10000 3.09 120 19:53 19.05.2022
2052 Clouds 12 992 71 10000 6.69 130 18:34 19.05.2022
2053 Rain 13 992 67 10000 6.17 110 17:31 19.05.2022
2054 Clouds 12 993 62 10000 4.12 40 15:33 19.05.2022
2055 Rain 11 993 66 10000 3.6 50 14:29 19.05.2022
2056 Rain 12 993 58 10000 4.12 60 13:50 19.05.2022
2057 Clouds 11 994 66 10000 4.63 90 11:46 19.05.2022
2058 Clouds 9 994 76 10000 4.12 70 09:35 19.05.2022
2059 Clouds 8 994 81 10000 4.63 70 08:27 19.05.2022
2060 Clouds 8 994 87 10000 3.09 40 06:31 19.05.2022
2061 Clouds 9 994 87 8000 2.06 50 02:54 19.05.2022
2062 Clouds 9 994 87 7000 2.06 80 00:47 19.05.2022
2063 Clouds 10 994 81 5000 3.09 110 22:53 18.05.2022
2064 Clouds 10 994 76 10000 1.54 270 22:35 18.05.2022
2065 Clouds 10 994 81 10000 2.06 250 21:31 18.05.2022
2066 Clouds 11 995 76 10000 3.6 250 20:55 18.05.2022
2067 Clouds 11 995 76 10000 3.6 250 20:19 18.05.2022
2068 Clear 10 996 76 10000 3.6 270 18:43 18.05.2022
2069 Clear 10 996 81 10000 5.14 300 17:41 18.05.2022
2070 Clear 10 996 81 10000 5.14 300 17:23 18.05.2022
2071 Clear 13 997 58 10000 4.63 300 16:35 18.05.2022
2072 Clear 14 997 54 10000 3.6 280 15:42 18.05.2022
2073 Clear 14 997 54 10000 3.6 280 15:19 18.05.2022
2074 Clear 14 999 51 10000 3.6 80 13:48 18.05.2022
2075 Clear 13 999 50 10000 4.63 70 12:53 18.05.2022
2076 Clear 13 999 50 10000 4.63 80 11:41 18.05.2022
2077 Clear 13 999 50 10000 4.63 80 11:23 18.05.2022
2078 Clear 11 999 58 10000 5.66 40 09:57 18.05.2022
2079 Clear 10 1000 66 10000 4.63 70 07:56 18.05.2022
2080 Clear 10 1000 66 10000 4.63 80 06:50 18.05.2022
2081 Clear 10 1001 71 10000 7.72 70 02:44 18.05.2022
2082 Clear 12 1001 62 10000 9.26 90 00:31 18.05.2022
2083 Clouds 12 1001 66 10000 6.17 90 22:57 17.05.2022
2084 Rain 13 1002 58 10000 7.72 90 21:21 17.05.2022
2085 Clouds 14 1002 54 10000 7.72 80 20:30 17.05.2022
2086 Clear 14 1002 51 10000 8.23 80 19:29 17.05.2022
2087 Clear 15 1003 47 10000 8.23 90 18:22 17.05.2022
2088 Clouds 14 1004 54 10000 6.17 80 17:28 17.05.2022
2089 Clouds 13 1005 54 10000 7.2 100 16:36 17.05.2022
2090 Clear 11 1006 66 10000 3.6 80 15:43 17.05.2022
2091 Clouds 11 1007 62 10000 6.17 100 14:48 17.05.2022
2092 Rain 11 1007 62 10000 6.17 100 14:23 17.05.2022
2093 Clouds 14 1008 35 10000 8.23 90 12:36 17.05.2022
2094 Clear 13 1010 41 10000 5.66 80 10:23 17.05.2022
2095 Clear 11 1011 54 10000 4.63 90 08:45 17.05.2022
2096 Clear 11 1012 50 10000 5.66 70 07:41 17.05.2022
2097 Clear 11 1013 54 10000 8.75 80 05:58 17.05.2022
2098 Clear 13 1015 54 10000 7.2 90 00:47 17.05.2022
2099 Clear 16 1014 44 10000 6.69 90 22:51 16.05.2022
2100 Clear 16 1014 44 10000 6.69 90 22:30 16.05.2022
2101 Clouds 16 1015 51 10000 8.75 80 20:56 16.05.2022
2102 Clouds 16 1015 51 10000 8.75 80 20:33 16.05.2022
2103 Clouds 16 1015 44 10000 6.17 80 18:41 16.05.2022
2104 Clouds 15 1016 47 10000 5.14 120 16:41 16.05.2022
2105 Clouds 14 1017 54 10000 6.17 100 14:58 16.05.2022
2106 Clouds 13 1017 54 10000 4.63 80 13:34 16.05.2022
2107 Clouds 13 1018 50 10000 5.66 80 12:34 16.05.2022
2108 Clouds 11 1018 62 10000 4.63 100 10:34 16.05.2022
2109 Clouds 10 1017 71 10000 4.63 110 07:47 16.05.2022
2110 Clouds 10 1017 76 10000 6.17 120 05:44 16.05.2022
2111 Clouds 10 1015 81 10000 8.23 150 00:44 16.05.2022
2112 Clouds 11 1014 82 10000 10.29 140 22:42 15.05.2022
2113 Clouds 11 1014 76 10000 7.72 140 21:57 15.05.2022
2114 Clouds 11 1014 76 10000 7.72 140 21:36 15.05.2022
2115 Clouds 11 1013 82 10000 8.23 150 20:38 15.05.2022
2116 Clouds 13 1013 67 10000 9.26 160 18:39 15.05.2022
2117 Clouds 13 1012 71 10000 8.75 160 16:54 15.05.2022
2118 Drizzle 11 1010 87 3800 7.2 170 14:29 15.05.2022
2119 Clouds 11 1009 82 10000 6.17 160 13:45 15.05.2022
2120 Rain 11 1008 82 10000 6.69 140 11:59 15.05.2022
2121 Clouds 10 1007 81 10000 4.12 150 10:47 15.05.2022
2122 Clouds 9 1007 87 10000 4.63 110 09:46 15.05.2022
2123 Rain 8 1005 81 10000 5.14 110 07:22 15.05.2022
2124 Clouds 8 1005 81 10000 5.14 90 06:42 15.05.2022
2125 Drizzle 7 1004 76 10000 7.72 90 02:55 15.05.2022
2126 Rain 7 1004 76 10000 7.2 90 00:24 15.05.2022
2127 Drizzle 8 1004 76 10000 5.66 100 23:37 14.05.2022
2128 Clouds 8 1004 71 10000 5.66 90 21:50 14.05.2022
2129 Clouds 8 1004 71 10000 5.66 90 21:26 14.05.2022
2130 Clouds 7 1005 76 10000 4.63 80 20:27 14.05.2022
2131 Rain 7 1005 76 10000 6.17 110 19:20 14.05.2022
2132 Rain 8 1005 71 10000 5.66 120 18:57 14.05.2022
2133 Clouds 9 1005 53 10000 6.17 130 17:44 14.05.2022
2134 Clouds 9 1005 46 10000 5.14 150 15:58 14.05.2022
2135 Clouds 9 1004 37 10000 2.57 140 14:38 14.05.2022
2136 Clouds 9 1004 37 10000 2.57 140 14:18 14.05.2022
2137 Clear 6 1004 49 10000 3.6 80 11:46 14.05.2022
2138 Clear 4 1004 52 10000 2.06 70 10:44 14.05.2022
2139 Clear 4 1004 52 10000 2.06 70 10:18 14.05.2022
2140 Clear 2 1004 64 10000 1.54 100 09:23 14.05.2022
2141 Clear 0 1003 69 10000 1.54 100 07:32 14.05.2022
2142 Clear 0 1003 69 10000 1.03 0 04:43 14.05.2022
2143 Clouds 5 1002 56 10000 3.6 10 00:43 14.05.2022
2144 Clouds 5 1001 60 10000 6.69 360 23:28 13.05.2022
2145 Clouds 5 1001 56 10000 7.72 360 22:55 13.05.2022
2146 Clouds 5 1001 56 10000 7.72 360 22:21 13.05.2022
2147 Clouds 6 1000 45 10000 7.72 360 20:59 13.05.2022
2148 Clouds 6 1000 45 10000 7.72 360 20:38 13.05.2022
2149 Clouds 6 1000 45 10000 7.72 360 20:20 13.05.2022
2150 Clouds 6 1001 45 10000 8.23 360 19:18 13.05.2022
2151 Clouds 6 1000 49 10000 7.2 10 17:47 13.05.2022
2152 Clouds 6 1000 49 10000 7.2 10 17:23 13.05.2022
2153 Clouds 6 1000 49 10000 6.69 10 15:47 13.05.2022
2154 Clouds 6 999 45 10000 5.14 10 14:39 13.05.2022
2155 Clear 4 999 56 10000 5.14 350 12:53 13.05.2022
2156 Clear 4 999 56 10000 1.54 230 11:56 13.05.2022
2157 Clear 3 998 60 10000 2.06 210 10:19 13.05.2022
2158 Clear 2 998 69 10000 2.57 160 09:29 13.05.2022
2159 Clear 0 997 74 10000 3.09 170 07:52 13.05.2022
2160 Clear 0 997 74 10000 3.09 170 07:18 13.05.2022
2161 Clear 0 997 69 10000 1.03 0 05:31 13.05.2022
2162 Clouds 4 996 56 10000 2.06 50 01:21 13.05.2022
2163 Clouds 5 996 60 10000 7.72 10 23:24 12.05.2022
2164 Clouds 6 996 56 10000 6.17 30 22:34 12.05.2022
2165 Clouds 6 995 52 10000 7.72 20 21:26 12.05.2022
2166 Clouds 7 995 53 10000 7.72 10 19:55 12.05.2022
2167 Clouds 5 993 66 10000 6.14 354 18:29 12.05.2022
2168 Clouds 6 994 61 10000 8.75 10 16:48 12.05.2022
2169 Clouds 6 994 65 10000 8.75 10 15:22 12.05.2022
2170 Clouds 4 993 70 10000 6.17 340 13:52 12.05.2022
2171 Clouds 3 993 75 10000 7.72 360 12:29 12.05.2022
2172 Clouds 2 992 87 10000 3.6 10 10:34 12.05.2022
2173 Clouds 2 992 80 10000 3.09 310 08:58 12.05.2022
2174 Clouds 2 992 80 10000 3.09 310 08:35 12.05.2022
2175 Clouds 2 993 87 10000 2.06 320 07:25 12.05.2022
2176 Clouds 2 994 93 10000 5.14 210 04:50 12.05.2022
2177 Clouds 3 995 81 10000 4.12 300 01:55 12.05.2022
2178 Clouds 4 996 75 10000 3.09 270 23:42 11.05.2022
2179 Clouds 5 996 70 10000 2.57 290 22:29 11.05.2022
2180 Clouds 5 996 70 10000 3.09 310 21:27 11.05.2022
2181 Clouds 5 997 60 10000 4.12 300 20:48 11.05.2022
2182 Clouds 5 998 60 10000 3.6 280 17:54 11.05.2022
2183 Clouds 5 998 65 10000 3.6 270 16:47 11.05.2022
2184 Clouds 5 998 60 10000 4.12 290 14:49 11.05.2022
2185 Clouds 5 998 60 10000 4.12 290 14:25 11.05.2022
2186 Clouds 4 998 65 10000 4.63 300 13:44 11.05.2022
2187 Clouds 4 998 70 10000 5.66 340 11:50 11.05.2022
2188 Clouds 3 997 75 10000 4.63 320 09:39 11.05.2022
2189 Clouds 2 997 80 10000 5.14 340 07:52 11.05.2022
2190 Clouds 3 996 81 10000 4.63 340 04:43 11.05.2022
2191 Clouds 6 995 65 10000 5.14 360 23:48 10.05.2022
2192 Clouds 7 995 61 10000 4.63 360 22:30 10.05.2022
2193 Clouds 8 994 57 10000 4.12 10 21:45 10.05.2022
2194 Clouds 8 994 57 10000 5.66 10 20:48 10.05.2022
2195 Clouds 9 993 53 10000 7.72 20 19:25 10.05.2022
2196 Clouds 9 994 53 10000 7.2 360 17:47 10.05.2022
2197 Clouds 9 994 49 10000 3.6 20 16:41 10.05.2022
2198 Clouds 8 995 57 10000 2.06 360 13:59 10.05.2022
2199 Clear 7 995 61 10000 3.09 290 12:37 10.05.2022
2200 Clear 6 995 65 10000 1.03 0 11:49 10.05.2022
2201 Clear 6 995 65 10000 1.03 0 11:18 10.05.2022
2202 Clear 6 995 65 10000 1.03 0 11:18 10.05.2022
2203 Clear 4 995 75 10000 2.06 170 09:57 10.05.2022
2204 Clear 4 995 75 10000 2.06 170 09:25 10.05.2022
2205 Clear 2 995 80 10000 1.54 180 06:44 10.05.2022
2206 Clear 5 995 81 10000 4.63 190 02:59 10.05.2022
2207 Clouds 8 995 66 10000 2.57 350 00:24 10.05.2022
2208 Clouds 10 995 66 10000 4.63 10 22:43 09.05.2022
2209 Clouds 11 995 66 10000 6.17 360 21:48 09.05.2022
2210 Clouds 9 995 71 10000 6.17 320 20:25 09.05.2022
2211 Clouds 10 996 71 10000 5.14 340 18:43 09.05.2022
2212 Clouds 11 996 58 10000 5.66 340 17:39 09.05.2022
2213 Clouds 11 996 62 10000 4.12 330 16:29 09.05.2022
2214 Clouds 11 997 66 10000 3.09 360 15:49 09.05.2022
2215 Clouds 10 997 66 10000 2.57 360 14:47 09.05.2022
2216 Clouds 10 997 66 10000 2.57 360 14:22 09.05.2022
2217 Clouds 9 997 66 10000 1.54 220 13:36 09.05.2022
2218 Clouds 9 997 66 10000 1.54 220 13:36 09.05.2022
2219 Clouds 10 997 62 10000 3.6 130 11:57 09.05.2022
2220 Clouds 9 997 71 10000 2.57 120 10:55 09.05.2022
2221 Clouds 9 997 71 10000 2.57 120 10:36 09.05.2022
2222 Clouds 8 996 76 10000 4.63 140 08:31 09.05.2022
2223 Clouds 8 996 76 10000 4.12 130 07:49 09.05.2022
2224 Clouds 9 996 87 8000 5.66 100 02:55 09.05.2022
2225 Rain 10 996 81 10000 7.72 100 23:34 08.05.2022
2226 Drizzle 11 997 82 10000 6.69 100 22:52 08.05.2022
2227 Clouds 11 997 82 5000 8.75 100 21:48 08.05.2022
2228 Clouds 11 997 82 5000 8.75 100 21:48 08.05.2022
2229 Rain 14 998 62 10000 8.75 80 20:35 08.05.2022
2230 Clouds 13 999 67 10000 9.26 70 19:43 08.05.2022
2231 Clouds 14 1000 58 10000 9.77 90 18:53 08.05.2022
2232 Clouds 14 1002 62 10000 7.2 70 17:57 08.05.2022
2233 Clouds 13 1003 67 10000 6.69 90 16:42 08.05.2022
2234 Clouds 13 1004 67 10000 6.69 90 15:26 08.05.2022
2235 Clouds 12 1005 76 10000 6.17 100 14:44 08.05.2022
2236 Clouds 10 1007 81 10000 7.2 90 12:25 08.05.2022
2237 Clouds 9 1008 81 10000 7.72 110 10:31 08.05.2022
2238 Clouds 9 1008 81 10000 6.69 100 09:56 08.05.2022
2239 Clouds 9 1008 81 10000 6.69 100 09:56 08.05.2022
2240 Clouds 9 1009 81 10000 7.2 120 08:55 08.05.2022
2241 Clouds 8 1009 87 10000 8.23 110 06:58 08.05.2022
2242 Clouds 7 1011 81 10000 7.2 100 03:35 08.05.2022
2243 Clouds 6 1012 81 10000 7.2 90 02:45 08.05.2022
2244 Drizzle 7 1014 81 10000 6.69 100 00:24 08.05.2022
2245 Rain 7 1014 76 10000 8.75 120 23:49 07.05.2022
2246 Rain 8 1015 71 10000 6.69 110 22:46 07.05.2022
2247 Clouds 8 1016 66 10000 7.2 130 21:58 07.05.2022
2248 Clouds 8 1016 66 10000 7.2 130 21:33 07.05.2022
2249 Clouds 9 1016 61 10000 8.75 140 20:28 07.05.2022
2250 Clouds 9 1017 61 10000 8.75 150 19:23 07.05.2022
2251 Clouds 10 1018 50 10000 8.75 160 17:35 07.05.2022
2252 Clouds 8 1019 57 10000 7.2 150 15:46 07.05.2022
2253 Clouds 8 1019 57 10000 6.17 160 13:39 07.05.2022
2254 Clouds 6 1020 65 10000 4.12 160 10:41 07.05.2022
2255 Clouds 5 1020 70 10000 3.6 150 09:19 07.05.2022
2256 Clouds 4 1020 75 10000 3.09 140 07:50 07.05.2022
2257 Clouds 4 1020 75 10000 3.09 170 06:43 07.05.2022
2258 Clouds 4 1021 86 10000 4.63 210 04:41 07.05.2022
2259 Clouds 4 1020 81 10000 6.17 210 01:24 07.05.2022
2260 Clouds 4 1019 81 10000 6.17 290 23:37 06.05.2022
2261 Snow 4 1019 81 10000 5.66 230 22:27 06.05.2022
2262 Clouds 5 1018 81 10000 6.17 260 21:43 06.05.2022
2263 Rain 5 1018 70 10000 8.23 240 20:33 06.05.2022
2264 Clouds 5 1017 52 10000 6.17 260 19:30 06.05.2022
2265 Clouds 5 1017 48 10000 5.66 260 18:57 06.05.2022
2266 Clouds 5 1017 48 10000 5.66 260 18:18 06.05.2022
2267 Clouds 5 1016 56 10000 7.2 290 16:39 06.05.2022
2268 Clouds 5 1015 52 10000 7.2 270 15:39 06.05.2022
2269 Clouds 5 1014 65 10000 6.69 280 14:46 06.05.2022
2270 Clouds 5 1012 60 10000 3.6 230 12:54 06.05.2022
2271 Rain 5 1012 60 10000 3.6 230 12:33 06.05.2022
2272 Clouds 4 1012 67 10000 2.06 180 11:41 06.05.2022
2273 Clouds 3 1011 67 10000 0.89 229 10:27 06.05.2022
2274 Clouds 2 1010 69 10000 1.54 10 09:45 06.05.2022
2275 Clouds 1 1009 75 10000 4.12 350 08:27 06.05.2022
2276 Clouds 2 1007 75 10000 6.69 330 06:42 06.05.2022
2277 Clouds 3 1004 79 10000 7.2 330 04:53 06.05.2022
2278 Clouds 4 1001 65 10000 7.2 310 02:45 06.05.2022
2279 Clouds 4 997 70 10000 8.75 280 23:45 05.05.2022
2280 Clouds 4 995 70 10000 9.77 250 21:56 05.05.2022
2281 Clouds 4 995 70 10000 9.77 250 21:19 05.05.2022
2282 Clouds 4 995 70 10000 10.29 230 19:53 05.05.2022
2283 Clouds 3 995 87 10000 12.35 240 18:26 05.05.2022
2284 Clouds 3 996 87 8000 7.2 180 16:20 05.05.2022
2285 Clouds 5 997 60 10000 8.23 130 14:49 05.05.2022
2286 Clouds 4 998 65 10000 7.2 120 13:22 05.05.2022
2287 Clouds 5 999 56 10000 6.17 140 12:25 05.05.2022
2288 Clear 3 1001 65 10000 3.6 100 10:37 05.05.2022
2289 Clear 1 1002 82 10000 3.09 120 09:39 05.05.2022
2290 Clouds 0 1003 74 10000 2.57 110 07:35 05.05.2022
2291 Clouds 1 1005 75 10000 2.06 160 04:28 05.05.2022
2292 Clouds 3 1006 65 10000 2.57 270 01:53 05.05.2022
2293 Clouds 3 1006 65 10000 2.57 270 01:24 05.05.2022
2294 Clouds 3 1007 65 10000 3.09 310 23:47 04.05.2022
2295 Clouds 3 1007 65 10000 3.09 290 22:30 04.05.2022
2296 Clouds 4 1007 60 10000 4.12 290 21:49 04.05.2022
2297 Clouds 4 1007 60 10000 4.12 290 21:26 04.05.2022
2298 Clouds 4 1007 60 10000 4.63 300 20:24 04.05.2022
2299 Clouds 4 1008 60 10000 4.63 290 19:53 04.05.2022
2300 Clouds 4 1008 56 10000 5.14 300 18:54 04.05.2022
2301 Clouds 4 1008 56 10000 5.14 300 18:22 04.05.2022
2302 Clouds 4 1008 60 10000 4.63 290 17:38 04.05.2022
2303 Clouds 4 1009 56 10000 5.66 320 15:41 04.05.2022
2304 Clouds 4 1009 56 10000 5.66 320 15:23 04.05.2022
2305 Clouds 3 1009 60 10000 4.63 320 14:21 04.05.2022
2306 Clouds 3 1009 56 10000 4.63 310 13:33 04.05.2022
2307 Clouds 2 1010 60 10000 3.09 330 12:33 04.05.2022
2308 Clouds 2 1009 60 10000 4.63 350 10:41 04.05.2022
2309 Clouds 1 1009 69 10000 6.17 330 09:43 04.05.2022
2310 Clouds 1 1009 75 10000 6.69 340 08:46 04.05.2022
2311 Clouds 1 1009 75 10000 7.2 340 06:41 04.05.2022
2312 Clouds 2 1007 75 10000 4.63 360 02:58 04.05.2022
2313 Clouds 3 1005 81 10000 6.17 350 00:33 04.05.2022
2314 Clouds 5 1004 70 10000 8.23 350 22:37 03.05.2022
2315 Clouds 6 1002 75 10000 10.29 350 21:46 03.05.2022
2316 Clouds 6 1002 87 10000 7.72 350 20:54 03.05.2022
2317 Clouds 6 1001 87 10000 6.17 350 19:57 03.05.2022
2318 Clouds 8 1001 87 8000 4.63 360 18:54 03.05.2022
2319 Clouds 8 1001 87 8000 4.63 360 18:21 03.05.2022
2320 Clouds 9 1002 81 10000 3.09 90 16:44 03.05.2022
2321 Clouds 9 1002 81 10000 3.09 90 15:38 03.05.2022
2322 Clouds 7 1004 87 10000 5.66 90 12:47 03.05.2022
2323 Clouds 7 1004 87 10000 5.66 90 12:27 03.05.2022
2324 Clouds 6 1005 87 10000 4.12 60 10:57 03.05.2022
2325 Clouds 6 1005 87 10000 3.6 60 09:35 03.05.2022
2326 Drizzle 6 1007 81 10000 3.09 50 07:33 03.05.2022
2327 Clouds 6 1007 81 10000 3.6 70 06:45 03.05.2022
2328 Clouds 5 1011 81 10000 8.75 90 01:47 03.05.2022
2329 Clouds 5 1014 75 10000 8.23 80 22:39 02.05.2022
2330 Clouds 5 1014 75 10000 7.72 80 21:54 02.05.2022
2331 Clouds 6 1015 70 10000 7.72 90 20:51 02.05.2022
2332 Clouds 7 1017 70 10000 7.2 90 18:46 02.05.2022
2333 Clouds 7 1017 70 10000 7.2 90 18:25 02.05.2022
2334 Rain 8 1019 71 10000 6.69 110 17:37 02.05.2022
2335 Drizzle 7 1019 76 10000 7.2 100 16:23 02.05.2022
2336 Clouds 7 1020 76 10000 6.69 100 15:31 02.05.2022
2337 Clouds 7 1021 61 10000 5.14 100 13:58 02.05.2022
2338 Clouds 7 1021 61 10000 4.63 100 12:27 02.05.2022
2339 Clear 5 1022 60 10000 5.14 80 10:52 02.05.2022
2340 Clear 3 1022 60 10000 5.66 70 09:30 02.05.2022
2341 Clear 3 1022 56 10000 5.14 70 07:57 02.05.2022
2342 Clear 3 1023 60 10000 2.06 60 04:44 02.05.2022
2343 Clear 4 1024 70 10000 0.51 0 00:25 02.05.2022
2344 Clear 5 1023 70 10000 3.09 210 23:52 01.05.2022
2345 Clear 6 1023 65 10000 2.57 230 22:45 01.05.2022
2346 Clear 6 1023 61 10000 3.09 290 21:30 01.05.2022
2347 Clear 5 1023 56 10000 4.12 290 20:19 01.05.2022
2348 Clear 6 1023 56 10000 4.12 290 19:18 01.05.2022
2349 Clear 6 1023 61 10000 4.12 290 18:46 01.05.2022
2350 Clear 7 1023 57 10000 4.63 300 17:47 01.05.2022
2351 Clouds 7 1023 53 10000 5.14 300 16:24 01.05.2022
2352 Clouds 7 1023 70 10000 5.14 290 15:43 01.05.2022
2353 Clouds 7 1023 70 10000 5.14 310 14:22 01.05.2022
2354 Clouds 6 1022 87 10000 3.6 290 11:53 01.05.2022
2355 Clouds 7 1022 81 10000 4.63 270 09:33 01.05.2022
2356 Clouds 6 1022 81 10000 6.17 260 08:49 01.05.2022
2357 Clouds 7 1022 81 10000 5.14 250 05:31 01.05.2022
2358 Clouds 7 1023 76 10000 4.63 250 00:43 01.05.2022
2359 Clouds 7 1023 76 10000 5.66 260 21:52 30.04.2022
2360 Clouds 7 1023 76 10000 5.66 260 21:30 30.04.2022
2361 Clouds 7 1023 76 10000 5.66 260 21:30 30.04.2022
2362 Clouds 7 1023 76 10000 5.66 260 21:30 30.04.2022
2363 Clouds 7 1023 81 10000 2.57 230 19:47 30.04.2022
2364 Clouds 7 1024 76 10000 3.09 250 18:50 30.04.2022
2365 Clouds 7 1025 70 10000 2.57 250 17:20 30.04.2022
2366 Clouds 7 1025 76 10000 4.12 290 15:50 30.04.2022
2367 Clouds 7 1026 76 10000 2.57 270 14:54 30.04.2022
2368 Clouds 7 1026 76 10000 4.12 280 13:41 30.04.2022
2369 Drizzle 6 1027 87 10000 4.12 280 11:35 30.04.2022
2370 Clouds 7 1027 81 10000 2.57 270 10:55 30.04.2022
2371 Clouds 6 1027 81 10000 2.57 280 09:54 30.04.2022
2372 Clouds 6 1027 81 10000 2.57 290 07:35 30.04.2022
2373 Fog 6 1028 93 750 1.03 0 03:45 30.04.2022
2374 Clear 8 1029 71 10000 1.54 290 23:54 29.04.2022
2375 Clear 10 1029 62 10000 1.54 260 22:35 29.04.2022
2376 Clear 10 1028 57 10000 2.57 290 21:54 29.04.2022
2377 Clear 10 1028 57 10000 2.57 290 21:19 29.04.2022
2378 Clouds 10 1029 76 10000 4.63 310 19:48 29.04.2022
2379 Clouds 9 1029 81 10000 5.14 300 18:47 29.04.2022
2380 Clouds 11 1029 71 10000 4.12 300 17:33 29.04.2022
2381 Clouds 11 1029 66 10000 0 0 15:58 29.04.2022
2382 Clouds 10 1029 76 10000 1.54 120 14:34 29.04.2022
2383 Clouds 9 1029 81 10000 1.03 0 13:27 29.04.2022
2384 Clouds 9 1030 81 10000 1.03 190 12:26 29.04.2022
2385 Drizzle 8 1029 81 10000 1.03 150 09:48 29.04.2022
2386 Clouds 8 1029 81 10000 2.57 120 07:42 29.04.2022
2387 Clouds 8 1029 81 10000 2.57 120 07:42 29.04.2022
2388 Clouds 8 1029 81 10000 2.57 120 07:23 29.04.2022
2389 Clouds 9 1029 81 10000 2.06 150 05:57 29.04.2022
2390 Clouds 9 1029 71 10000 3.09 170 00:51 29.04.2022
2391 Clear 8 1029 81 10000 4.12 210 23:49 28.04.2022
2392 Clouds 10 1029 71 10000 2.57 220 22:45 28.04.2022
2393 Clouds 10 1029 71 10000 2.06 20 21:55 28.04.2022
2394 Clouds 10 1029 71 10000 2.06 20 21:29 28.04.2022
2395 Clouds 9 1029 76 10000 2.57 40 20:41 28.04.2022
2396 Clouds 10 1029 71 10000 1.03 0 19:46 28.04.2022
2397 Clouds 10 1029 71 10000 1.03 0 19:23 28.04.2022
2398 Clouds 10 1029 66 10000 1.54 320 18:38 28.04.2022
2399 Clouds 9 1029 71 10000 3.6 300 17:32 28.04.2022
2400 Clouds 10 1029 62 10000 2.57 310 16:49 28.04.2022
2401 Clouds 10 1029 62 10000 2.57 310 16:19 28.04.2022
2402 Clouds 10 1029 57 10000 2.06 290 15:41 28.04.2022
2403 Clouds 10 1029 50 10000 1.54 250 14:47 28.04.2022
2404 Clouds 10 1029 53 10000 0.51 0 13:20 28.04.2022
2405 Clouds 8 1029 57 10000 1.03 0 12:28 28.04.2022
2406 Clear 6 1029 70 10000 1.03 140 10:51 28.04.2022
2407 Clear 6 1029 70 10000 1.03 140 10:26 28.04.2022
2408 Clear 5 1029 81 10000 1.03 0 09:41 28.04.2022
2409 Clouds 5 1028 87 10000 1.54 130 07:38 28.04.2022
2410 Clouds 5 1029 87 10000 2.06 180 06:38 28.04.2022
2411 Clouds 5 1029 87 10000 1.03 0 05:40 28.04.2022
2412 Clouds 6 1029 87 10000 3.09 220 04:42 28.04.2022
2413 Clouds 7 1028 81 10000 1.54 230 00:51 28.04.2022
2414 Clouds 7 1028 76 10000 3.6 330 22:52 27.04.2022
2415 Clouds 7 1028 76 10000 3.6 310 21:58 27.04.2022
2416 Clouds 7 1028 76 10000 3.6 310 21:29 27.04.2022
2417 Clouds 7 1028 76 10000 3.6 320 20:44 27.04.2022
2418 Clouds 7 1028 76 10000 3.6 320 19:41 27.04.2022
2419 Clouds 7 1028 76 10000 3.6 320 19:22 27.04.2022
2420 Clouds 7 1028 76 10000 3.6 320 19:22 27.04.2022
2421 Clouds 8 1028 66 10000 3.6 330 18:38 27.04.2022
2422 Clouds 8 1027 66 10000 3.6 340 17:26 27.04.2022
2423 Clouds 8 1028 61 10000 3.6 320 15:56 27.04.2022
2424 Clear 7 1027 65 10000 1.54 20 12:34 27.04.2022
2425 Clear 7 1027 65 10000 0.51 0 11:23 27.04.2022
2426 Clear 6 1027 75 10000 0.51 0 10:26 27.04.2022
2427 Clear 5 1026 87 10000 1.03 180 07:41 27.04.2022
2428 Clouds 5 1027 87 10000 1.03 210 06:36 27.04.2022
2429 Clouds 6 1027 75 10000 2.06 350 02:25 27.04.2022
2430 Clouds 6 1027 75 10000 2.06 330 01:18 27.04.2022
2431 Clouds 6 1027 75 10000 2.06 310 00:27 27.04.2022
2432 Clear 7 1026 65 10000 1.03 0 23:23 26.04.2022
2433 Clear 7 1026 65 10000 2.06 290 22:43 26.04.2022
2434 Clouds 8 1026 61 10000 2.06 240 21:57 26.04.2022
2435 Clouds 8 1027 57 10000 1.54 240 20:58 26.04.2022
2436 Clouds 8 1027 57 10000 1.54 240 20:36 26.04.2022
2437 Clouds 7 1027 61 10000 1.54 210 19:35 26.04.2022
2438 Clouds 7 1027 70 10000 1.54 220 18:53 26.04.2022
2439 Clouds 7 1027 70 10000 1.54 220 18:19 26.04.2022
2440 Clouds 7 1027 70 10000 2.57 260 17:33 26.04.2022
2441 Clouds 7 1028 76 10000 2.06 290 14:46 26.04.2022
2442 Clouds 7 1028 70 10000 1.54 260 13:34 26.04.2022
2443 Clouds 6 1028 81 10000 2.06 300 12:34 26.04.2022
2444 Clouds 6 1028 87 10000 2.57 220 10:46 26.04.2022
2445 Clouds 5 1028 87 10000 2.06 180 09:50 26.04.2022
2446 Clouds 5 1028 87 10000 2.06 170 08:28 26.04.2022
2447 Drizzle 6 1029 89 10000 2.06 220 04:38 26.04.2022
2448 Clouds 6 1029 81 10000 0 0 02:40 26.04.2022
2449 Clouds 6 1030 84 10000 0.51 240 00:39 26.04.2022
2450 Clouds 6 1029 81 10000 1.03 290 23:43 25.04.2022
2451 Clouds 7 1029 81 10000 1.54 280 21:44 25.04.2022
2452 Clouds 7 1029 81 10000 1.54 280 21:44 25.04.2022
2453 Clouds 7 1029 81 10000 3.09 290 20:49 25.04.2022
2454 Clouds 7 1029 76 10000 4.12 310 19:39 25.04.2022
2455 Clouds 7 1029 81 10000 5.14 330 18:25 25.04.2022
2456 Clouds 8 1029 71 10000 4.12 340 17:39 25.04.2022
2457 Clouds 8 1030 61 10000 3.6 340 15:51 25.04.2022
2458 Clouds 8 1030 61 10000 3.6 340 15:18 25.04.2022
2459 Clouds 8 1030 66 10000 2.57 350 13:59 25.04.2022
2460 Clouds 7 1030 70 10000 2.57 280 12:22 25.04.2022
2461 Clear 5 1030 81 10000 0.51 0 10:29 25.04.2022
2462 Clear 3 1030 93 10000 1.03 0 09:36 25.04.2022
2463 Clear 5 1030 81 10000 2.06 340 07:34 25.04.2022
2464 Clouds 5 1030 81 10000 2.57 340 05:53 25.04.2022
2465 Clouds 6 1031 87 10000 4.63 330 01:24 25.04.2022
2466 Clouds 6 1031 87 10000 5.66 320 23:54 24.04.2022
2467 Clouds 6 1031 87 10000 5.66 320 23:20 24.04.2022
2468 Clouds 6 1031 81 10000 5.66 320 22:37 24.04.2022
2469 Clouds 7 1031 76 10000 6.69 300 21:54 24.04.2022
2470 Clouds 7 1031 76 10000 6.69 300 21:20 24.04.2022
2471 Clouds 7 1031 76 10000 6.17 290 20:39 24.04.2022
2472 Clouds 8 1031 66 10000 5.66 300 19:51 24.04.2022
2473 Clouds 7 1032 70 10000 5.14 320 18:33 24.04.2022
2474 Clouds 7 1032 70 10000 4.63 320 17:40 24.04.2022
2475 Clouds 7 1032 70 10000 4.63 320 17:20 24.04.2022
2476 Clouds 7 1033 70 10000 4.63 330 16:51 24.04.2022
2477 Clouds 7 1033 70 10000 4.63 330 16:22 24.04.2022
2478 Clouds 6 1033 75 10000 5.14 340 15:36 24.04.2022
2479 Clouds 6 1033 75 10000 4.12 330 14:30 24.04.2022
2480 Clouds 6 1033 75 10000 3.6 340 13:26 24.04.2022
2481 Clouds 6 1033 75 10000 3.6 340 12:44 24.04.2022
2482 Clouds 6 1033 75 10000 3.09 330 11:44 24.04.2022
2483 Clouds 6 1033 75 10000 1.54 310 10:33 24.04.2022
2484 Clouds 6 1033 70 10000 2.06 310 09:41 24.04.2022
2485 Clouds 6 1033 70 10000 1.03 0 07:39 24.04.2022
2486 Clouds 6 1033 70 10000 3.09 310 05:32 24.04.2022
2487 Clouds 6 1033 75 10000 1.54 330 01:50 24.04.2022
2488 Clouds 7 1033 76 10000 2.57 330 00:38 24.04.2022
2489 Clouds 7 1033 76 10000 3.09 310 23:45 23.04.2022
2490 Clouds 7 1033 76 10000 3.09 310 23:22 23.04.2022
2491 Clouds 8 1032 71 10000 3.6 300 21:55 23.04.2022
2492 Clouds 8 1032 71 10000 3.6 300 21:35 23.04.2022
2493 Clouds 8 1032 66 10000 4.12 310 20:58 23.04.2022
2494 Clouds 8 1032 71 10000 3.6 310 19:54 23.04.2022
2495 Clouds 8 1032 71 10000 3.6 310 19:19 23.04.2022
2496 Clouds 8 1032 66 10000 3.6 300 18:53 23.04.2022
2497 Clouds 8 1032 66 10000 3.6 300 18:24 23.04.2022
2498 Clouds 8 1032 71 10000 4.63 300 17:43 23.04.2022
2499 Haze 8 1032 71 9000 4.63 300 16:43 23.04.2022
2500 Clouds 8 1033 66 10000 4.12 300 15:32 23.04.2022
2501 Clouds 7 1033 76 10000 0 0 12:50 23.04.2022
2502 Clouds 7 1033 76 10000 1.54 30 10:50 23.04.2022
2503 Clouds 7 1033 70 10000 1.03 0 09:38 23.04.2022
2504 Clouds 7 1032 76 10000 1.54 90 07:21 23.04.2022
2505 Clouds 7 1033 81 10000 1.54 70 03:54 23.04.2022
2506 Clouds 7 1032 76 10000 2.57 160 01:32 23.04.2022
2507 Clouds 7 1032 76 10000 3.6 140 23:32 22.04.2022
2508 Clouds 8 1032 76 10000 3.6 140 22:22 22.04.2022
2509 Clouds 9 1032 71 10000 4.63 140 21:44 22.04.2022
2510 Clouds 9 1032 66 10000 5.14 130 20:54 22.04.2022
2511 Clouds 9 1032 66 10000 5.14 130 20:27 22.04.2022
2512 Clouds 10 1032 71 10000 4.12 150 19:21 22.04.2022
2513 Clouds 10 1032 66 10000 5.14 140 18:46 22.04.2022
2514 Clouds 10 1032 71 10000 6.17 140 17:50 22.04.2022
2515 Clouds 10 1032 71 10000 5.66 140 16:46 22.04.2022
2516 Clouds 9 1032 71 10000 6.69 120 15:45 22.04.2022
2517 Clouds 9 1032 71 10000 6.69 120 15:21 22.04.2022
2518 Clouds 8 1032 76 10000 2.06 190 13:54 22.04.2022
2519 Clouds 8 1032 76 10000 3.09 120 12:59 22.04.2022
2520 Clouds 8 1032 76 10000 3.09 120 12:28 22.04.2022
2521 Clouds 7 1032 81 10000 2.57 70 11:22 22.04.2022
2522 Clouds 7 1032 76 10000 2.06 70 10:51 22.04.2022
2523 Clouds 7 1032 76 10000 2.06 70 10:31 22.04.2022
2524 Clouds 7 1032 76 10000 3.09 90 09:53 22.04.2022
2525 Rain 7 1031 76 10000 3.6 90 08:51 22.04.2022
2526 Rain 7 1031 81 10000 3.6 110 07:44 22.04.2022
2527 Clouds 7 1032 85 10000 1.54 130 04:24 22.04.2022
2528 Clouds 9 1031 76 10000 2.06 100 00:52 22.04.2022
2529 Rain 10 1031 66 10000 2.57 90 23:26 21.04.2022
2530 Clouds 10 1030 66 10000 3.6 140 22:29 21.04.2022
2531 Clouds 10 1030 71 10000 5.66 130 20:46 21.04.2022
2532 Clouds 10 1030 71 10000 5.66 130 20:26 21.04.2022
2533 Clouds 10 1029 76 10000 4.63 120 18:47 21.04.2022
2534 Clouds 10 1029 76 10000 4.63 120 18:19 21.04.2022
2535 Rain 10 1028 81 10000 6.17 140 16:47 21.04.2022
2536 Clouds 12 1027 71 10000 5.14 140 15:22 21.04.2022
2537 Clouds 13 1026 62 10000 4.63 90 14:50 21.04.2022
2538 Clouds 12 1025 66 10000 5.14 100 13:44 21.04.2022
2539 Clouds 12 1025 66 10000 5.14 100 13:18 21.04.2022
2540 Clouds 10 1024 76 10000 3.09 70 11:19 21.04.2022
2541 Clouds 8 1020 81 10000 2.57 100 08:57 21.04.2022
2542 Drizzle 8 1019 81 10000 3.6 80 07:49 21.04.2022
2543 Clouds 8 1018 87 10000 2.57 100 06:21 21.04.2022
2544 Clouds 8 1014 81 10000 3.6 80 03:33 21.04.2022
2545 Clouds 8 1013 81 10000 3.6 80 02:48 21.04.2022
2546 Clouds 8 1013 81 10000 3.6 80 02:48 21.04.2022
2547 Clouds 8 1012 76 10000 3.09 110 01:50 21.04.2022
2548 Clouds 8 1009 76 10000 4.12 110 23:53 20.04.2022
2549 Clouds 8 1009 76 10000 4.12 110 23:23 20.04.2022
2550 Clouds 8 1007 81 10000 4.63 130 22:51 20.04.2022
2551 Clouds 8 1007 81 10000 4.63 130 22:32 20.04.2022
2552 Clouds 9 1005 81 10000 4.12 140 21:33 20.04.2022
2553 Clouds 9 1004 81 10000 2.57 140 20:42 20.04.2022
2554 Clouds 9 1003 87 10000 5.14 110 19:53 20.04.2022
2555 Clouds 9 1003 87 10000 5.14 110 19:25 20.04.2022
2556 Rain 9 1002 81 10000 6.69 100 18:26 20.04.2022
2557 Rain 9 1001 81 10000 8.23 110 16:57 20.04.2022
2558 Rain 9 1001 81 10000 8.23 110 16:38 20.04.2022
2559 Rain 8 1000 81 10000 7.2 80 14:26 20.04.2022
2560 Rain 7 999 76 10000 10.29 80 11:56 20.04.2022
2561 Rain 7 999 76 10000 10.29 80 11:29 20.04.2022
2562 Rain 6 999 81 10000 8.75 80 10:27 20.04.2022
2563 Rain 6 999 75 10000 8.23 90 09:27 20.04.2022
2564 Rain 6 1000 75 8000 7.72 90 08:24 20.04.2022
2565 Rain 6 1000 75 8000 7.72 90 08:24 20.04.2022
2566 Rain 5 1000 81 10000 8.75 90 07:43 20.04.2022
2567 Drizzle 6 1002 77 10000 10.29 100 04:37 20.04.2022
2568 Clouds 6 1006 65 10000 5.66 140 00:55 20.04.2022
2569 Clouds 6 1006 65 10000 5.66 140 00:20 20.04.2022
2570 Clouds 7 1006 65 10000 5.14 140 22:40 19.04.2022
2571 Clouds 7 1006 65 10000 5.14 140 22:19 19.04.2022
2572 Clouds 8 1006 57 10000 4.63 170 21:38 19.04.2022
2573 Clouds 8 1006 57 10000 2.06 300 20:56 19.04.2022
2574 Clouds 8 1006 57 10000 2.06 300 20:34 19.04.2022
2575 Clouds 9 1007 53 10000 2.57 290 19:25 19.04.2022
2576 Clear 9 1007 49 10000 2.57 360 18:18 19.04.2022
2577 Clouds 9 1008 49 10000 1.54 0 16:46 19.04.2022
2578 Clouds 9 1008 49 10000 1.54 0 16:24 19.04.2022
2579 Clouds 8 1008 49 10000 2.57 270 15:20 19.04.2022
2580 Clear 8 1008 61 10000 1.54 200 14:32 19.04.2022
2581 Clear 6 1008 75 10000 1.03 0 12:52 19.04.2022
2582 Clear 6 1008 75 10000 1.03 0 12:26 19.04.2022
2583 Clear 5 1008 75 10000 1.03 0 11:23 19.04.2022
2584 Clear 1 1008 93 10000 1.54 150 09:27 19.04.2022
2585 Clear 1 1008 86 10000 1.54 100 07:37 19.04.2022
2586 Clear 3 1007 86 10000 3.6 340 04:23 19.04.2022
2587 Clouds 6 1007 70 10000 5.66 340 01:18 19.04.2022
2588 Clouds 6 1007 75 10000 6.17 320 23:40 18.04.2022
2589 Clouds 7 1007 65 10000 8.23 320 21:57 18.04.2022
2590 Clouds 7 1007 65 10000 8.23 320 21:25 18.04.2022
2591 Clouds 7 1007 65 10000 7.72 310 20:38 18.04.2022
2592 Clouds 7 1007 65 10000 8.23 300 19:59 18.04.2022
2593 Clouds 7 1007 65 10000 8.23 300 19:30 18.04.2022
2594 Clouds 7 1008 65 10000 8.23 300 18:37 18.04.2022
2595 Clear 7 1008 65 10000 7.72 290 17:39 18.04.2022
2596 Clear 7 1008 65 10000 7.72 290 17:19 18.04.2022
2597 Clouds 7 1008 65 10000 5.66 290 16:38 18.04.2022
2598 Clear 7 1008 57 10000 5.66 290 15:30 18.04.2022
2599 Clouds 7 1009 53 10000 3.6 10 14:22 18.04.2022
2600 Clear 7 1010 53 10000 1.54 30 12:54 18.04.2022
2601 Clear 7 1010 53 10000 1.54 30 12:23 18.04.2022
2602 Clear 5 1010 60 10000 1.54 80 10:46 18.04.2022
2603 Clouds 4 1010 60 10000 2.06 90 09:32 18.04.2022
2604 Clouds 4 1010 60 10000 2.57 90 08:39 18.04.2022
2605 Clouds 4 1010 70 10000 2.57 110 06:44 18.04.2022
2606 Clouds 5 1011 70 10000 2.57 160 02:28 18.04.2022
2607 Clouds 6 1010 70 10000 3.6 180 23:21 17.04.2022
2608 Clouds 6 1010 56 10000 3.09 180 22:36 17.04.2022
2609 Clouds 7 1010 65 10000 4.12 190 21:34 17.04.2022
2610 Clouds 7 1009 57 10000 4.63 220 20:51 17.04.2022
2611 Clouds 7 1009 57 10000 4.63 220 20:19 17.04.2022
2612 Clouds 7 1009 61 10000 2.57 310 18:45 17.04.2022
2613 Clouds 6 1009 70 10000 2.06 290 17:26 17.04.2022
2614 Clouds 6 1009 75 10000 2.57 260 15:34 17.04.2022
2615 Clouds 6 1008 81 10000 4.12 250 14:45 17.04.2022
2616 Clouds 6 1008 81 10000 2.06 250 13:29 17.04.2022
2617 Drizzle 5 1007 93 3500 5.66 250 12:45 17.04.2022
2618 Clouds 6 1006 93 8000 2.57 210 10:58 17.04.2022
2619 Clouds 6 1006 93 8000 2.57 210 10:29 17.04.2022
2620 Drizzle 6 1006 93 5000 3.6 230 09:51 17.04.2022
2621 Drizzle 6 1006 93 1500 5.14 220 09:21 17.04.2022
2622 Drizzle 7 1005 87 10000 3.6 200 08:41 17.04.2022
2623 Clouds 6 1004 87 10000 4.12 150 06:29 17.04.2022
2624 Clouds 8 1003 81 10000 5.14 170 02:26 17.04.2022
2625 Rain 8 1003 87 10000 4.63 130 00:41 17.04.2022
2626 Drizzle 9 1003 81 10000 6.17 140 23:38 16.04.2022
2627 Clouds 10 1002 76 10000 5.14 140 21:49 16.04.2022
2628 Clouds 11 1002 76 10000 6.17 150 20:54 16.04.2022
2629 Clouds 10 1002 81 10000 5.66 160 19:28 16.04.2022
2630 Rain 10 1003 81 10000 4.12 140 18:43 16.04.2022
2631 Rain 9 1003 87 10000 3.6 120 17:21 16.04.2022
2632 Rain 9 1003 87 5000 4.63 150 16:19 16.04.2022
2633 Clouds 10 1003 81 10000 6.69 150 14:59 16.04.2022
2634 Clouds 10 1003 81 10000 6.69 150 14:41 16.04.2022
2635 Clouds 10 1003 81 10000 9.77 130 13:50 16.04.2022
2636 Clouds 10 1003 81 10000 9.77 130 13:18 16.04.2022
2637 Rain 9 1003 81 9000 10.29 120 11:50 16.04.2022
2638 Drizzle 9 1004 81 5000 11.32 120 10:35 16.04.2022
2639 Drizzle 9 1004 81 7000 10.29 110 09:38 16.04.2022
2640 Drizzle 9 1004 81 4000 11.83 110 08:52 16.04.2022
2641 Drizzle 8 1004 87 9000 14.4 120 07:23 16.04.2022
2642 Clouds 8 1004 87 10000 14 127 05:45 16.04.2022
2643 Drizzle 8 1007 87 8000 14.92 130 01:49 16.04.2022
2644 Drizzle 9 1006 81 10000 14.4 140 23:53 15.04.2022
2645 Drizzle 9 1008 81 7000 12.86 120 22:51 15.04.2022
2646 Drizzle 9 1008 81 7000 12.86 120 22:31 15.04.2022
2647 Drizzle 9 1007 81 8000 12.86 130 21:34 15.04.2022
2648 Drizzle 9 1007 81 10000 13.89 130 20:44 15.04.2022
2649 Clouds 10 1007 76 10000 12.86 130 19:49 15.04.2022
2650 Clouds 10 1007 76 10000 12.86 130 19:30 15.04.2022
2651 Clouds 10 1008 76 10000 13.38 140 18:45 15.04.2022
2652 Clouds 10 1008 76 10000 13.38 140 18:23 15.04.2022
2653 Clouds 9 1008 81 10000 12.35 140 17:28 15.04.2022
2654 Drizzle 9 1008 81 10000 10.8 140 16:25 15.04.2022
2655 Drizzle 9 1008 81 10000 10.8 140 16:25 15.04.2022
2656 Drizzle 9 1008 81 10000 12.35 140 15:52 15.04.2022
2657 Drizzle 9 1008 81 10000 10.8 140 14:22 15.04.2022
2658 Rain 8 1007 81 10000 10.29 140 12:53 15.04.2022
2659 Rain 8 1007 81 10000 10.29 140 12:28 15.04.2022
2660 Clouds 8 1006 81 10000 7.2 150 11:54 15.04.2022
2661 Clouds 8 1006 76 10000 8.23 170 10:48 15.04.2022
2662 Clouds 8 1006 76 10000 8.23 170 10:21 15.04.2022
2663 Clouds 8 1004 71 10000 7.2 170 09:23 15.04.2022
2664 Clouds 7 1003 81 10000 6.17 160 08:57 15.04.2022
2665 Drizzle 7 1001 81 10000 8.75 180 06:52 15.04.2022
2666 Drizzle 7 999 87 10000 9.77 200 05:56 15.04.2022
2667 Rain 10 992 81 10000 10.8 140 01:33 15.04.2022
2668 Rain 10 992 81 10000 13.38 120 23:30 14.04.2022
2669 Rain 10 993 81 10000 14.92 130 22:46 14.04.2022
2670 Rain 10 993 81 10000 14.92 130 22:27 14.04.2022
2671 Rain 10 993 81 5000 11.83 130 21:53 14.04.2022
2672 Mist 11 995 76 5000 10.29 120 19:57 14.04.2022
2673 Mist 11 995 76 5000 10.29 120 19:22 14.04.2022
2674 Drizzle 10 996 81 8000 10.29 120 17:56 14.04.2022
2675 Drizzle 10 996 81 8000 10.29 120 17:27 14.04.2022
2676 Drizzle 10 997 81 4000 13.89 120 16:32 14.04.2022
2677 Drizzle 9 997 81 8000 9.77 100 14:20 14.04.2022
2678 Rain 9 998 81 7000 10.29 100 13:26 14.04.2022
2679 Drizzle 9 998 76 9000 7.72 100 12:42 14.04.2022
2680 Drizzle 9 998 76 9000 7.72 100 12:22 14.04.2022
2681 Clouds 8 999 76 10000 5.14 90 11:21 14.04.2022
2682 Rain 8 1000 76 10000 6.69 100 10:36 14.04.2022
2683 Drizzle 7 1000 76 10000 7.2 100 09:54 14.04.2022
2684 Clouds 8 1000 71 10000 9.77 110 08:39 14.04.2022
2685 Clouds 7 1002 70 10000 7.72 100 06:50 14.04.2022
2686 Clouds 6 1006 70 10000 7.72 100 02:45 14.04.2022
2687 Rain 7 1008 61 10000 4.63 90 22:52 13.04.2022
2688 Clouds 8 1008 53 10000 4.63 70 21:44 13.04.2022
2689 Clouds 9 1008 49 10000 6.17 80 20:53 13.04.2022
2690 Clouds 9 1008 49 10000 6.17 80 20:22 13.04.2022
2691 Clouds 9 1009 53 10000 5.66 80 19:24 13.04.2022
2692 Clouds 10 1009 46 10000 5.66 110 18:19 13.04.2022
2693 Clear 10 1010 50 10000 6.17 90 17:23 13.04.2022
2694 Clouds 9 1010 53 10000 5.66 80 16:33 13.04.2022
2695 Rain 8 1010 57 10000 6.17 80 15:35 13.04.2022
2696 Clear 8 1011 57 10000 7.2 80 14:50 13.04.2022
2697 Clear 8 1011 57 10000 7.2 80 14:19 13.04.2022
2698 Clear 8 1010 53 10000 6.69 80 13:19 13.04.2022
2699 Clear 7 1011 53 10000 8.75 80 12:25 13.04.2022
2700 Clear 6 1011 49 10000 5.14 80 10:47 13.04.2022
2701 Clear 5 1011 52 10000 3.09 90 09:41 13.04.2022
2702 Clear 5 1011 52 10000 3.09 90 08:41 13.04.2022
2703 Clear 3 1012 60 10000 4.12 90 06:51 13.04.2022
2704 Clear 3 1012 60 10000 4.12 90 06:25 13.04.2022
2705 Clear 3 1012 60 10000 4.63 100 05:20 13.04.2022
2706 Clouds 5 1013 60 10000 4.63 70 00:21 13.04.2022
2707 Clouds 6 1013 56 10000 4.63 90 23:29 12.04.2022
2708 Clear 8 1013 49 10000 5.66 90 21:58 12.04.2022
2709 Clear 8 1013 49 10000 5.66 90 21:18 12.04.2022
2710 Clear 8 1012 46 10000 6.17 70 20:41 12.04.2022
2711 Clear 9 1012 51 10000 5.14 70 19:48 12.04.2022
2712 Clear 9 1012 43 10000 5.14 70 19:30 12.04.2022
2713 Clear 10 1012 40 10000 6.17 70 18:26 12.04.2022
2714 Clouds 10 1012 40 10000 5.66 80 17:23 12.04.2022
2715 Clear 9 1012 43 10000 5.66 70 16:22 12.04.2022
2716 Clear 8 1012 42 10000 7.2 80 15:33 12.04.2022
2717 Clear 7 1012 49 10000 6.69 90 14:26 12.04.2022
2718 Clear 6 1012 49 10000 7.2 90 13:36 12.04.2022
2719 Clear 7 1012 49 10000 7.2 80 12:52 12.04.2022
2720 Clear 6 1012 52 10000 6.17 90 11:46 12.04.2022
2721 Clear 5 1012 56 10000 6.17 90 10:47 12.04.2022
2722 Clouds 4 1012 65 10000 5.14 90 09:21 12.04.2022
2723 Rain 4 1011 65 10000 6.69 80 07:56 12.04.2022
2724 Clear 5 1011 56 10000 6.69 80 06:24 12.04.2022
2725 Clear 5 1012 56 10000 5.14 70 05:31 12.04.2022
2726 Clear 5 1012 48 10000 5.66 80 23:59 11.04.2022
2727 Clear 6 1012 45 10000 6.17 70 22:47 11.04.2022
2728 Clear 6 1012 45 10000 7.72 80 21:41 11.04.2022
2729 Clear 7 1012 42 10000 7.72 70 20:57 11.04.2022
2730 Clear 7 1012 42 10000 7.72 70 20:29 11.04.2022
2731 Clear 7 1012 45 10000 8.23 70 19:54 11.04.2022
2732 Clear 7 1012 45 10000 8.23 70 19:18 11.04.2022
2733 Clear 7 1012 42 10000 8.75 70 18:47 11.04.2022
2734 Clear 7 1012 42 10000 7.72 80 17:57 11.04.2022
2735 Clouds 7 1013 49 10000 7.72 70 16:54 11.04.2022
2736 Clear 7 1013 45 10000 7.72 70 15:56 11.04.2022
2737 Clear 6 1013 45 10000 7.72 70 14:24 11.04.2022
2738 Clear 5 1013 45 10000 7.72 70 12:52 11.04.2022
2739 Clear 5 1013 45 10000 7.72 70 12:31 11.04.2022
2740 Clear 4 1013 48 10000 7.2 70 11:31 11.04.2022
2741 Clear 3 1013 52 10000 6.69 80 10:24 11.04.2022
2742 Clear 3 1013 56 10000 5.66 80 09:20 11.04.2022
2743 Clear 3 1014 60 10000 6.17 90 06:24 11.04.2022
2744 Clouds 3 1015 60 10000 6.69 80 01:53 11.04.2022
2745 Clouds 4 1014 60 10000 5.66 90 22:37 10.04.2022
2746 Clouds 5 1014 52 10000 5.66 120 21:55 10.04.2022
2747 Clouds 5 1014 52 10000 5.66 120 21:28 10.04.2022
2748 Clouds 5 1013 56 10000 7.72 120 20:30 10.04.2022
2749 Clouds 5 1013 52 10000 7.72 120 19:43 10.04.2022
2750 Clouds 5 1013 52 10000 7.72 120 19:20 10.04.2022
2751 Clouds 6 1013 49 10000 9.26 120 18:42 10.04.2022
2752 Clouds 6 1014 49 10000 9.77 110 17:52 10.04.2022
2753 Clouds 6 1014 49 10000 9.77 110 17:33 10.04.2022
2754 Drizzle 6 1014 52 10000 10.29 120 16:21 10.04.2022
2755 Clouds 5 1014 52 10000 10.29 120 14:59 10.04.2022
2756 Clouds 5 1013 48 10000 10.29 120 13:58 10.04.2022
2757 Clouds 4 1013 48 10000 9.77 110 12:33 10.04.2022
2758 Clouds 3 1013 56 10000 9.77 120 11:46 10.04.2022
2759 Clouds 3 1013 56 10000 9.77 120 11:28 10.04.2022
2760 Clouds 3 1013 60 10000 9.77 120 10:43 10.04.2022
2761 Clouds 3 1013 65 10000 10.29 130 09:55 10.04.2022
2762 Clouds 3 1013 65 10000 10.29 130 09:21 10.04.2022
2763 Clouds 3 1013 65 10000 10.29 110 08:21 10.04.2022
2764 Clouds 3 1012 60 10000 9.77 110 07:18 10.04.2022
2765 Clouds 3 1013 56 10000 9.77 100 05:19 10.04.2022
2766 Clouds 2 1014 60 10000 12.35 120 02:20 10.04.2022
2767 Clouds 3 1013 75 10000 8.75 120 23:54 09.04.2022
2768 Clouds 3 1013 75 10000 8.75 120 23:35 09.04.2022
2769 Mist 3 1013 81 9000 7.72 130 22:43 09.04.2022
2770 Drizzle 4 1013 70 10000 8.75 130 21:32 09.04.2022
2771 Clouds 4 1013 70 10000 8.75 130 20:39 09.04.2022
2772 Clouds 4 1013 70 10000 8.75 130 20:19 09.04.2022
2773 Clouds 5 1012 65 10000 11.83 140 19:41 09.04.2022
2774 Clouds 4 1012 70 10000 10.8 140 18:54 09.04.2022
2775 Clouds 4 1012 70 10000 10.8 140 18:18 09.04.2022
2776 Clouds 4 1012 65 10000 9.26 120 17:32 09.04.2022
2777 Clouds 3 1012 65 10000 9.26 110 16:43 09.04.2022
2778 Clouds 3 1012 60 10000 9.26 110 15:53 09.04.2022
2779 Clouds 3 1012 60 10000 9.26 110 15:27 09.04.2022
2780 Clouds 2 1013 64 10000 8.23 100 14:26 09.04.2022
2781 Clouds 1 1013 64 10000 7.2 100 13:38 09.04.2022
2782 Clouds 1 1012 64 10000 7.72 90 12:59 09.04.2022
2783 Clouds 1 1012 64 10000 7.72 90 12:59 09.04.2022
2784 Clouds 1 1012 64 10000 6.69 90 11:56 09.04.2022
2785 Clouds 0 1012 69 10000 5.66 80 10:55 09.04.2022
2786 Clouds 0 1012 69 10000 5.66 80 10:19 09.04.2022
2787 Clouds -1 1012 80 10000 6.17 90 09:36 09.04.2022
2788 Clouds -2 1012 74 10000 6.17 80 08:50 09.04.2022
2789 Clear -2 1012 69 10000 5.66 80 05:58 09.04.2022
2790 Clear 0 1012 47 10000 3.6 110 00:38 09.04.2022
2791 Clear 1 1012 47 10000 2.57 110 23:25 08.04.2022
2792 Clear 3 1011 35 10000 4.12 360 21:58 08.04.2022
2793 Clear 3 1011 32 10000 2.57 300 20:47 08.04.2022
2794 Clear 2 1011 35 10000 3.6 330 19:58 08.04.2022
2795 Clear 2 1011 35 10000 3.6 330 19:18 08.04.2022
2796 Clear 2 1011 38 10000 3.6 330 18:28 08.04.2022
2797 Clear 3 1011 35 10000 3.09 320 17:45 08.04.2022
2798 Clear 3 1011 35 10000 3.09 320 17:22 08.04.2022
2799 Clear 2 1011 35 10000 2.57 300 16:38 08.04.2022
2800 Clear 1 1011 44 10000 2.06 270 15:56 08.04.2022
2801 Clear 1 1011 44 10000 2.06 270 15:25 08.04.2022
2802 Clear 1 1011 40 10000 2.57 270 14:26 08.04.2022
2803 Clear 0 1011 43 10000 2.57 240 13:44 08.04.2022
2804 Clear 0 1011 43 10000 2.57 240 13:25 08.04.2022
2805 Clouds -2 1011 54 10000 2.57 120 11:54 08.04.2022
2806 Clear -3 1011 63 10000 2.06 100 10:33 08.04.2022
2807 Clear -4 1011 74 10000 1.03 110 09:37 08.04.2022
2808 Clear -4 1011 74 10000 2.06 120 08:34 08.04.2022
2809 Clear -4 1011 68 10000 1.03 120 06:54 08.04.2022
2810 Clear -4 1012 71 10000 2.57 60 04:58 08.04.2022
2811 Clear -1 1012 55 10000 3.09 350 01:26 08.04.2022
2812 Clear -1 1012 55 10000 3.6 350 00:22 08.04.2022
2813 Clear 0 1012 51 10000 5.14 350 22:59 07.04.2022
2814 Clear 0 1012 51 10000 5.14 350 22:39 07.04.2022
2815 Clear 0 1012 51 10000 5.14 350 22:20 07.04.2022
2816 Clear 0 1012 43 10000 4.63 360 21:51 07.04.2022
2817 Clouds 0 1012 58 10000 3.64 5 21:19 07.04.2022
2818 Clear 1 1011 40 10000 5.66 350 20:31 07.04.2022
2819 Clear 1 1011 37 10000 4.12 340 18:34 07.04.2022
2820 Clear 1 1011 40 10000 5.66 350 17:26 07.04.2022
2821 Clear 1 1011 37 10000 5.14 360 16:44 07.04.2022
2822 Clear 1 1011 37 10000 5.14 360 16:21 07.04.2022
2823 Clear 0 1011 40 10000 3.09 300 14:42 07.04.2022
2824 Clear -1 1011 51 10000 1.54 230 13:43 07.04.2022
2825 Clear -2 1011 54 10000 1.54 200 12:46 07.04.2022
2826 Clear -3 1011 54 10000 2.06 140 11:30 07.04.2022
2827 Clear -6 1010 68 10000 1.54 160 09:37 07.04.2022
2828 Clear -6 1010 68 10000 2.06 100 08:38 07.04.2022
2829 Clear -6 1010 68 10000 2.57 130 06:42 07.04.2022
2830 Clouds -3 1010 63 10000 2.06 70 02:51 07.04.2022
2831 Clouds -3 1010 63 10000 2.06 70 02:25 07.04.2022
2832 Clouds -2 1010 64 10000 2.57 20 00:27 07.04.2022
2833 Clouds -1 1010 59 10000 9.26 10 22:51 06.04.2022
2834 Clouds -1 1010 59 10000 9.26 10 22:27 06.04.2022
2835 Clouds 0 1009 51 10000 6.69 20 21:44 06.04.2022
2836 Clouds 1 1009 47 10000 7.2 10 20:40 06.04.2022
2837 Clouds 1 1009 51 10000 8.75 10 19:54 06.04.2022
2838 Clouds 1 1009 47 10000 9.77 10 18:52 06.04.2022
2839 Clouds 1 1009 47 10000 9.77 10 18:32 06.04.2022
2840 Clouds 1 1009 44 10000 5.66 30 17:35 06.04.2022
2841 Clouds 1 1009 51 10000 9.26 360 16:38 06.04.2022
2842 Clouds 1 1009 51 10000 5.66 330 15:48 06.04.2022
2843 Clouds 1 1009 51 10000 5.66 330 15:21 06.04.2022
2844 Clouds -1 1009 64 10000 11.83 10 13:28 06.04.2022
2845 Clouds -1 1010 59 10000 8.23 20 12:27 06.04.2022
2846 Clouds -2 1010 64 10000 8.23 10 10:52 06.04.2022
2847 Clouds -2 1010 64 10000 8.23 10 10:30 06.04.2022
2848 Clouds -2 1009 69 10000 11.32 10 09:41 06.04.2022
2849 Clouds -2 1010 69 10000 7.72 40 08:36 06.04.2022
2850 Clouds -2 1009 69 10000 6.69 50 07:54 06.04.2022
2851 Clouds -2 1009 69 10000 14.4 20 04:31 06.04.2022
2852 Clouds -3 1009 68 10000 10.8 30 23:56 05.04.2022
2853 Clouds -3 1009 68 10000 10.8 30 23:22 05.04.2022
2854 Clouds -2 1009 59 10000 10.8 30 21:31 05.04.2022
2855 Clouds -1 1008 55 10000 10.8 30 20:44 05.04.2022
2856 Clouds -1 1008 55 10000 10.8 30 20:19 05.04.2022
2857 Clouds 0 1008 55 10000 9.26 40 18:26 05.04.2022
2858 Clouds -1 1008 55 10000 10.29 40 17:20 05.04.2022
2859 Clouds -1 1008 55 10000 8.75 40 16:41 05.04.2022
2860 Clouds -1 1008 55 10000 8.75 40 15:49 05.04.2022
2861 Clouds -1 1008 55 10000 8.75 40 15:29 05.04.2022
2862 Clouds -3 1009 59 10000 8.23 30 13:42 05.04.2022
2863 Clouds -3 1009 63 10000 4.12 80 11:51 05.04.2022
2864 Clouds -3 1009 63 10000 4.12 80 11:33 05.04.2022
2865 Clouds -4 1009 80 10000 3.6 90 10:57 05.04.2022
2866 Clouds -4 1009 86 3000 4.12 100 09:31 05.04.2022
2867 Snow -3 1009 80 10000 4.12 100 08:22 05.04.2022
2868 Clouds -1 1009 74 9000 5.14 80 03:37 05.04.2022
2869 Snow 1 1008 86 8000 3.6 90 23:38 04.04.2022
2870 Snow 1 1008 86 7000 3.6 80 22:37 04.04.2022
2871 Snow 2 1007 80 7000 3.6 80 21:46 04.04.2022
2872 Clouds 2 1007 80 7000 3.6 80 21:18 04.04.2022
2873 Drizzle 3 1007 81 7000 3.09 80 20:47 04.04.2022
2874 Drizzle 3 1007 81 10000 2.06 360 19:28 04.04.2022
2875 Drizzle 3 1007 87 10000 3.6 10 18:40 04.04.2022
2876 Drizzle 3 1007 81 10000 4.63 350 17:19 04.04.2022
2877 Clouds 3 1007 81 10000 3.09 350 16:28 04.04.2022
2878 Drizzle 3 1007 81 10000 2.06 30 15:33 04.04.2022
2879 Clouds 3 1007 75 10000 2.57 70 14:46 04.04.2022
2880 Clouds 3 1007 75 10000 2.57 70 14:27 04.04.2022
2881 Clouds 3 1007 75 10000 1.54 240 12:58 04.04.2022
2882 Clouds 3 1007 75 10000 1.03 0 11:29 04.04.2022
2883 Clouds 2 1007 80 10000 1.54 210 10:29 04.04.2022
2884 Clouds 3 1006 75 10000 2.06 90 06:58 04.04.2022
2885 Clouds 3 1006 93 10000 2.57 180 03:18 04.04.2022
2886 Drizzle 4 1006 93 2500 4.12 280 23:42 03.04.2022
2887 Drizzle 4 1006 93 2000 4.12 280 22:18 03.04.2022
2888 Drizzle 5 1007 93 2000 4.12 280 21:31 03.04.2022
2889 Drizzle 5 1007 100 8000 4.63 290 20:35 03.04.2022
2890 Clouds 6 1007 87 10000 4.12 290 18:51 03.04.2022
2891 Clouds 6 1007 87 10000 4.12 290 18:26 03.04.2022
2892 Clouds 6 1007 93 10000 3.6 280 17:41 03.04.2022
2893 Drizzle 6 1008 93 8000 4.63 290 16:50 03.04.2022
2894 Clouds 6 1008 93 10000 4.12 260 15:59 03.04.2022
2895 Drizzle 6 1008 93 10000 6.17 270 14:27 03.04.2022
2896 Drizzle 6 1008 100 300 4.63 270 13:38 03.04.2022
2897 Drizzle 6 1009 100 500 4.63 250 11:59 03.04.2022
2898 Mist 6 1009 100 500 5.14 240 10:32 03.04.2022
2899 Mist 6 1009 93 4000 4.12 220 09:23 03.04.2022
2900 Drizzle 6 1010 93 4500 3.6 210 07:24 03.04.2022
2901 Drizzle 7 1012 93 4000 3.6 180 03:46 03.04.2022
2902 Rain 7 1014 87 6000 1.54 90 00:36 03.04.2022
2903 Rain 8 1015 87 10000 4.12 120 22:54 02.04.2022
2904 Rain 8 1016 93 6000 2.06 110 21:57 02.04.2022
2905 Rain 8 1016 93 6000 2.06 110 21:28 02.04.2022
2906 Drizzle 8 1016 93 8000 5.14 130 20:51 02.04.2022
2907 Drizzle 8 1017 87 8000 4.63 110 19:28 02.04.2022
2908 Rain 7 1018 93 10000 5.66 110 18:21 02.04.2022
2909 Rain 7 1019 87 10000 6.17 90 17:47 02.04.2022
2910 Rain 6 1020 93 10000 6.69 90 16:22 02.04.2022
2911 Rain 7 1021 87 10000 4.63 90 15:21 02.04.2022
2912 Rain 8 1022 76 10000 4.63 110 14:47 02.04.2022
2913 Rain 7 1022 81 10000 4.63 80 13:35 02.04.2022
2914 Clouds 7 1022 81 10000 4.12 90 12:37 02.04.2022
2915 Clear 5 1023 81 10000 4.12 100 10:58 02.04.2022
2916 Clouds 4 1023 87 10000 3.6 100 08:50 02.04.2022
2917 Clouds 5 1024 81 10000 2.06 140 06:50 02.04.2022
2918 Clouds 5 1024 75 10000 2.57 110 03:52 02.04.2022
2919 Clouds 5 1024 75 10000 2.06 170 23:57 01.04.2022
2920 Clouds 5 1024 75 10000 2.06 170 23:22 01.04.2022
2921 Clouds 8 1023 66 10000 3.6 120 21:34 01.04.2022
2922 Clouds 8 1023 71 10000 2.57 110 20:51 01.04.2022
2923 Clouds 8 1023 71 10000 2.57 110 20:25 01.04.2022
2924 Clouds 8 1023 71 10000 2.06 70 19:32 01.04.2022
2925 Clouds 7 1024 76 10000 1.54 60 18:45 01.04.2022
2926 Clouds 8 1023 76 10000 0.51 0 17:47 01.04.2022
2927 Clouds 7 1024 76 10000 0.51 0 16:53 01.04.2022
2928 Clouds 7 1024 76 10000 1.03 0 15:41 01.04.2022
2929 Clouds 7 1024 70 10000 2.06 200 14:25 01.04.2022
2930 Clouds 7 1023 65 10000 1.54 140 13:34 01.04.2022
2931 Clouds 5 1023 70 10000 1.54 100 12:32 01.04.2022
2932 Clouds 4 1023 70 10000 1.54 110 11:41 01.04.2022
2933 Clouds 2 1023 80 10000 1.03 90 10:19 01.04.2022
2934 Clouds 1 1023 75 10000 2.06 100 08:58 01.04.2022
2935 Clouds 1 1023 75 10000 0.51 0 06:54 01.04.2022
2936 Clouds 1 1024 82 10000 1.54 120 04:51 01.04.2022
2937 Clouds 1 1024 82 10000 1.54 120 04:33 01.04.2022
2938 Clouds 3 1024 70 10000 1.54 140 01:57 01.04.2022
2939 Clear 4 1024 60 10000 0.51 120 23:58 31.03.2022
2940 Clear 5 1024 52 10000 2.57 40 21:53 31.03.2022
2941 Clear 5 1024 52 10000 2.57 40 21:32 31.03.2022
2942 Clear 5 1024 52 10000 2.06 360 20:29 31.03.2022
2943 Clear 6 1024 49 10000 2.57 350 19:50 31.03.2022
2944 Clear 6 1024 49 10000 1.03 0 18:46 31.03.2022
2945 Clear 6 1024 45 10000 2.57 360 17:50 31.03.2022
2946 Clear 5 1024 48 10000 2.06 330 16:39 31.03.2022
2947 Clear 5 1025 52 10000 2.57 290 15:46 31.03.2022
2948 Clear 5 1025 52 10000 2.57 290 15:20 31.03.2022
2949 Clear 5 1025 52 10000 2.06 290 14:37 31.03.2022
2950 Clear 3 1025 60 10000 1.03 0 12:30 31.03.2022
2951 Clear 2 1025 64 10000 1.54 110 11:28 31.03.2022
2952 Clear 0 1025 69 10000 1.03 0 09:50 31.03.2022
2953 Clear 0 1025 74 10000 1.03 90 08:29 31.03.2022
2954 Clear 1 1025 64 10000 2.57 100 06:21 31.03.2022
2955 Clouds 3 1026 56 10000 3.6 90 00:46 31.03.2022
2956 Clouds 3 1026 60 10000 3.6 100 23:23 30.03.2022
2957 Clouds 4 1026 56 10000 3.09 90 21:43 30.03.2022
2958 Clouds 4 1026 56 10000 3.09 90 21:25 30.03.2022
2959 Clouds 4 1026 56 10000 2.57 100 20:21 30.03.2022
2960 Clouds 4 1026 56 10000 3.6 90 19:36 30.03.2022
2961 Clouds 4 1026 56 10000 3.6 90 18:34 30.03.2022
2962 Clouds 4 1026 56 10000 3.09 90 17:48 30.03.2022
2963 Clouds 4 1026 56 10000 2.06 90 16:57 30.03.2022
2964 Clouds 4 1026 56 10000 2.06 90 16:38 30.03.2022
2965 Clouds 4 1026 52 10000 3.09 120 15:24 30.03.2022
2966 Clouds 2 1026 60 10000 5.66 100 13:57 30.03.2022
2967 Clouds 2 1027 67 10000 3.83 120 13:18 30.03.2022
2968 Clouds 1 1026 64 10000 5.14 70 11:36 30.03.2022
2969 Clouds 1 1026 69 10000 4.12 70 10:31 30.03.2022
2970 Clouds 1 1025 64 10000 5.66 80 09:25 30.03.2022
2971 Clouds 1 1025 69 10000 3.09 70 07:41 30.03.2022
2972 Clouds 1 1025 75 10000 4.12 70 05:41 30.03.2022
2973 Clouds 1 1025 79 10000 3.6 80 04:19 30.03.2022
2974 Clouds 2 1024 69 10000 6.17 100 00:42 30.03.2022
2975 Clouds 3 1024 75 10000 4.63 100 22:34 29.03.2022
2976 Clouds 4 1024 70 10000 4.63 100 21:45 29.03.2022
2977 Clouds 4 1024 65 10000 4.12 120 20:54 29.03.2022
2978 Clouds 4 1024 65 10000 4.12 120 20:20 29.03.2022
2979 Clouds 4 1024 65 10000 5.14 120 18:56 29.03.2022
2980 Clouds 4 1024 65 10000 5.14 120 18:31 29.03.2022
2981 Clouds 4 1024 65 10000 6.17 110 17:36 29.03.2022
2982 Clouds 4 1024 60 10000 6.17 110 16:58 29.03.2022
2983 Clouds 4 1024 60 10000 6.69 100 15:58 29.03.2022
2984 Clouds 4 1024 60 10000 5.66 100 14:53 29.03.2022
2985 Clouds 4 1024 60 10000 5.66 100 14:18 29.03.2022
2986 Clouds 3 1024 60 10000 6.69 100 12:53 29.03.2022
2987 Clouds 2 1024 64 10000 4.63 70 11:44 29.03.2022
2988 Clouds 2 1024 69 10000 4.63 100 10:55 29.03.2022
2989 Clouds 2 1023 69 10000 6.17 90 09:49 29.03.2022
2990 Clouds 3 1023 65 10000 4.12 90 07:57 29.03.2022
2991 Clouds 2 1024 75 10000 5.66 70 04:47 29.03.2022
2992 Clouds 3 1023 70 10000 4.12 100 00:36 29.03.2022
2993 Clear 4 1022 70 10000 5.66 80 23:24 28.03.2022
2994 Clouds 4 1023 70 10000 5.66 90 22:53 28.03.2022
2995 Clouds 4 1023 70 10000 5.66 90 22:26 28.03.2022
2996 Clouds 4 1022 70 10000 5.14 70 20:58 28.03.2022
2997 Clouds 4 1022 70 10000 5.14 70 20:23 28.03.2022
2998 Clouds 4 1022 70 10000 7.2 80 19:44 28.03.2022
2999 Clouds 4 1022 70 10000 7.2 80 19:25 28.03.2022
3000 Clouds 4 1022 70 10000 7.2 80 18:40 28.03.2022
3001 Rain 4 1022 70 10000 7.72 90 17:39 28.03.2022
3002 Rain 3 1022 75 10000 8.23 90 16:21 28.03.2022
3003 Clouds 4 1022 70 10000 8.75 90 14:47 28.03.2022
3004 Clouds 4 1022 70 10000 8.75 90 14:21 28.03.2022
3005 Rain 4 1022 65 10000 5.14 80 12:24 28.03.2022
3006 Clouds 4 1022 65 10000 6.69 80 11:31 28.03.2022
3007 Clouds 4 1022 70 10000 6.17 80 09:43 28.03.2022
3008 Clouds 4 1022 70 10000 6.17 80 09:19 28.03.2022
3009 Clouds 4 1021 65 10000 7.72 90 08:22 28.03.2022
3010 Clouds 4 1021 70 10000 8.75 80 07:34 28.03.2022
3011 Clouds 5 1021 75 10000 6.69 80 03:52 28.03.2022
3012 Clouds 4 1020 75 10000 3.6 80 23:30 27.03.2022
3013 Clouds 4 1020 70 10000 5.66 70 22:24 27.03.2022
3014 Clouds 4 1020 75 10000 7.2 70 21:42 27.03.2022
3015 Clouds 4 1020 75 10000 7.72 70 20:57 27.03.2022
3016 Clouds 4 1019 81 10000 7.2 80 19:48 27.03.2022
3017 Clouds 4 1019 81 10000 7.2 80 19:24 27.03.2022
3018 Clouds 4 1020 81 10000 6.17 80 18:27 27.03.2022
3019 Clouds 4 1020 81 10000 6.17 70 17:39 27.03.2022
3020 Clouds 4 1020 81 10000 3.09 70 16:28 27.03.2022
3021 Clouds 4 1020 81 10000 3.09 30 15:21 27.03.2022
3022 Clouds 2 1020 93 10000 1.54 10 13:55 27.03.2022
3023 Clouds 1 1019 93 10000 1.54 30 12:31 27.03.2022
3024 Clouds 1 1019 93 10000 0.51 0 10:57 27.03.2022
3025 Clouds 0 1018 93 10000 1.03 0 08:51 27.03.2022
3026 Snow 1 1018 86 9000 3.09 340 05:54 27.03.2022
3027 Rain 4 1016 93 8000 3.6 220 00:48 27.03.2022
3028 Drizzle 5 1015 87 9000 3.6 220 23:42 26.03.2022
3029 Rain 5 1015 87 10000 6.69 240 22:36 26.03.2022
3030 Rain 6 1014 87 10000 7.72 240 21:34 26.03.2022
3031 Drizzle 7 1013 93 3600 7.72 210 20:52 26.03.2022
3032 Clouds 7 1013 93 5000 8.75 200 19:21 26.03.2022
3033 Rain 7 1013 93 6000 10.29 200 17:53 26.03.2022
3034 Rain 7 1013 93 6000 10.29 200 17:32 26.03.2022
3035 Drizzle 8 1013 87 4500 11.32 200 16:27 26.03.2022
3036 Rain 8 1013 87 10000 10.8 190 14:57 26.03.2022
3037 Drizzle 8 1014 87 10000 8.75 190 13:52 26.03.2022
3038 Drizzle 8 1014 87 9000 8.75 180 12:51 26.03.2022
3039 Drizzle 8 1014 87 5000 9.77 190 11:33 26.03.2022
3040 Clouds 8 1013 87 3600 8.75 180 10:18 26.03.2022
3041 Clouds 8 1014 87 8000 9.26 180 08:33 26.03.2022
3042 Rain 7 1015 87 7000 9.77 160 05:54 26.03.2022
3043 Drizzle 7 1016 87 10000 9.26 140 04:21 26.03.2022
3044 Clouds 5 1018 81 10000 10.29 120 23:51 25.03.2022
3045 Clouds 5 1018 75 10000 11.32 130 21:41 25.03.2022
3046 Clouds 6 1018 70 10000 10.8 120 20:46 25.03.2022
3047 Clouds 6 1018 75 10000 7.72 90 19:28 25.03.2022
3048 Clouds 6 1018 75 10000 9.77 120 18:47 25.03.2022
3049 Rain 6 1018 75 10000 12.86 130 17:37 25.03.2022
3050 Clouds 6 1018 82 10000 13.38 130 16:50 25.03.2022
3051 Clouds 6 1018 82 10000 13.38 130 16:18 25.03.2022
3052 Rain 5 1018 81 10000 7.72 80 14:22 25.03.2022
3053 Rain 5 1017 81 10000 10.29 80 12:33 25.03.2022
3054 Rain 3 1017 87 10000 5.66 70 09:55 25.03.2022
3055 Rain 3 1017 87 10000 5.66 70 09:27 25.03.2022
3056 Snow 2 1018 80 9000 7.72 70 07:53 25.03.2022
3057 Snow 2 1018 80 9000 7.72 70 07:26 25.03.2022
3058 Clouds 4 1019 60 9000 4.12 80 05:35 25.03.2022
3059 Clouds 3 1017 87 10000 3.6 30 00:42 25.03.2022
3060 Fog 3 1017 87 10000 1.54 310 22:30 24.03.2022
3061 Clouds 3 1017 87 10000 1.54 150 21:35 24.03.2022
3062 Clouds 3 1016 93 10000 3.09 330 19:51 24.03.2022
3063 Fog 4 1015 93 3000 3.09 300 18:58 24.03.2022
3064 Clouds 6 1015 81 10000 2.06 260 17:46 24.03.2022
3065 Clouds 6 1014 87 10000 2.57 250 16:54 24.03.2022
3066 Clouds 6 1014 81 10000 4.63 250 15:21 24.03.2022
3067 Clouds 6 1014 75 10000 4.12 240 14:42 24.03.2022
3068 Drizzle 5 1013 87 10000 4.63 230 13:59 24.03.2022
3069 Drizzle 4 1013 93 10000 2.57 250 12:47 24.03.2022
3070 Clouds 4 1011 87 10000 5.14 240 11:33 24.03.2022
3071 Clouds 4 1010 93 10000 6.17 230 09:51 24.03.2022
3072 Drizzle 5 1008 87 10000 5.66 210 08:40 24.03.2022
3073 Clouds 5 1007 93 10000 6.17 200 06:48 24.03.2022
3074 Rain 7 1009 81 10000 6.17 170 02:18 24.03.2022
3075 Clouds 6 1012 87 10000 8.75 150 23:18 23.03.2022
3076 Clouds 6 1013 81 10000 7.2 140 21:25 23.03.2022
3077 Clouds 6 1013 81 10000 7.2 140 21:25 23.03.2022
3078 Clouds 6 1014 87 10000 7.2 150 20:49 23.03.2022
3079 Clouds 7 1014 81 10000 6.69 140 19:45 23.03.2022
3080 Clouds 7 1015 76 10000 5.14 130 18:30 23.03.2022
3081 Clouds 8 1015 76 10000 7.2 140 17:36 23.03.2022
3082 Clouds 8 1015 76 10000 6.69 140 16:21 23.03.2022
3083 Clouds 6 1016 75 10000 5.66 90 14:50 23.03.2022
3084 Clouds 6 1016 75 10000 5.66 90 14:24 23.03.2022
3085 Clouds 5 1016 75 10000 4.63 80 12:45 23.03.2022
3086 Clouds 4 1015 81 10000 5.14 80 09:38 23.03.2022
3087 Clouds 4 1014 81 10000 5.66 80 06:41 23.03.2022
3088 Clouds 4 1014 93 10000 5.14 90 04:31 23.03.2022
3089 Snow 1 1012 97 1687 2.92 100 00:29 23.03.2022
3090 Drizzle 5 1012 87 7000 2.57 70 22:33 22.03.2022
3091 Clouds 6 1012 81 10000 2.57 80 21:29 22.03.2022
3092 Clouds 6 1011 81 10000 3.6 80 20:40 22.03.2022
3093 Clouds 7 1011 81 10000 0 0 19:41 22.03.2022
3094 Clouds 7 1011 81 10000 0 0 19:18 22.03.2022
3095 Clouds 7 1010 81 10000 2.06 120 18:22 22.03.2022
3096 Clouds 7 1010 81 10000 2.57 150 17:29 22.03.2022
3097 Clouds 7 1010 87 10000 2.06 130 15:59 22.03.2022
3098 Clouds 7 1010 87 10000 2.06 130 15:22 22.03.2022
3099 Clouds 6 1009 87 10000 1.54 190 14:46 22.03.2022
3100 Clouds 6 1009 87 10000 1.54 190 14:27 22.03.2022
3101 Drizzle 5 1008 93 2000 2.57 200 13:27 22.03.2022
3102 Rain 5 1007 93 10000 1.03 0 11:52 22.03.2022
3103 Rain 5 1007 93 10000 3.09 130 10:35 22.03.2022
3104 Rain 6 1006 87 10000 3.6 130 08:29 22.03.2022
3105 Rain 6 1007 87 10000 6.17 120 05:25 22.03.2022
3106 Rain 6 1008 87 10000 5.14 100 03:47 22.03.2022
3107 Clouds 5 1009 87 10000 4.63 140 00:22 22.03.2022
3108 Clouds 6 1008 75 10000 7.72 140 22:29 21.03.2022
3109 Drizzle 5 1008 81 10000 7.72 110 20:57 21.03.2022
3110 Drizzle 5 1008 81 10000 7.72 110 20:38 21.03.2022
3111 Clouds 4 1009 75 10000 4.63 70 19:58 21.03.2022
3112 Clouds 4 1009 75 10000 4.63 70 19:33 21.03.2022
3113 Clouds 3 1009 87 10000 6.17 60 18:22 21.03.2022
3114 Drizzle 3 1010 87 10000 6.17 70 17:19 21.03.2022
3115 Clouds 3 1011 75 10000 5.66 60 16:44 21.03.2022
3116 Clouds 1 1013 80 10000 5.14 60 15:55 21.03.2022
3117 Clouds 1 1013 80 10000 5.14 60 15:19 21.03.2022
3118 Snow 1 1014 75 7000 5.66 70 14:25 21.03.2022
3119 Clouds 2 1016 64 10000 4.12 90 12:40 21.03.2022
3120 Clouds 2 1017 69 10000 4.12 80 11:52 21.03.2022
3121 Clouds 2 1017 69 10000 3.6 90 10:40 21.03.2022
3122 Clouds 1 1017 75 10000 3.6 70 08:55 21.03.2022
3123 Clouds 0 1018 74 10000 3.6 80 06:54 21.03.2022
3124 Clouds 0 1019 80 10000 1.54 130 02:53 21.03.2022
3125 Clouds 0 1019 86 10000 3.09 150 00:19 21.03.2022
3126 Clouds 1 1017 80 10000 3.6 180 22:54 20.03.2022
3127 Clouds 1 1016 86 10000 5.14 200 21:56 20.03.2022
3128 Clouds 1 1016 86 10000 5.14 200 21:29 20.03.2022
3129 Clouds 2 1015 75 10000 4.63 210 20:43 20.03.2022
3130 Clouds 2 1015 75 10000 4.63 210 19:59 20.03.2022
3131 Clouds 2 1015 75 10000 4.63 210 19:34 20.03.2022
3132 Clouds 2 1014 75 10000 4.12 200 18:40 20.03.2022
3133 Clouds 2 1013 75 10000 4.63 210 17:35 20.03.2022
3134 Clouds 3 1013 75 10000 3.6 230 16:57 20.03.2022
3135 Clouds 1 1012 86 10000 6.17 240 15:43 20.03.2022
3136 Clouds 3 1010 75 10000 4.12 260 14:35 20.03.2022
3137 Clouds 2 1009 75 10000 2.06 250 13:18 20.03.2022
3138 Clouds 1 1006 86 10000 2.57 310 11:32 20.03.2022
3139 Clouds 1 1003 86 10000 3.6 320 09:40 20.03.2022
3140 Clouds 2 1001 80 10000 5.14 280 07:50 20.03.2022
3141 Clouds 1 1000 93 10000 5.66 280 05:49 20.03.2022
3142 Clouds 0 999 93 10000 2.57 240 02:53 20.03.2022
3143 Drizzle 1 999 93 4000 3.09 310 00:48 20.03.2022
3144 Drizzle 1 999 93 4400 3.6 300 23:21 19.03.2022
3145 Mist 2 998 93 4300 1.54 220 21:41 19.03.2022
3146 Mist 2 998 93 4300 1.54 220 21:18 19.03.2022
3147 Mist 2 998 93 2800 2.06 190 19:21 19.03.2022
3148 Snow 1 1000 97 2466 3.99 178 18:25 19.03.2022
3149 Clouds 3 1000 97 2466 3.99 178 17:41 19.03.2022
3150 Drizzle 0 1001 93 2200 2.06 170 16:40 19.03.2022
3151 Drizzle 0 1001 93 700 1.03 230 15:21 19.03.2022
3152 Clouds 0 1002 93 3500 0 0 13:39 19.03.2022
3153 Snow 0 1004 96 1670 3.27 18 12:42 19.03.2022
3154 Snow 1 1004 96 341 3.59 33 12:19 19.03.2022
3155 Snow 0 1003 93 1400 2.06 170 11:42 19.03.2022
3156 Clouds -1 1004 93 2800 2.57 160 08:34 19.03.2022
3157 Clouds 0 1006 80 10000 2.06 80 04:24 19.03.2022
3158 Clear 0 1006 80 10000 3.6 80 02:32 19.03.2022
3159 Clouds 1 1005 75 10000 2.06 100 23:50 18.03.2022
3160 Clouds 1 1005 80 10000 2.57 90 22:43 18.03.2022
3161 Clouds 1 1005 80 10000 2.57 90 22:20 18.03.2022
3162 Clouds 1 1004 80 10000 2.06 120 20:25 18.03.2022
3163 Clouds 1 1004 80 10000 2.06 120 20:25 18.03.2022
3164 Clouds 1 1004 80 10000 2.06 120 20:25 18.03.2022
3165 Clouds 1 1002 80 10000 1.03 0 19:24 18.03.2022
3166 Clouds 1 1002 86 10000 0 0 18:35 18.03.2022
3167 Clouds 0 1002 93 10000 3.09 170 16:53 18.03.2022
3168 Clouds 0 1002 93 10000 3.09 170 16:23 18.03.2022
3169 Clouds 0 1003 86 10000 3.09 190 14:26 18.03.2022
3170 Clouds 0 1002 86 10000 4.63 180 13:36 18.03.2022
3171 Snow -1 1002 80 10000 9.26 230 11:35 18.03.2022
3172 Snow -1 1002 80 9000 6.17 200 10:21 18.03.2022
3173 Clouds -2 1000 80 10000 11.83 210 08:46 18.03.2022
3174 Clouds -1 997 80 10000 11.83 210 06:45 18.03.2022
3175 Clouds -2 996 86 3000 10.29 210 04:55 18.03.2022
3176 Clouds -2 992 93 10000 15.43 220 00:55 18.03.2022
3177 Snow -1 992 86 2000 17.49 230 23:52 17.03.2022
3178 Clouds -2 991 93 8000 11.83 210 22:45 17.03.2022
3179 Snow -1 991 86 8000 11.83 230 22:19 17.03.2022
3180 Clouds -2 991 86 2000 12.86 220 21:27 17.03.2022
3181 Snow -2 990 80 10000 11.32 210 20:53 17.03.2022
3182 Clouds -2 990 80 10000 11.32 210 20:19 17.03.2022
3183 Snow 0 990 69 10000 11.83 220 19:38 17.03.2022
3184 Clouds -1 989 80 10000 13.38 220 18:52 17.03.2022
3185 Clouds -2 989 86 10000 11.83 230 17:29 17.03.2022
3186 Clouds -2 989 86 400 13.38 230 16:20 17.03.2022
3187 Clouds -2 988 80 10000 12.86 230 15:43 17.03.2022
3188 Clouds -3 987 93 10000 12.86 240 14:59 17.03.2022
3189 Snow -2 985 86 2000 16.46 240 13:45 17.03.2022
3190 Clouds -1 983 86 9000 15.95 240 12:46 17.03.2022
3191 Clouds -1 979 93 6000 18.01 240 11:33 17.03.2022
3192 Snow 0 975 86 200 20.06 230 10:43 17.03.2022
3193 Snow 1 975 75 2000 12.86 150 09:37 17.03.2022
3194 Clouds 0 975 93 8000 11.32 110 08:19 17.03.2022
3195 Clouds -2 982 86 3500 11.83 90 05:51 17.03.2022
3196 Snow -1 987 74 10000 9.26 90 04:40 17.03.2022
3197 Clouds -3 992 93 10000 3.09 120 00:27 17.03.2022
3198 Clouds -3 992 93 10000 4.12 190 22:56 16.03.2022
3199 Snow -3 992 93 10000 4.12 190 22:36 16.03.2022
3200 Clouds -3 992 93 10000 4.12 170 21:56 16.03.2022
3201 Snow -2 991 86 10000 3.6 120 20:40 16.03.2022
3202 Clouds -3 991 93 10000 4.63 180 19:23 16.03.2022
3203 Clouds -3 991 93 10000 6.69 230 18:42 16.03.2022
3204 Clouds -2 990 86 4200 6.17 190 17:49 16.03.2022
3205 Snow -2 990 86 4200 6.17 190 17:31 16.03.2022
3206 Clouds -2 990 93 10000 7.2 190 16:35 16.03.2022
3207 Snow -2 990 93 2500 5.14 220 14:58 16.03.2022
3208 Clouds -2 989 86 1100 8.75 200 13:36 16.03.2022
3209 Snow -2 989 86 10000 6.17 180 12:55 16.03.2022
3210 Clouds -3 989 86 10000 4.63 140 11:23 16.03.2022
3211 Clouds -3 989 93 8000 6.69 220 10:32 16.03.2022
3212 Clouds -3 988 93 10000 7.2 210 09:57 16.03.2022
3213 Snow -3 987 93 10000 5.66 190 08:24 16.03.2022
3214 Snow -2 985 86 10000 5.66 160 02:46 16.03.2022
3215 Clouds -1 985 86 4500 7.2 210 22:56 15.03.2022
3216 Clouds -1 984 86 10000 9.26 190 22:36 15.03.2022
3217 Clouds -1 984 86 800 10.8 200 20:59 15.03.2022
3218 Clouds -1 984 86 1000 10.8 200 19:46 15.03.2022
3219 Snow -1 983 80 1000 11.32 220 17:47 15.03.2022
3220 Clouds -1 983 86 10000 8.75 220 16:41 15.03.2022
3221 Clouds 0 982 74 10000 11.32 210 15:42 15.03.2022
3222 Clouds 0 981 74 10000 13.38 200 14:54 15.03.2022
3223 Snow 1 980 75 10000 11.83 200 13:56 15.03.2022
3224 Snow 1 980 75 10000 11.83 200 13:23 15.03.2022
3225 Clouds -1 979 86 10000 12.35 210 11:34 15.03.2022
3226 Clouds 0 979 80 10000 8.75 190 10:53 15.03.2022
3227 Clouds -1 978 80 10000 12.35 190 09:29 15.03.2022
3228 Clouds 0 978 86 10000 12.35 210 08:27 15.03.2022
3229 Clouds 0 977 86 10000 7.72 190 07:38 15.03.2022
3230 Snow 0 976 93 10000 5.66 180 06:32 15.03.2022
3231 Clouds 3 974 70 10000 10.29 180 00:58 15.03.2022
3232 Clouds 3 973 75 6500 12.86 190 23:30 14.03.2022
3233 Clouds 3 973 75 10000 13.89 180 22:52 14.03.2022
3234 Clouds 5 972 60 10000 13.38 190 21:55 14.03.2022
3235 Clouds 5 972 70 10000 11.83 180 20:59 14.03.2022
3236 Clouds 5 972 70 10000 11.83 180 20:28 14.03.2022
3237 Clouds 5 971 75 10000 13.38 180 19:32 14.03.2022
3238 Drizzle 6 970 93 1700 18.52 150 17:59 14.03.2022
3239 Drizzle 6 970 93 1700 18.52 150 17:41 14.03.2022
3240 Rain 4 973 93 3200 18.52 140 16:33 14.03.2022
3241 Rain 3 978 87 4300 17.49 140 14:52 14.03.2022
3242 Rain 3 981 87 3600 15.43 140 13:57 14.03.2022
3243 Snow 2 985 87 4200 17.49 140 11:26 14.03.2022
3244 Clouds 2 990 80 10000 15.43 150 09:57 14.03.2022
3245 Drizzle 2 990 80 10000 15.43 150 09:35 14.03.2022
3246 Clouds 3 993 70 10000 13.89 140 08:58 14.03.2022
3247 Clouds 3 993 70 10000 13.89 140 08:30 14.03.2022
3248 Clouds 3 997 65 10000 10.8 150 06:47 14.03.2022
3249 Clouds 3 1002 60 10000 7.2 150 03:27 14.03.2022
3250 Clouds 1 1004 75 10000 3.6 130 01:39 14.03.2022
3251 Clouds 1 1005 80 10000 4.63 140 00:29 14.03.2022
3252 Clouds 2 1005 69 10000 4.12 160 21:51 13.03.2022
3253 Clouds 2 1005 69 10000 4.12 160 21:22 13.03.2022
3254 Clouds 2 1004 75 10000 4.63 160 20:46 13.03.2022
3255 Clouds 2 1004 75 10000 4.63 160 20:22 13.03.2022
3256 Clouds 1 1004 80 10000 6.17 140 19:42 13.03.2022
3257 Clouds 1 1004 80 10000 6.17 140 19:22 13.03.2022
3258 Clouds 2 1004 75 2500 7.72 130 18:45 13.03.2022
3259 Rain 3 1004 70 10000 7.2 130 18:26 13.03.2022
3260 Rain 3 1003 70 10000 6.69 110 17:38 13.03.2022
3261 Clouds 3 1003 70 10000 7.72 110 16:45 13.03.2022
3262 Clouds 3 1003 70 10000 7.72 110 16:23 13.03.2022
3263 Clouds 3 1003 70 10000 7.72 110 15:42 13.03.2022
3264 Clouds 2 1003 69 10000 7.2 110 14:37 13.03.2022
3265 Clouds 1 1003 80 10000 6.69 100 13:28 13.03.2022
3266 Clouds 1 1003 75 10000 4.12 120 12:23 13.03.2022
3267 Snow 0 1002 86 6500 6.17 90 11:39 13.03.2022
3268 Clouds 0 1001 69 9000 5.66 80 10:50 13.03.2022
3269 Clouds 0 1001 69 9000 5.66 80 10:28 13.03.2022
3270 Clouds -1 1000 86 8000 5.14 80 09:42 13.03.2022
3271 Clouds -1 999 74 10000 4.63 80 08:50 13.03.2022
3272 Snow -1 999 74 10000 4.63 80 08:29 13.03.2022
3273 Clouds -1 998 80 10000 4.63 90 07:19 13.03.2022
3274 Clouds 1 995 80 10000 3.6 100 04:57 13.03.2022
3275 Clouds 0 993 80 10000 3.6 110 01:47 13.03.2022
3276 Snow 1 992 75 10000 2.57 130 23:26 12.03.2022
3277 Clouds 2 990 69 10000 3.6 140 21:32 12.03.2022
3278 Clouds 3 989 65 10000 4.12 160 20:19 12.03.2022
3279 Clouds 3 988 70 10000 5.14 170 19:46 12.03.2022
3280 Clouds 2 988 69 10000 5.14 150 18:40 12.03.2022
3281 Clouds 2 987 75 10000 7.2 180 17:49 12.03.2022
3282 Clouds 4 987 65 10000 8.23 180 16:28 12.03.2022
3283 Clouds 1 987 80 3500 9.77 180 15:48 12.03.2022
3284 Clouds 1 987 80 3500 9.77 180 15:19 12.03.2022
3285 Clouds 2 986 69 3000 10.29 160 13:53 12.03.2022
3286 Clouds 3 985 65 10000 6.69 170 12:27 12.03.2022
3287 Clouds 2 985 60 10000 4.63 160 11:52 12.03.2022
3288 Clouds 2 985 60 10000 4.63 160 11:32 12.03.2022
3289 Clouds 2 985 75 10000 4.63 130 10:24 12.03.2022
3290 Clouds 1 984 80 10000 6.17 140 09:43 12.03.2022
3291 Snow 1 984 75 10000 4.12 160 07:52 12.03.2022
3292 Clouds 1 984 80 10000 1.54 120 06:30 12.03.2022
3293 Clouds 4 983 70 10000 3.6 130 00:31 12.03.2022
3294 Rain 4 983 81 10000 4.63 150 23:41 11.03.2022
3295 Clouds 5 982 75 10000 4.12 140 22:32 11.03.2022
3296 Drizzle 5 982 75 10000 4.63 130 21:24 11.03.2022
3297 Drizzle 5 982 75 10000 4.63 130 21:24 11.03.2022
3298 Clouds 4 981 81 10000 5.66 170 20:46 11.03.2022
3299 Clouds 4 981 81 10000 5.66 170 20:26 11.03.2022
3300 Clouds 5 979 70 10000 7.2 160 19:32 11.03.2022
3301 Clouds 6 976 75 10000 9.26 180 17:53 11.03.2022
3302 Clouds 6 976 75 10000 9.26 180 17:24 11.03.2022
3303 Clouds 6 973 75 10000 11.83 140 15:58 11.03.2022
3304 Clouds 6 973 75 10000 11.83 140 15:32 11.03.2022
3305 Clouds 6 972 70 10000 13.89 140 13:42 11.03.2022
3306 Clouds 5 972 81 10000 10.8 140 12:37 11.03.2022
3307 Clouds 5 972 75 2500 13.38 140 12:19 11.03.2022
3308 Clouds 6 970 75 10000 10.29 130 10:44 11.03.2022
3309 Clouds 6 970 81 8000 10.8 110 09:34 11.03.2022
3310 Clouds 7 972 70 10000 9.77 110 08:28 11.03.2022
3311 Clouds 6 972 84 10000 10.29 120 07:48 11.03.2022
3312 Clouds 6 973 81 10000 5.66 100 06:42 11.03.2022
3313 Clouds 6 974 81 10000 6.69 120 04:37 11.03.2022
3314 Clear 6 975 81 10000 4.63 110 01:29 11.03.2022
3315 Clouds 5 975 87 10000 6.69 120 22:32 10.03.2022
3316 Drizzle 6 975 87 10000 5.14 130 21:53 10.03.2022
3317 Drizzle 6 975 87 10000 5.14 130 21:25 10.03.2022
3318 Clouds 5 974 87 10000 2.06 60 20:34 10.03.2022
3319 Clouds 5 974 81 10000 4.12 50 19:20 10.03.2022
3320 Clouds 4 975 87 10000 4.63 60 17:50 10.03.2022
3321 Clouds 4 976 87 10000 6.69 60 16:52 10.03.2022
3322 Clouds 3 976 87 10000 7.72 70 15:28 10.03.2022
3323 Clouds 5 977 81 10000 7.2 80 13:42 10.03.2022
3324 Clouds 4 978 81 10000 9.26 100 12:41 10.03.2022
3325 Clouds 2 978 87 8000 10.8 100 11:28 10.03.2022
3326 Clouds 1 978 86 2300 13.89 90 09:42 10.03.2022
3327 Clouds 1 982 60 10000 11.32 80 07:48 10.03.2022
3328 Clear 0 986 69 10000 5.66 60 05:30 10.03.2022
3329 Clouds 0 987 69 10000 2.57 130 01:59 10.03.2022
3330 Clouds 1 986 64 10000 4.63 210 23:32 09.03.2022
3331 Clouds 1 985 64 10000 8.23 230 22:22 09.03.2022
3332 Clouds 1 984 55 10000 10.29 240 21:44 09.03.2022
3333 Clouds 1 982 69 10000 10.8 240 20:36 09.03.2022
3334 Snow 1 979 86 3000 11.32 250 18:50 09.03.2022
3335 Clouds 1 977 93 1700 10.29 260 17:28 09.03.2022
3336 Snow 1 976 93 4000 7.2 260 16:39 09.03.2022
3337 Rain 2 974 87 10000 4.63 240 15:32 09.03.2022
3338 Clouds 3 972 81 10000 4.12 260 14:19 09.03.2022
3339 Clouds 3 971 81 10000 3.6 260 13:25 09.03.2022
3340 Clouds 3 970 81 10000 3.6 240 12:20 09.03.2022
3341 Clear 2 969 87 10000 2.57 240 11:45 09.03.2022
3342 Clear 2 968 87 10000 3.09 180 10:50 09.03.2022
3343 Clouds 2 968 93 10000 1.54 280 09:22 09.03.2022
3344 Clouds 2 967 93 10000 2.06 240 08:42 09.03.2022
3345 Clouds 4 967 81 10000 4.12 20 05:36 09.03.2022
3346 Clouds 4 972 75 10000 4.63 90 00:56 09.03.2022
3347 Clouds 4 974 75 10000 4.63 100 23:37 08.03.2022
3348 Clouds 5 975 81 7000 7.72 130 22:45 08.03.2022
3349 Clouds 5 976 81 7000 6.69 120 21:43 08.03.2022
3350 Clouds 5 976 81 7000 6.69 120 21:18 08.03.2022
3351 Clouds 5 975 79 10000 13.38 130 19:59 08.03.2022
3352 Clouds 5 975 70 10000 14.92 120 18:53 08.03.2022
3353 Clouds 5 977 75 10000 13.89 130 17:51 08.03.2022
3354 Clouds 6 977 70 10000 15.43 130 16:35 08.03.2022
3355 Clouds 5 979 81 8000 12.35 130 14:24 08.03.2022
3356 Mist 5 978 87 5500 13.89 140 13:22 08.03.2022
3357 Rain 5 979 87 3000 14.4 140 12:19 08.03.2022
3358 Mist 6 979 81 5000 13.89 130 11:41 08.03.2022
3359 Mist 5 980 81 7000 11.32 130 10:27 08.03.2022
3360 Rain 3 983 87 9000 5.14 110 08:30 08.03.2022
3361 Snow 0 990 86 3000 3.09 20 05:48 08.03.2022
3362 Clouds 0 997 93 8000 2.57 70 01:48 08.03.2022
3363 Clouds 0 1000 93 6000 3.09 100 22:24 07.03.2022
3364 Clouds 0 1001 93 6000 2.06 130 21:35 07.03.2022
3365 Clouds 0 1001 93 5000 2.06 160 20:55 07.03.2022
3366 Clouds 0 1001 93 5000 2.06 160 20:26 07.03.2022
3367 Clouds 0 1001 93 10000 3.09 120 19:41 07.03.2022
3368 Clouds 0 1001 93 10000 2.06 120 18:47 07.03.2022
3369 Clouds 0 1001 93 10000 2.06 120 18:25 07.03.2022
3370 Clouds 0 1002 93 500 4.63 210 16:56 07.03.2022
3371 Snow 1 1002 80 2000 6.17 210 16:34 07.03.2022
3372 Snow 1 1004 75 10000 3.6 90 14:40 07.03.2022
3373 Clouds 1 1005 75 10000 3.09 130 12:34 07.03.2022
3374 Clouds -2 1006 86 10000 1.03 0 10:48 07.03.2022
3375 Clouds -2 1006 86 10000 1.03 0 10:25 07.03.2022
3376 Clouds -1 1006 80 10000 3.6 170 07:42 07.03.2022
3377 Clouds -1 1009 93 10000 4.12 170 00:37 07.03.2022
3378 Clouds -1 1009 93 10000 4.12 170 00:19 07.03.2022
3379 Clouds 0 1009 86 10000 6.17 210 23:19 06.03.2022
3380 Clouds 0 1009 86 10000 7.2 170 22:25 06.03.2022
3381 Snow 1 1009 75 3000 7.2 180 21:22 06.03.2022
3382 Clouds 1 1009 69 10000 5.66 180 20:29 06.03.2022
3383 Clouds 0 1009 80 10000 6.69 230 19:35 06.03.2022
3384 Clouds 1 1009 75 10000 6.17 200 18:40 06.03.2022
3385 Clouds 1 1009 75 10000 6.17 190 17:36 06.03.2022
3386 Clouds 1 1009 75 10000 6.17 190 17:18 06.03.2022
3387 Clouds 1 1010 80 10000 5.66 220 16:26 06.03.2022
3388 Clouds 1 1010 75 10000 7.2 190 15:23 06.03.2022
3389 Clouds 0 1010 80 10000 8.75 220 14:41 06.03.2022
3390 Clouds 0 1010 74 10000 4.63 170 13:48 06.03.2022
3391 Clouds 0 1009 80 10000 7.2 180 12:39 06.03.2022
3392 Clouds 0 1009 74 10000 7.2 190 11:39 06.03.2022
3393 Clouds 1 1006 69 10000 7.72 210 10:33 06.03.2022
3394 Clouds 0 1006 86 10000 4.12 190 09:18 06.03.2022
3395 Clouds 0 1008 86 10000 5.14 220 08:27 06.03.2022
3396 Clouds 0 1007 86 10000 4.12 160 07:23 06.03.2022
3397 Snow 0 1005 93 3000 1.54 220 01:54 06.03.2022
3398 Snow -1 1005 100 2000 1.03 210 00:34 06.03.2022
3399 Snow -1 1005 100 2000 1.54 220 23:57 05.03.2022
3400 Clouds 0 1005 98 2000 1.54 220 23:18 05.03.2022
3401 Snow 0 1005 94 1500 1.54 280 22:32 05.03.2022
3402 Clouds 1 1004 93 4000 5.14 290 21:29 05.03.2022
3403 Rain 7 1003 87 3500 10.8 160 20:27 05.03.2022
3404 Clouds 6 1004 93 5000 12.35 150 19:18 05.03.2022
3405 Rain 6 1006 87 6000 11.32 140 18:37 05.03.2022
3406 Rain 5 1005 94 1954 17.5 137 17:31 05.03.2022
3407 Clouds 4 1009 96 367 17.43 137 16:18 05.03.2022
3408 Clouds 5 1012 81 10000 10.8 140 14:54 05.03.2022
3409 Rain 5 1012 81 10000 10.8 140 14:35 05.03.2022
3410 Rain 3 1013 92 4239 15.77 137 13:39 05.03.2022
3411 Rain 3 1015 85 10000 13.72 139 12:35 05.03.2022
3412 Clouds 5 1017 75 10000 6.17 110 11:20 05.03.2022
3413 Clouds 4 1017 81 10000 6.69 110 10:52 05.03.2022
3414 Clouds 2 1017 85 10000 9.05 126 09:31 05.03.2022
3415 Clouds 3 1018 81 10000 6.17 120 08:24 05.03.2022
3416 Clouds 3 1019 75 10000 4.63 130 07:21 05.03.2022
3417 Clouds 2 1020 75 10000 3.6 100 05:22 05.03.2022
3418 Clouds 1 1019 86 10000 2.57 150 00:32 05.03.2022
3419 Clouds 1 1019 86 10000 4.63 200 22:45 04.03.2022
3420 Clouds 1 1019 86 10000 4.63 200 22:25 04.03.2022
3421 Clouds 1 1018 86 10000 4.12 200 21:43 04.03.2022
3422 Snow 1 1018 86 10000 3.6 190 20:42 04.03.2022
3423 Clouds 1 1017 93 10000 2.57 150 19:37 04.03.2022
3424 Clouds 0 1017 93 10000 2.06 240 18:56 04.03.2022
3425 Snow 1 1017 80 800 5.66 240 18:33 04.03.2022
3426 Clouds 2 1016 87 10000 5.14 250 17:29 04.03.2022
3427 Snow 2 1015 69 10000 5.66 270 15:54 04.03.2022
3428 Clouds 2 1015 69 10000 5.66 270 15:25 04.03.2022
3429 Clouds 2 1013 87 10000 3.09 230 13:36 04.03.2022
3430 Clouds 2 1013 87 10000 2.57 310 12:47 04.03.2022
3431 Clouds 2 1011 75 10000 5.66 260 11:37 04.03.2022
3432 Clouds 2 1011 75 10000 5.66 260 11:37 04.03.2022
3433 Clouds 2 1010 80 10000 4.63 270 10:25 04.03.2022
3434 Clouds 2 1010 87 10000 5.14 270 09:28 04.03.2022
3435 Clouds 0 1008 93 5000 3.09 210 07:48 04.03.2022
3436 Clouds -2 1007 93 10000 2.57 140 06:21 04.03.2022
3437 Clouds 0 1006 80 10000 2.06 150 01:46 04.03.2022
3438 Clouds 1 1005 86 10000 2.57 130 23:41 03.03.2022
3439 Clouds 2 1005 80 10000 3.6 170 22:18 03.03.2022
3440 Clouds 2 1004 87 10000 2.06 130 21:36 03.03.2022
3441 Clouds 1 1003 86 10000 5.66 200 20:48 03.03.2022
3442 Clouds 2 1003 75 10000 4.63 140 19:29 03.03.2022
3443 Clouds 2 1002 75 10000 5.66 140 18:33 03.03.2022
3444 Clouds 3 1003 70 10000 5.14 140 17:39 03.03.2022
3445 Clouds 3 1003 70 10000 5.14 140 17:18 03.03.2022
3446 Clouds 1 1003 86 10000 5.14 170 15:46 03.03.2022
3447 Snow 2 1002 75 10000 4.63 120 14:45 03.03.2022
3448 Snow 2 1002 75 10000 4.63 120 14:27 03.03.2022
3449 Snow 2 1002 80 10000 4.63 110 12:43 03.03.2022
3450 Clouds 2 1002 80 10000 3.6 110 11:31 03.03.2022
3451 Clouds 2 1001 75 5000 4.12 130 10:39 03.03.2022
3452 Clouds 2 1000 75 10000 3.6 90 08:44 03.03.2022
3453 Clouds 2 1000 75 10000 3.6 150 06:58 03.03.2022
3454 Clouds 2 1000 75 10000 3.6 150 06:23 03.03.2022
3455 Clouds 4 998 70 10000 5.66 150 00:40 03.03.2022
3456 Clouds 4 997 75 10000 5.66 160 23:28 02.03.2022
3457 Clouds 4 996 75 10000 5.14 150 22:48 02.03.2022
3458 Clouds 5 996 65 10000 5.14 150 21:23 02.03.2022
3459 Clouds 5 996 75 10000 6.17 150 20:30 02.03.2022
3460 Clouds 2 995 80 10000 6.69 100 19:49 02.03.2022
3461 Clouds 2 995 80 10000 6.69 100 19:30 02.03.2022
3462 Rain 3 995 81 10000 4.12 120 18:44 02.03.2022
3463 Rain 3 994 87 10000 5.14 140 17:50 02.03.2022
3464 Rain 3 994 87 10000 5.14 140 17:21 02.03.2022
3465 Rain 3 995 87 10000 3.09 150 16:42 02.03.2022
3466 Rain 3 995 87 8000 4.63 160 14:43 02.03.2022
3467 Mist 6 994 81 6000 13.38 130 13:24 02.03.2022
3468 Rain 4 993 87 6000 13.89 130 12:42 02.03.2022
3469 Rain 4 994 87 4500 12.86 110 11:40 02.03.2022
3470 Rain 4 994 87 4500 12.86 110 11:21 02.03.2022
3471 Rain 5 996 87 6000 13.38 110 09:41 02.03.2022
3472 Drizzle 5 996 87 9000 12.86 110 08:54 02.03.2022
3473 Rain 5 996 81 5000 13.38 120 07:28 02.03.2022
3474 Rain 5 997 75 10000 18.01 130 06:51 02.03.2022
3475 Clouds 2 1007 69 10000 7.72 100 01:33 02.03.2022
3476 Clear 1 1008 60 10000 6.17 90 23:49 01.03.2022
3477 Clear 0 1009 69 10000 7.72 80 22:45 01.03.2022
3478 Clear 0 1009 69 10000 7.72 80 22:19 01.03.2022
3479 Clear 0 1010 69 10000 5.66 80 21:25 01.03.2022
3480 Clear -1 1011 74 10000 4.63 90 20:30 01.03.2022
3481 Clear -1 1011 74 10000 4.63 90 20:30 01.03.2022
3482 Clear -1 1011 74 10000 4.63 90 20:30 01.03.2022
3483 Clear 0 1012 69 10000 4.63 90 19:38 01.03.2022
3484 Clear 1 1012 69 10000 3.6 110 18:49 01.03.2022
3485 Clear 1 1012 69 10000 3.6 110 18:20 01.03.2022
3486 Clouds 2 1012 64 10000 2.06 180 17:22 01.03.2022
3487 Clouds 2 1013 69 10000 2.57 200 16:33 01.03.2022
3488 Clouds 2 1012 75 10000 2.57 190 15:38 01.03.2022
3489 Clouds 2 1011 80 10000 2.57 260 14:35 01.03.2022
3490 Clouds 0 1010 86 10000 8.75 290 13:58 01.03.2022
3491 Clouds 0 1010 86 10000 8.75 290 13:25 01.03.2022
3492 Clouds 0 1009 86 10000 7.2 240 12:32 01.03.2022
3493 Snow 0 1006 86 300 9.26 250 10:36 01.03.2022
3494 Clouds 0 1004 86 400 9.26 250 08:45 01.03.2022
3495 Clouds 1 999 86 10000 8.75 230 07:53 01.03.2022
3496 Clouds 1 998 93 10000 9.77 240 06:20 01.03.2022
3497 Clouds 2 991 75 10000 13.38 260 02:44 01.03.2022
3498 Clouds 2 988 87 10000 7.72 270 00:36 01.03.2022
3499 Snow 1 986 93 4800 11.32 270 23:31 28.02.2022
3500 Snow 1 985 93 1800 8.75 270 22:18 28.02.2022
3501 Snow 1 983 93 10000 11.32 280 21:39 28.02.2022
3502 Snow 1 978 100 1500 8.75 270 19:59 28.02.2022
3503 Snow 1 978 100 1500 8.75 270 19:40 28.02.2022
3504 Snow 1 978 93 900 7.2 280 18:44 28.02.2022
3505 Snow 1 975 93 800 6.17 290 17:33 28.02.2022
3506 Snow 0 973 93 1800 6.17 300 16:53 28.02.2022
3507 Snow 1 972 93 1500 7.2 330 15:31 28.02.2022
3508 Snow 1 971 93 2200 1.54 210 14:32 28.02.2022
3509 Snow 2 970 87 8000 5.66 10 13:48 28.02.2022
3510 Snow 2 969 80 2500 7.2 20 12:53 28.02.2022
3511 Snow 2 968 80 9000 8.75 10 11:59 28.02.2022
3512 Mist 2 968 80 9000 8.75 10 11:18 28.02.2022
3513 Clouds 1 967 86 10000 11.83 10 10:22 28.02.2022
3514 Drizzle 1 968 86 8000 9.26 40 09:43 28.02.2022
3515 Snow 2 968 75 10000 7.2 20 08:51 28.02.2022
3516 Snow 3 968 65 10000 8.75 50 07:57 28.02.2022
3517 Snow 3 971 65 10000 10.8 30 05:53 28.02.2022
3518 Clouds 2 973 69 10000 7.72 20 04:30 28.02.2022
3519 Clear 2 983 55 10000 10.8 70 00:42 28.02.2022
3520 Snow 2 988 60 10000 12.86 90 22:44 27.02.2022
3521 Clouds 2 988 60 10000 12.86 90 22:26 27.02.2022
3522 Clouds 1 990 69 10000 13.38 90 21:37 27.02.2022
3523 Snow 2 993 75 10000 7.2 80 20:43 27.02.2022
3524 Snow 2 993 75 10000 7.2 80 20:18 27.02.2022
3525 Snow 2 994 69 10000 6.17 90 19:43 27.02.2022
3526 Snow 2 994 69 10000 6.17 90 19:18 27.02.2022
3527 Snow 2 995 75 10000 5.66 80 18:24 27.02.2022
3528 Clouds 2 996 75 2000 5.66 90 17:45 27.02.2022
3529 Snow 2 997 80 10000 4.63 100 16:23 27.02.2022
3530 Clouds 1 997 86 10000 3.6 120 14:29 27.02.2022
3531 Snow -1 997 93 10000 1.54 120 12:36 27.02.2022
3532 Snow 0 997 86 1000 6.17 130 11:46 27.02.2022
3533 Clouds 0 996 74 10000 7.2 170 10:37 27.02.2022
3534 Clouds -1 995 80 10000 2.57 120 09:58 27.02.2022
3535 Clouds -1 995 80 10000 2.57 120 09:23 27.02.2022
3536 Clouds -2 993 80 10000 4.63 150 08:45 27.02.2022
3537 Clouds -2 993 80 10000 4.63 150 08:45 27.02.2022
3538 Snow -2 992 86 1500 3.09 130 06:26 27.02.2022
3539 Snow -2 990 80 10000 4.63 110 03:35 27.02.2022
3540 Snow 0 986 80 10000 5.14 180 23:57 26.02.2022
3541 Clouds 0 985 86 10000 3.09 210 22:43 26.02.2022
3542 Clouds 0 984 86 5000 9.77 210 21:29 26.02.2022
3543 Clouds 0 982 93 800 8.23 180 20:43 26.02.2022
3544 Snow 2 982 80 2000 8.75 200 19:57 26.02.2022
3545 Snow 1 981 86 10000 8.23 200 19:33 26.02.2022
3546 Snow 1 981 86 10000 8.23 200 19:33 26.02.2022
3547 Clouds 2 979 75 10000 5.66 180 18:33 26.02.2022
3548 Clouds 3 979 75 4000 9.26 200 17:37 26.02.2022
3549 Clouds 3 977 75 10000 8.23 210 16:39 26.02.2022
3550 Clouds 3 975 70 10000 9.77 200 15:42 26.02.2022
3551 Clouds 3 975 70 10000 9.77 200 15:19 26.02.2022
3552 Clouds 3 974 75 10000 7.72 210 14:44 26.02.2022
3553 Clouds 3 974 75 10000 7.72 210 14:19 26.02.2022
3554 Clouds 2 971 87 1000 12.86 170 12:53 26.02.2022
3555 Rain 4 971 70 10000 10.8 160 11:53 26.02.2022
3556 Rain 4 971 70 10000 10.8 160 11:26 26.02.2022
3557 Clouds 4 971 70 10000 9.26 170 10:19 26.02.2022
3558 Clouds 3 969 65 10000 10.29 160 08:35 26.02.2022
3559 Clouds 1 970 86 10000 6.69 160 06:40 26.02.2022
3560 Clouds 3 969 75 10000 10.29 180 00:26 26.02.2022
3561 Snow 2 969 80 4000 7.72 200 22:44 25.02.2022
3562 Clouds 4 968 70 10000 10.8 170 21:33 25.02.2022
3563 Clouds 4 968 75 10000 10.29 150 20:57 25.02.2022
3564 Clouds 4 968 75 10000 10.29 150 20:28 25.02.2022
3565 Clouds 3 969 87 10000 5.66 150 18:18 25.02.2022
3566 Rain 4 970 87 10000 8.23 150 17:20 25.02.2022
3567 Rain 4 968 81 7000 17.49 110 16:20 25.02.2022
3568 Mist 3 970 87 5000 19.03 110 15:42 25.02.2022
3569 Mist 3 970 87 5000 19.03 110 15:18 25.02.2022
3570 Snow 2 975 93 6000 15.43 100 14:39 25.02.2022
3571 Snow 1 977 100 3500 14.92 100 13:36 25.02.2022
3572 Snow 1 981 93 2500 14.92 110 12:42 25.02.2022
3573 Snow 1 985 93 2500 15.95 110 11:23 25.02.2022
3574 Snow 2 986 87 1500 14.4 110 10:28 25.02.2022
3575 Rain 3 990 81 10000 14.4 110 09:53 25.02.2022
3576 Clouds 1 993 86 9000 13.89 110 08:46 25.02.2022
3577 Clouds 0 995 86 5000 8.75 90 07:37 25.02.2022
3578 Clouds -1 999 80 10000 7.72 70 05:47 25.02.2022
3579 Clouds -2 1002 76 10000 6.17 80 03:34 25.02.2022
3580 Clear -4 1004 58 10000 5.66 90 23:42 24.02.2022
3581 Clear -4 1004 63 10000 5.14 80 21:56 24.02.2022
3582 Clear -4 1004 63 10000 5.14 80 21:37 24.02.2022
3583 Clear -4 1004 63 10000 5.14 80 21:18 24.02.2022
3584 Clear -3 1003 63 10000 2.57 120 19:38 24.02.2022
3585 Clear -2 1003 63 10000 2.06 150 18:43 24.02.2022
3586 Clear -2 1003 63 10000 2.06 150 18:18 24.02.2022
3587 Clear 0 1002 59 10000 2.06 270 17:33 24.02.2022
3588 Clear 0 1002 59 10000 2.06 270 17:33 24.02.2022
3589 Clear 1 1001 55 10000 1.03 320 16:49 24.02.2022
3590 Clear 1 1001 55 10000 1.03 320 16:23 24.02.2022
3591 Clear -1 999 64 10000 2.57 210 14:54 24.02.2022
3592 Clear -1 999 64 10000 2.57 210 14:35 24.02.2022
3593 Clear -2 998 64 10000 2.57 120 13:39 24.02.2022
3594 Clouds -2 997 69 10000 8.75 30 12:54 24.02.2022
3595 Clouds -2 994 69 10000 8.75 0 10:41 24.02.2022
3596 Clouds -2 994 69 10000 8.75 0 10:41 24.02.2022
3597 Clouds -2 991 69 10000 9.26 20 09:18 24.02.2022
3598 Clouds -2 991 69 10000 7.72 30 08:40 24.02.2022
3599 Clouds -1 986 69 10000 11.83 30 05:58 24.02.2022
3600 Clouds 0 980 80 10000 11.83 10 01:58 24.02.2022
3601 Clouds 0 977 74 10000 10.29 40 23:40 23.02.2022
3602 Clouds 0 975 59 10000 2.57 40 21:43 23.02.2022
3603 Clouds 0 974 64 10000 6.69 20 20:31 23.02.2022
3604 Clouds 0 973 69 10000 9.77 20 19:49 23.02.2022
3605 Clouds 0 973 59 10000 7.2 40 18:42 23.02.2022
3606 Clouds -1 972 69 10000 6.17 0 17:45 23.02.2022
3607 Clear 0 971 55 10000 3.6 60 15:26 23.02.2022
3608 Clouds -2 970 64 10000 3.09 100 13:28 23.02.2022
3609 Clouds -1 970 64 10000 2.57 80 12:26 23.02.2022
3610 Clouds -1 969 64 10000 3.6 360 10:45 23.02.2022
3611 Snow -2 969 74 10000 2.06 100 09:24 23.02.2022
3612 Snow -2 970 74 10000 3.6 330 08:27 23.02.2022
3613 Snow -2 969 86 10000 7.2 340 07:18 23.02.2022
3614 Snow -3 972 93 2000 2.06 180 01:22 23.02.2022
3615 Snow -2 970 74 10000 3.6 150 23:40 22.02.2022
3616 Snow -1 970 69 10000 2.57 140 22:59 22.02.2022
3617 Clouds -1 971 64 10000 3.6 150 21:56 22.02.2022
3618 Clouds -1 971 64 10000 3.6 150 21:37 22.02.2022
3619 Clouds -1 971 64 10000 3.6 150 21:18 22.02.2022
3620 Clouds -1 970 69 10000 7.2 210 20:31 22.02.2022
3621 Clouds -1 969 64 10000 8.23 210 19:53 22.02.2022
3622 Clouds -1 969 64 10000 8.23 210 19:33 22.02.2022
3623 Clouds 0 969 69 10000 10.8 220 18:27 22.02.2022
3624 Snow -1 969 80 700 15.43 220 17:26 22.02.2022
3625 Clouds 0 969 64 10000 14.4 230 16:42 22.02.2022
3626 Clouds 1 967 69 10000 16.46 240 15:59 22.02.2022
3627 Snow 0 967 74 10000 17.49 230 14:52 22.02.2022
3628 Snow 0 963 93 3400 18.01 240 12:52 22.02.2022
3629 Snow 1 958 86 6000 20.58 240 10:54 22.02.2022
3630 Rain 2 951 93 3000 21.61 240 08:56 22.02.2022
3631 Clouds 2 950 93 3000 19.55 240 07:28 22.02.2022
3632 Clouds 2 950 93 8000 9.77 220 06:53 22.02.2022
3633 Clouds 2 947 93 10000 7.2 80 02:48 22.02.2022
3634 Clouds 1 953 100 2500 16.46 110 23:18 21.02.2022
3635 Snow 1 958 100 1500 19.03 100 21:56 21.02.2022
3636 Snow 1 964 100 1500 14.92 110 20:38 21.02.2022
3637 Snow 2 976 93 3200 14.4 110 18:47 21.02.2022
3638 Snow 2 976 93 3200 14.4 110 18:18 21.02.2022
3639 Snow 3 989 87 10000 11.32 150 15:36 21.02.2022
3640 Clouds 3 992 86 10000 7.2 130 14:22 21.02.2022
3641 Clouds 2 994 93 10000 7.72 120 13:30 21.02.2022
3642 Clouds 3 995 87 7000 7.72 110 12:25 21.02.2022
3643 Snow 2 996 75 10000 6.17 100 11:31 21.02.2022
3644 Clouds 2 999 77 10000 8.47 126 10:26 21.02.2022
3645 Clear -2 999 64 10000 4.63 90 05:40 21.02.2022
3646 Clear -3 995 74 10000 2.06 120 00:30 21.02.2022
3647 Clear 0 992 64 10000 1.03 0 22:31 20.02.2022
3648 Clear 1 989 55 10000 5.14 60 21:43 20.02.2022
3649 Clear 1 989 55 10000 5.14 60 21:19 20.02.2022
3650 Clear 1 987 60 10000 2.57 140 20:42 20.02.2022
3651 Clouds 2 985 60 10000 4.63 20 19:48 20.02.2022
3652 Clouds 3 982 56 10000 9.26 30 18:55 20.02.2022
3653 Clouds 3 982 56 10000 9.26 30 18:34 20.02.2022
3654 Clouds 2 981 64 10000 10.8 0 17:55 20.02.2022
3655 Clouds 2 978 60 10000 8.75 40 16:18 20.02.2022
3656 Clouds 2 973 51 10000 6.69 30 14:53 20.02.2022
3657 Clouds 3 971 38 10000 8.23 30 13:58 20.02.2022
3658 Clouds 3 970 48 10000 8.23 60 12:35 20.02.2022
3659 Clouds 1 968 60 10000 7.2 60 10:52 20.02.2022
3660 Clouds 1 968 60 10000 7.2 60 10:20 20.02.2022
3661 Clouds 2 967 51 10000 10.29 80 08:58 20.02.2022
3662 Clouds 1 969 55 10000 12.35 90 02:54 20.02.2022
3663 Snow 0 971 64 9000 12.35 90 00:31 20.02.2022
3664 Snow 0 973 64 10000 12.35 90 23:30 19.02.2022
3665 Snow -1 975 69 10000 12.35 90 22:23 19.02.2022
3666 Clouds -1 975 74 10000 13.38 100 21:45 19.02.2022
3667 Snow -1 975 69 10000 13.38 90 20:23 19.02.2022
3668 Clouds -1 977 74 10000 12.35 90 19:34 19.02.2022
3669 Clouds -1 979 69 10000 11.32 90 18:38 19.02.2022
3670 Snow -1 981 69 10000 10.29 80 17:37 19.02.2022
3671 Clouds -1 983 64 10000 12.35 90 16:44 19.02.2022
3672 Clouds -1 985 64 10000 10.29 70 15:20 19.02.2022
3673 Clouds -2 986 64 10000 11.32 80 14:53 19.02.2022
3674 Clouds -2 987 64 10000 10.29 90 13:50 19.02.2022
3675 Clouds -2 989 64 10000 9.77 80 11:40 19.02.2022
3676 Clouds -2 990 59 10000 7.72 80 10:30 19.02.2022
3677 Clouds -3 992 59 10000 8.75 80 08:54 19.02.2022
3678 Clear -3 992 59 10000 7.72 70 06:45 19.02.2022
3679 Clouds -3 994 59 10000 6.69 80 23:55 18.02.2022
3680 Clear -3 995 63 10000 5.14 70 22:24 18.02.2022
3681 Clear -2 995 59 10000 6.69 90 20:57 18.02.2022
3682 Clear -2 995 59 10000 5.66 80 19:56 18.02.2022
3683 Clouds -2 996 59 10000 5.14 80 18:51 18.02.2022
3684 Clouds -2 996 59 10000 5.14 80 18:25 18.02.2022
3685 Clouds -2 996 59 10000 4.63 80 17:56 18.02.2022
3686 Clouds -2 996 54 10000 6.17 100 15:35 18.02.2022
3687 Clear -3 996 63 10000 3.6 100 13:56 18.02.2022
3688 Clear -3 996 63 10000 3.6 100 13:28 18.02.2022
3689 Clear -4 996 63 10000 4.63 90 12:41 18.02.2022
3690 Clear -4 995 63 10000 5.14 100 11:55 18.02.2022
3691 Clear -4 995 58 10000 3.6 90 10:24 18.02.2022
3692 Clear -5 994 68 10000 3.6 110 06:58 18.02.2022
3693 Clear -4 994 63 10000 5.14 110 05:41 18.02.2022
3694 Clouds -4 995 80 10000 1.54 0 23:43 17.02.2022
3695 Clouds -4 995 86 10000 2.06 100 21:50 17.02.2022
3696 Clouds -4 995 86 10000 2.06 100 21:26 17.02.2022
3697 Clouds -3 995 93 10000 2.06 90 20:40 17.02.2022
3698 Clouds -2 995 80 10000 3.09 110 19:52 17.02.2022
3699 Clouds -2 995 86 10000 2.57 110 18:54 17.02.2022
3700 Clouds -3 995 93 10000 2.06 110 17:55 17.02.2022
3701 Clouds -2 995 86 10000 2.06 130 16:43 17.02.2022
3702 Clouds -1 995 86 10000 1.54 100 15:40 17.02.2022
3703 Clouds -1 995 86 10000 2.57 140 14:28 17.02.2022
3704 Clouds -3 994 100 10000 2.57 150 12:50 17.02.2022
3705 Clouds -3 993 93 10000 1.54 130 11:27 17.02.2022
3706 Clouds -2 993 93 10000 4.12 20 09:18 17.02.2022
3707 Snow -1 990 100 2500 5.66 300 04:41 17.02.2022
3708 Clouds -1 987 93 3500 2.06 140 23:21 16.02.2022
3709 Clouds -1 986 93 5000 1.03 0 21:45 16.02.2022
3710 Snow -1 984 69 10000 1.54 150 19:57 16.02.2022
3711 Snow -1 983 69 10000 3.09 90 18:43 16.02.2022
3712 Clouds 0 982 69 10000 2.57 90 17:53 16.02.2022
3713 Snow -1 981 69 10000 4.63 90 15:55 16.02.2022
3714 Clouds -1 981 69 10000 4.63 90 15:19 16.02.2022
3715 Clouds -1 980 69 10000 5.14 90 13:31 16.02.2022
3716 Clouds -2 980 74 10000 4.63 90 12:20 16.02.2022
3717 Clouds -2 979 74 10000 4.12 90 11:31 16.02.2022
3718 Clouds -2 979 74 10000 4.63 100 10:34 16.02.2022
3719 Clouds -3 978 74 10000 6.69 90 08:24 16.02.2022
3720 Clouds -3 978 74 10000 5.14 70 06:43 16.02.2022
3721 Snow -3 979 93 10000 5.14 100 23:45 15.02.2022
3722 Clouds -3 979 93 10000 4.12 100 22:33 15.02.2022
3723 Clouds -3 979 100 10000 4.12 80 21:48 15.02.2022
3724 Clouds -3 979 100 10000 4.12 80 21:29 15.02.2022
3725 Clouds -2 979 93 5000 3.6 60 20:56 15.02.2022
3726 Snow -2 979 93 700 3.6 90 19:59 15.02.2022
3727 Snow -2 979 93 3000 5.14 200 19:26 15.02.2022
3728 Clouds -2 978 86 10000 3.6 110 18:24 15.02.2022
3729 Clouds -1 979 86 10000 5.14 120 17:52 15.02.2022
3730 Clouds -1 979 86 10000 5.14 120 17:21 15.02.2022
3731 Clouds -1 979 86 10000 3.09 140 15:32 15.02.2022
3732 Clouds 0 978 86 10000 1.54 160 13:28 15.02.2022
3733 Clouds 0 978 93 10000 6.69 230 12:53 15.02.2022
3734 Clouds 0 977 93 500 9.77 230 11:40 15.02.2022
3735 Snow 0 976 100 2500 6.69 220 09:52 15.02.2022
3736 Snow 2 975 80 10000 3.6 100 06:59 15.02.2022
3737 Clouds 2 975 80 10000 7.72 140 05:32 15.02.2022
3738 Snow 2 977 69 10000 14.92 110 23:34 14.02.2022
3739 Clouds 1 979 75 10000 12.86 110 21:55 14.02.2022
3740 Clouds 1 981 75 10000 10.29 90 20:50 14.02.2022
3741 Clouds 1 983 75 10000 13.89 100 19:45 14.02.2022
3742 Clouds 1 983 75 10000 13.89 100 19:45 14.02.2022
3743 Clouds 1 983 75 10000 13.89 100 19:26 14.02.2022
3744 Clouds 2 984 75 10000 13.89 120 18:23 14.02.2022
3745 Clouds 2 985 80 10000 14.4 110 17:27 14.02.2022
3746 Clouds 2 987 80 1900 10.29 100 16:26 14.02.2022
3747 Clouds 1 990 93 1300 10.8 110 14:43 14.02.2022
3748 Snow -1 992 93 1000 11.83 100 13:34 14.02.2022
3749 Clouds 0 993 86 800 12.35 120 12:56 14.02.2022
3750 Snow -1 994 93 700 11.83 110 11:55 14.02.2022
3751 Clouds -1 994 93 700 11.83 110 11:18 14.02.2022
3752 Snow 0 997 93 1700 9.26 120 09:19 14.02.2022
3753 Clouds -1 999 93 800 7.72 120 07:33 14.02.2022
3754 Clouds -1 999 93 800 7.72 120 07:33 14.02.2022
3755 Clouds 0 999 93 2500 5.66 120 06:54 14.02.2022
3756 Clouds -2 1004 93 10000 4.12 100 22:44 13.02.2022
3757 Clouds -2 1004 93 10000 4.12 100 22:26 13.02.2022
3758 Clouds -2 1004 100 5000 2.57 100 21:48 13.02.2022
3759 Clouds -2 1004 93 900 5.66 120 20:42 13.02.2022
3760 Clouds -2 1004 93 700 6.69 120 19:51 13.02.2022
3761 Clouds -2 1004 93 2000 5.14 130 18:57 13.02.2022
3762 Clouds -2 1004 93 2000 5.14 130 18:38 13.02.2022
3763 Clouds -1 1004 80 1000 5.14 110 16:40 13.02.2022
3764 Clouds -2 1004 86 2000 4.12 90 15:50 13.02.2022
3765 Clouds -3 1004 93 500 4.63 90 14:38 13.02.2022
3766 Clouds -2 1004 69 8000 3.09 100 13:26 13.02.2022
3767 Clouds -3 1004 68 10000 4.12 80 12:40 13.02.2022
3768 Clouds -3 1004 63 10000 3.6 80 10:40 13.02.2022
3769 Clouds -3 1004 63 10000 2.06 80 09:49 13.02.2022
3770 Clouds -3 1003 54 10000 3.09 70 08:33 13.02.2022
3771 Clear -6 1002 53 10000 4.12 60 01:24 13.02.2022
3772 Clear -10 1002 79 10000 1.54 350 00:21 13.02.2022
3773 Clear -6 1001 58 10000 3.09 100 22:34 12.02.2022
3774 Clear -6 1000 58 10000 3.09 100 21:59 12.02.2022
3775 Clear -6 1000 63 10000 4.12 90 20:55 12.02.2022
3776 Clouds -9 1001 71 10000 2.85 54 19:56 12.02.2022
3777 Clear -4 999 54 10000 3.6 50 18:54 12.02.2022
3778 Clear -4 999 54 10000 3.6 50 18:36 12.02.2022
3779 Clear -3 999 59 10000 2.57 20 17:39 12.02.2022
3780 Clear -3 999 63 10000 1.03 210 16:46 12.02.2022
3781 Clear -3 998 54 10000 1.54 0 15:53 12.02.2022
3782 Clear -3 998 54 10000 1.54 0 15:21 12.02.2022
3783 Clear -2 999 54 10000 0.51 0 14:29 12.02.2022
3784 Clear -6 998 73 10000 2.57 140 11:33 12.02.2022
3785 Clear -8 998 79 10000 1.03 0 10:33 12.02.2022
3786 Clear -8 998 79 10000 1.03 170 09:38 12.02.2022
3787 Clear -7 998 79 10000 1.03 0 08:47 12.02.2022
3788 Clear -7 998 86 10000 2.06 120 07:45 12.02.2022
3789 Clear -5 998 80 10000 0.51 0 05:31 12.02.2022
3790 Clear -1 1000 59 10000 3.6 80 02:19 12.02.2022
3791 Clear -2 1001 67 10000 1.34 80 23:56 11.02.2022
3792 Clear -2 1002 64 10000 3.09 40 22:23 11.02.2022
3793 Clear -1 1002 55 10000 4.63 70 21:37 11.02.2022
3794 Clear -1 1003 55 10000 5.14 70 20:29 11.02.2022
3795 Clear -1 1003 59 10000 5.14 70 19:29 11.02.2022
3796 Clear 0 1004 51 10000 5.14 70 18:47 11.02.2022
3797 Clouds 0 1005 55 10000 4.63 60 17:27 11.02.2022
3798 Clouds 0 1006 59 10000 3.6 80 16:56 11.02.2022
3799 Clouds 0 1006 59 10000 3.6 90 15:26 11.02.2022
3800 Clouds -1 1007 64 10000 5.14 60 14:38 11.02.2022
3801 Clouds -1 1007 64 10000 5.14 60 14:20 11.02.2022
3802 Clouds -1 1008 69 10000 4.63 60 13:47 11.02.2022
3803 Clouds -1 1008 69 10000 4.63 60 13:28 11.02.2022
3804 Clouds -1 1009 69 10000 4.63 80 11:26 11.02.2022
3805 Clouds -2 1009 74 10000 3.09 90 09:38 11.02.2022
3806 Clouds -2 1009 69 10000 3.09 100 08:36 11.02.2022
3807 Clouds -2 1010 69 10000 3.09 110 07:47 11.02.2022
3808 Clouds -2 1010 69 10000 3.6 100 06:30 11.02.2022
3809 Clouds -3 1011 80 10000 3.6 170 02:24 11.02.2022
3810 Snow -1 1012 86 10000 4.63 220 00:44 11.02.2022
3811 Snow -1 1012 86 5000 8.23 250 22:39 10.02.2022
3812 Snow -1 1012 86 10000 5.14 250 21:43 10.02.2022
3813 Clouds -2 1013 93 10000 7.72 280 20:52 10.02.2022
3814 Clouds -2 1013 93 10000 7.72 280 20:24 10.02.2022
3815 Clouds -2 1012 93 10000 4.12 190 19:24 10.02.2022
3816 Snow -1 1012 86 2600 5.66 230 18:33 10.02.2022
3817 Clouds 0 1012 69 10000 7.72 270 17:25 10.02.2022
3818 Clouds 0 1013 64 10000 7.2 250 16:47 10.02.2022
3819 Clouds -2 1013 86 9000 6.17 270 15:45 10.02.2022
3820 Clouds -1 1013 86 10000 7.72 240 15:25 10.02.2022
3821 Clouds -2 1013 93 500 7.2 250 14:44 10.02.2022
3822 Clouds -2 1013 93 500 7.2 250 14:22 10.02.2022
3823 Clouds -3 1013 93 800 6.17 200 13:20 10.02.2022
3824 Clouds -5 1013 93 10000 3.09 110 11:58 10.02.2022
3825 Clouds -5 1013 93 10000 3.09 110 11:32 10.02.2022
3826 Clouds -5 1013 86 10000 3.6 100 10:32 10.02.2022
3827 Clouds -6 1013 86 2500 2.06 80 09:49 10.02.2022
3828 Clouds -5 1013 80 800 2.06 130 08:53 10.02.2022
3829 Clear -9 1013 67 10000 2.57 110 06:42 10.02.2022
3830 Clear -9 1013 72 10000 2.06 120 03:39 10.02.2022
3831 Clear -7 1011 79 10000 1.03 0 01:19 10.02.2022
3832 Clear -6 1010 73 10000 0.51 0 00:42 10.02.2022
3833 Clear -6 1010 73 10000 0.51 0 00:23 10.02.2022
3834 Clear -4 1008 63 10000 5.66 20 22:58 09.02.2022
3835 Clear -4 1008 63 10000 5.66 20 22:33 09.02.2022
3836 Clear -4 1007 68 10000 6.69 10 21:49 09.02.2022
3837 Clear -4 1007 68 10000 6.69 10 21:28 09.02.2022
3838 Clouds -3 1005 68 10000 6.69 20 20:45 09.02.2022
3839 Clouds -3 1005 68 10000 6.69 20 20:23 09.02.2022
3840 Clouds -2 1003 64 10000 8.75 10 19:43 09.02.2022
3841 Clear -2 1001 69 10000 9.77 10 18:55 09.02.2022
3842 Clear -1 1000 64 10000 8.75 30 17:24 09.02.2022
3843 Clouds -1 998 64 10000 8.23 10 16:26 09.02.2022
3844 Clear 0 997 59 10000 7.72 10 15:32 09.02.2022
3845 Clouds 0 993 47 10000 3.09 0 13:56 09.02.2022
3846 Clouds 0 992 51 10000 4.63 80 12:25 09.02.2022
3847 Clouds -1 989 64 10000 4.12 30 10:37 09.02.2022
3848 Clear -1 987 69 10000 6.69 20 09:57 09.02.2022
3849 Clear -1 987 69 10000 6.69 20 09:23 09.02.2022
3850 Clear -1 985 59 10000 4.12 30 08:51 09.02.2022
3851 Clouds -2 984 80 10000 6.95 35 07:28 09.02.2022
3852 Clear -2 982 59 10000 6.69 80 05:29 09.02.2022
3853 Clear -1 980 64 10000 7.72 80 03:49 09.02.2022
3854 Snow -1 979 80 10000 7.72 80 00:21 09.02.2022
3855 Snow -2 978 86 10000 6.69 90 23:29 08.02.2022
3856 Clouds -1 977 86 10000 4.63 80 22:43 08.02.2022
3857 Clouds -1 977 86 10000 4.63 80 22:20 08.02.2022
3858 Clouds -1 976 86 10000 5.14 80 21:38 08.02.2022
3859 Clouds -1 976 86 10000 5.14 80 21:19 08.02.2022
3860 Clouds 0 975 80 10000 5.14 90 20:41 08.02.2022
3861 Clouds 0 974 86 10000 4.63 90 19:41 08.02.2022
3862 Clouds -1 973 93 10000 4.63 90 18:24 08.02.2022
3863 Clouds 0 973 86 10000 3.6 100 17:33 08.02.2022
3864 Clouds 1 973 86 2500 3.09 140 15:52 08.02.2022
3865 Clouds 0 972 86 6000 3.09 140 15:28 08.02.2022
3866 Clouds 0 971 86 9000 8.75 200 13:54 08.02.2022
3867 Snow 1 971 80 6000 7.72 220 12:39 08.02.2022
3868 Snow 0 969 86 8000 10.29 210 10:55 08.02.2022
3869 Snow -1 969 100 1200 9.26 200 09:51 08.02.2022
3870 Snow -1 969 86 800 13.38 200 08:54 08.02.2022
3871 Snow -2 969 93 2000 11.83 200 07:27 08.02.2022
3872 Snow -2 969 93 1100 13.89 210 04:40 08.02.2022
3873 Snow -2 969 93 1100 13.89 210 04:22 08.02.2022
3874 Snow -2 969 93 1200 13.89 190 03:36 08.02.2022
3875 Snow -2 969 86 6000 15.95 200 03:18 08.02.2022
3876 Snow -1 968 80 10000 14.92 200 02:59 08.02.2022
3877 Snow -1 968 80 10000 14.92 200 02:37 08.02.2022
3878 Snow -1 968 80 10000 14.92 200 02:18 08.02.2022
3879 Clouds -1 968 80 9000 16.46 220 01:45 08.02.2022
3880 Clouds -1 968 80 9000 16.46 220 01:25 08.02.2022
3881 Snow 0 967 80 8000 16.98 210 00:55 08.02.2022
3882 Snow 0 967 80 8000 16.98 210 00:36 08.02.2022
3883 Rain 1 965 75 8000 15.95 230 23:45 07.02.2022
3884 Rain 1 965 75 8000 15.95 230 23:18 07.02.2022
3885 Snow 2 961 75 7000 15.95 220 22:59 07.02.2022
3886 Snow 2 961 75 7000 15.95 220 22:19 07.02.2022
3887 Clouds 2 960 87 8000 15.95 220 21:51 07.02.2022
3888 Snow 2 960 87 8000 15.95 220 21:28 07.02.2022
3889 Snow -1 959 93 500 11.83 140 20:52 07.02.2022
3890 Clouds -1 959 93 500 11.83 140 20:34 07.02.2022
3891 Snow -1 961 86 800 11.32 150 19:47 07.02.2022
3892 Snow -1 961 86 800 11.32 150 19:47 07.02.2022
3893 Clouds -1 965 86 5000 8.23 150 18:58 07.02.2022
3894 Snow -1 967 80 700 10.8 180 17:38 07.02.2022
3895 Snow -1 967 80 1000 11.83 170 16:52 07.02.2022
3896 Clouds -1 969 74 10000 11.32 210 15:48 07.02.2022
3897 Clouds 0 970 69 10000 13.38 210 14:30 07.02.2022
3898 Clouds -1 970 86 3000 14.92 220 13:27 07.02.2022
3899 Snow 1 969 80 10000 12.35 200 12:37 07.02.2022
3900 Snow 1 968 86 2500 9.26 200 11:52 07.02.2022
3901 Snow 1 968 86 2500 9.26 200 11:24 07.02.2022
3902 Clouds 1 968 80 1500 10.8 210 10:43 07.02.2022
3903 Snow 1 968 80 1500 10.8 210 10:24 07.02.2022
3904 Clouds 1 967 86 2500 14.4 190 09:52 07.02.2022
3905 Rain 2 966 80 9000 13.89 200 09:18 07.02.2022
3906 Snow 2 966 87 1500 18.01 130 07:59 07.02.2022
3907 Snow 1 967 93 800 24.69 120 06:35 07.02.2022
3908 Snow 1 970 93 400 18.52 120 05:26 07.02.2022
3909 Snow -1 991 59 10000 8.75 90 02:56 07.02.2022
3910 Snow -2 997 59 10000 9.26 80 00:33 07.02.2022
3911 Clouds -2 1001 59 10000 9.26 90 23:40 06.02.2022
3912 Clouds -2 1003 64 10000 7.2 90 22:46 06.02.2022
3913 Clear -3 1004 63 10000 5.14 80 21:51 06.02.2022
3914 Clear -3 1004 63 10000 5.14 80 21:21 06.02.2022
3915 Clear -3 1005 63 10000 4.63 80 20:52 06.02.2022
3916 Clear -3 1005 63 10000 4.63 80 20:24 06.02.2022
3917 Clouds -3 1005 68 10000 3.6 100 19:30 06.02.2022
3918 Clouds -3 1006 68 10000 1.54 110 18:35 06.02.2022
3919 Clouds -2 1006 69 10000 2.06 130 17:54 06.02.2022
3920 Clear -1 1005 69 10000 1.54 0 16:52 06.02.2022
3921 Clear -1 1005 69 10000 1.54 0 16:32 06.02.2022
3922 Clear -1 1005 69 10000 2.06 170 15:47 06.02.2022
3923 Clear -1 1005 69 10000 2.06 170 15:26 06.02.2022
3924 Clouds 0 1003 64 10000 5.14 20 14:27 06.02.2022
3925 Clouds 0 1002 64 10000 5.66 20 13:24 06.02.2022
3926 Clouds -1 1001 74 10000 6.69 10 12:45 06.02.2022
3927 Clouds -1 1000 74 10000 6.17 10 11:19 06.02.2022
3928 Clouds 0 996 64 10000 6.69 30 09:56 06.02.2022
3929 Clouds 0 994 64 10000 4.63 20 08:47 06.02.2022
3930 Clouds -1 992 74 10000 6.69 360 07:36 06.02.2022
3931 Clouds 0 989 69 10000 3.6 30 05:29 06.02.2022
3932 Clouds -2 984 80 10000 3.09 340 02:26 06.02.2022
3933 Snow -4 984 80 10000 1.03 0 01:32 06.02.2022
3934 Snow -6 983 86 10000 0 0 00:24 06.02.2022
3935 Clouds -5 981 79 10000 2.63 46 22:19 05.02.2022
3936 Clouds -4 980 80 10000 4.12 70 20:59 05.02.2022
3937 Clouds -4 980 80 10000 4.12 70 20:24 05.02.2022
3938 Clouds -3 979 80 10000 3.09 80 19:45 05.02.2022
3939 Clouds -2 979 80 10000 4.63 100 18:52 05.02.2022
3940 Clouds -2 979 86 10000 4.63 80 17:38 05.02.2022
3941 Snow -2 978 80 10000 4.12 80 16:48 05.02.2022
3942 Clouds -2 978 86 10000 2.57 80 15:33 05.02.2022
3943 Clouds -2 977 86 800 4.12 180 14:53 05.02.2022
3944 Clouds -4 973 86 10000 13.38 80 12:47 05.02.2022
3945 Clouds -4 973 86 5000 14.4 70 11:49 05.02.2022
3946 Clouds -4 973 86 1800 11.83 80 10:47 05.02.2022
3947 Clouds -4 975 93 1500 9.77 70 09:53 05.02.2022
3948 Clouds -4 975 93 1500 9.77 70 09:29 05.02.2022
3949 Clouds -3 977 80 8000 9.77 80 07:38 05.02.2022
3950 Snow -2 979 64 10000 8.75 80 06:56 05.02.2022
3951 Snow -2 981 50 10000 8.75 90 04:28 05.02.2022
3952 Clouds -3 986 59 10000 9.77 80 01:19 05.02.2022
3953 Clouds -3 989 59 10000 8.75 70 00:51 05.02.2022
3954 Clouds -4 992 68 10000 4.63 90 23:38 04.02.2022
3955 Clouds -4 992 68 10000 4.63 90 23:20 04.02.2022
3956 Clouds -5 995 80 10000 3.09 80 21:54 04.02.2022
3957 Clouds -5 995 80 10000 3.09 80 21:36 04.02.2022
3958 Clouds -5 995 80 10000 3.09 80 21:18 04.02.2022
3959 Clouds -4 998 80 10000 2.06 110 19:36 04.02.2022
3960 Clouds -2 1000 69 10000 2.06 60 17:28 04.02.2022
3961 Clouds -1 1002 69 10000 4.12 350 15:39 04.02.2022
3962 Clouds -1 1002 69 10000 5.66 340 14:52 04.02.2022
3963 Clouds -2 1002 69 10000 5.66 330 13:24 04.02.2022
3964 Clouds -2 1001 69 10000 6.69 340 12:42 04.02.2022
3965 Clouds -1 1002 64 10000 6.69 330 11:41 04.02.2022
3966 Clouds -1 1002 59 10000 6.69 340 10:34 04.02.2022
3967 Clouds -3 1001 74 10000 8.75 340 08:34 04.02.2022
3968 Clouds -3 999 68 10000 10.29 340 05:23 04.02.2022
3969 Clouds -3 998 68 10000 9.26 350 02:40 04.02.2022
3970 Clouds -4 998 80 10000 5.14 340 01:22 04.02.2022
3971 Clouds -5 996 74 10000 7.72 350 23:29 03.02.2022
3972 Clouds -4 996 74 10000 8.23 340 22:31 03.02.2022
3973 Clouds -5 995 80 10000 9.26 350 21:48 03.02.2022
3974 Clouds -4 995 74 10000 7.2 350 20:36 03.02.2022
3975 Clouds -4 995 74 10000 7.2 350 20:18 03.02.2022
3976 Clouds -4 994 68 10000 7.72 350 19:30 03.02.2022
3977 Clouds -4 993 74 10000 7.2 340 18:34 03.02.2022
3978 Clouds -3 993 74 10000 5.66 340 17:32 03.02.2022
3979 Clouds -4 993 80 10000 6.17 340 16:24 03.02.2022
3980 Clouds -4 993 74 10000 3.6 350 14:37 03.02.2022
3981 Clear -4 992 74 10000 5.14 360 12:51 03.02.2022
3982 Clear -9 992 92 10000 0.51 0 10:45 03.02.2022
3983 Clear -9 992 92 10000 0.51 0 08:35 03.02.2022
3984 Clear -8 993 86 10000 1.03 0 04:27 03.02.2022
3985 Clear -5 995 80 10000 4.12 100 00:31 03.02.2022
3986 Clear -5 996 80 10000 3.09 90 23:36 02.02.2022
3987 Clouds -4 997 74 10000 2.06 80 21:54 02.02.2022
3988 Clouds -4 997 74 10000 2.06 80 21:30 02.02.2022
3989 Clouds -3 997 80 10000 2.06 100 20:38 02.02.2022
3990 Clouds -2 997 74 10000 2.57 110 19:55 02.02.2022
3991 Clouds -2 997 74 10000 2.57 110 19:26 02.02.2022
3992 Clouds -1 998 74 10000 2.06 130 18:39 02.02.2022
3993 Clouds 0 998 64 10000 2.06 200 17:44 02.02.2022
3994 Clouds 0 998 64 10000 2.06 200 17:19 02.02.2022
3995 Snow -1 998 74 10000 2.57 160 16:31 02.02.2022
3996 Clouds -3 1000 93 10000 3.09 150 12:55 02.02.2022
3997 Clouds -3 1000 93 10000 3.09 150 12:20 02.02.2022
3998 Clouds -1 1000 86 10000 4.12 260 11:32 02.02.2022
3999 Clouds -1 1000 93 10000 4.12 190 09:47 02.02.2022
4000 Snow -1 1000 93 1000 5.66 220 07:33 02.02.2022
4001 Clouds 0 1003 86 10000 5.14 200 22:51 01.02.2022
4002 Clouds -1 1003 93 10000 2.06 170 21:40 01.02.2022
4003 Clouds -2 1003 93 10000 3.6 80 19:58 01.02.2022
4004 Snow -2 1004 86 1600 5.66 90 17:43 01.02.2022
4005 Clouds -1 1005 74 10000 4.63 90 16:39 01.02.2022
4006 Clouds -1 1005 74 10000 4.63 90 16:39 01.02.2022
4007 Clouds -1 1006 74 10000 3.6 90 14:24 01.02.2022
4008 Clouds -2 1007 80 10000 1.54 90 12:43 01.02.2022
4009 Clouds -2 1007 74 10000 1.03 330 11:20 01.02.2022
4010 Clouds -1 1000 74 10000 5.66 330 04:53 01.02.2022
4011 Clouds 3 990 87 10000 7.72 240 23:41 31.01.2022
4012 Clouds 3 990 87 9000 9.26 230 22:57 31.01.2022
4013 Clouds 3 990 87 9000 9.26 240 21:40 31.01.2022
4014 Rain 3 990 87 9000 9.26 240 21:19 31.01.2022
4015 Clouds 3 990 87 10000 8.75 220 20:29 31.01.2022
4016 Clouds 3 990 81 10000 6.69 210 19:29 31.01.2022
4017 Clouds 3 991 87 10000 6.69 200 18:26 31.01.2022
4018 Clouds 2 991 80 10000 3.09 80 17:32 31.01.2022
4019 Drizzle 1 992 80 10000 6.17 100 16:29 31.01.2022
4020 Clouds -3 996 93 1700 9.77 100 14:54 31.01.2022
4021 Snow -3 996 93 1200 13.38 90 13:52 31.01.2022
4022 Clouds -3 1004 86 10000 5.14 80 12:39 31.01.2022
4023 Clouds -4 1006 93 6000 4.12 110 11:55 31.01.2022
4024 Snow -3 1008 86 9000 2.57 110 10:50 31.01.2022
4025 Snow -3 1008 86 9000 2.57 110 10:50 31.01.2022
4026 Snow -3 1008 86 9000 2.57 110 10:25 31.01.2022
4027 Snow -3 1009 86 4000 2.57 120 09:23 31.01.2022
4028 Snow -2 1010 69 10000 1.54 280 08:47 31.01.2022
4029 Snow -2 1010 69 10000 1.54 280 08:20 31.01.2022
4030 Clouds -2 1011 69 10000 6.17 310 06:18 31.01.2022
4031 Clouds -4 1010 86 10000 12.35 280 00:55 31.01.2022
4032 Clouds -3 1009 80 10000 11.83 270 22:55 30.01.2022
4033 Clouds -4 1009 86 800 13.38 280 22:25 30.01.2022
4034 Clouds -3 1009 80 4500 13.89 280 21:40 30.01.2022
4035 Snow -3 1008 80 10000 11.32 270 21:18 30.01.2022
4036 Snow -3 1008 80 2500 11.83 270 20:46 30.01.2022
4037 Clouds -4 1008 86 3000 13.89 280 20:27 30.01.2022
4038 Snow -4 1008 86 800 12.86 270 19:45 30.01.2022
4039 Clouds -3 1006 74 9000 12.35 280 18:43 30.01.2022
4040 Clouds -3 1006 74 9000 12.35 280 18:20 30.01.2022
4041 Clouds -2 1006 64 10000 14.4 280 17:22 30.01.2022
4042 Clouds -2 1005 69 9000 14.92 280 16:40 30.01.2022
4043 Clouds -3 1005 80 10000 15.95 270 16:22 30.01.2022
4044 Clouds -2 1005 80 9000 15.43 270 15:50 30.01.2022
4045 Clouds -2 1005 80 8000 15.95 260 15:31 30.01.2022
4046 Clouds -2 1004 86 8000 14.92 260 14:46 30.01.2022
4047 Snow -1 1005 80 400 13.89 260 12:47 30.01.2022
4048 Clouds 0 1005 93 9000 13.89 250 11:59 30.01.2022
4049 Snow 1 1005 86 2000 10.29 220 10:36 30.01.2022
4050 Clouds 2 1005 80 8000 8.23 190 09:56 30.01.2022
4051 Clouds 1 1007 86 10000 4.63 180 08:56 30.01.2022
4052 Clouds 1 1010 86 10000 5.14 170 07:55 30.01.2022
4053 Clouds 0 1018 86 10000 3.09 160 02:29 30.01.2022
4054 Clouds 0 1020 86 10000 2.57 210 00:41 30.01.2022
4055 Clouds 0 1020 86 10000 6.17 200 23:20 29.01.2022
4056 Clouds 0 1021 86 10000 4.63 170 21:59 29.01.2022
4057 Clouds 0 1021 86 10000 4.63 170 21:26 29.01.2022
4058 Clouds 0 1021 93 10000 4.12 190 20:36 29.01.2022
4059 Clouds 0 1021 93 10000 4.63 190 19:36 29.01.2022
4060 Clouds 0 1021 86 10000 6.17 180 18:58 29.01.2022
4061 Clouds 0 1021 86 10000 6.17 180 18:30 29.01.2022
4062 Clouds 1 1021 80 10000 5.66 180 17:41 29.01.2022
4063 Snow 0 1022 86 8000 6.17 190 16:38 29.01.2022
4064 Snow -3 1022 63 10000 3.6 100 14:24 29.01.2022
4065 Clear -4 1022 58 10000 3.09 120 13:45 29.01.2022
4066 Clear -4 1022 58 10000 3.09 120 13:24 29.01.2022
4067 Clear -5 1021 63 10000 1.54 130 12:36 29.01.2022
4068 Clear -4 1020 54 10000 1.03 350 11:38 29.01.2022
4069 Clear -4 1017 54 10000 2.06 330 09:49 29.01.2022
4070 Clouds -4 1012 63 10000 7.72 340 06:57 29.01.2022
4071 Clouds -5 1001 58 10000 10.29 360 00:50 29.01.2022
4072 Clouds -5 1001 58 10000 10.29 360 00:31 29.01.2022
4073 Clouds -3 998 74 10000 7.2 340 22:52 28.01.2022
4074 Clouds -3 998 74 10000 7.2 340 22:27 28.01.2022
4075 Clouds -2 997 74 10000 7.2 320 21:52 28.01.2022
4076 Clouds -2 996 74 10000 10.29 300 20:31 28.01.2022
4077 Clouds -1 996 69 10000 10.29 280 19:44 28.01.2022
4078 Clouds -1 995 74 10000 10.8 280 18:48 28.01.2022
4079 Clouds -1 995 69 10000 10.29 280 17:43 28.01.2022
4080 Clouds -1 995 74 10000 12.35 290 15:28 28.01.2022
4081 Drizzle -1 993 74 9000 13.38 280 14:18 28.01.2022
4082 Clouds 1 991 64 10000 10.8 260 12:33 28.01.2022
4083 Clouds 1 990 86 10000 10.8 230 11:38 28.01.2022
4084 Clouds 1 990 60 10000 10.8 240 10:21 28.01.2022
4085 Clouds 2 990 60 10000 10.29 250 09:44 28.01.2022
4086 Drizzle 2 990 87 9000 8.75 260 07:39 28.01.2022
4087 Clouds 5 990 81 9000 11.32 210 05:24 28.01.2022
4088 Clouds 4 995 90 10000 9.77 190 03:47 28.01.2022
4089 Clouds 4 996 87 10000 9.26 190 02:23 28.01.2022
4090 Clouds 4 998 87 10000 8.75 180 01:34 28.01.2022
4091 Clouds 3 1002 87 10000 7.2 180 23:33 27.01.2022
4092 Clouds 3 1006 87 10000 4.63 150 21:54 27.01.2022
4093 Clouds 3 1006 87 10000 4.63 150 21:32 27.01.2022
4094 Clouds 2 1008 87 10000 4.63 150 20:53 27.01.2022
4095 Rain 2 1009 87 10000 3.09 130 19:30 27.01.2022
4096 Snow 1 1012 86 10000 4.12 160 17:56 27.01.2022
4097 Clouds 2 1014 80 10000 6.17 210 15:31 27.01.2022
4098 Snow 2 1014 75 10000 7.2 240 13:39 27.01.2022
4099 Clouds 2 1014 75 10000 6.17 200 12:46 27.01.2022
4100 Clouds 1 1013 80 10000 5.14 200 10:57 27.01.2022
4101 Clouds 1 1013 86 10000 4.63 180 09:20 27.01.2022
4102 Clouds -1 1013 93 10000 3.09 140 08:38 27.01.2022
4103 Snow -1 1012 80 10000 4.63 90 07:22 27.01.2022
4104 Clouds -2 1011 93 10000 2.06 110 02:57 27.01.2022
4105 Clouds -1 1009 93 10000 2.06 160 23:45 26.01.2022
4106 Clouds -2 1009 93 10000 2.57 160 22:26 26.01.2022
4107 Clouds -1 1009 93 10000 3.09 160 21:37 26.01.2022
4108 Clouds -1 1008 93 10000 2.57 140 20:41 26.01.2022
4109 Clouds -1 1008 93 10000 2.57 140 20:23 26.01.2022
4110 Clouds -1 1008 93 10000 1.03 0 19:27 26.01.2022
4111 Clouds -1 1007 93 7000 2.06 150 18:45 26.01.2022
4112 Snow -1 1007 93 6000 1.54 110 17:51 26.01.2022
4113 Snow -1 1007 93 6000 1.54 110 17:24 26.01.2022
4114 Snow -1 1007 86 6000 1.54 120 16:35 26.01.2022
4115 Snow -1 1006 86 6000 1.03 100 15:49 26.01.2022
4116 Snow -1 1006 88 5654 0.23 345 14:21 26.01.2022
4117 Snow -1 1005 86 6000 3.09 90 11:54 26.01.2022
4118 Snow -1 1006 80 10000 3.6 80 10:43 26.01.2022
4119 Snow 0 1006 74 10000 2.57 80 09:48 26.01.2022
4120 Snow 0 1007 69 10000 3.6 100 08:27 26.01.2022
4121 Clear 0 1010 74 10000 2.06 100 05:42 26.01.2022
4122 Clouds 1 1012 69 10000 8.75 310 23:59 25.01.2022
4123 Clouds 1 1012 69 10000 8.75 310 23:20 25.01.2022
4124 Clouds 1 1012 75 10000 10.8 300 22:26 25.01.2022
4125 Clouds 1 1011 75 10000 12.35 290 21:59 25.01.2022
4126 Clouds 1 1010 69 10000 14.92 290 20:59 25.01.2022
4127 Clouds 1 1010 69 10000 14.92 290 20:40 25.01.2022
4128 Clouds 2 1009 77 10000 15.95 280 19:53 25.01.2022
4129 Clouds 1 1007 75 10000 16.98 280 18:43 25.01.2022
4130 Clouds 1 1004 75 9000 16.46 280 17:45 25.01.2022
4131 Clouds 1 1001 80 7000 17.49 270 16:47 25.01.2022
4132 Clouds 1 1001 80 7000 17.49 270 16:21 25.01.2022
4133 Clouds 2 997 87 2500 18.52 260 15:38 25.01.2022
4134 Clouds 3 993 87 2500 19.03 250 14:58 25.01.2022
4135 Rain 3 991 87 2500 16.98 240 13:46 25.01.2022
4136 Rain 3 987 87 4600 14.92 220 10:58 25.01.2022
4137 Clouds 3 988 87 9000 15.95 210 09:20 25.01.2022
4138 Mist 5 989 81 10000 16.46 200 07:30 25.01.2022
4139 Rain 5 990 81 9000 12.35 180 06:51 25.01.2022
4140 Clouds 6 992 75 8000 12.86 180 05:22 25.01.2022
4141 Rain 4 1006 75 8000 8.23 120 23:37 24.01.2022
4142 Rain 4 1006 75 8000 8.23 120 23:19 24.01.2022
4143 Rain 3 1008 81 10000 7.2 130 22:59 24.01.2022
4144 Rain 3 1008 81 10000 7.2 130 22:41 24.01.2022
4145 Rain 3 1010 81 10000 6.69 130 21:55 24.01.2022
4146 Rain 3 1010 81 10000 6.69 130 21:32 24.01.2022
4147 Rain 3 1011 81 10000 5.14 110 20:33 24.01.2022
4148 Clouds 2 1012 80 10000 6.69 120 19:57 24.01.2022
4149 Clouds 2 1012 80 10000 6.69 120 19:35 24.01.2022
4150 Clear 2 1013 80 10000 5.14 110 18:35 24.01.2022
4151 Clouds 2 1014 80 10000 5.66 130 17:24 24.01.2022
4152 Clouds 2 1014 75 10000 4.12 130 16:55 24.01.2022
4153 Clouds 2 1014 75 10000 4.12 130 16:29 24.01.2022
4154 Clouds 2 1015 64 10000 3.6 150 14:49 24.01.2022
4155 Clouds 1 1015 69 10000 3.09 160 13:38 24.01.2022
4156 Clear 1 1015 69 10000 3.09 180 12:32 24.01.2022
4157 Clouds 1 1015 69 10000 5.14 200 11:20 24.01.2022
4158 Clouds 2 1014 64 10000 7.2 280 09:49 24.01.2022
4159 Clouds 2 1014 64 10000 7.2 280 09:20 24.01.2022
4160 Clouds 2 1012 64 10000 8.23 260 07:20 24.01.2022
4161 Snow -1 1007 74 10000 4.12 280 01:32 24.01.2022
4162 Clouds -1 1005 69 10000 4.63 300 00:46 24.01.2022
4163 Snow -1 1005 69 10000 4.63 300 00:27 24.01.2022
4164 Clouds -1 1002 64 10000 7.2 290 22:46 23.01.2022
4165 Clouds -1 1000 74 10000 9.77 290 21:51 23.01.2022
4166 Clouds -1 1000 74 10000 9.77 290 21:27 23.01.2022
4167 Clouds -1 999 80 10000 10.8 280 20:54 23.01.2022
4168 Clouds -1 997 86 800 10.8 270 19:55 23.01.2022
4169 Snow 0 996 80 1200 13.38 260 18:52 23.01.2022
4170 Clouds -1 994 86 8000 14.4 240 17:54 23.01.2022
4171 Clouds -1 993 74 6000 13.89 250 16:52 23.01.2022
4172 Snow -1 992 80 9000 13.89 250 15:45 23.01.2022
4173 Clouds -2 991 86 700 13.38 240 14:33 23.01.2022
4174 Snow 0 990 55 10000 14.92 250 13:43 23.01.2022
4175 Snow -1 989 80 10000 14.92 250 12:40 23.01.2022
4176 Clouds -1 989 80 10000 14.92 250 12:18 23.01.2022
4177 Clouds -1 988 69 10000 15.95 240 11:25 23.01.2022
4178 Clouds 0 987 59 10000 14.4 240 10:57 23.01.2022
4179 Snow 0 987 59 10000 14.4 240 10:23 23.01.2022
4180 Clouds -1 986 80 10000 12.35 250 09:25 23.01.2022
4181 Snow 1 985 69 5000 8.23 240 05:59 23.01.2022
4182 Snow 0 986 93 4500 7.2 230 03:20 23.01.2022
4183 Snow 1 987 86 10000 6.69 220 01:36 23.01.2022
4184 Snow 1 987 86 10000 8.23 210 00:46 23.01.2022
4185 Snow 1 988 86 9000 7.2 210 23:58 22.01.2022
4186 Snow 0 989 93 6000 7.72 210 22:48 22.01.2022
4187 Snow 0 989 93 6000 7.72 210 22:19 22.01.2022
4188 Snow 1 991 86 10000 7.2 190 20:33 22.01.2022
4189 Snow 1 992 86 10000 8.23 210 19:41 22.01.2022
4190 Clouds 1 993 80 4000 10.29 220 18:37 22.01.2022
4191 Snow 2 993 64 10000 11.32 230 17:45 22.01.2022
4192 Clouds 2 993 64 10000 11.32 230 17:19 22.01.2022
4193 Clouds 1 994 75 10000 12.35 240 16:54 22.01.2022
4194 Clouds 1 994 80 10000 13.38 240 15:45 22.01.2022
4195 Clouds 1 993 80 10000 14.4 230 14:42 22.01.2022
4196 Snow 1 994 77 10000 16.98 230 13:30 22.01.2022
4197 Clouds 1 993 81 500 17.49 240 12:37 22.01.2022
4198 Snow 1 992 86 10000 13.38 250 12:19 22.01.2022
4199 Clouds 2 991 69 10000 13.38 230 10:54 22.01.2022
4200 Clouds 2 991 69 10000 13.38 230 10:23 22.01.2022
4201 Clouds 1 991 86 3500 12.86 230 08:56 22.01.2022
4202 Clouds 1 991 86 3500 12.86 230 08:38 22.01.2022
4203 Clouds 2 993 80 10000 9.77 220 06:46 22.01.2022
4204 Clouds 4 995 76 10000 16.46 230 02:40 22.01.2022
4205 Clouds 5 993 87 8000 18.52 190 23:50 21.01.2022
4206 Rain 5 993 87 8000 18.52 190 23:21 21.01.2022
4207 Rain 5 999 77 10000 11.32 190 21:34 21.01.2022
4208 Clouds 4 1003 70 10000 10.8 220 19:48 21.01.2022
4209 Clouds 3 1005 87 10000 11.83 220 17:53 21.01.2022
4210 Rain 4 1007 73 10000 10.8 210 16:37 21.01.2022
4211 Clouds 3 1007 70 10000 9.77 220 15:23 21.01.2022
4212 Rain 3 1006 81 10000 10.29 220 12:50 21.01.2022
4213 Clouds 4 1006 80 10000 10.29 210 11:29 21.01.2022
4214 Clouds 5 1006 80 10000 9.26 210 10:51 21.01.2022
4215 Clouds 5 1005 81 10000 12.35 220 09:24 21.01.2022
4216 Clouds 7 1004 81 10000 13.38 210 08:20 21.01.2022
4217 Clouds 7 1010 87 10000 11.32 170 04:36 21.01.2022
4218 Clouds 7 1017 81 10000 9.77 190 22:52 20.01.2022
4219 Clouds 7 1018 93 10000 8.75 190 21:49 20.01.2022
4220 Clouds 7 1018 93 10000 8.75 190 21:27 20.01.2022
4221 Clouds 8 1018 87 9000 9.26 180 19:55 20.01.2022
4222 Clouds 8 1018 87 9000 9.26 180 19:18 20.01.2022
4223 Drizzle 7 1019 87 9000 7.72 180 17:37 20.01.2022
4224 Clouds 7 1020 87 10000 6.17 180 16:32 20.01.2022
4225 Clouds 7 1021 87 8000 7.72 190 15:32 20.01.2022
4226 Drizzle 7 1022 87 7000 6.17 180 14:39 20.01.2022
4227 Clouds 7 1022 87 10000 6.17 170 13:18 20.01.2022
4228 Drizzle 7 1022 81 10000 7.2 160 12:30 20.01.2022
4229 Clouds 6 1023 87 10000 8.75 170 11:20 20.01.2022
4230 Clouds 5 1024 81 10000 3.6 130 10:19 20.01.2022
4231 Clouds 4 1025 87 10000 3.6 110 09:19 20.01.2022
4232 Rain 2 1027 87 10000 4.63 100 07:24 20.01.2022
4233 Clouds 0 1031 85 10000 3.6 100 00:41 20.01.2022
4234 Clouds -2 1032 74 10000 4.12 90 22:40 19.01.2022
4235 Clear -2 1032 74 10000 3.6 90 21:44 19.01.2022
4236 Clear -2 1032 74 10000 3.6 90 21:22 19.01.2022
4237 Clear -2 1032 74 10000 3.09 90 20:45 19.01.2022
4238 Clear -2 1031 74 10000 2.57 110 19:26 19.01.2022
4239 Clouds -1 1031 74 10000 2.57 140 17:51 19.01.2022
4240 Clouds -1 1031 74 10000 2.57 140 17:32 19.01.2022
4241 Clouds -2 1031 74 10000 2.57 130 15:44 19.01.2022
4242 Clouds -2 1030 69 10000 0.51 0 13:38 19.01.2022
4243 Clouds -2 1028 69 10000 1.54 10 12:24 19.01.2022
4244 Clouds -2 1028 74 10000 3.09 340 11:38 19.01.2022
4245 Clouds -1 1027 69 10000 3.6 350 10:20 19.01.2022
4246 Clouds -1 1026 64 10000 3.6 350 09:33 19.01.2022
4247 Clouds -1 1022 64 10000 4.63 340 06:34 19.01.2022
4248 Clouds 0 1014 59 10000 10.8 300 01:55 19.01.2022
4249 Clouds 0 1010 86 10000 7.2 310 23:19 18.01.2022
4250 Clouds 2 1007 60 10000 10.29 270 21:56 18.01.2022
4251 Clouds 3 1005 56 10000 9.26 270 20:55 18.01.2022
4252 Clouds 2 1005 75 10000 8.23 250 19:54 18.01.2022
4253 Clouds 2 1005 75 10000 8.23 250 19:35 18.01.2022
4254 Clouds 2 1003 80 10000 5.66 240 18:36 18.01.2022
4255 Clouds 2 1003 69 10000 7.2 260 17:51 18.01.2022
4256 Clouds 1 1003 86 10000 7.72 250 16:35 18.01.2022
4257 Rain 3 1002 65 10000 5.66 260 15:39 18.01.2022
4258 Clouds 3 1002 65 10000 5.66 260 15:19 18.01.2022
4259 Snow 1 999 93 10000 3.6 260 11:53 18.01.2022
4260 Clouds 3 998 81 10000 5.66 260 10:43 18.01.2022
4261 Clouds 4 996 75 10000 9.26 230 08:49 18.01.2022
4262 Clouds 3 996 81 10000 8.23 210 07:46 18.01.2022
4263 Rain 4 998 87 9000 7.2 230 02:31 18.01.2022
4264 Drizzle 5 1000 93 7000 6.69 200 23:22 17.01.2022
4265 Clouds 6 1001 94 3000 6.17 220 22:23 17.01.2022
4266 Drizzle 6 1001 91 8000 10.8 190 21:33 17.01.2022
4267 Clouds 6 1002 91 7000 10.29 190 19:56 17.01.2022
4268 Clouds 6 1004 91 6000 10.8 190 18:29 17.01.2022
4269 Clouds 6 1004 91 4500 11.83 190 17:24 17.01.2022
4270 Drizzle 6 1006 91 5000 11.83 190 16:27 17.01.2022
4271 Drizzle 6 1007 90 8000 12.35 180 14:59 17.01.2022
4272 Drizzle 6 1007 91 8000 12.35 180 14:33 17.01.2022
4273 Clouds 6 1008 91 4700 10.8 190 13:20 17.01.2022
4274 Drizzle 6 1009 90 10000 10.29 190 12:54 17.01.2022
4275 Drizzle 6 1009 90 6000 9.26 190 11:48 17.01.2022
4276 Clouds 6 1010 90 6000 10.8 190 10:21 17.01.2022
4277 Drizzle 6 1010 87 7000 10.29 190 08:51 17.01.2022
4278 Drizzle 6 1010 87 10000 10.29 190 07:22 17.01.2022
4279 Clouds 6 1011 87 9000 10.29 210 02:23 17.01.2022
4280 Clouds 6 1010 87 5000 9.26 210 00:54 17.01.2022
4281 Clouds 5 1009 87 9000 10.29 210 21:44 16.01.2022
4282 Clouds 5 1008 87 10000 10.8 210 20:33 16.01.2022
4283 Clouds 5 1008 87 10000 10.8 210 20:33 16.01.2022
4284 Rain 5 1007 87 8000 7.2 200 18:50 16.01.2022
4285 Rain 4 1007 93 10000 8.23 210 17:55 16.01.2022
4286 Snow 2 1006 87 10000 3.6 110 16:59 16.01.2022
4287 Snow 2 1006 87 10000 3.6 110 16:20 16.01.2022
4288 Snow -2 1006 86 8000 5.14 60 14:30 16.01.2022
4289 Clouds -2 1006 93 10000 4.63 70 13:34 16.01.2022
4290 Snow -2 1007 93 3000 3.09 70 12:27 16.01.2022
4291 Snow -2 1006 86 7000 2.06 100 11:38 16.01.2022
4292 Snow -2 1007 80 10000 1.54 350 10:46 16.01.2022
4293 Snow -2 1007 80 10000 2.06 20 09:59 16.01.2022
4294 Snow -2 1007 80 10000 2.06 20 09:40 16.01.2022
4295 Snow -2 1007 80 10000 2.06 20 09:21 16.01.2022
4296 Snow -1 1007 80 10000 3.6 350 07:23 16.01.2022
4297 Snow 0 1007 93 3000 7.2 200 00:38 16.01.2022
4298 Snow 1 1009 79 10000 6.17 200 23:22 15.01.2022
4299 Clouds 1 1011 75 10000 6.17 280 21:23 15.01.2022
4300 Clouds 0 1011 81 10000 10.29 260 20:56 15.01.2022
4301 Clouds 0 1011 81 10000 10.29 260 20:36 15.01.2022
4302 Clouds 1 1010 64 10000 8.75 280 19:28 15.01.2022
4303 Clouds 1 1010 64 10000 8.75 280 18:28 15.01.2022
4304 Clouds 2 1010 51 10000 9.26 300 16:49 15.01.2022
4305 Clouds -1 1010 69 10000 1.03 0 15:38 15.01.2022
4306 Clouds -2 1009 69 10000 4.63 350 13:35 15.01.2022
4307 Clouds -2 1008 74 10000 7.2 340 11:33 15.01.2022
4308 Clouds -1 1007 80 10000 9.77 330 09:49 15.01.2022
4309 Clouds 1 1006 75 10000 7.72 320 05:26 15.01.2022
4310 Drizzle 3 1005 93 6000 4.12 270 23:40 14.01.2022
4311 Drizzle 7 1005 91 10000 9.77 190 21:29 14.01.2022
4312 Mist 7 1006 91 8000 7.72 170 20:37 14.01.2022
4313 Drizzle 7 1006 91 8000 7.72 180 19:56 14.01.2022
4314 Mist 7 1007 87 4500 8.23 180 18:43 14.01.2022
4315 Mist 7 1007 87 3000 8.23 180 17:52 14.01.2022
4316 Mist 5 1009 81 7000 7.2 130 16:43 14.01.2022
4317 Rain 4 1010 75 10000 9.77 130 15:33 14.01.2022
4318 Rain 3 1011 81 10000 10.29 110 14:29 14.01.2022
4319 Snow 1 1016 90 10000 5.14 90 12:59 14.01.2022
4320 Rain 1 1018 90 9000 4.12 90 11:59 14.01.2022
4321 Rain 1 1019 86 10000 2.57 80 10:40 14.01.2022
4322 Snow 1 1021 88 7000 2.06 150 08:53 14.01.2022
4323 Rain 2 1022 83 10000 3.6 140 07:46 14.01.2022
4324 Clouds 1 1023 81 10000 3.09 170 03:19 14.01.2022
4325 Clouds 1 1021 80 10000 3.6 230 00:35 14.01.2022
4326 Clouds 3 1019 65 10000 5.66 260 21:55 13.01.2022
4327 Clouds 3 1019 65 10000 5.66 260 21:30 13.01.2022
4328 Clouds 3 1019 65 10000 5.66 260 21:30 13.01.2022
4329 Clouds 2 1018 75 10000 8.23 240 20:33 13.01.2022
4330 Clouds 3 1016 60 10000 9.26 250 19:32 13.01.2022
4331 Clouds 2 1015 75 10000 7.72 270 18:50 13.01.2022
4332 Rain 3 1012 65 10000 12.35 260 16:58 13.01.2022
4333 Clouds 0 1011 80 700 10.8 270 15:49 13.01.2022
4334 Clouds 0 1011 80 700 10.8 270 15:26 13.01.2022
4335 Clouds 1 1007 75 10000 14.92 250 13:42 13.01.2022
4336 Clouds 1 1004 69 10000 14.92 240 11:43 13.01.2022
4337 Clouds 1 1002 75 10000 14.92 230 09:38 13.01.2022
4338 Clouds 0 1003 85 10000 13.38 240 08:54 13.01.2022
4339 Clouds 0 1003 85 1500 18.01 240 08:22 13.01.2022
4340 Clouds 0 1001 86 5000 12.86 230 07:21 13.01.2022
4341 Clouds 0 1000 86 10000 10.29 220 05:56 13.01.2022
4342 Clouds 0 1000 86 10000 10.29 220 05:18 13.01.2022
4343 Clouds 0 1000 85 9000 11.32 240 01:46 13.01.2022
4344 Clouds 0 998 93 1000 14.92 250 23:54 12.01.2022
4345 Clouds 0 998 93 1000 14.92 250 23:35 12.01.2022
4346 Clouds 2 996 69 10000 11.83 230 22:56 12.01.2022
4347 Clouds 2 996 75 5000 10.29 220 21:56 12.01.2022
4348 Clouds 2 996 75 5000 10.29 220 21:21 12.01.2022
4349 Clouds 2 995 60 10000 13.38 230 20:56 12.01.2022
4350 Clouds 2 995 75 10000 11.83 220 19:28 12.01.2022
4351 Snow 1 994 86 10000 8.75 220 18:29 12.01.2022
4352 Clouds 3 994 65 10000 11.32 220 16:59 12.01.2022
4353 Snow 2 994 69 10000 9.77 220 15:58 12.01.2022
4354 Clouds 1 994 80 10000 11.83 220 14:47 12.01.2022
4355 Snow 1 993 80 10000 10.29 220 12:58 12.01.2022
4356 Clouds 2 991 75 10000 10.8 240 09:59 12.01.2022
4357 Snow 2 990 80 10000 8.23 210 08:36 12.01.2022
4358 Clouds 1 990 86 10000 9.77 210 07:34 12.01.2022
4359 Snow 1 990 86 3500 9.26 220 06:21 12.01.2022
4360 Snow 2 985 87 10000 10.29 220 23:31 11.01.2022
4361 Clouds 2 984 80 10000 7.72 170 22:49 11.01.2022
4362 Rain 2 984 80 10000 7.72 170 22:21 11.01.2022
4363 Snow 2 987 69 10000 5.66 200 20:51 11.01.2022
4364 Clouds 3 986 60 10000 12.35 240 19:45 11.01.2022
4365 Clouds 2 985 75 10000 11.83 230 18:31 11.01.2022
4366 Clouds 2 984 69 10000 13.38 230 17:19 11.01.2022
4367 Clouds 3 983 65 10000 16.46 230 16:37 11.01.2022
4368 Clouds 3 981 75 10000 13.38 240 15:34 11.01.2022
4369 Clouds 3 980 87 8000 11.83 220 14:41 11.01.2022
4370 Clouds 4 980 87 3200 8.75 150 13:54 11.01.2022
4371 Drizzle 2 982 87 10000 5.14 120 13:32 11.01.2022
4372 Clouds 3 984 81 10000 6.17 170 12:42 11.01.2022
4373 Rain 3 985 75 10000 8.23 200 11:40 11.01.2022
4374 Clouds 3 984 87 10000 9.77 230 09:28 11.01.2022
4375 Clouds 4 979 75 10000 8.75 230 06:36 11.01.2022
4376 Clouds 3 967 87 10000 3.6 70 00:30 11.01.2022
4377 Drizzle 3 968 86 10000 5.14 100 23:41 10.01.2022
4378 Rain 3 969 86 10000 6.17 120 22:51 10.01.2022
4379 Clouds 3 969 86 10000 6.17 120 22:19 10.01.2022
4380 Drizzle 2 970 89 10000 6.69 170 21:52 10.01.2022
4381 Drizzle 2 970 89 10000 6.69 170 21:19 10.01.2022
4382 Rain 3 970 86 10000 5.66 140 20:56 10.01.2022
4383 Rain 3 970 86 10000 5.66 140 20:27 10.01.2022
4384 Rain 2 970 89 10000 4.63 140 19:41 10.01.2022
4385 Rain 2 970 89 10000 4.63 140 19:20 10.01.2022
4386 Clouds 2 970 86 4500 7.72 160 18:48 10.01.2022
4387 Rain 2 970 81 10000 5.14 160 17:41 10.01.2022
4388 Clouds 1 971 88 10000 6.69 160 16:42 10.01.2022
4389 Clouds 2 971 82 1500 10.29 180 15:45 10.01.2022
4390 Clouds 2 970 80 10000 5.66 170 14:26 10.01.2022
4391 Clouds 2 969 80 10000 4.63 180 11:58 10.01.2022
4392 Clouds 2 969 80 10000 4.63 180 11:25 10.01.2022
4393 Clouds 3 967 81 10000 4.63 180 09:50 10.01.2022
4394 Rain 4 966 81 10000 5.66 180 07:18 10.01.2022
4395 Clouds 2 966 87 10000 8.75 110 05:49 10.01.2022
4396 Clouds 2 966 87 10000 8.75 110 05:49 10.01.2022
4397 Rain 5 971 75 5000 16.98 120 01:30 10.01.2022
4398 Rain 5 972 75 5000 18.52 110 00:25 10.01.2022
4399 Rain 5 975 75 7000 12.86 110 23:33 09.01.2022
4400 Rain 5 978 81 6000 18.01 120 22:37 09.01.2022
4401 Rain 6 980 70 10000 14.92 120 21:46 09.01.2022
4402 Rain 6 980 70 10000 14.92 120 21:46 09.01.2022
4403 Rain 6 980 70 10000 14.92 120 21:23 09.01.2022
4404 Rain 6 981 65 10000 15.95 120 20:51 09.01.2022
4405 Rain 6 981 65 10000 15.95 120 20:33 09.01.2022
4406 Clouds 5 981 65 10000 11.83 110 19:44 09.01.2022
4407 Clouds 5 981 65 10000 11.83 110 19:23 09.01.2022
4408 Clouds 5 983 65 10000 11.32 100 18:52 09.01.2022
4409 Clouds 5 983 65 10000 11.32 100 18:33 09.01.2022
4410 Clouds 4 985 65 10000 8.75 100 17:31 09.01.2022
4411 Clouds 4 985 65 10000 8.75 100 17:31 09.01.2022
4412 Clouds 3 988 60 10000 7.2 90 16:53 09.01.2022
4413 Clear 3 988 60 10000 6.69 100 15:58 09.01.2022
4414 Clear 3 988 60 10000 6.69 100 15:35 09.01.2022
4415 Clear 3 989 56 10000 7.2 90 14:40 09.01.2022
4416 Clear 3 990 56 10000 8.23 90 13:51 09.01.2022
4417 Clear 3 990 56 10000 8.23 90 13:22 09.01.2022
4418 Clear 3 992 56 10000 5.66 70 11:54 09.01.2022
4419 Clear 1 992 69 10000 3.6 130 10:53 09.01.2022
4420 Clear 2 991 64 10000 4.12 60 09:47 09.01.2022
4421 Clear 2 991 64 10000 5.14 90 08:52 09.01.2022
4422 Clear 2 990 55 10000 2.57 50 05:38 09.01.2022
4423 Clear 2 987 60 10000 2.06 50 01:24 09.01.2022
4424 Clear 3 985 60 10000 2.06 110 23:47 08.01.2022
4425 Clear 3 985 60 10000 2.06 110 23:26 08.01.2022
4426 Clear 3 984 65 10000 2.57 10 22:30 08.01.2022
4427 Clouds 6 982 39 10000 4.63 60 21:25 08.01.2022
4428 Clouds 6 981 42 10000 4.12 80 20:42 08.01.2022
4429 Clouds 6 981 42 10000 4.12 80 20:21 08.01.2022
4430 Rain 6 980 54 10000 3.09 20 18:45 08.01.2022
4431 Clouds 5 978 60 10000 6.17 70 17:22 08.01.2022
4432 Clouds 5 976 56 10000 4.63 50 15:56 08.01.2022
4433 Clouds 6 973 49 10000 9.77 80 14:46 08.01.2022
4434 Clouds 6 972 45 10000 6.69 70 13:29 08.01.2022
4435 Clouds 5 970 56 10000 12.86 90 11:28 08.01.2022
4436 Clouds 5 971 56 10000 5.66 60 10:30 08.01.2022
4437 Clouds 5 969 56 10000 10.29 80 09:48 08.01.2022
4438 Clouds 4 967 65 10000 16.46 100 08:22 08.01.2022
4439 Rain 3 969 65 10000 12.35 80 03:44 08.01.2022
4440 Clouds 2 973 69 10000 11.83 90 00:57 08.01.2022
4441 Clouds 2 977 64 10000 8.75 100 22:54 07.01.2022
4442 Clouds 1 978 86 10000 10.29 100 21:21 07.01.2022
4443 Clouds 1 980 86 10000 8.23 110 20:23 07.01.2022
4444 Clouds 1 981 80 10000 8.23 100 19:26 07.01.2022
4445 Clouds 1 982 86 10000 7.2 100 18:45 07.01.2022
4446 Clouds 1 983 86 10000 6.17 100 17:28 07.01.2022
4447 Snow 1 984 86 10000 6.69 110 16:41 07.01.2022
4448 Clouds 1 985 86 10000 5.66 110 14:50 07.01.2022
4449 Clouds 1 985 80 10000 5.66 100 13:50 07.01.2022
4450 Snow 2 984 75 10000 6.69 110 12:50 07.01.2022
4451 Clouds 2 982 75 10000 5.66 140 09:48 07.01.2022
4452 Clouds 2 975 75 10000 5.66 150 02:58 07.01.2022
4453 Clouds 2 975 75 10000 5.66 150 02:19 07.01.2022
4454 Clouds 2 974 75 10000 4.12 140 01:41 07.01.2022
4455 Snow 2 974 75 10000 4.12 140 01:20 07.01.2022
4456 Clouds 2 973 69 10000 5.66 160 00:28 07.01.2022
4457 Clouds 3 969 75 10000 6.69 190 21:40 06.01.2022
4458 Clouds 3 967 75 10000 7.72 180 20:37 06.01.2022
4459 Clouds 2 965 87 10000 10.29 190 19:54 06.01.2022
4460 Rain 2 965 87 10000 10.29 190 19:29 06.01.2022
4461 Rain 4 962 75 10000 11.83 160 17:51 06.01.2022
4462 Rain 4 962 75 10000 11.83 160 17:51 06.01.2022
4463 Rain 4 962 75 10000 11.83 160 17:19 06.01.2022
4464 Rain 4 961 75 10000 12.86 150 16:22 06.01.2022
4465 Rain 4 961 75 10000 12.35 140 15:41 06.01.2022
4466 Clouds 4 961 75 10000 12.35 140 15:20 06.01.2022
4467 Clouds 4 960 81 10000 15.43 140 14:19 06.01.2022
4468 Clouds 4 960 70 10000 14.4 140 12:59 06.01.2022
4469 Clouds 4 960 70 10000 14.4 140 12:20 06.01.2022
4470 Clouds 4 961 75 10000 14.92 140 11:29 06.01.2022
4471 Clouds 5 962 70 10000 14.4 140 09:50 06.01.2022
4472 Clouds 4 966 81 6000 19.55 120 05:55 06.01.2022
4473 Clouds 5 980 86 6000 18.01 130 23:56 05.01.2022
4474 Clouds 5 981 86 6000 18.01 130 23:22 05.01.2022
4475 Clouds 5 984 92 5000 12.35 120 22:42 05.01.2022
4476 Clouds 5 984 89 5000 12.35 120 22:18 05.01.2022
4477 Clouds 5 987 86 10000 11.83 130 21:23 05.01.2022
4478 Rain 5 989 81 10000 13.38 130 20:30 05.01.2022
4479 Clouds 3 991 87 6000 11.32 110 19:29 05.01.2022
4480 Clouds 4 993 87 7000 9.77 120 18:20 05.01.2022
4481 Clouds 2 997 87 6000 10.29 130 16:56 05.01.2022
4482 Clouds 2 997 87 6000 10.29 130 16:18 05.01.2022
4483 Snow 1 1000 86 4000 13.89 110 14:56 05.01.2022
4484 Snow 1 1001 86 4000 12.35 120 13:34 05.01.2022
4485 Snow 1 1002 86 6000 9.26 100 12:20 05.01.2022
4486 Rain 2 1006 60 10000 11.83 100 08:29 05.01.2022
4487 Clouds 1 1009 64 10000 7.72 110 06:37 05.01.2022
4488 Clouds -2 1011 59 10000 7.2 70 01:24 05.01.2022
4489 Clear -3 1012 59 10000 6.69 80 23:42 04.01.2022
4490 Clear -3 1012 59 10000 6.69 80 23:19 04.01.2022
4491 Clouds -3 1013 59 10000 6.17 70 21:41 04.01.2022
4492 Clear -3 1013 59 10000 5.66 70 20:41 04.01.2022
4493 Clear -4 1013 63 10000 5.66 80 18:39 04.01.2022
4494 Clouds -4 1014 54 10000 3.6 90 17:30 04.01.2022
4495 Clear -5 1014 58 10000 5.14 80 16:33 04.01.2022
4496 Clear -5 1015 58 10000 6.17 90 15:20 04.01.2022
4497 Clear -5 1015 63 10000 5.14 80 14:37 04.01.2022
4498 Clear -5 1015 63 10000 4.63 80 13:55 04.01.2022
4499 Clear -5 1015 63 10000 3.6 80 12:22 04.01.2022
4500 Clear -8 1016 79 10000 2.06 100 10:23 04.01.2022
4501 Clear -7 1017 73 10000 2.06 100 08:57 04.01.2022
4502 Clear -7 1017 79 10000 1.54 110 06:28 04.01.2022
4503 Clear -7 1018 79 10000 2.06 140 00:43 04.01.2022
4504 Clear -7 1018 79 10000 1.54 180 23:56 03.01.2022
4505 Clear -6 1018 79 10000 1.54 180 22:22 03.01.2022
4506 Clouds -6 1019 79 10000 2.06 140 21:40 03.01.2022
4507 Clouds -6 1018 79 10000 2.06 140 20:41 03.01.2022
4508 Clouds -6 1018 73 10000 2.57 200 19:38 03.01.2022
4509 Clear -5 1018 80 10000 1.54 180 18:31 03.01.2022
4510 Clear -4 1018 74 10000 2.57 180 17:23 03.01.2022
4511 Clouds -3 1018 68 10000 2.06 70 16:53 03.01.2022
4512 Clouds -3 1017 74 10000 6.17 350 14:32 03.01.2022
4513 Clear -3 1017 68 10000 5.66 350 12:53 03.01.2022
4514 Clear -3 1017 68 10000 5.66 350 12:22 03.01.2022
4515 Clouds -3 1017 68 10000 3.6 330 11:22 03.01.2022
4516 Clouds -4 1016 63 10000 5.14 350 09:29 03.01.2022
4517 Clear -4 1015 58 10000 5.66 340 07:55 03.01.2022
4518 Clear -4 1013 54 10000 6.17 340 04:23 03.01.2022
4519 Clouds -5 1010 58 10000 6.69 360 23:32 02.01.2022
4520 Clear -4 1009 54 10000 10.29 20 22:56 02.01.2022
4521 Clear -4 1009 54 10000 10.29 20 22:22 02.01.2022
4522 Clear -5 1009 54 10000 2.06 0 21:26 02.01.2022
4523 Clouds -5 1008 58 10000 6.17 340 20:30 02.01.2022
4524 Clouds -5 1007 54 10000 6.69 20 19:32 02.01.2022
4525 Clouds -5 1006 58 10000 8.75 20 18:56 02.01.2022
4526 Clouds -5 1006 58 10000 8.75 20 18:30 02.01.2022
4527 Clouds -5 1006 58 10000 8.75 30 17:42 02.01.2022
4528 Clouds -5 1006 58 10000 8.75 30 17:21 02.01.2022
4529 Clouds -5 1005 58 10000 9.77 20 16:30 02.01.2022
4530 Clouds -5 1004 54 10000 7.72 30 15:39 02.01.2022
4531 Clouds -5 1003 50 10000 13.38 20 13:57 02.01.2022
4532 Clouds -5 1003 58 10000 10.8 20 12:33 02.01.2022
4533 Clouds -5 1002 58 10000 10.29 20 11:55 02.01.2022
4534 Clouds -5 1002 57 10000 7.72 40 10:55 02.01.2022
4535 Clouds -5 1002 57 10000 7.72 40 10:22 02.01.2022
4536 Clear -5 999 55 10000 12.86 40 07:45 02.01.2022
4537 Clear -5 994 58 10000 12.86 20 02:57 02.01.2022
4538 Clear -4 992 58 10000 8.23 30 23:54 01.01.2022
4539 Clear -4 992 58 10000 8.23 30 23:35 01.01.2022
4540 Clear -4 991 58 10000 12.86 20 22:41 01.01.2022
4541 Clear -4 991 58 10000 12.86 20 22:18 01.01.2022
4542 Clear -4 991 58 10000 13.89 10 21:42 01.01.2022
4543 Clouds -3 991 59 10000 12.35 20 20:50 01.01.2022
4544 Clouds -3 990 63 10000 12.35 20 19:47 01.01.2022
4545 Clouds -3 990 62 10000 12.86 10 18:53 01.01.2022
4546 Clouds -3 990 67 10000 10.8 360 17:46 01.01.2022
4547 Clouds -2 990 62 10000 15.43 20 16:35 01.01.2022
4548 Clouds -2 990 65 10000 13.89 10 15:50 01.01.2022
4549 Clouds -1 991 62 10000 7.72 30 14:40 01.01.2022
4550 Clouds -1 991 64 10000 14.4 30 13:42 01.01.2022
4551 Clouds 0 994 61 10000 11.83 40 12:26 01.01.2022
4552 Clouds 0 995 63 10000 11.83 30 11:46 01.01.2022
4553 Clouds 0 995 63 10000 11.83 30 11:18 01.01.2022
4554 Clouds 2 996 51 10000 8.23 30 09:48 01.01.2022
4555 Clouds 2 996 51 10000 8.23 30 09:20 01.01.2022
4556 Clear 0 997 59 10000 12.35 20 08:22 01.01.2022
4557 Clear 0 998 64 10000 11.32 20 07:41 01.01.2022
4558 Clear 1 999 60 10000 10.8 20 06:45 01.01.2022
4559 Clear 3 1001 52 10000 4.63 50 05:25 01.01.2022
4560 Clear 3 1002 56 10000 5.14 40 04:37 01.01.2022
4561 Snow 2 1006 64 10000 4.63 80 00:41 01.01.2022
4562 Snow 2 1006 55 10000 5.14 70 22:59 31.12.2021
4563 Rain 2 1006 55 10000 5.66 80 21:51 31.12.2021
4564 Snow 2 1006 55 10000 5.66 80 20:32 31.12.2021
4565 Snow 1 1006 55 10000 7.2 80 19:29 31.12.2021
4566 Snow 1 1006 55 10000 5.66 70 18:30 31.12.2021
4567 Snow 2 1006 51 10000 6.69 80 17:37 31.12.2021
4568 Snow 2 1006 51 10000 6.69 80 17:18 31.12.2021
4569 Clear 2 1006 51 10000 6.69 80 16:19 31.12.2021
4570 Clear 1 1006 55 10000 6.69 80 15:53 31.12.2021
4571 Snow 1 1006 55 10000 6.69 80 15:28 31.12.2021
4572 Clear 1 1006 55 10000 6.69 80 14:43 31.12.2021
4573 Clear 1 1006 55 10000 6.69 80 14:18 31.12.2021
4574 Clear 1 1006 51 10000 6.17 80 13:36 31.12.2021
4575 Clear 1 1005 51 10000 7.72 80 12:44 31.12.2021
4576 Snow 1 1005 51 10000 7.2 80 11:43 31.12.2021
4577 Snow 1 1005 51 10000 7.2 80 11:20 31.12.2021
4578 Snow 1 1004 51 10000 6.69 80 10:32 31.12.2021
4579 Snow 1 1004 47 10000 6.69 80 09:35 31.12.2021
4580 Clouds 1 1004 47 10000 4.63 90 08:56 31.12.2021
4581 Clouds 1 1004 47 10000 4.63 90 08:25 31.12.2021
4582 Clouds 0 1004 47 10000 6.17 90 07:30 31.12.2021
4583 Clouds -2 1003 57 10000 3.09 80 23:23 30.12.2021
4584 Clear -2 1003 60 10000 3.09 60 22:33 30.12.2021
4585 Clear -2 1003 56 10000 5.66 100 21:54 30.12.2021
4586 Clear -2 1003 56 10000 5.66 100 21:36 30.12.2021
4587 Clear -3 1002 64 10000 1.54 80 20:46 30.12.2021
4588 Clear -3 1002 63 10000 1.54 80 20:25 30.12.2021
4589 Clear -3 1002 58 10000 2.06 80 19:45 30.12.2021
4590 Clear -4 1001 63 10000 2.06 110 18:45 30.12.2021
4591 Clear -4 1001 62 10000 2.06 110 18:18 30.12.2021
4592 Clear -4 1000 57 10000 2.57 110 16:19 30.12.2021
4593 Clear -5 1000 61 10000 1.54 90 15:51 30.12.2021
4594 Clear -7 999 68 10000 0.51 0 14:39 30.12.2021
4595 Clear -6 999 63 10000 2.06 50 13:55 30.12.2021
4596 Clear -7 998 63 10000 1.54 60 12:40 30.12.2021
4597 Clear -7 997 63 10000 1.03 0 10:58 30.12.2021
4598 Clear -6 997 58 10000 1.03 130 09:59 30.12.2021
4599 Clear -6 997 58 10000 1.03 130 09:59 30.12.2021
4600 Clear -6 997 58 10000 1.03 130 09:21 30.12.2021
4601 Clear -5 996 68 10000 1.54 210 06:54 30.12.2021
4602 Clear -4 996 59 10000 2.06 120 03:45 30.12.2021
4603 Clear -4 996 59 10000 2.06 120 03:23 30.12.2021
4604 Clear -3 996 62 10000 0.51 0 23:57 29.12.2021
4605 Clear -3 996 63 10000 0.51 0 23:23 29.12.2021
4606 Clear -2 996 62 10000 0.51 0 22:22 29.12.2021
4607 Clear -1 996 61 10000 2.57 20 21:45 29.12.2021
4608 Clear -1 995 63 10000 5.14 30 20:39 29.12.2021
4609 Clear -1 995 65 10000 5.66 20 19:50 29.12.2021
4610 Clear -1 995 61 10000 6.17 20 18:57 29.12.2021
4611 Clear -1 995 62 10000 7.72 10 17:57 29.12.2021
4612 Clear -1 995 59 10000 7.72 10 17:28 29.12.2021
4613 Clear -1 995 60 10000 5.66 20 16:44 29.12.2021
4614 Clear -1 995 60 10000 5.66 20 16:19 29.12.2021
4615 Clouds -1 995 64 10000 6.69 350 14:40 29.12.2021
4616 Clear 0 995 54 10000 4.63 40 12:48 29.12.2021
4617 Clear 0 995 54 10000 4.63 40 12:20 29.12.2021
4618 Snow 0 995 58 10000 5.66 60 10:31 29.12.2021
4619 Snow -2 994 86 4500 7.72 40 07:52 29.12.2021
4620 Snow -1 994 69 6000 9.77 50 06:45 29.12.2021
4621 Snow -1 994 69 6000 9.77 50 06:24 29.12.2021
4622 Clouds -1 996 70 10000 9.77 40 05:42 29.12.2021
4623 Clouds -1 996 69 10000 10.29 40 03:20 29.12.2021
4624 Clouds -1 996 69 10000 13.38 40 00:24 29.12.2021
4625 Clouds 0 996 69 10000 11.83 40 23:47 28.12.2021
4626 Clouds -1 996 74 10000 5.66 30 22:45 28.12.2021
4627 Clouds -1 996 74 10000 5.66 30 22:24 28.12.2021
4628 Snow -2 997 86 4000 7.72 360 21:53 28.12.2021
4629 Snow -3 997 93 10000 5.66 350 20:48 28.12.2021
4630 Snow -3 997 93 6000 4.63 360 19:44 28.12.2021
4631 Snow -2 998 69 10000 7.2 10 18:44 28.12.2021
4632 Snow -2 998 69 10000 7.2 10 18:23 28.12.2021
4633 Snow -2 999 69 10000 9.26 10 16:35 28.12.2021
4634 Snow -2 999 64 10000 7.72 10 15:52 28.12.2021
4635 Clouds -2 999 64 10000 7.72 10 15:27 28.12.2021
4636 Clouds -3 999 68 10000 11.32 20 14:53 28.12.2021
4637 Clouds -3 999 68 10000 11.32 20 14:21 28.12.2021
4638 Clouds -3 1000 70 10000 11.32 20 13:54 28.12.2021
4639 Clouds -3 1000 70 10000 11.32 20 13:31 28.12.2021
4640 Clouds -3 1000 74 10000 11.32 20 12:55 28.12.2021
4641 Clear -3 1001 75 10000 12.35 20 11:51 28.12.2021
4642 Clouds -3 1000 74 10000 11.32 20 09:30 28.12.2021
4643 Clouds -2 1000 74 10000 8.75 20 07:33 28.12.2021
4644 Clear -7 1001 77 10000 2.06 0 03:28 28.12.2021
4645 Clear -6 1001 78 10000 2.57 150 23:26 27.12.2021
4646 Clear -5 1000 73 10000 1.03 0 22:20 27.12.2021
4647 Clear -5 1000 73 10000 1.54 90 21:30 27.12.2021
4648 Clear -6 1000 75 10000 1.03 0 20:27 27.12.2021
4649 Clear -4 999 72 10000 1.03 100 19:47 27.12.2021
4650 Clouds -4 999 71 10000 0.51 0 18:56 27.12.2021
4651 Clouds -3 999 70 10000 1.54 40 17:50 27.12.2021
4652 Clouds -3 999 69 10000 1.54 40 17:27 27.12.2021
4653 Clouds -2 999 69 10000 2.57 20 15:54 27.12.2021
4654 Clouds -2 999 72 10000 2.06 60 14:56 27.12.2021
4655 Clouds -2 999 71 10000 2.06 60 14:21 27.12.2021
4656 Clouds -3 999 79 10000 0.51 0 12:49 27.12.2021
4657 Clouds -1 999 70 10000 2.06 50 10:37 27.12.2021
4658 Clouds -1 999 70 10000 2.06 50 10:18 27.12.2021
4659 Clear -1 999 75 10000 2.06 50 08:42 27.12.2021
4660 Clear -1 999 76 10000 1.54 50 07:34 27.12.2021
4661 Snow -1 999 77 10000 2.57 50 06:27 27.12.2021
4662 Clouds 0 1000 80 10000 1.54 40 01:51 27.12.2021
4663 Clouds 0 1000 83 10000 3.6 10 23:49 26.12.2021
4664 Snow 0 1001 83 10000 3.6 10 23:19 26.12.2021
4665 Snow 0 1001 84 10000 2.06 350 21:33 26.12.2021
4666 Snow 0 1002 81 10000 2.06 40 19:55 26.12.2021
4667 Clouds 0 1002 82 10000 2.06 40 18:45 26.12.2021
4668 Clouds 0 1002 82 10000 2.06 40 18:21 26.12.2021
4669 Snow 0 1003 86 2500 2.57 20 15:38 26.12.2021
4670 Snow 0 1004 79 10000 3.09 60 13:49 26.12.2021
4671 Snow 0 1004 79 10000 3.09 60 13:31 26.12.2021
4672 Snow 0 1004 74 10000 2.57 70 12:36 26.12.2021
4673 Snow 0 1005 73 10000 2.06 50 11:24 26.12.2021
4674 Clouds 0 1005 73 10000 3.6 70 09:35 26.12.2021
4675 Clouds 0 1005 78 10000 0.51 0 08:50 26.12.2021
4676 Clouds 0 1005 78 10000 0.51 0 08:27 26.12.2021
4677 Clouds 1 1006 69 10000 3.09 50 05:59 26.12.2021
4678 Clear 1 1007 74 10000 5.14 60 00:44 26.12.2021
4679 Clear 2 1007 74 10000 3.09 60 23:48 25.12.2021
4680 Clear 2 1007 74 10000 4.63 60 22:39 25.12.2021
4681 Clear 2 1007 74 10000 4.63 60 22:20 25.12.2021
4682 Clear 2 1008 75 10000 5.66 50 20:36 25.12.2021
4683 Clear 2 1007 79 10000 2.06 40 19:20 25.12.2021
4684 Clouds 2 1008 74 10000 3.6 60 18:51 25.12.2021
4685 Clouds 3 1008 73 10000 3.09 50 16:52 25.12.2021
4686 Clouds 3 1008 71 10000 4.12 70 15:48 25.12.2021
4687 Clear 2 1009 72 10000 2.57 60 14:25 25.12.2021
4688 Clouds 2 1009 72 10000 1.03 0 12:42 25.12.2021
4689 Clouds 1 1010 73 10000 2.57 80 11:27 25.12.2021
4690 Clear 1 1009 76 10000 3.09 70 09:49 25.12.2021
4691 Clear 1 1010 73 10000 4.12 70 07:51 25.12.2021
4692 Clear 1 1011 71 10000 6.17 80 01:45 25.12.2021
4693 Clear 0 1011 73 10000 4.12 70 00:27 25.12.2021
4694 Clear 0 1011 73 10000 4.63 70 22:40 24.12.2021
4695 Clouds 1 1011 72 10000 4.63 50 19:38 24.12.2021
4696 Clouds 1 1011 72 10000 4.63 50 19:19 24.12.2021
4697 Clouds -1 1012 75 10000 1.54 70 16:50 24.12.2021
4698 Clouds -1 1013 81 10000 3.46 64 16:19 24.12.2021
4699 Clear -1 1013 72 10000 3.09 60 15:45 24.12.2021
4700 Clear -2 1013 77 10000 3.6 40 14:46 24.12.2021
4701 Clear -2 1013 77 10000 3.6 40 14:22 24.12.2021
4702 Clear -2 1013 75 10000 4.12 80 13:37 24.12.2021
4703 Clear -2 1014 75 10000 4.12 100 12:48 24.12.2021
4704 Clear -2 1014 72 10000 3.6 80 11:52 24.12.2021
4705 Clear -2 1014 71 10000 3.6 80 11:26 24.12.2021
4706 Clear -2 1014 71 10000 6.17 80 10:46 24.12.2021
4707 Clear -2 1014 68 10000 5.14 90 09:33 24.12.2021
4708 Clear 0 1013 51 10000 4.12 90 08:24 24.12.2021
4709 Clear 0 1014 59 10000 3.6 90 07:48 24.12.2021
4710 Clear -1 1015 60 10000 1.54 40 02:52 24.12.2021
4711 Clear -1 1016 64 10000 1.03 0 23:56 23.12.2021
4712 Clear -1 1016 64 10000 1.03 0 23:22 23.12.2021
4713 Clear 0 1016 64 10000 1.03 0 22:37 23.12.2021
4714 Clear 0 1016 64 10000 1.03 0 22:37 23.12.2021
4715 Clear 0 1016 64 10000 1.03 0 22:19 23.12.2021
4716 Clear 1 1016 55 10000 2.06 40 20:59 23.12.2021
4717 Clear 1 1016 55 10000 2.06 40 20:19 23.12.2021
4718 Clear 1 1016 47 10000 1.54 0 18:36 23.12.2021
4719 Clear 1 1016 51 10000 2.06 50 17:57 23.12.2021
4720 Clear 2 1017 48 10000 3.09 80 16:47 23.12.2021
4721 Clear 2 1017 48 10000 3.09 80 16:24 23.12.2021
4722 Clear 2 1017 44 10000 4.12 60 15:31 23.12.2021
4723 Clear 2 1017 48 10000 3.6 70 14:52 23.12.2021
4724 Clear 2 1017 48 10000 3.6 70 14:31 23.12.2021
4725 Clear 1 1018 51 10000 3.6 70 13:19 23.12.2021
4726 Clear 1 1017 47 10000 2.57 80 10:53 23.12.2021
4727 Clear 1 1017 47 10000 6.69 90 09:47 23.12.2021
4728 Clear 1 1017 47 10000 6.69 90 09:19 23.12.2021
4729 Clear -2 1018 69 10000 1.54 60 06:59 23.12.2021
4730 Clear 0 1019 51 10000 2.57 30 04:35 23.12.2021
4731 Clear -2 1020 74 10000 3.09 80 23:26 22.12.2021
4732 Clear -2 1020 72 10000 4.63 80 22:48 22.12.2021
4733 Clear -2 1020 76 10000 4.12 80 21:57 22.12.2021
4734 Clear -2 1020 76 10000 4.12 80 21:29 22.12.2021
4735 Clear -2 1020 78 10000 5.14 100 20:50 22.12.2021
4736 Clear -2 1020 79 10000 5.14 100 20:30 22.12.2021
4737 Clouds -1 1020 77 10000 5.14 90 19:32 22.12.2021
4738 Clouds 0 1020 75 10000 4.12 90 17:55 22.12.2021
4739 Clouds 0 1020 74 10000 4.12 90 17:34 22.12.2021
4740 Rain 2 1020 64 10000 4.12 90 15:46 22.12.2021
4741 Rain 2 1020 75 10000 3.6 90 13:44 22.12.2021
4742 Clouds 3 1020 75 10000 2.57 90 12:41 22.12.2021
4743 Clouds 3 1020 70 10000 3.09 100 10:46 22.12.2021
4744 Clouds 3 1020 70 10000 3.6 80 09:40 22.12.2021
4745 Clouds 3 1020 70 10000 3.09 80 07:32 22.12.2021
4746 Clouds 4 1020 65 10000 3.6 90 05:50 22.12.2021
4747 Clouds 4 1020 65 10000 3.6 90 05:28 22.12.2021
4748 Clouds 3 1020 70 10000 3.6 70 04:52 22.12.2021
4749 Clouds 3 1020 70 10000 3.6 70 04:30 22.12.2021
4750 Clouds 4 1020 65 10000 2.57 70 03:33 22.12.2021
4751 Clouds 3 1021 75 10000 4.12 80 00:57 22.12.2021
4752 Clouds 3 1021 75 10000 4.63 90 23:32 21.12.2021
4753 Clouds 4 1021 70 10000 5.14 90 22:29 21.12.2021
4754 Clouds 2 1021 80 10000 1.03 0 21:44 21.12.2021
4755 Clouds 2 1021 80 10000 1.03 0 21:23 21.12.2021
4756 Clouds 3 1021 75 10000 4.12 100 20:22 21.12.2021
4757 Clouds 3 1021 75 10000 3.6 90 19:46 21.12.2021
4758 Clouds 3 1021 75 10000 3.6 90 19:19 21.12.2021
4759 Clouds 3 1021 81 10000 4.12 80 18:22 21.12.2021
4760 Clouds 3 1022 81 10000 5.66 100 17:47 21.12.2021
4761 Clouds 2 1022 84 10000 4.12 80 16:35 21.12.2021
4762 Clouds 3 1022 75 10000 5.14 80 15:29 21.12.2021
4763 Clouds 2 1023 80 10000 3.6 80 13:51 21.12.2021
4764 Clouds 2 1023 80 10000 3.6 80 13:31 21.12.2021
4765 Clouds 2 1023 80 10000 5.14 80 11:57 21.12.2021
4766 Clouds 2 1023 80 10000 3.6 80 10:25 21.12.2021
4767 Clouds 2 1023 80 10000 5.66 90 09:35 21.12.2021
4768 Clear 1 1023 86 10000 5.14 80 08:30 21.12.2021
4769 Clear -1 1023 100 10000 0.51 0 07:32 21.12.2021
4770 Fog 0 1023 100 10000 1.54 30 06:54 21.12.2021
4771 Drizzle 1 1025 95 1000 1.54 120 03:20 21.12.2021
4772 Drizzle 3 1025 95 1200 0 0 00:46 21.12.2021
4773 Drizzle 4 1026 95 1000 1.54 290 23:34 20.12.2021
4774 Mist 4 1026 94 2300 1.03 0 22:34 20.12.2021
4775 Mist 4 1026 95 1300 1.03 0 21:48 20.12.2021
4776 Mist 4 1026 95 1300 1.03 0 21:24 20.12.2021
4777 Mist 4 1026 98 3600 0.51 0 20:48 20.12.2021
4778 Drizzle 5 1026 94 3000 0 0 19:55 20.12.2021
4779 Drizzle 5 1027 94 3000 0 0 19:34 20.12.2021
4780 Drizzle 4 1027 94 2200 0.51 0 18:55 20.12.2021
4781 Drizzle 4 1027 94 2200 0.51 0 18:25 20.12.2021
4782 Drizzle 5 1027 94 300 0 0 17:46 20.12.2021
4783 Drizzle 5 1027 94 300 0 0 16:44 20.12.2021
4784 Drizzle 5 1028 91 1700 1.03 130 15:52 20.12.2021
4785 Drizzle 5 1028 91 2500 1.03 50 14:58 20.12.2021
4786 Drizzle 5 1028 91 10000 0 0 13:24 20.12.2021
4787 Clouds 4 1028 87 10000 2.06 120 11:36 20.12.2021
4788 Clouds 4 1028 87 10000 1.03 0 09:56 20.12.2021
4789 Clouds 4 1028 87 10000 1.03 0 09:32 20.12.2021
4790 Clouds 4 1028 87 10000 2.06 110 08:43 20.12.2021
4791 Clouds 5 1028 87 10000 1.54 90 07:57 20.12.2021
4792 Clouds 5 1028 87 10000 1.54 90 07:31 20.12.2021
4793 Clouds 5 1029 87 10000 3.09 90 05:25 20.12.2021
4794 Clouds 6 1031 87 10000 2.57 90 00:19 20.12.2021
4795 Clouds 6 1032 87 10000 2.06 90 22:56 19.12.2021
4796 Clouds 7 1032 81 10000 2.57 90 21:58 19.12.2021
4797 Clouds 7 1032 81 10000 2.57 90 21:32 19.12.2021
4798 Clouds 7 1032 86 10000 2.57 80 20:35 19.12.2021
4799 Clouds 7 1032 81 10000 2.57 100 19:53 19.12.2021
4800 Clouds 7 1032 81 10000 2.57 100 19:32 19.12.2021
4801 Clouds 7 1032 87 10000 2.57 110 18:35 19.12.2021
4802 Clouds 8 1033 81 10000 3.09 130 17:53 19.12.2021
4803 Clouds 8 1033 81 10000 3.09 130 17:28 19.12.2021
4804 Clouds 8 1033 76 10000 3.09 110 16:27 19.12.2021
4805 Clouds 8 1033 76 10000 3.09 110 16:27 19.12.2021
4806 Clouds 8 1033 76 10000 3.09 110 15:51 19.12.2021
4807 Clouds 8 1033 76 10000 3.09 110 15:23 19.12.2021
4808 Clouds 8 1033 81 10000 3.6 110 14:45 19.12.2021
4809 Clouds 8 1034 81 10000 4.12 140 13:26 19.12.2021
4810 Clouds 8 1034 81 10000 4.63 100 12:50 19.12.2021
4811 Clouds 8 1034 81 10000 4.63 100 12:28 19.12.2021
4812 Clouds 8 1033 81 10000 5.66 140 11:30 19.12.2021
4813 Clouds 8 1033 81 10000 6.69 140 10:47 19.12.2021
4814 Clouds 8 1033 81 10000 6.69 140 10:21 19.12.2021
4815 Clouds 8 1033 81 10000 6.69 130 08:46 19.12.2021
4816 Clouds 8 1033 87 10000 7.2 130 05:37 19.12.2021
4817 Clouds 8 1033 87 10000 5.66 140 01:45 19.12.2021
4818 Clouds 8 1032 87 10000 5.14 130 00:54 19.12.2021
4819 Clouds 8 1032 87 10000 5.66 130 22:51 18.12.2021
4820 Clouds 8 1032 87 10000 5.66 130 22:24 18.12.2021
4821 Clouds 8 1032 87 10000 6.69 130 21:41 18.12.2021
4822 Clouds 8 1032 87 10000 6.69 130 21:22 18.12.2021
4823 Clouds 8 1031 87 10000 5.14 120 20:25 18.12.2021
4824 Clouds 8 1030 87 10000 4.63 110 19:34 18.12.2021
4825 Drizzle 8 1030 87 10000 4.63 120 18:24 18.12.2021
4826 Clouds 8 1030 87 10000 4.12 120 17:49 18.12.2021
4827 Clouds 8 1029 87 10000 4.12 110 16:27 18.12.2021
4828 Drizzle 8 1029 87 3500 4.12 110 15:48 18.12.2021
4829 Clouds 8 1029 87 10000 4.63 140 14:53 18.12.2021
4830 Clouds 8 1029 87 10000 3.09 90 13:42 18.12.2021
4831 Clouds 7 1029 95 10000 2.57 130 11:48 18.12.2021
4832 Clouds 8 1026 87 10000 4.12 160 09:54 18.12.2021
4833 Clouds 8 1026 87 10000 4.12 160 09:30 18.12.2021
4834 Drizzle 7 1025 93 10000 3.6 170 08:36 18.12.2021
4835 Drizzle 7 1025 93 10000 3.6 170 08:36 18.12.2021
4836 Drizzle 7 1024 87 10000 2.06 100 06:27 18.12.2021
4837 Drizzle 4 1022 93 8000 1.03 0 00:58 18.12.2021
4838 Drizzle 4 1022 94 10000 1.54 90 23:47 17.12.2021
4839 Clouds 4 1021 93 10000 2.57 30 22:37 17.12.2021
4840 Rain 4 1021 93 8000 2.57 50 21:29 17.12.2021
4841 Drizzle 5 1021 87 8000 2.57 90 20:43 17.12.2021
4842 Clouds 5 1021 87 9000 1.54 90 19:51 17.12.2021
4843 Drizzle 5 1021 87 10000 1.54 130 18:39 17.12.2021
4844 Drizzle 5 1021 87 10000 2.57 150 17:50 17.12.2021
4845 Drizzle 5 1020 87 10000 2.57 140 16:51 17.12.2021
4846 Drizzle 5 1020 87 10000 2.57 140 16:27 17.12.2021
4847 Drizzle 5 1020 81 10000 2.57 150 15:38 17.12.2021
4848 Rain 5 1020 81 10000 3.6 160 14:42 17.12.2021
4849 Rain 6 1020 75 10000 3.09 160 13:45 17.12.2021
4850 Rain 5 1020 87 10000 2.06 130 12:36 17.12.2021
4851 Clouds 5 1019 81 10000 3.09 140 10:42 17.12.2021
4852 Clouds 5 1018 81 10000 3.09 130 09:47 17.12.2021
4853 Clouds 5 1018 81 10000 3.09 130 09:47 17.12.2021
4854 Clear 5 1017 81 10000 3.6 160 08:32 17.12.2021
4855 Clouds 5 1017 81 10000 3.6 150 07:30 17.12.2021
4856 Clouds 5 1014 81 10000 5.66 210 04:41 17.12.2021
4857 Clouds 6 1008 81 10000 12.35 200 00:28 17.12.2021
4858 Clouds 8 1005 66 10000 12.86 180 22:25 16.12.2021
4859 Clouds 8 1004 66 10000 10.29 180 21:55 16.12.2021
4860 Clouds 8 1004 66 10000 10.29 180 21:36 16.12.2021
4861 Clouds 7 1003 70 10000 11.83 190 20:40 16.12.2021
4862 Clouds 7 1003 76 10000 12.86 190 19:52 16.12.2021
4863 Clouds 8 1001 71 10000 13.89 180 18:45 16.12.2021
4864 Clouds 8 1001 71 10000 13.89 180 18:26 16.12.2021
4865 Clouds 8 1000 81 10000 12.86 170 17:35 16.12.2021
4866 Rain 8 1000 81 10000 10.8 180 16:23 16.12.2021
4867 Rain 8 1000 81 10000 11.32 170 15:26 16.12.2021
4868 Clouds 9 1000 76 10000 12.35 160 13:45 16.12.2021
4869 Rain 8 999 87 4000 14.92 150 11:48 16.12.2021
4870 Rain 8 999 90 4000 14.92 150 11:18 16.12.2021
4871 Rain 8 999 87 7000 13.89 140 10:39 16.12.2021
4872 Rain 7 1000 87 5000 14.92 140 09:42 16.12.2021
4873 Rain 7 1003 81 10000 12.35 140 06:23 16.12.2021
4874 Rain 6 1006 82 10000 5.14 140 03:54 16.12.2021
4875 Clouds 4 1003 75 10000 6.69 210 23:36 15.12.2021
4876 Clouds 4 1002 75 10000 7.2 200 22:49 15.12.2021
4877 Clouds 4 1002 75 10000 7.2 200 22:20 15.12.2021
4878 Clouds 5 1000 75 10000 7.2 210 21:31 15.12.2021
4879 Clouds 4 999 80 10000 7.72 210 20:41 15.12.2021
4880 Clouds 4 998 84 10000 7.2 210 19:53 15.12.2021
4881 Clouds 4 996 85 10000 8.75 210 18:50 15.12.2021
4882 Clouds 4 995 85 10000 8.75 210 18:18 15.12.2021
4883 Clouds 4 994 86 10000 11.83 210 17:43 15.12.2021
4884 Clouds 4 993 81 10000 11.83 210 17:21 15.12.2021
4885 Clouds 4 991 87 10000 10.29 210 15:48 15.12.2021
4886 Rain 4 991 87 10000 10.29 210 15:29 15.12.2021
4887 Clouds 4 990 87 8000 7.2 210 14:44 15.12.2021
4888 Clouds 5 989 75 10000 8.75 200 13:28 15.12.2021
4889 Clouds 4 986 81 10000 6.17 180 11:41 15.12.2021
4890 Rain 3 986 87 10000 4.63 170 10:18 15.12.2021
4891 Snow 2 984 87 10000 5.66 170 07:55 15.12.2021
4892 Rain 3 983 75 10000 5.14 170 04:22 15.12.2021
4893 Clouds 2 983 87 10000 3.6 140 23:53 14.12.2021
4894 Rain 2 983 87 10000 3.6 140 23:21 14.12.2021
4895 Clouds 1 982 93 10000 3.6 160 22:42 14.12.2021
4896 Rain 2 982 87 10000 6.17 170 21:38 14.12.2021
4897 Rain 2 981 87 10000 4.12 150 20:20 14.12.2021
4898 Rain 2 981 87 10000 5.66 190 19:21 14.12.2021
4899 Snow 2 980 87 10000 5.66 170 18:38 14.12.2021
4900 Clouds 2 980 87 10000 5.66 160 17:53 14.12.2021
4901 Clouds 3 980 75 10000 7.2 190 16:43 14.12.2021
4902 Clouds 3 980 75 10000 7.2 190 16:18 14.12.2021
4903 Clouds 3 978 81 10000 5.66 200 13:58 14.12.2021
4904 Clouds 3 978 87 10000 4.63 220 12:48 14.12.2021
4905 Clouds 3 977 81 10000 6.17 200 11:25 14.12.2021
4906 Clouds 3 976 81 10000 7.2 200 10:45 14.12.2021
4907 Clouds 4 975 81 10000 8.23 210 09:54 14.12.2021
4908 Clouds 4 974 81 10000 6.69 190 08:48 14.12.2021
4909 Clouds 4 974 81 10000 6.69 190 08:21 14.12.2021
4910 Rain 3 973 87 10000 6.17 200 07:23 14.12.2021
4911 Rain 3 985 81 10000 4.63 90 23:51 13.12.2021
4912 Clouds 3 986 81 10000 7.2 110 22:24 13.12.2021
4913 Clouds 3 988 81 10000 5.66 100 21:39 13.12.2021
4914 Clouds 3 989 81 10000 4.12 110 20:51 13.12.2021
4915 Clouds 3 989 81 10000 4.12 110 20:51 13.12.2021
4916 Clouds 3 989 81 10000 4.12 110 20:21 13.12.2021
4917 Clouds 3 989 81 10000 3.09 110 19:49 13.12.2021
4918 Clouds 3 990 81 10000 4.12 140 17:27 13.12.2021
4919 Clouds 3 990 87 10000 3.09 120 16:32 13.12.2021
4920 Drizzle 3 991 87 10000 3.6 130 15:43 13.12.2021
4921 Clouds 3 990 87 10000 4.12 130 14:30 13.12.2021
4922 Clouds 3 990 87 10000 3.09 90 13:36 13.12.2021
4923 Clouds 3 990 87 10000 3.6 80 12:39 13.12.2021
4924 Clouds 3 989 87 10000 3.6 100 11:50 13.12.2021
4925 Clouds 3 989 87 10000 3.6 100 11:29 13.12.2021
4926 Clouds 3 988 87 9000 2.57 80 10:36 13.12.2021
4927 Rain 4 988 81 9000 4.63 130 08:43 13.12.2021
4928 Rain 4 988 81 9000 4.63 130 08:43 13.12.2021
4929 Rain 4 987 81 10000 6.17 90 06:55 13.12.2021
4930 Clouds 4 986 81 10000 5.66 100 05:19 13.12.2021
4931 Clouds 5 985 83 10000 7.2 150 23:55 12.12.2021
4932 Clouds 5 984 83 10000 7.72 140 21:58 12.12.2021
4933 Clouds 5 983 85 10000 9.26 160 20:50 12.12.2021
4934 Clouds 5 981 75 10000 7.2 160 19:35 12.12.2021
4935 Clouds 5 981 81 10000 7.72 160 18:22 12.12.2021
4936 Rain 5 979 81 10000 8.23 160 16:32 12.12.2021
4937 Clouds 5 979 81 8000 8.23 170 15:55 12.12.2021
4938 Rain 5 979 81 8000 8.23 170 15:28 12.12.2021
4939 Rain 5 978 81 10000 8.75 150 14:51 12.12.2021
4940 Rain 5 978 81 10000 8.75 150 14:18 12.12.2021
4941 Clouds 5 976 81 10000 6.17 160 12:48 12.12.2021
4942 Clouds 5 975 87 10000 5.66 170 11:59 12.12.2021
4943 Clouds 5 975 87 10000 5.66 170 11:32 12.12.2021
4944 Rain 5 973 87 10000 6.17 170 10:44 12.12.2021
4945 Rain 5 973 87 10000 6.17 170 10:20 12.12.2021
4946 Clouds 5 971 81 10000 7.72 130 08:46 12.12.2021
4947 Clouds 5 970 81 10000 8.23 150 07:28 12.12.2021
4948 Clouds 5 969 81 10000 7.2 160 05:29 12.12.2021
4949 Clouds 5 967 81 10000 4.63 140 04:51 12.12.2021
4950 Clouds 5 965 81 9000 7.2 120 00:57 12.12.2021
4951 Clouds 4 966 90 10000 7.72 110 23:26 11.12.2021
4952 Clouds 5 965 87 10000 10.29 120 22:21 11.12.2021
4953 Clouds 5 965 87 10000 8.23 120 21:35 11.12.2021
4954 Clouds 4 964 87 10000 7.72 80 20:19 11.12.2021
4955 Clouds 5 964 83 9000 8.23 100 19:21 11.12.2021
4956 Rain 4 964 85 8000 9.26 100 18:48 11.12.2021
4957 Clouds 4 965 86 8000 9.26 100 17:54 11.12.2021
4958 Clouds 5 965 75 10000 10.29 110 16:37 11.12.2021
4959 Clouds 4 966 81 10000 10.29 110 15:41 11.12.2021
4960 Clouds 5 967 75 10000 11.32 110 14:46 11.12.2021
4961 Clouds 5 968 75 10000 8.75 120 12:41 11.12.2021
4962 Clouds 4 969 81 10000 10.8 100 10:58 11.12.2021
4963 Rain 3 969 81 10000 11.83 100 09:44 11.12.2021
4964 Rain 2 976 87 6000 10.8 100 05:36 11.12.2021
4965 Clouds 1 987 75 10000 8.23 100 00:50 11.12.2021
4966 Clouds 1 988 64 10000 5.66 60 23:44 10.12.2021
4967 Clouds 1 989 69 10000 6.69 60 22:50 10.12.2021
4968 Clear 0 991 69 10000 5.14 70 21:51 10.12.2021
4969 Clear -2 992 74 10000 4.12 60 20:35 10.12.2021
4970 Clear -2 992 74 10000 4.12 80 19:19 10.12.2021
4971 Clear -3 993 80 10000 2.06 90 17:54 10.12.2021
4972 Clear -3 994 80 10000 2.57 70 16:41 10.12.2021
4973 Clear -3 994 80 10000 1.54 90 15:47 10.12.2021
4974 Clear -3 994 80 10000 1.54 90 15:28 10.12.2021
4975 Clear -3 994 86 10000 3.09 70 14:57 10.12.2021
4976 Clear -3 994 93 10000 1.54 90 13:50 10.12.2021
4977 Clear -3 994 93 10000 1.54 90 13:20 10.12.2021
4978 Clear -3 993 93 10000 3.09 110 12:23 10.12.2021
4979 Clear -3 993 93 10000 2.06 140 11:27 10.12.2021
4980 Mist -2 991 93 1100 1.03 0 09:54 10.12.2021
4981 Mist -2 991 93 1100 1.03 0 09:54 10.12.2021
4982 Fog -1 990 93 700 1.03 0 08:23 10.12.2021
4983 Clouds 0 988 93 10000 2.06 320 05:46 10.12.2021
4984 Clouds 1 985 93 10000 2.06 360 02:47 10.12.2021
4985 Snow 1 984 93 10000 2.57 340 23:44 09.12.2021
4986 Snow 0 983 93 10000 0 0 22:49 09.12.2021
4987 Snow 0 983 93 10000 0 0 22:23 09.12.2021
4988 Snow 1 983 86 10000 1.54 30 21:48 09.12.2021
4989 Rain 1 983 93 9000 0.51 0 20:40 09.12.2021
4990 Rain 1 983 93 9000 0.51 0 20:20 09.12.2021
4991 Rain 1 982 93 10000 2.57 110 19:21 09.12.2021
4992 Rain 2 982 87 10000 2.06 100 18:35 09.12.2021
4993 Rain 2 982 87 10000 1.54 90 17:51 09.12.2021
4994 Rain 2 982 87 10000 1.54 90 17:25 09.12.2021
4995 Rain 2 982 87 10000 1.54 90 17:25 09.12.2021
4996 Snow 2 981 87 10000 1.03 110 16:53 09.12.2021
4997 Snow 2 981 87 10000 1.03 0 15:31 09.12.2021
4998 Rain 2 981 87 10000 1.54 120 14:44 09.12.2021
4999 Clouds 3 980 75 10000 6.17 130 13:18 09.12.2021
5000 Clouds 3 980 81 10000 6.69 130 12:35 09.12.2021
5001 Snow 1 979 86 10000 10.29 80 10:58 09.12.2021
5002 Snow 1 981 75 10000 6.69 70 08:49 09.12.2021
5003 Snow 1 983 69 10000 9.26 90 06:19 09.12.2021
5004 Rain 1 987 69 10000 10.29 90 02:49 09.12.2021
5005 Snow 0 991 93 1800 8.23 100 23:43 08.12.2021
5006 Snow 0 991 93 1800 8.23 100 23:21 08.12.2021
5007 Snow 0 991 93 2500 10.29 100 22:46 08.12.2021
5008 Snow 1 992 86 2500 7.72 120 21:40 08.12.2021
5009 Snow 0 993 93 1500 10.29 100 20:59 08.12.2021
5010 Snow 1 993 86 8000 8.23 110 19:58 08.12.2021
5011 Snow 1 993 86 8000 8.23 110 19:58 08.12.2021
5012 Snow 1 993 86 8000 8.23 110 19:33 08.12.2021
5013 Snow 1 994 86 8000 8.75 100 18:31 08.12.2021
5014 Snow 0 994 93 9000 7.2 100 17:34 08.12.2021
5015 Snow 2 995 75 7000 9.26 110 15:47 08.12.2021
5016 Snow 2 995 75 7000 9.26 110 15:26 08.12.2021
5017 Snow 1 996 80 3000 7.2 110 14:28 08.12.2021
5018 Clouds 0 995 74 10000 6.17 100 10:55 08.12.2021
5019 Clouds 0 995 74 10000 6.17 100 10:28 08.12.2021
5020 Clouds 0 994 80 10000 5.66 90 08:54 08.12.2021
5021 Clear 0 994 80 10000 5.66 80 07:25 08.12.2021
5022 Snow -2 990 93 8000 6.69 80 02:30 08.12.2021
5023 Snow -2 989 80 1800 5.14 70 23:33 07.12.2021
5024 Clouds -2 988 93 10000 5.14 80 21:43 07.12.2021
5025 Clouds -2 988 93 10000 5.14 80 21:23 07.12.2021
5026 Snow -2 987 86 10000 4.63 110 20:20 07.12.2021
5027 Snow -2 986 74 10000 5.14 80 18:43 07.12.2021
5028 Clouds -2 986 74 10000 4.12 80 17:48 07.12.2021
5029 Clouds -2 986 74 10000 4.12 80 17:19 07.12.2021
5030 Clouds -2 986 74 10000 4.63 110 16:28 07.12.2021
5031 Clouds -1 986 69 10000 4.12 100 15:33 07.12.2021
5032 Clouds -2 986 74 10000 4.12 100 14:18 07.12.2021
5033 Clear -1 985 74 10000 3.09 110 12:49 07.12.2021
5034 Clear -2 985 80 10000 3.09 140 11:27 07.12.2021
5035 Clouds -2 985 74 10000 2.57 140 10:33 07.12.2021
5036 Clear -2 985 80 10000 2.57 140 08:26 07.12.2021
5037 Clear 1 985 69 10000 5.14 230 06:18 07.12.2021
5038 Clear 1 984 69 10000 5.14 210 05:33 07.12.2021
5039 Clouds 2 984 80 10000 8.23 280 23:47 06.12.2021
5040 Snow 1 984 86 10000 8.75 260 22:46 06.12.2021
5041 Snow 1 984 86 10000 8.75 260 22:23 06.12.2021
5042 Rain 2 984 87 10000 5.14 280 21:51 06.12.2021
5043 Rain 2 984 80 10000 4.63 270 20:33 06.12.2021
5044 Rain 2 984 87 9000 5.66 290 19:55 06.12.2021
5045 Rain 2 984 87 9000 5.66 290 19:20 06.12.2021
5046 Rain 2 984 87 10000 6.17 300 18:23 06.12.2021
5047 Rain 2 984 87 10000 5.66 290 17:40 06.12.2021
5048 Rain 2 984 87 10000 5.66 290 17:40 06.12.2021
5049 Rain 2 984 87 10000 2.06 200 16:32 06.12.2021
5050 Rain 2 985 87 10000 3.09 250 15:38 06.12.2021
5051 Clouds 2 985 75 10000 6.17 110 13:46 06.12.2021
5052 Clouds 3 984 75 10000 3.09 80 12:39 06.12.2021
5053 Clouds 3 985 81 10000 6.17 70 10:38 06.12.2021
5054 Clouds 3 985 81 10000 5.66 150 08:46 06.12.2021
5055 Clouds 4 984 75 10000 5.66 170 06:39 06.12.2021
5056 Clouds 5 985 81 10000 5.14 170 22:54 05.12.2021
5057 Clouds 5 984 87 7000 8.23 130 21:51 05.12.2021
5058 Clouds 5 984 87 7000 8.23 130 21:19 05.12.2021
5059 Rain 4 984 81 10000 15.95 120 20:19 05.12.2021
5060 Rain 4 985 81 7000 15.95 130 19:33 05.12.2021
5061 Rain 3 986 87 6000 16.98 120 18:47 05.12.2021
5062 Rain 3 986 87 6000 16.98 120 18:19 05.12.2021
5063 Rain 4 988 81 6000 16.98 110 17:48 05.12.2021
5064 Rain 4 990 75 7000 14.4 110 16:47 05.12.2021
5065 Rain 4 990 75 7000 14.4 110 16:26 05.12.2021
5066 Rain 3 993 81 8000 14.92 110 15:34 05.12.2021
5067 Rain 4 995 75 10000 18.01 120 14:37 05.12.2021
5068 Rain 4 995 75 10000 18.01 120 14:19 05.12.2021
5069 Rain 3 996 87 10000 19.03 130 13:22 05.12.2021
5070 Rain 4 997 70 10000 18.52 130 12:40 05.12.2021
5071 Rain 4 997 70 10000 18.52 130 12:18 05.12.2021
5072 Clouds 4 999 70 10000 14.4 120 11:29 05.12.2021
5073 Clouds 4 1002 65 10000 19.03 120 09:59 05.12.2021
5074 Clouds 2 1005 69 10000 8.23 110 08:24 05.12.2021
5075 Clear -2 1012 76 10000 6.17 80 03:27 05.12.2021
5076 Clear -3 1013 74 10000 4.63 90 23:45 04.12.2021
5077 Clouds -3 1013 74 10000 1.54 170 21:55 04.12.2021
5078 Clouds -5 1013 86 10000 1.54 0 20:57 04.12.2021
5079 Clouds -5 1013 90 10000 1.54 0 20:20 04.12.2021
5080 Clear -5 1013 93 10000 2.06 100 19:32 04.12.2021
5081 Clouds -4 1013 89 10000 1.03 0 18:21 04.12.2021
5082 Clear -4 1012 90 10000 1.03 0 17:39 04.12.2021
5083 Clear -4 1011 93 10000 0.51 0 16:51 04.12.2021
5084 Clear -4 1011 93 10000 0.51 0 16:31 04.12.2021
5085 Clouds -4 1010 93 10000 0 0 15:57 04.12.2021
5086 Clear -4 1005 93 10000 0.51 0 11:54 04.12.2021
5087 Clear -4 1005 93 10000 0.51 0 11:32 04.12.2021
5088 Clouds -4 1004 90 10000 1.03 90 10:56 04.12.2021
5089 Clouds -5 1001 93 10000 1.03 0 08:49 04.12.2021
5090 Clouds -5 998 86 10000 0.51 0 06:42 04.12.2021
5091 Clear -3 995 86 10000 3.09 100 04:42 04.12.2021
5092 Clear -3 990 86 10000 4.12 80 00:47 04.12.2021
5093 Clear -3 990 90 10000 3.09 100 23:27 03.12.2021
5094 Clear -2 989 86 10000 3.6 100 22:48 03.12.2021
5095 Clouds -2 988 86 10000 5.14 100 21:42 03.12.2021
5096 Clear -2 987 86 10000 5.66 90 20:55 03.12.2021
5097 Clear -2 987 86 10000 5.66 90 20:26 03.12.2021
5098 Clouds -1 986 86 10000 3.09 90 18:49 03.12.2021
5099 Snow -1 986 86 10000 3.09 90 18:20 03.12.2021
5100 Snow -1 985 93 10000 3.6 90 16:43 03.12.2021
5101 Snow 0 984 86 10000 3.6 100 13:27 03.12.2021
5102 Snow -1 984 93 10000 2.57 100 12:20 03.12.2021
5103 Snow -1 985 93 10000 2.06 70 10:58 03.12.2021
5104 Snow -1 985 86 10000 3.09 110 08:31 03.12.2021
5105 Clouds 0 985 80 10000 2.57 140 07:43 03.12.2021
5106 Clouds 0 985 80 10000 2.57 140 07:43 03.12.2021
5107 Clouds 1 985 75 10000 2.57 300 06:40 03.12.2021
5108 Clouds 2 986 80 10000 7.72 240 00:49 03.12.2021
5109 Snow 2 986 87 10000 6.17 220 23:48 02.12.2021
5110 Clouds 3 987 81 10000 7.72 220 22:48 02.12.2021
5111 Clouds 3 988 81 10000 7.2 220 21:41 02.12.2021
5112 Clouds 3 988 81 10000 8.23 200 20:45 02.12.2021
5113 Rain 3 988 81 10000 8.23 200 20:22 02.12.2021
5114 Rain 2 990 80 10000 8.75 220 18:50 02.12.2021
5115 Snow 2 992 87 10000 6.17 200 16:43 02.12.2021
5116 Clouds 3 993 81 10000 6.69 200 15:41 02.12.2021
5117 Clouds 3 993 81 10000 6.69 200 15:41 02.12.2021
5118 Clouds 3 995 81 10000 6.69 230 14:52 02.12.2021
5119 Clouds 2 996 87 10000 5.66 210 13:39 02.12.2021
5120 Clouds 3 997 81 10000 7.72 220 12:46 02.12.2021
5121 Rain 3 997 75 10000 4.12 180 11:45 02.12.2021
5122 Clouds 3 998 87 10000 3.6 210 09:27 02.12.2021
5123 Clouds 4 1000 93 6484 11.93 134 07:20 02.12.2021
5124 Snow 0 1009 86 5000 8.75 110 01:28 02.12.2021
5125 Snow -1 1011 86 7000 8.23 100 00:50 02.12.2021
5126 Snow -1 1014 69 7000 6.69 90 22:32 01.12.2021
5127 Snow -1 1015 69 10000 6.69 80 21:54 01.12.2021
5128 Snow -2 1016 64 10000 6.17 80 20:24 01.12.2021
5129 Snow -2 1017 69 10000 6.17 80 19:47 01.12.2021
5130 Clear -2 1018 64 10000 5.66 80 18:55 01.12.2021
5131 Clear -3 1018 68 10000 4.12 80 17:32 01.12.2021
5132 Clear -4 1019 74 10000 3.09 110 16:36 01.12.2021
5133 Clear -5 1018 80 10000 3.6 90 14:48 01.12.2021
5134 Clear -5 1018 80 10000 3.6 120 13:38 01.12.2021
5135 Clouds -7 1018 86 10000 1.54 170 11:26 01.12.2021
5136 Clouds -8 1017 86 10000 2.06 160 10:40 01.12.2021
5137 Clear -8 1016 86 10000 1.54 140 08:53 01.12.2021
5138 Clear -8 1016 86 10000 1.54 140 08:26 01.12.2021
5139 Clear -7 1014 79 10000 2.57 120 07:32 01.12.2021
5140 Clear -3 1013 68 10000 4.12 20 04:18 01.12.2021
5141 Clouds -3 1013 79 10000 4.12 340 03:32 01.12.2021
5142 Clear -2 1010 74 10000 4.12 360 00:48 01.12.2021
5143 Clouds -3 1009 86 10000 3.09 10 23:35 30.11.2021
5144 Snow -3 1009 93 5000 0 0 22:42 30.11.2021
5145 Snow -2 1008 86 2500 1.03 0 20:53 30.11.2021
5146 Snow -2 1008 80 10000 2.57 340 20:34 30.11.2021
5147 Snow -2 1007 74 10000 3.09 350 19:51 30.11.2021
5148 Snow -2 1007 74 10000 3.09 350 19:27 30.11.2021
5149 Clouds -2 1007 74 10000 2.57 340 18:24 30.11.2021
5150 Clouds -2 1005 80 10000 6.69 20 16:25 30.11.2021
5151 Clouds -1 1003 74 10000 8.23 350 14:35 30.11.2021
5152 Clouds 0 1001 80 10000 6.69 350 13:52 30.11.2021
5153 Clouds 0 1001 80 10000 6.69 350 13:24 30.11.2021
5154 Clouds 0 1001 80 10000 6.69 350 13:24 30.11.2021
5155 Snow 0 1001 86 10000 4.63 350 12:44 30.11.2021
5156 Snow 1 1000 86 10000 3.6 10 11:27 30.11.2021
5157 Snow 1 1000 86 3000 4.12 10 10:47 30.11.2021
5158 Snow 1 1000 86 3000 4.12 10 10:29 30.11.2021
5159 Snow 0 1000 86 10000 5.14 50 08:51 30.11.2021
5160 Snow 0 1000 86 10000 5.14 50 08:20 30.11.2021
5161 Snow 0 1000 86 10000 5.14 50 07:39 30.11.2021
5162 Snow 1 1004 80 10000 3.09 110 01:52 30.11.2021
5163 Snow 1 1004 80 10000 3.09 110 01:32 30.11.2021
5164 Snow 0 1004 93 10000 3.09 90 23:57 29.11.2021
5165 Snow 0 1004 93 10000 3.09 90 23:21 29.11.2021
5166 Snow 0 1005 93 10000 3.09 60 22:44 29.11.2021
5167 Snow 0 1005 93 10000 3.09 60 22:25 29.11.2021
5168 Snow 0 1004 93 10000 4.63 70 21:22 29.11.2021
5169 Snow -1 1005 93 3800 4.12 50 20:56 29.11.2021
5170 Snow -1 1005 93 3800 4.12 50 20:22 29.11.2021
5171 Snow -1 1006 93 1600 4.63 50 19:50 29.11.2021
5172 Snow -1 1006 93 1600 4.63 50 19:26 29.11.2021
5173 Snow -1 1005 97 99 5.16 114 18:47 29.11.2021
5174 Snow 0 1007 97 124 2.64 70 17:22 29.11.2021
5175 Snow 0 1007 97 124 2.64 70 16:57 29.11.2021
5176 Snow 0 1007 97 139 3.12 53 16:28 29.11.2021
5177 Snow 0 1008 94 259 2.27 70 15:27 29.11.2021
5178 Snow 0 1008 94 259 2.27 70 14:42 29.11.2021
5179 Snow 1 1008 79 10000 2.71 82 13:28 29.11.2021
5180 Snow 1 1008 80 10000 3.04 66 12:22 29.11.2021
5181 Snow 1 1008 80 10000 3.03 66 11:31 29.11.2021
5182 Clouds 1 1008 76 10000 2.76 31 10:32 29.11.2021
5183 Clear 1 1006 86 10000 2.06 220 08:45 29.11.2021
5184 Clouds 3 1003 87 10000 5.14 10 05:58 29.11.2021
5185 Drizzle 4 1000 100 1000 3.09 300 01:35 29.11.2021
5186 Clouds 5 1000 93 2000 4.12 280 00:38 29.11.2021
5187 Clouds 5 1000 93 2000 1.03 0 23:43 28.11.2021
5188 Clouds 5 1000 93 2000 1.03 0 22:42 28.11.2021
5189 Drizzle 5 1000 93 1500 2.57 220 21:41 28.11.2021
5190 Drizzle 5 1000 93 2700 4.63 190 20:58 28.11.2021
5191 Clouds 5 1000 87 4000 4.63 160 19:55 28.11.2021
5192 Drizzle 4 1001 87 5000 7.2 150 18:45 28.11.2021
5193 Clouds 4 1001 87 5000 7.2 150 18:27 28.11.2021
5194 Rain 4 1002 87 4200 5.14 120 17:49 28.11.2021
5195 Drizzle 4 1002 87 4200 5.14 120 17:30 28.11.2021
5196 Rain 3 1003 93 4000 3.09 50 16:28 28.11.2021
5197 Drizzle 4 1003 81 5000 4.63 70 15:53 28.11.2021
5198 Drizzle 4 1003 81 5000 4.63 70 15:24 28.11.2021
5199 Clouds 3 1005 81 10000 4.63 70 14:43 28.11.2021
5200 Drizzle 1 1007 93 8000 4.12 80 12:58 28.11.2021
5201 Drizzle 1 1007 93 8000 4.12 80 12:29 28.11.2021
5202 Drizzle 2 1008 80 8000 3.6 80 10:54 28.11.2021
5203 Drizzle 2 1008 80 8000 3.6 80 10:20 28.11.2021
5204 Drizzle 2 1008 80 10000 4.12 90 09:37 28.11.2021
5205 Snow 2 1010 75 10000 1.03 0 06:30 28.11.2021
5206 Clear 1 1012 86 10000 1.03 0 23:37 27.11.2021
5207 Clear 1 1012 86 10000 2.06 30 20:44 27.11.2021
5208 Clear 1 1011 86 10000 1.03 0 18:57 27.11.2021
5209 Clouds 1 1011 86 10000 3.09 70 16:52 27.11.2021
5210 Clouds 1 1011 86 10000 3.09 70 15:56 27.11.2021
5211 Clouds 0 1012 86 10000 3.6 60 13:47 27.11.2021
5212 Clouds 0 1013 86 10000 3.6 60 12:31 27.11.2021
5213 Snow 0 1014 86 10000 5.66 80 10:42 27.11.2021
5214 Snow -1 1015 80 10000 4.63 70 09:51 27.11.2021
5215 Snow -1 1016 80 10000 5.66 80 08:40 27.11.2021
5216 Clouds -1 1018 74 10000 3.09 70 05:18 27.11.2021
5217 Clouds -1 1023 59 10000 3.6 90 01:55 27.11.2021
5218 Clouds -3 1025 63 10000 3.09 100 23:35 26.11.2021
5219 Clouds -4 1026 63 10000 3.09 110 22:25 26.11.2021
5220 Clear -4 1027 63 10000 2.06 100 21:36 26.11.2021
5221 Clear -5 1027 68 10000 2.06 130 20:53 26.11.2021
5222 Clear -5 1027 68 10000 2.06 130 20:19 26.11.2021
5223 Clear -5 1027 68 10000 1.03 110 19:47 26.11.2021
5224 Clear -4 1027 63 10000 2.06 110 18:39 26.11.2021
5225 Clear -4 1027 68 10000 2.57 120 17:23 26.11.2021
5226 Clear -3 1028 68 10000 2.57 160 15:57 26.11.2021
5227 Clear -2 1027 54 10000 1.54 50 13:36 26.11.2021
5228 Clear -2 1027 54 10000 2.57 70 12:40 26.11.2021
5229 Clear -3 1025 63 10000 1.54 100 10:38 26.11.2021
5230 Clouds -2 1023 64 10000 6.69 10 08:59 26.11.2021
5231 Clouds -2 1023 64 10000 6.69 10 08:21 26.11.2021
5232 Clouds -2 1022 64 10000 8.23 360 07:33 26.11.2021
5233 Clouds -1 1021 59 10000 6.69 10 06:28 26.11.2021
5234 Clear -1 1018 59 10000 11.32 10 04:51 26.11.2021
5235 Clear -2 1018 68 10000 7.2 10 03:26 26.11.2021
5236 Clear 0 1014 59 10000 4.12 70 23:27 25.11.2021
5237 Clouds 1 1011 75 10000 7.72 360 21:50 25.11.2021
5238 Clouds 2 1009 75 10000 7.72 330 20:40 25.11.2021
5239 Clouds 2 1007 80 10000 6.69 350 18:49 25.11.2021
5240 Clouds 4 1006 75 10000 6.69 320 17:58 25.11.2021
5241 Clouds 4 1006 75 10000 6.69 320 17:26 25.11.2021
5242 Clouds 5 1005 81 10000 7.2 310 16:38 25.11.2021
5243 Clouds 5 1005 87 10000 5.14 300 15:58 25.11.2021
5244 Clouds 5 1005 87 10000 2.06 300 14:19 25.11.2021
5245 Rain 5 1008 87 10000 4.12 270 12:47 25.11.2021
5246 Rain 5 1009 87 10000 4.12 260 11:55 25.11.2021
5247 Rain 5 1011 81 10000 7.2 270 10:25 25.11.2021
5248 Clouds 5 1016 75 10000 9.26 270 06:24 25.11.2021
5249 Clouds 1 1023 93 10000 6.17 160 02:53 25.11.2021
5250 Snow 0 1030 74 10000 5.66 160 23:39 24.11.2021
5251 Clouds 0 1033 74 10000 3.09 160 22:28 24.11.2021
5252 Clouds -1 1034 74 10000 3.09 150 21:45 24.11.2021
5253 Clouds -1 1035 69 10000 2.57 140 20:58 24.11.2021
5254 Clouds -1 1035 69 10000 2.57 140 20:26 24.11.2021
5255 Clouds -2 1036 74 10000 2.06 120 18:58 24.11.2021
5256 Clouds -2 1036 74 10000 2.06 120 18:18 24.11.2021
5257 Clouds -1 1037 64 10000 3.6 350 16:20 24.11.2021
5258 Clouds 0 1037 64 10000 5.66 350 14:56 24.11.2021
5259 Clouds 0 1037 64 10000 5.66 350 14:21 24.11.2021
5260 Clouds -1 1036 74 10000 7.2 340 12:51 24.11.2021
5261 Clouds 0 1035 69 10000 8.23 340 11:22 24.11.2021
5262 Clouds 0 1033 74 10000 8.23 340 10:50 24.11.2021
5263 Clouds 0 1033 74 10000 8.23 340 10:27 24.11.2021
5264 Clouds 0 1028 69 10000 9.77 350 07:59 24.11.2021
5265 Clouds 0 1026 74 10000 12.35 340 06:59 24.11.2021
5266 Clouds 1 1020 75 10000 13.38 340 03:59 24.11.2021
5267 Clouds 1 1016 75 10000 9.77 340 01:36 24.11.2021
5268 Clouds 1 1012 69 10000 7.72 360 23:30 23.11.2021
5269 Clouds 1 1010 75 10000 8.75 10 22:34 23.11.2021
5270 Clouds 1 1009 75 10000 7.2 30 21:45 23.11.2021
5271 Clouds 0 1008 93 10000 1.54 250 20:21 23.11.2021
5272 Snow 1 1007 86 10000 3.6 350 19:22 23.11.2021
5273 Snow 0 1006 93 10000 2.06 120 18:33 23.11.2021
5274 Snow 1 1006 86 1000 2.57 200 17:23 23.11.2021
5275 Snow 1 1005 86 10000 1.03 0 16:35 23.11.2021
5276 Snow 1 1006 86 900 3.09 260 15:25 23.11.2021
5277 Rain 2 1006 93 10000 1.54 200 14:39 23.11.2021
5278 Clouds 2 1006 87 10000 3.09 220 12:53 23.11.2021
5279 Clouds 3 1007 81 10000 4.12 170 10:26 23.11.2021
5280 Clouds 3 1007 75 10000 7.2 230 09:45 23.11.2021
5281 Clouds 3 1008 81 10000 2.57 150 07:51 23.11.2021
5282 Clouds 4 1008 81 10000 5.14 200 04:38 23.11.2021
5283 Clouds 4 1009 75 10000 4.12 220 03:27 23.11.2021
5284 Clouds 4 1009 75 10000 5.14 220 23:26 22.11.2021
5285 Clouds 5 1009 70 10000 6.69 230 22:56 22.11.2021
5286 Clouds 5 1009 70 10000 6.69 230 22:30 22.11.2021
5287 Clouds 5 1009 75 10000 7.2 240 21:44 22.11.2021
5288 Clouds 5 1009 75 10000 7.2 240 21:18 22.11.2021
5289 Clouds 6 1008 75 10000 7.2 240 20:23 22.11.2021
5290 Clouds 6 1007 75 10000 10.29 250 19:20 22.11.2021
5291 Drizzle 7 1006 87 5000 10.29 230 18:40 22.11.2021
5292 Mist 8 1006 87 6000 13.38 200 17:46 22.11.2021
5293 Drizzle 8 1006 87 2100 14.4 200 16:30 22.11.2021
5294 Drizzle 8 1009 87 3400 11.83 190 14:28 22.11.2021
5295 Mist 7 1012 87 2600 9.77 180 12:47 22.11.2021
5296 Drizzle 6 1015 87 10000 6.17 180 10:45 22.11.2021
5297 Rain 6 1016 87 10000 6.17 180 09:56 22.11.2021
5298 Clouds 5 1017 87 10000 5.14 160 08:41 22.11.2021
5299 Clouds 5 1017 81 10000 4.12 160 07:24 22.11.2021
5300 Clouds 4 1021 90 10000 5.66 210 00:21 22.11.2021
5301 Drizzle 4 1021 94 10000 5.66 210 22:54 21.11.2021
5302 Drizzle 4 1021 94 10000 5.66 210 22:26 21.11.2021
5303 Drizzle 5 1022 90 7000 7.2 240 20:42 21.11.2021
5304 Drizzle 5 1022 90 7000 7.2 240 20:42 21.11.2021
5305 Drizzle 5 1022 90 7000 7.2 240 20:22 21.11.2021
5306 Drizzle 5 1022 84 10000 7.72 240 18:49 21.11.2021
5307 Clouds 6 1023 86 10000 6.69 250 17:40 21.11.2021
5308 Clouds 6 1023 87 10000 6.69 250 17:19 21.11.2021
5309 Clouds 6 1023 94 8000 7.72 230 14:48 21.11.2021
5310 Drizzle 6 1023 95 4500 7.72 230 13:57 21.11.2021
5311 Mist 6 1023 95 4000 5.66 220 12:55 21.11.2021
5312 Mist 6 1023 95 4000 5.66 220 12:19 21.11.2021
5313 Rain 6 1023 91 4000 5.66 210 11:36 21.11.2021
5314 Rain 5 1025 96 929 4.02 242 10:19 21.11.2021
5315 Rain 4 1024 94 8000 4.12 170 09:44 21.11.2021
5316 Rain 3 1024 90 10000 5.14 120 08:31 21.11.2021
5317 Rain 2 1025 85 10000 5.66 140 07:51 21.11.2021
5318 Snow 1 1026 80 10000 7.2 140 06:26 21.11.2021
5319 Snow 1 1027 75 10000 5.14 120 05:41 21.11.2021
5320 Snow -1 1030 84 8000 3.09 90 03:22 21.11.2021
5321 Snow 0 1030 81 10000 4.12 90 02:55 21.11.2021
5322 Snow -1 1031 81 10000 4.12 100 01:25 21.11.2021
5323 Clouds -1 1031 77 10000 2.57 110 00:42 21.11.2021
5324 Snow -1 1030 74 10000 2.57 120 22:30 20.11.2021
5325 Snow -1 1030 69 10000 2.57 110 21:32 20.11.2021
5326 Clear 0 1030 69 10000 2.06 360 19:56 20.11.2021
5327 Clear 0 1029 64 10000 3.6 350 18:45 20.11.2021
5328 Clear 0 1029 64 10000 3.6 350 18:23 20.11.2021
5329 Clouds 0 1029 59 10000 5.66 350 17:22 20.11.2021
5330 Clouds 0 1026 69 10000 4.63 20 14:57 20.11.2021
5331 Clouds 0 1026 69 10000 4.63 20 14:28 20.11.2021
5332 Clouds 1 1025 64 10000 4.63 10 13:53 20.11.2021
5333 Clouds 0 1023 74 10000 5.14 10 11:46 20.11.2021
5334 Clouds 0 1020 79 10000 6.17 350 09:57 20.11.2021
5335 Clear 0 1018 78 10000 7.2 360 08:40 20.11.2021
5336 Clear 0 1014 82 10000 6.17 360 06:50 20.11.2021
5337 Clouds 0 1012 78 10000 6.42 5 05:18 20.11.2021
5338 Clouds 2 1009 75 10000 8.23 10 04:49 20.11.2021
5339 Clouds 4 1006 91 10000 3.09 190 00:43 20.11.2021
5340 Clouds 4 1005 91 10000 4.12 200 23:57 19.11.2021
5341 Clouds 4 1005 90 10000 6.17 210 22:54 19.11.2021
5342 Clouds 4 1004 85 10000 5.14 190 21:29 19.11.2021
5343 Clouds 4 1004 86 10000 5.14 190 20:43 19.11.2021
5344 Clouds 4 1004 86 10000 5.14 190 20:25 19.11.2021
5345 Clouds 4 1003 85 10000 4.12 190 19:46 19.11.2021
5346 Clouds 4 1003 89 10000 4.63 190 18:48 19.11.2021
5347 Clouds 4 1002 90 10000 6.69 200 17:45 19.11.2021
5348 Clouds 4 1002 86 10000 4.12 140 16:43 19.11.2021
5349 Clouds 4 1002 89 10000 4.12 160 15:22 19.11.2021
5350 Rain 3 1001 86 10000 4.63 160 11:54 19.11.2021
5351 Rain 2 1000 90 10000 3.6 150 10:25 19.11.2021
5352 Clouds 2 1000 90 10000 2.57 170 08:39 19.11.2021
5353 Clouds 3 998 81 10000 4.63 170 06:29 19.11.2021
5354 Clouds 3 997 87 10000 4.63 190 04:19 19.11.2021
5355 Drizzle 1 993 93 9000 2.06 170 23:55 18.11.2021
5356 Rain 1 993 93 9000 2.06 170 23:29 18.11.2021
5357 Rain 2 992 87 10000 1.03 160 21:21 18.11.2021
5358 Rain 2 991 87 9000 0.51 110 20:46 18.11.2021
5359 Rain 2 991 87 9000 0.51 110 20:23 18.11.2021
5360 Rain 2 991 93 10000 2.57 70 19:42 18.11.2021
5361 Rain 3 991 87 7000 3.09 70 18:38 18.11.2021
5362 Rain 3 991 87 6000 2.57 50 17:53 18.11.2021
5363 Rain 3 991 87 6000 2.57 50 17:31 18.11.2021
5364 Rain 4 991 81 4000 3.09 90 16:42 18.11.2021
5365 Rain 4 992 81 10000 3.6 70 15:23 18.11.2021
5366 Rain 4 992 81 10000 3.6 70 15:23 18.11.2021
5367 Rain 4 994 81 10000 3.6 130 13:21 18.11.2021
5368 Drizzle 3 994 87 10000 2.57 100 11:45 18.11.2021
5369 Drizzle 3 994 87 10000 2.57 100 11:26 18.11.2021
5370 Clouds 3 994 81 10000 4.12 90 10:55 18.11.2021
5371 Clouds 2 994 87 10000 6.69 80 09:28 18.11.2021
5372 Clouds 2 995 80 10000 7.2 80 07:31 18.11.2021
5373 Rain 1 995 80 10000 6.69 80 05:47 18.11.2021
5374 Snow -1 995 93 7000 7.72 70 02:46 18.11.2021
5375 Snow -1 995 93 5000 7.72 70 01:21 18.11.2021
5376 Snow -2 996 92 1800 6.17 70 22:41 17.11.2021
5377 Snow -2 997 92 1800 6.17 70 22:20 17.11.2021
5378 Snow 0 997 70 9000 6.17 80 21:36 17.11.2021
5379 Snow 0 996 59 10000 7.2 80 20:18 17.11.2021
5380 Clear -1 1000 69 10000 5.14 80 17:48 17.11.2021
5381 Clear -1 1000 69 10000 5.14 80 17:23 17.11.2021
5382 Clear -1 1002 74 10000 4.12 60 14:18 17.11.2021
5383 Clear -2 1002 74 10000 1.54 0 12:39 17.11.2021
5384 Clear -2 1002 80 10000 1.54 110 11:41 17.11.2021
5385 Clear -2 1002 74 10000 2.57 120 10:28 17.11.2021
5386 Clear -1 1002 74 10000 3.09 70 09:23 17.11.2021
5387 Clear -2 1001 80 10000 2.57 110 07:42 17.11.2021
5388 Clear -1 998 80 10000 1.03 0 03:35 17.11.2021
5389 Clear 1 997 69 10000 3.09 350 01:18 17.11.2021
5390 Clear 1 994 83 10000 2.57 340 22:54 16.11.2021
5391 Clouds 2 991 86 10000 4.63 350 20:37 16.11.2021
5392 Clouds 2 991 86 10000 4.63 350 20:18 16.11.2021
5393 Clouds 2 991 86 10000 4.63 350 20:18 16.11.2021
5394 Clouds 3 988 83 10000 6.69 320 18:53 16.11.2021
5395 Clouds 3 988 83 10000 6.69 320 18:30 16.11.2021
5396 Clouds 3 986 87 10000 7.2 320 17:38 16.11.2021
5397 Clouds 2 984 94 10000 9.77 300 16:37 16.11.2021
5398 Clouds 3 982 91 8000 14.92 260 15:50 16.11.2021
5399 Clouds 3 982 90 8000 14.92 260 15:26 16.11.2021
5400 Snow 1 979 93 5000 4.12 170 11:29 16.11.2021
5401 Snow 2 977 87 10000 3.6 210 09:46 16.11.2021
5402 Snow 1 977 93 9000 5.66 210 08:27 16.11.2021
5403 Clouds 1 977 93 10000 5.14 170 07:32 16.11.2021
5404 Rain 2 979 80 10000 6.17 190 02:20 16.11.2021
5405 Snow 2 980 75 10000 11.83 190 23:22 15.11.2021
5406 Rain 1 981 86 10000 10.8 190 22:33 15.11.2021
5407 Snow 2 981 80 8000 10.8 190 21:53 15.11.2021
5408 Clouds 2 981 80 8000 10.8 190 21:28 15.11.2021
5409 Clouds 2 981 80 10000 11.32 210 19:42 15.11.2021
5410 Rain 2 981 80 5000 9.26 210 18:47 15.11.2021
5411 Clouds 4 982 70 10000 9.26 200 16:54 15.11.2021
5412 Rain 5 982 60 10000 8.23 210 15:42 15.11.2021
5413 Rain 5 982 60 10000 8.23 210 15:24 15.11.2021
5414 Clouds 5 983 81 10000 5.66 200 13:32 15.11.2021
5415 Clouds 5 984 75 10000 6.17 160 11:53 15.11.2021
5416 Rain 4 986 70 10000 4.63 140 09:28 15.11.2021
5417 Clouds 4 988 75 10000 7.2 200 07:55 15.11.2021
5418 Rain 2 988 80 10000 12.86 200 05:23 15.11.2021
5419 Rain 2 990 80 10000 8.75 190 00:18 15.11.2021
5420 Snow 2 990 81 10000 10.8 200 22:38 14.11.2021
5421 Clouds 3 990 75 10000 10.29 190 20:32 14.11.2021
5422 Clouds 3 990 78 10000 12.35 180 19:18 14.11.2021
5423 Snow 3 990 81 10000 10.29 190 18:54 14.11.2021
5424 Clouds 3 990 82 10000 10.29 190 18:36 14.11.2021
5425 Clouds 3 990 84 10000 10.29 190 18:18 14.11.2021
5426 Clouds 2 990 87 9000 9.77 200 17:57 14.11.2021
5427 Clouds 2 990 84 9000 9.77 200 17:39 14.11.2021
5428 Clouds 3 990 74 10000 9.26 180 17:21 14.11.2021
5429 Clouds 4 989 70 10000 8.75 180 16:49 14.11.2021
5430 Clouds 4 989 70 10000 8.75 180 16:21 14.11.2021
5431 Clouds 4 989 70 10000 10.29 190 15:46 14.11.2021
5432 Clouds 4 989 70 10000 10.29 190 15:18 14.11.2021
5433 Clouds 5 988 65 10000 9.77 200 14:32 14.11.2021
5434 Rain 4 988 81 10000 11.32 210 13:59 14.11.2021
5435 Clouds 4 988 81 10000 11.32 210 13:40 14.11.2021
5436 Clouds 5 986 70 10000 7.2 200 12:29 14.11.2021
5437 Clouds 5 985 75 10000 9.77 200 11:58 14.11.2021
5438 Drizzle 6 983 75 10000 10.29 210 10:50 14.11.2021
5439 Drizzle 6 983 75 10000 10.29 210 10:27 14.11.2021
5440 Clouds 8 979 87 10000 12.86 190 08:57 14.11.2021
5441 Clouds 9 978 81 9000 12.35 170 07:28 14.11.2021
5442 Clouds 10 982 81 8000 14.92 150 01:25 14.11.2021
5443 Rain 10 985 81 9000 13.38 140 22:27 13.11.2021
5444 Clouds 10 987 81 10000 13.38 140 21:57 13.11.2021
5445 Clouds 10 988 88 10000 13.38 140 21:27 13.11.2021
5446 Clouds 9 988 91 10000 10.8 130 20:24 13.11.2021
5447 Clouds 9 990 81 4900 16.98 120 18:48 13.11.2021
5448 Clouds 9 990 81 4900 16.98 120 18:26 13.11.2021
5449 Rain 9 992 76 3400 18.01 120 16:48 13.11.2021
5450 Rain 9 994 76 3000 12.35 110 15:41 13.11.2021
5451 Rain 7 996 70 10000 13.89 110 14:34 13.11.2021
5452 Rain 7 998 65 10000 10.8 100 13:46 13.11.2021
5453 Clouds 6 1000 65 10000 8.75 90 12:38 13.11.2021
5454 Clouds 6 1002 61 10000 11.32 90 11:39 13.11.2021
5455 Clouds 5 1003 65 10000 7.72 90 10:45 13.11.2021
5456 Clouds 5 1003 65 10000 7.72 90 10:23 13.11.2021
5457 Clouds 5 1003 65 10000 7.72 90 10:23 13.11.2021
5458 Clear 6 1004 61 10000 10.29 80 09:39 13.11.2021
5459 Clear 4 1006 65 10000 7.72 90 08:59 13.11.2021
5460 Clear 4 1006 65 10000 7.72 90 08:40 13.11.2021
5461 Clear 3 1008 65 10000 7.2 70 06:55 13.11.2021
5462 Clear 4 1009 60 10000 7.2 100 04:34 13.11.2021
5463 Clear 3 1010 60 10000 6.17 80 01:55 13.11.2021
5464 Clear 2 1011 60 10000 4.12 70 23:23 12.11.2021
5465 Clear 2 1011 60 10000 4.63 90 21:51 12.11.2021
5466 Clear 2 1012 60 10000 3.6 80 20:20 12.11.2021
5467 Clear 2 1012 55 10000 4.12 90 19:31 12.11.2021
5468 Clear 2 1012 55 10000 3.6 80 18:53 12.11.2021
5469 Clear 1 1012 60 10000 3.6 90 17:34 12.11.2021
5470 Clear 2 1012 60 10000 2.06 100 15:51 12.11.2021
5471 Clear 2 1011 55 10000 4.63 80 13:25 12.11.2021
5472 Clear -1 1012 74 10000 2.57 110 11:23 12.11.2021
5473 Clear 1 1011 64 10000 4.12 80 09:54 12.11.2021
5474 Clear 1 1012 64 10000 3.6 90 08:45 12.11.2021
5475 Clear 0 1011 69 10000 4.12 90 06:34 12.11.2021
5476 Clear 2 1011 69 10000 5.14 90 23:55 11.11.2021
5477 Clear 2 1011 69 10000 4.63 100 22:46 11.11.2021
5478 Clear 2 1011 69 10000 6.69 100 21:43 11.11.2021
5479 Clear 3 1011 65 10000 4.63 100 20:51 11.11.2021
5480 Clouds 3 1010 65 10000 5.14 90 19:48 11.11.2021
5481 Clouds 3 1010 65 10000 5.14 100 18:25 11.11.2021
5482 Clouds 3 1010 70 10000 6.69 90 17:40 11.11.2021
5483 Clouds 3 1010 70 10000 5.14 90 15:21 11.11.2021
5484 Clouds 3 1011 65 10000 4.63 80 14:39 11.11.2021
5485 Clouds 3 1011 65 10000 4.63 80 14:20 11.11.2021
5486 Clouds 2 1010 64 10000 5.66 80 13:35 11.11.2021
5487 Clouds 1 1010 64 10000 4.63 70 12:26 11.11.2021
5488 Clouds 1 1010 60 10000 5.66 90 09:55 11.11.2021
5489 Clouds 1 1010 60 10000 4.63 80 08:47 11.11.2021
5490 Clouds 0 1009 64 10000 5.66 70 06:45 11.11.2021
5491 Clear -1 1007 74 10000 2.57 110 00:38 11.11.2021
5492 Clear 0 1005 80 10000 2.57 130 22:42 10.11.2021
5493 Clear 0 1004 80 10000 2.06 140 21:53 10.11.2021
5494 Clear 1 1003 75 10000 2.06 180 20:55 10.11.2021
5495 Clear 1 1003 75 10000 2.06 180 20:18 10.11.2021
5496 Clear 2 1001 69 10000 3.09 340 19:39 10.11.2021
5497 Clouds 3 998 70 10000 4.12 360 17:22 10.11.2021
5498 Clouds 3 996 75 10000 7.2 20 15:46 10.11.2021
5499 Clouds 3 994 75 10000 6.17 10 14:24 10.11.2021
5500 Clouds 3 994 81 10000 2.06 20 13:37 10.11.2021
5501 Clouds 3 992 75 10000 6.17 10 12:24 10.11.2021
5502 Clouds 2 989 87 10000 1.54 80 09:21 10.11.2021
5503 Clouds 2 989 93 10000 2.57 10 08:41 10.11.2021
5504 Clouds 2 987 87 10000 3.09 300 06:50 10.11.2021
5505 Rain 2 987 87 10000 2.57 310 05:58 10.11.2021
5506 Drizzle 2 986 87 10000 2.06 290 04:58 10.11.2021
5507 Clouds 3 982 81 10000 6.17 230 22:29 09.11.2021
5508 Drizzle 3 981 75 10000 7.2 250 20:50 09.11.2021
5509 Clouds 3 979 87 10000 5.66 260 19:36 09.11.2021
5510 Clouds 4 978 87 10000 3.09 190 18:50 09.11.2021
5511 Clouds 4 978 81 10000 2.06 260 17:22 09.11.2021
5512 Clouds 4 977 81 10000 2.57 300 15:37 09.11.2021
5513 Clouds 4 974 81 10000 3.09 10 13:53 09.11.2021
5514 Clouds 3 973 87 10000 1.54 0 12:49 09.11.2021
5515 Clouds 4 972 87 10000 1.03 0 11:33 09.11.2021
5516 Clouds 5 971 81 10000 2.06 20 10:30 09.11.2021
5517 Clouds 5 970 81 10000 4.63 70 09:21 09.11.2021
5518 Clouds 5 969 81 10000 6.69 70 07:54 09.11.2021
5519 Rain 5 969 90 10000 4.63 90 03:45 09.11.2021
5520 Clouds 6 970 81 10000 5.14 120 01:58 09.11.2021
5521 Clouds 6 970 81 10000 5.14 120 01:36 09.11.2021
5522 Clouds 6 971 81 10000 5.66 120 23:32 08.11.2021
5523 Clouds 6 972 81 10000 6.17 140 22:47 08.11.2021
5524 Rain 7 972 81 10000 4.63 140 21:45 08.11.2021
5525 Rain 6 973 87 10000 7.2 150 20:36 08.11.2021
5526 Rain 6 973 81 10000 7.72 150 19:43 08.11.2021
5527 Rain 6 975 75 10000 6.69 130 17:48 08.11.2021
5528 Clouds 6 978 75 10000 6.69 140 15:58 08.11.2021
5529 Rain 6 979 81 10000 7.2 140 14:57 08.11.2021
5530 Clouds 6 979 81 10000 7.2 140 14:34 08.11.2021
5531 Clouds 6 980 81 10000 6.69 150 13:20 08.11.2021
5532 Clouds 6 982 81 8000 8.23 160 11:55 08.11.2021
5533 Rain 6 982 81 10000 6.69 130 10:50 08.11.2021
5534 Rain 6 983 81 10000 6.17 120 09:31 08.11.2021
5535 Clouds 5 984 81 10000 6.17 120 08:52 08.11.2021
5536 Clouds 4 984 81 10000 10.8 100 06:56 08.11.2021
5537 Clouds 4 984 81 10000 10.8 100 06:56 08.11.2021
5538 Snow 2 990 91 10000 10.29 80 03:38 08.11.2021
5539 Snow 2 990 91 10000 10.29 80 03:19 08.11.2021
5540 Snow 2 999 86 10000 7.2 90 23:33 07.11.2021
5541 Snow 2 1005 75 10000 6.17 90 21:31 07.11.2021
5542 Drizzle 2 1007 64 10000 6.17 70 20:36 07.11.2021
5543 Clouds 2 1007 64 10000 5.14 70 19:19 07.11.2021
5544 Clear 1 1010 64 10000 5.66 60 17:47 07.11.2021
5545 Clear 1 1012 64 10000 4.12 80 16:44 07.11.2021
5546 Clear 1 1012 64 10000 2.57 90 15:42 07.11.2021
5547 Clear 0 1013 74 10000 1.54 100 14:28 07.11.2021
5548 Clear 0 1014 74 10000 1.03 120 12:57 07.11.2021
5549 Clear -1 1014 80 10000 1.03 0 11:42 07.11.2021
5550 Clear 1 1014 75 10000 5.66 20 09:22 07.11.2021
5551 Clouds 2 1010 80 10000 6.17 330 04:33 07.11.2021
5552 Clouds 2 1009 86 10000 6.69 320 02:32 07.11.2021
5553 Clouds 3 1004 81 10000 6.17 330 22:57 06.11.2021
5554 Clouds 3 1004 81 10000 6.17 330 22:32 06.11.2021
5555 Rain 3 1003 87 10000 6.69 320 21:28 06.11.2021
5556 Rain 3 1002 87 10000 6.17 320 20:32 06.11.2021
5557 Rain 3 999 81 10000 6.17 320 18:56 06.11.2021
5558 Snow 2 998 91 10000 6.17 330 16:38 06.11.2021
5559 Snow 1 996 94 10000 6.69 330 14:37 06.11.2021
5560 Snow 2 994 91 7000 4.12 340 13:38 06.11.2021
5561 Snow 2 994 91 7000 4.12 340 13:38 06.11.2021
5562 Rain 2 992 91 6000 6.17 360 11:25 06.11.2021
5563 Clouds 3 991 81 10000 4.12 30 09:22 06.11.2021
5564 Clouds 4 995 60 10000 3.6 40 04:56 06.11.2021
5565 Clear 3 999 70 10000 6.69 70 01:27 06.11.2021
5566 Clear 3 1003 81 10000 6.17 70 23:34 05.11.2021
5567 Clear 3 1004 81 10000 4.63 70 22:33 05.11.2021
5568 Clear 3 1007 81 10000 3.6 70 20:50 05.11.2021
5569 Clear 3 1007 81 10000 3.6 70 20:19 05.11.2021
5570 Clear 3 1008 81 10000 2.57 100 19:37 05.11.2021
5571 Clouds 3 1008 81 10000 2.06 100 18:39 05.11.2021
5572 Clouds 4 1009 81 10000 2.06 140 17:26 05.11.2021
5573 Clouds 4 1010 81 10000 1.54 160 15:20 05.11.2021
5574 Clouds 3 1010 87 10000 2.57 180 13:35 05.11.2021
5575 Clouds 4 1009 81 10000 5.14 210 10:29 05.11.2021
5576 Clouds 3 1009 88 10000 5.14 190 08:39 05.11.2021
5577 Clouds 4 1010 82 10000 5.14 250 07:21 05.11.2021
5578 Clouds 4 1009 87 10000 3.09 210 04:43 05.11.2021
5579 Clouds 5 1009 87 10000 4.63 200 02:24 05.11.2021
5580 Clouds 5 1009 87 10000 4.12 200 00:31 05.11.2021
5581 Drizzle 5 1010 87 10000 4.12 200 22:59 04.11.2021
5582 Drizzle 5 1010 87 10000 4.12 200 22:18 04.11.2021
5583 Clouds 5 1010 81 10000 3.6 200 21:31 04.11.2021
5584 Clouds 4 1010 87 10000 4.12 200 20:40 04.11.2021
5585 Clouds 4 1010 87 10000 4.12 200 20:20 04.11.2021
5586 Clouds 5 1011 87 10000 3.6 210 19:40 04.11.2021
5587 Clouds 5 1011 87 10000 4.12 200 18:44 04.11.2021
5588 Clouds 5 1011 87 9000 2.57 230 17:37 04.11.2021
5589 Rain 5 1011 87 10000 3.09 260 16:29 04.11.2021
5590 Clouds 5 1011 81 10000 3.09 260 14:20 04.11.2021
5591 Clouds 4 1010 81 10000 4.63 220 11:44 04.11.2021
5592 Clouds 4 1010 87 10000 3.6 200 09:29 04.11.2021
5593 Clouds 4 1010 87 10000 3.09 180 08:30 04.11.2021
5594 Clouds 4 1009 87 10000 4.63 200 07:34 04.11.2021
5595 Clouds 5 1010 87 9000 6.17 260 23:54 03.11.2021
5596 Clouds 5 1010 81 10000 6.69 260 22:50 03.11.2021
5597 Clouds 6 1010 87 10000 4.12 220 21:47 03.11.2021
5598 Clouds 6 1010 87 10000 4.12 220 21:25 03.11.2021
5599 Clouds 7 1010 87 10000 7.72 210 20:34 03.11.2021
5600 Clouds 6 1010 87 8000 7.72 190 19:40 03.11.2021
5601 Drizzle 5 1011 93 3100 5.14 170 18:51 03.11.2021
5602 Clouds 5 1011 93 3100 5.14 170 18:19 03.11.2021
5603 Rain 2 1012 75 10000 6.17 90 17:34 03.11.2021
5604 Snow 1 1013 75 10000 6.69 120 16:18 03.11.2021
5605 Snow 2 1014 75 10000 7.72 130 15:42 03.11.2021
5606 Clouds 1 1016 64 10000 5.66 100 13:49 03.11.2021
5607 Clear -2 1018 64 10000 3.09 110 11:39 03.11.2021
5608 Clouds -3 1019 74 10000 2.06 90 10:53 03.11.2021
5609 Clouds -3 1019 74 10000 2.06 90 10:28 03.11.2021
5610 Clear -3 1019 74 10000 2.57 120 09:29 03.11.2021
5611 Clear -4 1019 74 10000 1.54 120 08:22 03.11.2021
5612 Clear -5 1019 80 10000 1.54 130 07:38 03.11.2021
5613 Clear -2 1019 64 10000 4.63 340 04:24 03.11.2021
5614 Clear -3 1019 63 10000 2.57 0 01:45 03.11.2021
5615 Clear -2 1018 59 10000 3.09 20 23:33 02.11.2021
5616 Clouds -2 1018 59 10000 7.2 10 22:29 02.11.2021
5617 Clouds -1 1017 59 10000 11.83 10 20:54 02.11.2021
5618 Clouds -1 1017 59 10000 11.83 10 20:30 02.11.2021
5619 Clouds -1 1017 64 10000 7.72 360 19:47 02.11.2021
5620 Clouds -2 1016 74 10000 9.26 350 18:51 02.11.2021
5621 Clouds -1 1015 69 10000 8.23 360 17:58 02.11.2021
5622 Clouds -1 1015 69 10000 8.23 360 17:32 02.11.2021
5623 Clouds -1 1014 64 10000 8.75 10 16:29 02.11.2021
5624 Clouds -1 1013 64 10000 11.32 10 14:59 02.11.2021
5625 Clouds -1 1013 64 10000 11.32 10 14:18 02.11.2021
5626 Clouds -1 1013 64 10000 8.23 360 13:27 02.11.2021
5627 Clouds -1 1012 69 10000 9.26 360 12:33 02.11.2021
5628 Clouds -1 1011 69 10000 10.8 360 11:31 02.11.2021
5629 Clouds -1 1010 69 10000 11.83 360 10:51 02.11.2021
5630 Clouds -1 1010 69 10000 11.83 360 10:25 02.11.2021
5631 Clouds 0 1008 69 10000 11.83 360 08:43 02.11.2021
5632 Clouds 0 1007 64 10000 10.8 10 06:43 02.11.2021
5633 Clear 0 1005 75 10000 9.77 20 03:34 02.11.2021
5634 Clear 1 1005 69 10000 11.32 10 01:24 02.11.2021
5635 Clouds 2 1003 69 10000 10.8 10 22:39 01.11.2021
5636 Clouds 1 1003 79 10000 10.29 10 20:52 01.11.2021
5637 Clouds 1 1003 79 10000 10.29 10 20:33 01.11.2021
5638 Clouds 1 1002 73 10000 9.26 20 19:48 01.11.2021
5639 Clouds 2 1002 73 10000 8.23 10 18:57 01.11.2021
5640 Clouds 2 1001 72 10000 8.23 10 18:19 01.11.2021
5641 Clouds 3 1001 72 10000 5.66 20 17:19 01.11.2021
5642 Clouds 3 1001 72 10000 8.75 10 16:37 01.11.2021
5643 Clouds 3 1000 65 10000 8.23 10 15:45 01.11.2021
5644 Clouds 3 1000 65 10000 8.23 10 15:19 01.11.2021
5645 Clouds 3 1000 65 10000 9.26 360 14:41 01.11.2021
5646 Clouds 3 1000 65 10000 9.26 360 14:19 01.11.2021
5647 Clouds 2 1000 69 10000 7.2 350 13:18 01.11.2021
5648 Clouds 1 999 75 10000 8.75 360 11:56 01.11.2021
5649 Clouds 1 999 75 10000 9.77 360 10:23 01.11.2021
5650 Clouds 1 999 69 10000 11.32 10 08:43 01.11.2021
5651 Clouds 1 999 69 10000 11.32 360 07:47 01.11.2021
5652 Clear 2 998 64 10000 10.8 10 05:53 01.11.2021
5653 Clear 1 999 71 10000 8.23 10 03:40 01.11.2021
5654 Clear 1 998 75 10000 9.77 350 23:59 31.10.2021
5655 Clear 2 998 69 10000 11.83 10 21:31 31.10.2021
5656 Clear 2 998 69 10000 12.35 360 20:25 31.10.2021
5657 Clouds 2 997 69 10000 13.38 10 18:51 31.10.2021
5658 Clouds 2 997 69 10000 13.38 10 18:25 31.10.2021
5659 Clouds 3 997 70 10000 13.89 10 16:48 31.10.2021
5660 Clouds 3 997 65 10000 11.83 10 15:18 31.10.2021
5661 Clear 3 997 72 10000 9.77 10 13:27 31.10.2021
5662 Clear 3 997 67 10000 9.77 30 12:30 31.10.2021
5663 Clear 3 996 60 10000 11.32 10 10:51 31.10.2021
5664 Clear 2 996 76 10000 10.29 360 09:43 31.10.2021
5665 Clear 2 996 73 10000 10.8 20 08:47 31.10.2021
5666 Clouds 3 996 86 10000 5.16 24 04:55 31.10.2021
5667 Clear 2 993 87 10000 1.03 20 00:47 31.10.2021
5668 Clear 2 991 87 10000 1.54 220 22:28 30.10.2021
5669 Clear 4 991 82 10000 1.54 140 21:30 30.10.2021
5670 Clear 6 990 75 10000 2.57 330 19:57 30.10.2021
5671 Clear 7 989 65 10000 1.54 330 18:21 30.10.2021
5672 Clear 7 988 70 10000 0.51 0 15:58 30.10.2021
5673 Clear 6 987 70 10000 1.54 150 14:23 30.10.2021
5674 Clear 6 987 65 10000 1.54 70 13:38 30.10.2021
5675 Clear 6 987 65 10000 1.54 70 13:20 30.10.2021
5676 Clear 3 985 81 10000 1.54 70 11:50 30.10.2021
5677 Clouds 2 984 80 10000 1.03 0 10:58 30.10.2021
5678 Clear 4 984 75 10000 1.54 350 09:40 30.10.2021
5679 Clear 4 983 81 10000 2.06 350 08:31 30.10.2021
5680 Clear 7 982 61 10000 3.09 50 05:49 30.10.2021
5681 Clear 6 982 65 10000 1.54 70 04:54 30.10.2021
5682 Clear 7 980 65 10000 5.66 80 23:33 29.10.2021
5683 Clear 7 980 70 10000 2.57 100 22:35 29.10.2021
5684 Clouds 7 980 70 10000 5.14 80 21:20 29.10.2021
5685 Clouds 8 979 66 10000 4.63 80 20:34 29.10.2021
5686 Clouds 8 979 66 10000 3.09 40 19:38 29.10.2021
5687 Clouds 7 978 70 10000 3.6 30 18:23 29.10.2021
5688 Rain 8 978 61 10000 3.6 40 16:34 29.10.2021
5689 Clear 4 979 75 10000 1.54 230 13:34 29.10.2021
5690 Clear 6 978 65 10000 7.2 10 10:50 29.10.2021
5691 Clear 6 978 65 10000 7.2 10 10:31 29.10.2021
5692 Clear 6 978 65 10000 5.66 20 05:43 29.10.2021
5693 Rain 5 979 81 10000 4.63 360 00:35 29.10.2021
5694 Rain 6 979 70 10000 5.66 20 22:40 28.10.2021
5695 Rain 7 979 65 10000 2.06 60 21:32 28.10.2021
5696 Clouds 5 979 75 10000 2.57 10 20:20 28.10.2021
5697 Clouds 7 979 70 10000 4.12 340 18:57 28.10.2021
5698 Clouds 7 979 65 10000 6.17 70 17:57 28.10.2021
5699 Clouds 7 979 65 10000 3.6 50 16:54 28.10.2021
5700 Rain 6 979 65 10000 3.6 50 14:59 28.10.2021
5701 Clouds 3 979 75 10000 1.54 360 13:35 28.10.2021
5702 Clouds 1 979 75 10000 1.54 110 12:53 28.10.2021
5703 Clouds 1 979 75 10000 1.54 110 12:34 28.10.2021
5704 Clear 1 979 86 10000 1.54 10 10:48 28.10.2021
5705 Clear 1 979 80 10000 0.51 0 09:38 28.10.2021
5706 Clear 1 980 75 10000 1.54 50 08:37 28.10.2021
5707 Clear 3 980 70 10000 2.06 40 07:47 28.10.2021
5708 Clear 2 981 79 10000 2.57 40 04:19 28.10.2021
5709 Clear 3 982 70 10000 3.6 100 23:26 27.10.2021
5710 Clear 3 982 75 10000 2.06 100 22:30 27.10.2021
5711 Clear 4 982 75 10000 2.57 70 21:32 27.10.2021
5712 Clear 5 981 70 10000 2.57 30 20:49 27.10.2021
5713 Clear 6 981 65 10000 2.57 80 19:52 27.10.2021
5714 Clear 7 981 61 10000 3.6 70 18:58 27.10.2021
5715 Clear 7 981 61 10000 3.6 70 18:38 27.10.2021
5716 Clear 7 981 65 10000 5.14 100 16:26 27.10.2021
5717 Clear 7 982 70 10000 4.63 90 15:30 27.10.2021
5718 Clear 6 981 75 10000 4.12 100 14:38 27.10.2021
5719 Clouds 5 981 81 10000 4.63 80 11:20 27.10.2021
5720 Clouds 5 980 81 10000 4.63 80 10:57 27.10.2021
5721 Clouds 5 979 81 10000 4.12 70 09:38 27.10.2021
5722 Clouds 5 978 81 10000 3.6 100 07:52 27.10.2021
5723 Drizzle 5 977 87 10000 8.75 90 06:36 27.10.2021
5724 Clouds 7 972 65 10000 12.35 70 01:29 27.10.2021
5725 Clouds 7 973 70 10000 7.2 40 00:56 27.10.2021
5726 Clouds 7 973 70 10000 6.69 50 23:57 26.10.2021
5727 Rain 7 973 70 10000 6.69 50 23:18 26.10.2021
5728 Rain 7 974 70 10000 6.69 50 22:29 26.10.2021
5729 Rain 6 974 75 10000 5.66 50 21:51 26.10.2021
5730 Rain 6 974 70 10000 3.09 50 20:26 26.10.2021
5731 Drizzle 5 974 75 10000 5.66 90 19:26 26.10.2021
5732 Rain 8 974 53 10000 10.8 80 18:32 26.10.2021
5733 Clouds 7 977 61 10000 10.29 80 15:54 26.10.2021
5734 Clouds 7 979 61 10000 8.23 70 14:18 26.10.2021
5735 Clear 5 982 65 10000 5.66 80 11:33 26.10.2021
5736 Clouds 4 984 75 10000 6.17 70 09:29 26.10.2021
5737 Clouds 2 986 87 10000 4.12 70 07:24 26.10.2021
5738 Clouds 3 989 82 10000 2.57 100 03:37 26.10.2021
5739 Clouds 3 990 81 10000 3.09 90 23:49 25.10.2021
5740 Clouds 3 990 81 10000 1.54 110 22:39 25.10.2021
5741 Clouds 3 990 84 10000 1.03 110 21:55 25.10.2021
5742 Clouds 3 991 84 10000 1.03 110 21:26 25.10.2021
5743 Clouds 4 990 79 10000 2.06 350 19:45 25.10.2021
5744 Clouds 4 990 79 10000 2.06 350 19:25 25.10.2021
5745 Clouds 5 991 78 10000 2.06 350 18:51 25.10.2021
5746 Clouds 6 991 72 10000 2.06 120 17:43 25.10.2021
5747 Clouds 5 991 74 10000 2.57 90 15:41 25.10.2021
5748 Clouds 4 991 75 10000 2.57 70 13:56 25.10.2021
5749 Drizzle 4 991 75 10000 3.6 80 12:22 25.10.2021
5750 Drizzle 5 990 70 10000 4.63 90 10:18 25.10.2021
5751 Clouds 6 989 70 10000 5.14 80 07:47 25.10.2021
5752 Clouds 6 988 75 10000 4.63 70 05:58 25.10.2021
5753 Drizzle 7 987 81 10000 5.66 80 00:53 25.10.2021
5754 Drizzle 7 987 81 10000 5.66 80 00:35 25.10.2021
5755 Clouds 7 987 86 10000 5.66 90 23:45 24.10.2021
5756 Drizzle 7 987 83 10000 3.6 90 22:42 24.10.2021
5757 Drizzle 7 987 83 10000 3.6 90 22:21 24.10.2021
5758 Clouds 8 986 71 10000 4.12 90 21:37 24.10.2021
5759 Clouds 9 985 66 10000 4.63 90 20:42 24.10.2021
5760 Clouds 9 985 71 10000 4.63 90 19:50 24.10.2021
5761 Clouds 9 985 76 10000 5.66 100 18:47 24.10.2021
5762 Clouds 10 984 66 10000 5.66 90 17:48 24.10.2021
5763 Clouds 10 984 66 10000 4.12 70 16:40 24.10.2021
5764 Clouds 9 985 71 10000 4.63 80 15:24 24.10.2021
5765 Clouds 8 985 71 10000 2.57 80 13:44 24.10.2021
5766 Drizzle 8 985 66 10000 3.6 70 12:40 24.10.2021
5767 Clouds 8 984 66 10000 5.14 100 11:37 24.10.2021
5768 Clouds 7 984 76 10000 2.57 80 10:43 24.10.2021
5769 Clear 8 985 76 10000 5.14 70 08:51 24.10.2021
5770 Clouds 8 986 76 10000 4.12 100 03:30 24.10.2021
5771 Clouds 8 987 81 10000 4.63 90 23:56 23.10.2021
5772 Clouds 8 987 81 10000 5.14 100 22:55 23.10.2021
5773 Clouds 8 987 81 10000 4.12 80 21:20 23.10.2021
5774 Clouds 8 987 81 10000 3.6 100 19:37 23.10.2021
5775 Clouds 8 987 87 10000 4.12 90 18:45 23.10.2021
5776 Clouds 9 987 81 10000 3.6 100 17:46 23.10.2021
5777 Clouds 9 987 81 10000 3.6 100 17:26 23.10.2021
5778 Clouds 9 988 81 10000 3.09 110 15:58 23.10.2021
5779 Clouds 8 989 81 10000 3.6 100 13:47 23.10.2021
5780 Clouds 9 990 88 10000 6.17 120 02:36 23.10.2021
5781 Rain 6 991 87 10000 10.8 80 23:41 22.10.2021
5782 Rain 6 994 90 10000 9.77 80 21:39 22.10.2021
5783 Rain 5 997 87 10000 9.77 90 19:43 22.10.2021
5784 Rain 5 998 86 10000 7.2 100 18:33 22.10.2021
5785 Rain 5 1001 89 10000 6.17 100 17:19 22.10.2021
5786 Rain 5 1004 85 10000 4.63 110 14:58 22.10.2021
5787 Clouds 3 1005 87 10000 5.14 90 12:45 22.10.2021
5788 Clouds 3 1006 75 10000 6.69 90 10:58 22.10.2021
5789 Clouds 3 1006 75 10000 6.69 90 10:36 22.10.2021
5790 Drizzle 3 1006 81 10000 7.2 110 09:35 22.10.2021
5791 Drizzle 2 1007 80 10000 6.17 110 07:46 22.10.2021
5792 Drizzle 2 1007 80 10000 6.17 110 07:21 22.10.2021
5793 Clear 2 1009 51 10000 7.2 90 02:37 22.10.2021
5794 Clear 2 1009 51 10000 7.2 90 02:37 22.10.2021
5795 Clear 2 1009 51 10000 7.2 90 02:37 22.10.2021
5796 Clear 3 1010 56 10000 6.17 90 23:51 21.10.2021
5797 Clear 4 1010 48 10000 6.69 80 22:47 21.10.2021
5798 Clouds 4 1009 60 10000 5.14 90 21:39 21.10.2021
5799 Clouds 5 1009 56 10000 4.63 90 20:26 21.10.2021
5800 Clouds 6 1008 70 10000 5.66 100 19:56 21.10.2021
5801 Clouds 6 1008 70 10000 5.66 100 19:26 21.10.2021
5802 Clouds 7 1008 81 10000 0 0 18:34 21.10.2021
5803 Clouds 7 1007 76 10000 1.54 170 17:53 21.10.2021
5804 Clouds 7 1007 76 10000 1.54 170 17:18 21.10.2021
5805 Drizzle 6 1007 87 9000 1.03 280 15:33 21.10.2021
5806 Clouds 6 1006 87 10000 1.54 270 14:57 21.10.2021
5807 Clouds 6 1006 87 10000 1.54 270 14:37 21.10.2021
5808 Clouds 6 1005 81 9000 6.17 290 11:59 21.10.2021
5809 Drizzle 6 1005 81 10000 6.69 270 09:55 21.10.2021
5810 Drizzle 6 1005 81 10000 7.72 270 08:20 21.10.2021
5811 Clouds 6 1006 75 10000 9.26 270 06:54 21.10.2021
5812 Clouds 2 1010 78 10000 2.57 150 00:51 21.10.2021
5813 Clear 2 1012 69 10000 2.57 270 22:41 20.10.2021
5814 Clear 2 1012 60 10000 2.06 310 21:50 20.10.2021
5815 Clear 2 1012 60 10000 2.06 310 21:18 20.10.2021
5816 Clear 2 1013 60 10000 2.06 330 20:39 20.10.2021
5817 Clear 2 1013 60 10000 2.06 330 20:21 20.10.2021
5818 Clear 2 1013 60 10000 2.57 320 19:26 20.10.2021
5819 Clear 2 1013 55 10000 4.12 340 18:45 20.10.2021
5820 Clear 2 1013 55 10000 3.6 350 17:36 20.10.2021
5821 Clouds 1 1014 60 10000 4.63 360 14:56 20.10.2021
5822 Clouds 0 1013 55 10000 8.23 20 10:21 20.10.2021
5823 Clouds 1 1011 60 10000 10.29 10 07:43 20.10.2021
5824 Clear 2 1009 51 10000 3.6 50 02:38 20.10.2021
5825 Clear 3 1008 52 10000 9.26 10 00:34 20.10.2021
5826 Clear 4 1007 52 10000 3.09 50 22:58 19.10.2021
5827 Clear 4 1006 60 10000 4.63 30 21:38 19.10.2021
5828 Clear 5 1005 60 10000 5.14 20 20:29 19.10.2021
5829 Clear 6 1004 56 10000 6.69 20 19:59 19.10.2021
5830 Clear 6 1004 56 10000 6.69 20 19:37 19.10.2021
5831 Clear 6 1002 56 10000 11.83 30 18:45 19.10.2021
5832 Clouds 7 1002 57 10000 10.29 40 17:52 19.10.2021
5833 Clouds 7 1001 57 10000 11.32 30 15:30 19.10.2021
5834 Clouds 7 1001 61 10000 13.38 30 14:46 19.10.2021
5835 Clouds 7 1001 61 10000 13.38 30 14:46 19.10.2021
5836 Clouds 6 1001 65 10000 12.35 30 13:56 19.10.2021
5837 Clouds 6 1000 65 10000 11.83 30 12:24 19.10.2021
5838 Clear 7 999 57 10000 8.23 40 11:30 19.10.2021
5839 Clear 8 997 53 10000 10.29 30 09:55 19.10.2021
5840 Clear 8 997 57 10000 9.26 20 08:57 19.10.2021
5841 Clear 8 996 71 10000 10.8 20 04:25 19.10.2021
5842 Rain 9 996 66 10000 7.72 30 00:22 19.10.2021
5843 Clear 9 996 66 10000 9.26 360 23:49 18.10.2021
5844 Clear 9 996 71 10000 7.72 20 22:59 18.10.2021
5845 Rain 9 996 71 10000 7.72 20 22:31 18.10.2021
5846 Rain 9 996 71 10000 7.72 20 22:31 18.10.2021
5847 Rain 9 996 76 10000 7.72 10 20:53 18.10.2021
5848 Rain 9 996 76 10000 7.72 10 20:32 18.10.2021
5849 Rain 11 996 66 10000 7.2 70 19:49 18.10.2021
5850 Rain 11 996 66 10000 7.2 70 19:22 18.10.2021
5851 Rain 11 996 71 10000 6.69 60 18:49 18.10.2021
5852 Drizzle 10 997 76 10000 6.69 80 14:58 18.10.2021
5853 Drizzle 9 996 87 10000 7.72 100 12:53 18.10.2021
5854 Drizzle 9 996 87 10000 9.26 110 10:26 18.10.2021
5855 Clouds 9 995 87 10000 11.32 120 09:26 18.10.2021
5856 Drizzle 4 998 81 6000 12.35 80 01:35 18.10.2021
5857 Drizzle 4 1001 82 8000 9.26 70 23:20 17.10.2021
5858 Snow 4 1002 81 10000 11.83 80 21:46 17.10.2021
5859 Rain 5 1002 65 10000 10.8 80 20:59 17.10.2021
5860 Rain 5 1002 65 10000 10.8 80 20:31 17.10.2021
5861 Rain 5 1003 65 10000 9.26 80 19:39 17.10.2021
5862 Rain 4 1003 87 10000 8.17 71 18:54 17.10.2021
5863 Snow 4 1005 70 10000 10.8 90 17:32 17.10.2021
5864 Rain 3 1007 75 10000 10.29 90 14:59 17.10.2021
5865 Clouds 3 1007 75 10000 10.29 90 14:24 17.10.2021
5866 Clouds 3 1008 75 10000 7.72 90 13:38 17.10.2021
5867 Snow 1 1009 86 10000 8.75 60 11:55 17.10.2021
5868 Snow 1 1009 86 7000 7.2 60 10:34 17.10.2021
5869 Snow 1 1010 93 9000 6.17 70 09:28 17.10.2021
5870 Snow 1 1011 86 6000 6.17 70 06:58 17.10.2021
5871 Rain 3 1013 75 10000 4.63 70 00:53 17.10.2021
5872 Rain 3 1013 75 10000 4.63 70 00:22 17.10.2021
5873 Rain 4 1013 65 10000 3.6 60 21:38 16.10.2021
5874 Clouds 4 1013 65 10000 5.14 80 20:31 16.10.2021
5875 Clouds 4 1012 70 10000 5.14 80 19:45 16.10.2021
5876 Clouds 4 1012 70 10000 5.14 80 19:21 16.10.2021
5877 Clouds 5 1012 65 10000 5.66 90 18:55 16.10.2021
5878 Clouds 5 1012 65 10000 5.66 90 18:36 16.10.2021
5879 Clouds 5 1012 65 10000 5.66 90 18:18 16.10.2021
5880 Clouds 5 1012 70 10000 4.63 80 17:23 16.10.2021
5881 Clouds 5 1012 65 10000 5.14 90 14:52 16.10.2021
5882 Clouds 2 1012 75 10000 1.03 0 11:55 16.10.2021
5883 Clouds 1 1012 80 10000 0.51 0 10:43 16.10.2021
5884 Clear 2 1011 80 10000 1.54 70 08:20 16.10.2021
5885 Clouds 4 1011 93 10000 1.03 120 01:25 16.10.2021
5886 Clouds 4 1012 90 10000 1.54 150 23:55 15.10.2021
5887 Clouds 4 1012 90 10000 1.54 150 23:20 15.10.2021
5888 Clouds 4 1012 90 10000 0 0 22:19 15.10.2021
5889 Clouds 6 1012 87 10000 1.03 320 21:26 15.10.2021
5890 Clouds 6 1012 87 10000 1.54 310 20:47 15.10.2021
5891 Clouds 6 1011 84 10000 4.12 300 19:37 15.10.2021
5892 Clouds 7 1012 87 10000 4.12 260 18:40 15.10.2021
5893 Clouds 7 1012 84 10000 5.14 250 16:43 15.10.2021
5894 Clouds 7 1012 81 10000 5.14 250 15:36 15.10.2021
5895 Drizzle 6 1013 87 7000 5.66 260 13:31 15.10.2021
5896 Drizzle 6 1013 81 10000 5.66 270 11:37 15.10.2021
5897 Drizzle 6 1014 81 10000 7.72 250 10:57 15.10.2021
5898 Drizzle 6 1014 87 5000 6.17 270 09:59 15.10.2021
5899 Clouds 7 1016 70 10000 7.2 270 05:44 15.10.2021
5900 Clouds 5 1019 81 10000 4.63 220 01:48 15.10.2021
5901 Clouds 4 1019 87 10000 5.14 210 00:22 15.10.2021
5902 Clear 3 1020 81 10000 3.6 180 22:52 14.10.2021
5903 Clouds 3 1021 81 10000 3.09 230 21:45 14.10.2021
5904 Clouds 5 1021 65 10000 4.63 250 20:50 14.10.2021
5905 Clouds 5 1021 65 10000 4.63 250 20:50 14.10.2021
5906 Clouds 5 1021 65 10000 4.63 250 20:19 14.10.2021
5907 Clear 4 1022 65 10000 2.57 250 19:38 14.10.2021
5908 Clear 4 1022 56 10000 2.06 240 17:39 14.10.2021
5909 Clear 4 1022 60 10000 1.03 0 16:56 14.10.2021
5910 Clear 4 1022 60 10000 1.03 0 16:21 14.10.2021
5911 Clear 4 1023 56 10000 0.51 0 14:43 14.10.2021
5912 Clear 4 1023 56 10000 0.51 0 14:22 14.10.2021
5913 Clear 2 1022 64 10000 3.6 330 11:50 14.10.2021
5914 Clear 0 1021 74 10000 3.09 180 09:57 14.10.2021
5915 Clear 2 1020 69 10000 4.42 11 07:37 14.10.2021
5916 Clear 1 1016 68 10000 7.57 5 02:41 14.10.2021
5917 Clouds 1 1013 71 10000 7.17 16 00:29 14.10.2021
5918 Clouds 4 1011 70 10000 13.38 10 22:32 13.10.2021
5919 Clouds 4 1010 70 10000 11.32 20 21:34 13.10.2021
5920 Clouds 4 1009 74 10000 6.34 9 20:22 13.10.2021
5921 Clouds 6 1006 70 10000 7.2 10 18:59 13.10.2021
5922 Clouds 6 1006 70 10000 7.2 10 18:36 13.10.2021
5923 Clouds 7 1006 70 10000 8.75 10 15:53 13.10.2021
5924 Clouds 7 1005 81 10000 3.09 300 14:46 13.10.2021
5925 Clouds 7 1005 81 10000 3.09 300 14:22 13.10.2021
5926 Clouds 6 1005 93 10000 2.57 210 12:23 13.10.2021
5927 Fog 6 1005 93 10000 5.14 250 11:35 13.10.2021
5928 Clouds 7 1005 93 10000 5.14 270 08:57 13.10.2021
5929 Drizzle 7 1005 100 2000 5.66 250 07:43 13.10.2021
5930 Clouds 9 1007 87 10000 7.2 200 02:30 13.10.2021
5931 Drizzle 9 1007 93 10000 5.66 210 01:47 13.10.2021
5932 Clouds 10 1008 87 10000 4.63 190 23:31 12.10.2021
5933 Clouds 10 1009 81 10000 4.12 160 22:47 12.10.2021
5934 Clouds 10 1009 81 10000 4.12 160 22:23 12.10.2021
5935 Clouds 10 1009 81 10000 4.63 100 20:48 12.10.2021
5936 Clouds 10 1009 81 10000 4.63 100 20:19 12.10.2021
5937 Drizzle 9 1011 87 10000 4.12 80 18:57 12.10.2021
5938 Drizzle 9 1011 87 10000 4.12 80 18:18 12.10.2021
5939 Drizzle 9 1014 81 10000 6.69 80 16:47 12.10.2021
5940 Drizzle 9 1014 81 10000 6.69 80 16:18 12.10.2021
5941 Drizzle 8 1016 87 10000 5.14 80 14:51 12.10.2021
5942 Clouds 8 1017 87 6000 4.63 80 13:45 12.10.2021
5943 Drizzle 8 1017 87 3900 5.66 90 12:40 12.10.2021
5944 Drizzle 8 1017 87 3900 5.66 90 12:40 12.10.2021
5945 Clouds 7 1018 76 10000 5.14 80 10:38 12.10.2021
5946 Clouds 6 1019 75 10000 4.63 70 08:49 12.10.2021
5947 Clouds 6 1020 75 10000 4.63 70 07:54 12.10.2021
5948 Clouds 6 1020 75 10000 5.66 80 06:42 12.10.2021
5949 Clouds 6 1022 85 10000 6.17 80 04:35 12.10.2021
5950 Clouds 6 1022 75 10000 3.6 80 01:30 12.10.2021
5951 Clear 5 1023 82 10000 2.57 90 23:41 11.10.2021
5952 Clear 5 1023 82 10000 1.54 120 22:59 11.10.2021
5953 Clear 5 1023 82 10000 1.54 120 22:29 11.10.2021
5954 Clouds 6 1023 70 10000 2.57 100 21:19 11.10.2021
5955 Clouds 7 1023 70 10000 5.14 130 19:46 11.10.2021
5956 Clouds 7 1023 70 10000 1.03 0 18:59 11.10.2021
5957 Clouds 7 1023 70 10000 1.03 0 18:18 11.10.2021
5958 Clouds 6 1023 70 10000 1.03 0 16:39 11.10.2021
5959 Clouds 6 1023 70 10000 1.03 0 16:19 11.10.2021
5960 Clouds 6 1023 75 10000 5.14 140 15:37 11.10.2021
5961 Clear 6 1023 70 10000 2.57 90 14:53 11.10.2021
5962 Clear 4 1023 75 10000 1.54 80 13:39 11.10.2021
5963 Clear 2 1024 87 10000 0 0 12:20 11.10.2021
5964 Clear 1 1023 86 10000 1.03 0 10:49 11.10.2021
5965 Clear 1 1023 93 10000 1.03 120 09:44 11.10.2021
5966 Clouds 3 1022 87 10000 2.06 110 07:30 11.10.2021
5967 Clouds 4 1023 87 10000 2.06 140 01:42 11.10.2021
5968 Clouds 4 1023 87 10000 0.51 330 00:52 11.10.2021
5969 Clouds 4 1023 87 10000 0.51 330 00:31 11.10.2021
5970 Clouds 5 1023 81 10000 2.57 320 22:22 10.10.2021
5971 Clouds 5 1022 87 5000 2.57 290 21:35 10.10.2021
5972 Clouds 5 1022 81 10000 4.12 280 20:48 10.10.2021
5973 Clouds 5 1022 81 10000 4.12 280 20:22 10.10.2021
5974 Clouds 6 1022 81 10000 4.63 280 19:59 10.10.2021
5975 Clouds 6 1022 81 10000 4.63 280 19:38 10.10.2021
5976 Clouds 6 1021 75 10000 3.6 280 18:37 10.10.2021
5977 Clouds 6 1021 75 10000 3.09 270 17:19 10.10.2021
5978 Clouds 7 1021 81 10000 3.6 280 15:47 10.10.2021
5979 Clouds 7 1020 76 10000 2.57 270 14:42 10.10.2021
5980 Clear 6 1019 81 10000 1.54 300 13:34 10.10.2021
5981 Clear 5 1018 87 10000 1.03 0 12:40 10.10.2021
5982 Clouds 4 1017 87 10000 0.51 0 10:55 10.10.2021
5983 Clear 4 1016 81 10000 1.54 320 09:31 10.10.2021
5984 Clear 4 1016 81 10000 1.54 320 09:31 10.10.2021
5985 Clouds 5 1015 81 10000 3.09 320 08:54 10.10.2021
5986 Clouds 6 1014 75 10000 3.09 320 07:56 10.10.2021
5987 Clouds 5 1011 87 10000 5.66 360 03:28 10.10.2021
5988 Clouds 7 1009 87 10000 2.57 360 01:28 10.10.2021
5989 Clouds 6 1009 88 10000 1.54 340 00:33 10.10.2021
5990 Clouds 6 1008 87 10000 3.09 60 23:20 09.10.2021
5991 Rain 7 1006 87 10000 3.6 60 21:48 09.10.2021
5992 Rain 7 1006 87 10000 3.6 60 21:29 09.10.2021
5993 Rain 7 1005 81 10000 7.2 80 19:45 09.10.2021
5994 Rain 7 1005 81 10000 7.2 80 19:22 09.10.2021
5995 Clouds 9 1004 80 10000 4.12 70 18:33 09.10.2021
5996 Clouds 9 1004 80 10000 4.12 70 18:33 09.10.2021
5997 Rain 9 1004 83 10000 4.12 70 17:21 09.10.2021
5998 Rain 9 1005 77 10000 4.63 90 16:19 09.10.2021
5999 Clouds 8 1006 84 10000 5.66 90 13:46 09.10.2021
6000 Rain 8 1006 84 10000 4.63 70 12:54 09.10.2021
6001 Clouds 7 1006 87 10000 6.17 80 11:48 09.10.2021
6002 Rain 8 1006 90 9000 4.63 90 10:42 09.10.2021
6003 Rain 8 1006 90 9000 4.63 90 10:42 09.10.2021
6004 Rain 8 1006 90 10000 3.6 90 09:53 09.10.2021
6005 Clouds 8 1006 87 10000 5.66 120 08:32 09.10.2021
6006 Clouds 8 1006 87 10000 4.12 90 07:49 09.10.2021
6007 Clouds 8 1006 81 10000 3.09 80 05:39 09.10.2021
6008 Clouds 8 1007 90 10000 3.09 130 03:44 09.10.2021
6009 Clouds 8 1006 90 10000 1.54 40 02:41 09.10.2021
6010 Rain 9 1005 90 5000 4.63 120 23:52 08.10.2021
6011 Clouds 10 1005 87 10000 6.17 120 22:59 08.10.2021
6012 Clouds 9 1005 86 10000 6.17 120 22:25 08.10.2021
6013 Clouds 9 1005 86 10000 6.69 130 21:35 08.10.2021
6014 Clouds 10 1004 89 10000 8.23 130 19:39 08.10.2021
6015 Clouds 11 1004 76 8000 7.2 130 17:36 08.10.2021
6016 Rain 11 1004 82 10000 7.72 140 16:53 08.10.2021
6017 Clouds 11 1004 82 10000 7.72 140 16:24 08.10.2021
6018 Rain 10 1004 76 10000 6.69 150 13:58 08.10.2021
6019 Clouds 10 1004 76 10000 6.69 150 13:36 08.10.2021
6020 Clouds 9 1002 76 10000 8.23 160 11:40 08.10.2021
6021 Clouds 9 1000 76 10000 9.77 170 10:41 08.10.2021
6022 Clouds 9 999 81 10000 9.26 170 09:44 08.10.2021
6023 Drizzle 9 987 79 10000 12.35 70 00:35 08.10.2021
6024 Clouds 9 987 78 10000 8.23 70 23:22 07.10.2021
6025 Clouds 10 988 62 10000 6.17 60 21:46 07.10.2021
6026 Clouds 10 988 62 10000 6.17 60 21:27 07.10.2021
6027 Clouds 9 989 72 10000 4.63 30 20:28 07.10.2021
6028 Rain 9 990 68 10000 5.66 60 19:30 07.10.2021
6029 Rain 9 991 67 10000 9.26 50 18:24 07.10.2021
6030 Rain 8 992 76 10000 7.2 60 17:27 07.10.2021
6031 Rain 10 994 53 10000 9.77 70 15:55 07.10.2021
6032 Clouds 10 995 53 10000 11.83 80 14:24 07.10.2021
6033 Clouds 10 995 55 10000 12.86 80 13:43 07.10.2021
6034 Clouds 9 995 59 10000 12.35 80 12:48 07.10.2021
6035 Clouds 9 997 53 10000 11.83 70 10:57 07.10.2021
6036 Clouds 9 997 53 10000 11.83 70 10:20 07.10.2021
6037 Clouds 9 998 57 10000 12.86 80 09:34 07.10.2021
6038 Clear 9 998 53 10000 11.83 80 08:52 07.10.2021
6039 Clear 9 999 53 10000 10.29 80 07:56 07.10.2021
6040 Clear 9 999 53 10000 10.29 80 07:36 07.10.2021
6041 Clouds 8 1004 57 10000 7.2 80 03:54 07.10.2021
6042 Clear 6 1006 62 10000 6.69 70 00:29 07.10.2021
6043 Clear 6 1008 63 10000 5.66 80 22:55 06.10.2021
6044 Clear 6 1008 64 10000 5.66 80 22:23 06.10.2021
6045 Clear 6 1009 65 10000 6.17 80 20:43 06.10.2021
6046 Clear 6 1010 65 10000 6.17 80 20:20 06.10.2021
6047 Clear 8 1010 53 10000 5.66 70 18:42 06.10.2021
6048 Clouds 8 1012 53 10000 5.14 90 16:58 06.10.2021
6049 Clouds 8 1012 53 10000 5.14 90 16:58 06.10.2021
6050 Clear 7 1012 57 10000 6.69 90 15:33 06.10.2021
6051 Clear 7 1013 53 10000 7.2 90 14:30 06.10.2021
6052 Clear 6 1013 56 10000 4.63 90 13:23 06.10.2021
6053 Clear 6 1013 56 10000 5.66 70 12:45 06.10.2021
6054 Clear 6 1013 56 10000 5.66 70 12:22 06.10.2021
6055 Clear 6 1013 61 10000 4.63 90 10:36 06.10.2021
6056 Clear 4 1013 70 10000 3.6 100 09:39 06.10.2021
6057 Clear 5 1013 65 10000 6.17 80 08:57 06.10.2021
6058 Clear 5 1013 65 10000 5.14 80 07:53 06.10.2021
6059 Clear 5 1013 65 10000 5.14 90 05:27 06.10.2021
6060 Clear 6 1012 65 10000 3.09 70 01:23 06.10.2021
6061 Clear 6 1012 65 10000 4.12 80 00:20 06.10.2021
6062 Clear 6 1012 65 10000 4.12 80 00:20 06.10.2021
6063 Clear 6 1012 65 10000 4.12 80 23:48 05.10.2021
6064 Clear 6 1012 65 10000 4.12 80 23:29 05.10.2021
6065 Clouds 6 1012 70 10000 4.12 80 22:30 05.10.2021
6066 Clouds 6 1012 73 10000 1.54 60 21:50 05.10.2021
6067 Clouds 6 1012 73 10000 4.12 50 20:49 05.10.2021
6068 Clouds 6 1012 73 10000 4.12 50 20:25 05.10.2021
6069 Clouds 6 1012 73 10000 3.6 90 19:50 05.10.2021
6070 Clouds 6 1012 72 10000 3.6 90 19:21 05.10.2021
6071 Clouds 8 1010 61 10000 5.66 100 17:23 05.10.2021
6072 Clear 8 1010 53 10000 4.63 50 15:22 05.10.2021
6073 Clear 5 1010 70 10000 1.54 140 13:43 05.10.2021
6074 Clear 4 1010 75 10000 1.03 0 12:55 05.10.2021
6075 Clear 4 1010 75 10000 1.03 0 12:32 05.10.2021
6076 Clear 1 1009 86 10000 1.54 150 11:22 05.10.2021
6077 Clear 1 1009 86 10000 1.54 140 09:50 05.10.2021
6078 Clear 3 1008 81 10000 1.03 0 05:56 05.10.2021
6079 Clear 3 1007 78 10000 6.69 20 00:37 05.10.2021
6080 Clear 3 1006 78 10000 7.2 10 22:49 04.10.2021
6081 Clouds 5 1005 71 10000 10.8 360 20:45 04.10.2021
6082 Clouds 6 1004 68 10000 11.32 360 18:47 04.10.2021
6083 Clouds 6 1004 66 10000 11.83 10 16:44 04.10.2021
6084 Clouds 6 1003 66 10000 11.83 360 15:32 04.10.2021
6085 Clouds 5 1003 67 10000 10.8 10 14:44 04.10.2021
6086 Clouds 5 1003 70 10000 12.35 10 13:58 04.10.2021
6087 Clouds 5 1003 70 10000 12.35 10 13:31 04.10.2021
6088 Clouds 5 1002 75 10000 12.35 360 12:31 04.10.2021
6089 Clouds 4 1001 70 10000 10.29 360 11:32 04.10.2021
6090 Clouds 5 1000 70 10000 9.26 10 10:41 04.10.2021
6091 Clear 5 1000 75 10000 10.29 10 09:26 04.10.2021
6092 Clear 5 998 75 10000 5.14 30 07:52 04.10.2021
6093 Clear 8 997 66 10000 4.63 360 03:44 04.10.2021
6094 Clouds 8 995 71 10000 7.72 20 22:48 03.10.2021
6095 Clear 8 994 71 10000 9.26 20 21:43 03.10.2021
6096 Clear 8 994 71 10000 9.26 20 21:24 03.10.2021
6097 Clear 9 994 66 10000 7.72 20 20:25 03.10.2021
6098 Clear 9 993 66 10000 8.75 10 19:33 03.10.2021
6099 Clear 9 993 66 10000 8.75 10 18:28 03.10.2021
6100 Clear 8 993 66 10000 8.23 360 17:30 03.10.2021
6101 Clouds 6 994 75 10000 11.32 10 14:49 03.10.2021
6102 Clouds 6 994 75 10000 11.32 10 14:27 03.10.2021
6103 Clouds 5 994 75 10000 11.32 20 13:34 03.10.2021
6104 Clouds 5 994 75 10000 11.32 10 12:43 03.10.2021
6105 Clouds 5 994 70 10000 12.35 360 10:57 03.10.2021
6106 Clouds 5 995 70 10000 7.2 30 09:34 03.10.2021
6107 Clouds 5 996 70 10000 10.29 10 03:36 03.10.2021
6108 Clear 6 997 75 10000 8.75 10 22:49 02.10.2021
6109 Clouds 6 996 75 10000 11.83 20 21:35 02.10.2021
6110 Clouds 7 995 70 10000 12.35 350 19:54 02.10.2021
6111 Clear 6 996 75 10000 11.32 360 18:56 02.10.2021
6112 Clear 6 996 75 10000 11.32 360 18:18 02.10.2021
6113 Clear 6 996 75 10000 11.32 360 18:18 02.10.2021
6114 Clouds 7 996 77 10000 11.83 360 17:36 02.10.2021
6115 Clouds 6 996 77 10000 11.32 360 16:22 02.10.2021
6116 Clear 7 995 70 10000 9.26 20 06:39 02.10.2021
6117 Clouds 7 1003 67 10000 5 15 15:37 30.09.2021
6118 Rain 6 1003 70 10000 3.09 40 13:54 30.09.2021
6119 Rain 5 1003 70 10000 4.12 70 11:42 30.09.2021
6120 Clear 4 1003 70 10000 5.14 80 10:46 30.09.2021
6121 Clear 4 1003 70 10000 5.14 80 10:19 30.09.2021
6122 Clear 3 1002 75 10000 5.66 80 08:30 30.09.2021
6123 Clear 4 1002 75 10000 5.14 80 07:34 30.09.2021
6124 Clouds 5 1002 75 10000 7.2 160 05:23 30.09.2021
6125 Clouds 5 1002 81 10000 6.17 160 01:36 30.09.2021
6126 Clouds 5 1002 81 10000 6.17 160 00:23 30.09.2021
6127 Clouds 5 1001 81 10000 6.69 170 22:37 29.09.2021
6128 Clouds 6 1000 70 10000 7.72 180 21:27 29.09.2021
6129 Clouds 6 1000 75 10000 9.26 200 20:28 29.09.2021
6130 Clouds 6 1000 70 10000 10.8 200 19:54 29.09.2021
6131 Clouds 6 1000 70 10000 10.29 200 18:50 29.09.2021
6132 Clouds 6 999 75 10000 10.8 200 17:52 29.09.2021
6133 Clouds 6 999 75 10000 10.8 210 16:51 29.09.2021
6134 Clouds 5 999 81 10000 10.29 210 15:58 29.09.2021
6135 Clouds 6 999 75 10000 9.26 210 14:39 29.09.2021
6136 Clouds 5 998 81 10000 10.8 220 13:58 29.09.2021
6137 Clouds 5 998 81 10000 10.8 220 13:22 29.09.2021
6138 Clouds 5 998 81 10000 10.8 230 12:35 29.09.2021
6139 Rain 5 996 81 7000 12.35 240 10:50 29.09.2021
6140 Rain 5 995 81 10000 12.86 250 09:53 29.09.2021
6141 Rain 5 995 81 10000 12.86 250 09:34 29.09.2021
6142 Clouds 5 994 81 10000 11.32 270 07:33 29.09.2021
6143 Rain 4 994 86 10000 14.92 280 04:39 29.09.2021
6144 Clouds 4 994 70 10000 14.92 300 23:29 28.09.2021
6145 Clouds 4 994 70 10000 15.43 310 22:24 28.09.2021
6146 Rain 4 994 65 10000 11.83 310 21:44 28.09.2021
6147 Rain 4 994 65 10000 11.32 320 20:43 28.09.2021
6148 Snow 3 995 75 10000 10.8 310 19:46 28.09.2021
6149 Snow 3 995 81 10000 10.29 310 18:51 28.09.2021
6150 Snow 3 995 81 10000 10.29 310 18:18 28.09.2021
6151 Snow 1 997 86 4500 12.35 340 16:38 28.09.2021
6152 Rain 3 997 81 10000 9.77 340 14:37 28.09.2021
6153 Clouds 3 997 81 10000 8.75 340 13:19 28.09.2021
6154 Clouds 4 997 70 10000 9.77 360 12:21 28.09.2021
6155 Clouds 5 997 70 10000 11.83 360 11:47 28.09.2021
6156 Clouds 5 997 70 10000 11.83 360 11:22 28.09.2021
6157 Clouds 5 997 70 10000 8.23 360 10:21 28.09.2021
6158 Clouds 5 997 70 10000 8.23 360 10:21 28.09.2021
6159 Clouds 5 997 70 10000 11.83 360 09:18 28.09.2021
6160 Clear -1 998 80 10000 1.03 0 08:39 28.09.2021
6161 Clear 0 998 80 10000 1.54 200 07:48 28.09.2021
6162 Clear 3 998 65 10000 7.72 10 05:31 28.09.2021
6163 Clear 3 1000 65 10000 8.23 360 01:26 28.09.2021
6164 Clouds 3 1000 65 10000 8.23 360 00:26 28.09.2021
6165 Clouds 3 1001 65 10000 8.75 360 23:42 27.09.2021
6166 Clouds 2 1001 72 10000 10.27 353 23:22 27.09.2021
6167 Clouds 3 1001 65 10000 10.29 360 22:19 27.09.2021
6168 Clouds 4 1000 60 10000 9.77 360 20:45 27.09.2021
6169 Clouds 4 1000 65 10000 10.29 360 19:57 27.09.2021
6170 Clouds 4 1000 65 10000 10.29 360 19:29 27.09.2021
6171 Clouds 4 1000 65 10000 11.32 360 18:52 27.09.2021
6172 Clouds 4 1000 65 10000 11.83 360 17:33 27.09.2021
6173 Clouds 4 1000 65 10000 11.32 360 16:51 27.09.2021
6174 Clouds 4 1000 65 10000 12.35 360 15:46 27.09.2021
6175 Clouds 4 1000 65 10000 12.35 360 15:27 27.09.2021
6176 Clouds 4 1000 60 10000 12.35 360 13:34 27.09.2021
6177 Clouds 3 999 70 10000 11.83 10 11:59 27.09.2021
6178 Clouds 3 998 70 10000 13.89 10 10:42 27.09.2021
6179 Clouds 3 997 70 10000 13.38 10 09:31 27.09.2021
6180 Clouds 4 995 65 10000 13.89 20 06:33 27.09.2021
6181 Rain 4 994 75 10000 10.29 30 03:29 27.09.2021
6182 Rain 6 991 74 10000 9.26 20 22:39 26.09.2021
6183 Rain 6 991 76 10000 9.26 20 21:55 26.09.2021
6184 Rain 6 991 77 10000 9.26 20 21:26 26.09.2021
6185 Clouds 6 990 77 10000 8.75 20 20:24 26.09.2021
6186 Clouds 7 990 65 10000 10.29 30 19:53 26.09.2021
6187 Clouds 7 989 65 10000 10.29 20 18:52 26.09.2021
6188 Clouds 7 990 65 10000 9.77 20 17:59 26.09.2021
6189 Clouds 7 990 65 10000 9.77 20 17:37 26.09.2021
6190 Clouds 7 990 65 10000 9.77 20 17:18 26.09.2021
6191 Rain 7 990 65 10000 8.75 20 16:22 26.09.2021
6192 Clouds 7 990 65 10000 7.72 30 15:22 26.09.2021
6193 Rain 7 990 65 10000 7.72 30 14:18 26.09.2021
6194 Clouds 6 990 79 10000 8.75 30 13:42 26.09.2021
6195 Rain 6 991 77 10000 9.77 30 12:26 26.09.2021
6196 Rain 6 991 77 10000 9.77 30 12:26 26.09.2021
6197 Rain 5 991 77 10000 8.75 20 11:53 26.09.2021
6198 Clouds 6 991 70 10000 10.8 30 10:59 26.09.2021
6199 Rain 6 991 65 10000 10.29 40 09:38 26.09.2021
6200 Clear 6 991 65 10000 9.77 30 08:30 26.09.2021
6201 Clear 5 994 65 10000 7.2 20 00:28 26.09.2021
6202 Clear 5 994 65 10000 8.23 30 23:43 25.09.2021
6203 Clear 5 994 65 10000 8.23 30 23:43 25.09.2021
6204 Clouds 6 994 61 10000 3.6 20 22:39 25.09.2021
6205 Clouds 6 994 61 10000 3.6 20 22:18 25.09.2021
6206 Clouds 6 994 61 10000 3.6 20 22:18 25.09.2021
6207 Clouds 6 994 52 10000 3.09 60 21:40 25.09.2021
6208 Clouds 7 994 49 10000 3.6 50 20:52 25.09.2021
6209 Clear 7 994 53 10000 3.6 50 19:33 25.09.2021
6210 Clear 7 994 57 10000 5.66 20 18:28 25.09.2021
6211 Clouds 7 994 57 10000 4.63 20 17:23 25.09.2021
6212 Clouds 7 995 53 10000 3.6 90 14:38 25.09.2021
6213 Clouds 7 995 49 10000 7.2 80 13:55 25.09.2021
6214 Clouds 6 996 56 10000 7.72 70 12:37 25.09.2021
6215 Clouds 5 996 65 10000 6.17 80 11:27 25.09.2021
6216 Clouds 5 997 65 10000 5.14 90 10:18 25.09.2021
6217 Clear 5 996 65 10000 2.57 70 08:55 25.09.2021
6218 Clear 5 996 65 10000 7.72 80 07:47 25.09.2021
6219 Clear 4 998 81 10000 6.17 80 00:52 25.09.2021
6220 Clouds 5 998 75 10000 6.17 80 22:18 24.09.2021
6221 Clear 5 998 75 10000 7.2 90 21:34 24.09.2021
6222 Clear 7 998 65 10000 6.69 80 20:32 24.09.2021
6223 Clear 7 998 65 10000 6.69 80 20:32 24.09.2021
6224 Clouds 7 997 65 10000 5.14 90 19:31 24.09.2021
6225 Clear 8 997 57 10000 6.17 80 18:20 24.09.2021
6226 Clouds 8 997 57 10000 5.14 100 17:50 24.09.2021
6227 Clouds 8 997 57 10000 5.14 100 17:31 24.09.2021
6228 Clouds 7 996 70 10000 4.63 120 15:39 24.09.2021
6229 Clear 5 996 75 10000 2.57 60 13:21 24.09.2021
6230 Clear 4 995 75 10000 3.6 80 12:43 24.09.2021
6231 Clear 4 995 75 10000 3.6 80 12:25 24.09.2021
6232 Clear 1 994 86 10000 2.06 150 10:53 24.09.2021
6233 Clouds 4 993 75 10000 2.06 100 09:37 24.09.2021
6234 Clear 4 993 75 10000 4.12 340 08:21 24.09.2021
6235 Clear 5 991 75 10000 5.14 340 06:59 24.09.2021
6236 Clear 6 991 65 10000 5.66 330 05:57 24.09.2021
6237 Clouds 5 989 75 10000 5.66 330 03:56 24.09.2021
6238 Drizzle 4 984 93 4200 6.69 40 22:37 23.09.2021
6239 Drizzle 5 983 87 3500 6.69 80 21:59 23.09.2021
6240 Mist 5 984 81 4900 9.26 80 20:54 23.09.2021
6241 Mist 5 984 81 4900 9.26 80 20:31 23.09.2021
6242 Clouds 4 985 81 10000 9.26 80 18:36 23.09.2021
6243 Clouds 4 989 81 10000 10.29 80 16:39 23.09.2021
6244 Clouds 3 991 87 10000 9.77 90 15:19 23.09.2021
6245 Snow 3 995 81 10000 8.75 100 14:25 23.09.2021
6246 Snow 2 996 87 9000 7.72 90 13:27 23.09.2021
6247 Rain 3 997 87 10000 7.2 100 12:57 23.09.2021
6248 Rain 3 997 87 10000 7.2 100 12:37 23.09.2021
6249 Rain 3 997 87 10000 7.2 100 12:18 23.09.2021
6250 Rain 4 1001 88 10000 4.12 110 10:31 23.09.2021
6251 Rain 5 1001 82 10000 4.63 110 09:57 23.09.2021
6252 Rain 5 1001 82 10000 4.63 110 09:38 23.09.2021
6253 Clouds 3 1003 81 10000 3.09 150 06:24 23.09.2021
6254 Clouds 2 1001 89 10000 2.06 150 00:21 23.09.2021
6255 Clouds 3 999 86 10000 1.03 0 22:52 22.09.2021
6256 Clouds 3 999 85 10000 1.03 0 22:20 22.09.2021
6257 Clouds 3 997 82 10000 2.06 310 21:42 22.09.2021
6258 Clouds 4 996 81 10000 2.06 300 20:57 22.09.2021
6259 Clouds 4 995 85 10000 1.54 30 19:48 22.09.2021
6260 Clouds 4 994 86 10000 1.54 30 19:26 22.09.2021
6261 Clouds 3 994 90 10000 1.54 0 18:34 22.09.2021
6262 Rain 4 994 92 10000 1.34 148 17:33 22.09.2021
6263 Rain 4 993 63 10000 9.73 245 15:51 22.09.2021
6264 Snow 1 993 86 900 7.72 280 14:28 22.09.2021
6265 Clouds 3 993 81 10000 10.8 220 13:19 22.09.2021
6266 Clouds 3 993 81 10000 10.8 220 13:19 22.09.2021
6267 Clouds 2 991 92 275 13.26 254 11:20 22.09.2021
6268 Clouds 6 991 70 10000 12.86 260 09:32 22.09.2021
6269 Rain 5 991 81 5000 3.6 140 08:45 22.09.2021
6270 Rain 5 991 81 5000 3.6 140 08:45 22.09.2021
6271 Clouds 5 991 81 10000 3.09 160 07:34 22.09.2021
6272 Clouds 5 991 81 10000 4.12 210 06:51 22.09.2021
6273 Clouds 5 991 75 10000 4.12 270 05:48 22.09.2021
6274 Clouds 5 991 81 10000 4.12 270 04:20 22.09.2021
6275 Clouds 5 990 81 10000 6.69 300 03:23 22.09.2021
6276 Clouds 6 987 75 10000 11.32 290 23:54 21.09.2021
6277 Drizzle 6 985 75 10000 12.86 290 22:26 21.09.2021
6278 Clouds 5 985 77 10000 14.06 291 20:43 21.09.2021
6279 Clouds 5 981 77 10000 15.12 298 19:36 21.09.2021
6280 Clouds 4 978 78 10000 15.19 293 19:18 21.09.2021
6281 Drizzle 11 960 87 3500 10.8 230 16:48 21.09.2021
6282 Drizzle 11 960 93 6000 8.23 200 15:57 21.09.2021
6283 Drizzle 11 961 87 6000 8.23 160 14:59 21.09.2021
6284 Drizzle 11 961 87 6000 8.23 160 14:40 21.09.2021
6285 Drizzle 13 964 82 7000 10.29 140 13:40 21.09.2021
6286 Drizzle 7 969 81 3400 14.92 90 12:45 21.09.2021
6287 Drizzle 6 979 81 6000 11.32 70 10:44 21.09.2021
6288 Drizzle 6 984 81 9000 9.77 70 09:28 21.09.2021
6289 Rain 6 992 87 10000 7.72 80 07:40 21.09.2021
6290 Rain 7 999 81 10000 4.12 80 05:18 21.09.2021
6291 Drizzle 8 1005 81 10000 4.63 280 23:19 20.09.2021
6292 Clouds 8 1004 76 10000 8.23 290 21:51 20.09.2021
6293 Clouds 8 1004 76 10000 8.23 290 21:30 20.09.2021
6294 Clouds 9 1001 81 10000 9.77 280 19:49 20.09.2021
6295 Clouds 9 1000 81 10000 10.8 280 18:36 20.09.2021
6296 Clouds 10 998 76 10000 11.83 270 17:30 20.09.2021
6297 Clouds 10 996 76 10000 11.83 270 16:26 20.09.2021
6298 Clouds 10 994 81 10000 11.83 270 15:43 20.09.2021
6299 Clouds 10 992 81 10000 10.29 270 14:42 20.09.2021
6300 Rain 10 988 93 9000 4.63 260 12:53 20.09.2021
6301 Drizzle 10 988 93 9000 4.63 260 12:29 20.09.2021
6302 Clouds 10 985 87 10000 3.6 210 10:57 20.09.2021
6303 Clouds 10 985 87 10000 4.63 210 09:52 20.09.2021
6304 Clouds 10 985 87 10000 4.63 210 09:33 20.09.2021
6305 Clouds 10 985 87 10000 4.63 210 09:33 20.09.2021
6306 Clouds 10 984 93 10000 4.63 210 08:55 20.09.2021
6307 Clouds 10 984 94 10000 4.63 210 06:34 20.09.2021
6308 Drizzle 9 993 81 10000 8.23 120 23:28 19.09.2021
6309 Clouds 9 996 76 10000 5.14 170 21:51 19.09.2021
6310 Clouds 9 996 76 10000 5.14 170 21:21 19.09.2021
6311 Clouds 10 997 81 10000 5.66 160 20:32 19.09.2021
6312 Clouds 11 999 62 10000 5.66 150 18:54 19.09.2021
6313 Clouds 11 999 66 10000 4.63 180 17:57 19.09.2021
6314 Clouds 11 1000 66 10000 5.14 180 16:52 19.09.2021
6315 Clouds 10 1000 71 10000 2.06 250 15:44 19.09.2021
6316 Clouds 10 1000 71 10000 3.09 230 14:49 19.09.2021
6317 Clouds 10 1000 71 10000 3.09 230 14:24 19.09.2021
6318 Clouds 9 999 76 10000 4.12 260 12:56 19.09.2021
6319 Clouds 9 999 76 10000 4.12 260 12:30 19.09.2021
6320 Clouds 9 998 76 10000 3.6 260 11:25 19.09.2021
6321 Clouds 9 996 76 10000 4.63 280 09:52 19.09.2021
6322 Clouds 9 996 76 10000 4.63 280 09:26 19.09.2021
6323 Clouds 9 993 81 10000 6.69 290 06:49 19.09.2021
6324 Clouds 9 990 87 10000 1.03 10 01:38 19.09.2021
6325 Rain 9 990 87 10000 1.03 0 23:25 18.09.2021
6326 Clouds 9 989 87 10000 1.54 180 21:58 18.09.2021
6327 Clouds 9 989 87 10000 2.06 140 20:48 18.09.2021
6328 Clouds 9 990 87 10000 3.6 350 19:58 18.09.2021
6329 Clouds 9 990 87 10000 3.6 350 19:37 18.09.2021
6330 Clouds 9 990 87 10000 3.6 350 19:19 18.09.2021
6331 Clouds 9 990 81 6000 4.12 340 18:30 18.09.2021
6332 Rain 8 993 81 8000 6.69 70 16:35 18.09.2021
6333 Rain 9 995 66 10000 5.14 50 14:32 18.09.2021
6334 Rain 8 995 66 10000 7.72 80 13:45 18.09.2021
6335 Rain 8 995 66 10000 7.72 80 13:21 18.09.2021
6336 Clouds 7 996 70 10000 5.14 70 12:23 18.09.2021
6337 Clouds 7 996 70 10000 5.66 80 11:31 18.09.2021
6338 Clouds 7 996 70 10000 5.66 80 11:30 18.09.2021
6339 Clouds 6 997 75 10000 4.63 70 10:31 18.09.2021
6340 Clouds 6 997 81 10000 4.63 70 09:24 18.09.2021
6341 Clouds 5 997 87 10000 4.12 70 08:28 18.09.2021
6342 Clouds 6 998 84 10000 1.79 194 00:53 18.09.2021
6343 Clouds 6 998 83 10000 1.79 211 23:56 17.09.2021
6344 Clouds 6 998 81 10000 1.34 193 22:54 17.09.2021
6345 Clouds 6 998 80 10000 0.45 201 22:25 17.09.2021
6346 Clouds 7 997 67 10000 2.06 270 21:33 17.09.2021
6347 Clouds 8 996 57 10000 4.12 270 19:52 17.09.2021
6348 Clouds 8 996 71 10000 3.6 280 18:42 17.09.2021
6349 Clouds 8 996 71 10000 3.6 280 16:42 17.09.2021
6350 Clouds 8 997 71 10000 6.69 300 15:25 17.09.2021
6351 Clouds 7 996 76 10000 4.63 330 11:53 17.09.2021
6352 Clouds 7 996 76 10000 6.17 350 10:23 17.09.2021
6353 Clouds 7 995 76 10000 7.72 340 07:48 17.09.2021
6354 Clouds 7 995 82 10000 7.72 310 06:27 17.09.2021
6355 Clouds 8 994 87 10000 3.09 310 00:33 17.09.2021
6356 Drizzle 8 994 81 10000 4.12 310 22:42 16.09.2021
6357 Rain 8 994 81 10000 4.12 310 22:23 16.09.2021
6358 Clouds 9 994 81 7000 2.57 320 21:35 16.09.2021
6359 Clouds 9 994 76 10000 3.6 320 20:30 16.09.2021
6360 Clouds 10 995 87 10000 3.6 290 18:52 16.09.2021
6361 Drizzle 10 995 87 10000 3.6 290 18:18 16.09.2021
6362 Clouds 11 996 87 10000 3.09 260 16:47 16.09.2021
6363 Clouds 12 996 82 10000 4.12 190 14:49 16.09.2021
6364 Rain 12 997 82 10000 4.12 160 13:40 16.09.2021
6365 Clouds 12 997 82 10000 6.17 150 12:46 16.09.2021
6366 Clouds 11 997 82 10000 6.69 150 11:50 16.09.2021
6367 Clouds 11 997 82 10000 6.69 150 11:50 16.09.2021
6368 Drizzle 11 997 82 10000 5.14 150 10:56 16.09.2021
6369 Drizzle 11 997 82 10000 5.14 150 10:23 16.09.2021
6370 Clouds 11 997 82 10000 5.66 160 09:31 16.09.2021
6371 Clouds 11 997 82 10000 5.14 160 07:59 16.09.2021
6372 Drizzle 11 998 93 10000 4.12 180 06:58 16.09.2021
6373 Drizzle 11 998 93 10000 4.12 180 06:38 16.09.2021
6374 Clouds 13 998 88 10000 8.23 150 03:22 16.09.2021
6375 Rain 13 1000 82 10000 4.63 120 00:53 16.09.2021
6376 Rain 12 1001 87 10000 5.14 100 23:30 15.09.2021
6377 Rain 12 1001 82 10000 4.63 100 22:39 15.09.2021
6378 Clouds 13 1002 76 10000 6.17 130 21:31 15.09.2021
6379 Clouds 13 1002 71 10000 4.63 100 20:49 15.09.2021
6380 Clouds 13 1002 67 10000 5.14 120 19:33 15.09.2021
6381 Clouds 14 1003 62 10000 5.14 130 18:53 15.09.2021
6382 Clouds 13 1004 67 10000 4.63 110 17:42 15.09.2021
6383 Clouds 12 1004 66 10000 4.63 120 16:43 15.09.2021
6384 Clouds 12 1004 66 10000 4.63 120 16:43 15.09.2021
6385 Clouds 11 1005 71 10000 2.57 60 15:22 15.09.2021
6386 Clouds 11 1005 71 10000 2.57 90 14:42 15.09.2021
6387 Clouds 9 1005 76 10000 2.06 90 13:47 15.09.2021
6388 Clouds 9 1005 76 10000 2.06 90 13:28 15.09.2021
6389 Clouds 8 1005 81 10000 2.57 100 12:33 15.09.2021
6390 Clouds 8 1005 81 10000 1.54 130 11:51 15.09.2021
6391 Clouds 8 1005 81 10000 1.54 130 11:51 15.09.2021
6392 Clouds 7 1005 87 10000 3.09 150 10:57 15.09.2021
6393 Clouds 7 1005 87 10000 3.09 150 10:33 15.09.2021
6394 Clouds 8 1004 87 10000 4.12 210 08:50 15.09.2021
6395 Clouds 8 1003 87 10000 5.66 230 07:26 15.09.2021
6396 Clouds 8 1002 70 10000 6.17 190 00:55 15.09.2021
6397 Clouds 9 1000 71 10000 5.66 200 22:24 14.09.2021
6398 Clouds 9 1000 71 10000 8.23 200 21:21 14.09.2021
6399 Clouds 9 999 71 10000 8.75 200 20:21 14.09.2021
6400 Clouds 9 998 71 10000 9.26 200 19:23 14.09.2021
6401 Clouds 10 998 71 10000 9.26 190 17:33 14.09.2021
6402 Clouds 9 998 76 10000 9.77 190 16:39 14.09.2021
6403 Clouds 10 997 71 10000 10.29 200 14:52 14.09.2021
6404 Clouds 10 997 71 10000 10.29 200 14:52 14.09.2021
6405 Clouds 10 997 71 10000 10.29 200 14:19 14.09.2021
6406 Clouds 9 995 71 10000 7.72 180 11:47 14.09.2021
6407 Clouds 8 995 81 10000 8.23 200 10:44 14.09.2021
6408 Clouds 8 994 76 10000 7.2 170 09:49 14.09.2021
6409 Clouds 8 994 76 10000 9.26 190 07:53 14.09.2021
6410 Clouds 8 993 76 10000 9.77 170 02:20 14.09.2021
6411 Clouds 8 992 76 10000 9.26 180 23:27 13.09.2021
6412 Clouds 9 992 71 10000 8.75 170 22:28 13.09.2021
6413 Clouds 8 992 76 10000 9.26 170 21:55 13.09.2021
6414 Clouds 8 992 76 10000 9.26 170 21:32 13.09.2021
6415 Clouds 7 992 81 10000 15.43 190 19:35 13.09.2021
6416 Clouds 10 992 66 10000 9.26 180 18:45 13.09.2021
6417 Clouds 10 991 71 10000 9.77 190 17:28 13.09.2021
6418 Clouds 10 991 76 10000 11.32 190 16:49 13.09.2021
6419 Drizzle 9 990 87 10000 10.29 200 14:44 13.09.2021
6420 Clouds 12 988 87 8000 9.77 170 11:44 13.09.2021
6421 Clouds 13 987 88 7000 11.83 150 10:40 13.09.2021
6422 Clouds 13 989 88 7000 11.83 150 07:58 13.09.2021
6423 Clouds 12 997 88 6000 13.38 140 00:34 13.09.2021
6424 Clouds 12 1000 82 6000 15.43 140 22:51 12.09.2021
6425 Rain 12 1000 82 6000 15.43 140 22:22 12.09.2021
6426 Rain 12 1002 82 4000 13.38 150 20:53 12.09.2021
6427 Rain 11 1002 82 7000 13.89 150 20:19 12.09.2021
6428 Rain 12 1003 82 8000 13.38 150 19:30 12.09.2021
6429 Rain 12 1004 82 8000 11.83 150 18:55 12.09.2021
6430 Rain 11 1006 87 8000 12.35 150 17:18 12.09.2021
6431 Rain 12 1008 82 10000 10.29 150 15:54 12.09.2021
6432 Rain 11 1009 82 10000 8.23 150 14:39 12.09.2021
6433 Rain 9 1010 87 10000 7.72 110 12:39 12.09.2021
6434 Rain 9 1012 87 10000 6.69 90 10:21 12.09.2021
6435 Rain 9 1013 81 10000 4.12 90 08:39 12.09.2021
6436 Rain 9 1013 76 10000 3.09 80 07:26 12.09.2021
6437 Clear 8 1015 80 10000 2.06 320 00:47 12.09.2021
6438 Clouds 9 1015 79 10000 2.57 320 22:35 11.09.2021
6439 Clouds 11 1014 82 10000 3.6 330 21:39 11.09.2021
6440 Clouds 11 1014 86 10000 2.57 290 19:39 11.09.2021
6441 Clouds 11 1013 84 10000 3.09 270 17:56 11.09.2021
6442 Clouds 11 1013 85 10000 3.09 270 17:27 11.09.2021
6443 Clouds 11 1012 84 10000 3.09 270 15:35 11.09.2021
6444 Clouds 11 1012 87 10000 3.09 240 13:22 11.09.2021
6445 Clouds 9 1011 93 10000 1.54 160 11:41 11.09.2021
6446 Clouds 9 1011 87 10000 1.54 150 10:27 11.09.2021
6447 Clouds 9 1010 87 10000 2.57 150 08:42 11.09.2021
6448 Clouds 9 1010 87 10000 2.57 180 07:43 11.09.2021
6449 Rain 9 1011 93 10000 3.6 200 02:52 11.09.2021
6450 Clouds 10 1011 87 10000 2.06 180 22:37 10.09.2021
6451 Clouds 10 1011 87 10000 1.54 200 21:57 10.09.2021
6452 Rain 10 1011 87 10000 1.54 200 21:36 10.09.2021
6453 Rain 10 1012 87 10000 1.03 0 19:30 10.09.2021
6454 Rain 10 1012 87 10000 1.03 0 19:30 10.09.2021
6455 Clouds 10 1012 81 10000 2.06 300 17:54 10.09.2021
6456 Clouds 10 1013 93 10000 3.09 240 15:51 10.09.2021
6457 Drizzle 10 1013 87 6000 4.12 230 13:26 10.09.2021
6458 Clouds 10 1013 87 10000 5.14 210 10:32 10.09.2021
6459 Clouds 10 1012 87 10000 5.66 230 07:52 10.09.2021
6460 Clouds 10 1013 81 10000 5.14 200 06:37 10.09.2021
6461 Clouds 11 1014 71 10000 4.12 170 23:59 09.09.2021
6462 Clouds 11 1014 66 10000 4.12 180 21:48 09.09.2021
6463 Clouds 11 1014 66 10000 5.66 190 20:48 09.09.2021
6464 Clouds 11 1014 66 10000 5.66 190 20:26 09.09.2021
6465 Clouds 12 1015 66 10000 1.03 0 18:41 09.09.2021
6466 Clouds 11 1015 71 10000 1.03 0 17:41 09.09.2021
6467 Clouds 11 1015 71 10000 1.54 290 16:27 09.09.2021
6468 Clouds 12 1015 66 10000 1.54 220 15:24 09.09.2021
6469 Clouds 10 1015 66 10000 3.09 220 12:23 09.09.2021
6470 Clouds 10 1015 76 10000 2.57 200 11:22 09.09.2021
6471 Clouds 10 1015 76 10000 2.57 200 11:22 09.09.2021
6472 Clouds 9 1015 81 10000 3.09 200 09:35 09.09.2021
6473 Clouds 9 1014 76 10000 3.6 190 07:43 09.09.2021
6474 Clouds 9 1014 81 10000 4.63 220 05:40 09.09.2021
6475 Clouds 10 1014 84 10000 5.66 220 23:55 08.09.2021
6476 Clouds 10 1013 82 10000 5.66 240 21:48 08.09.2021
6477 Clouds 10 1013 78 10000 4.12 250 20:48 08.09.2021
6478 Clouds 10 1013 81 10000 4.63 250 19:46 08.09.2021
6479 Clouds 10 1013 81 10000 8.23 230 18:47 08.09.2021
6480 Clouds 10 1013 83 10000 8.23 230 18:25 08.09.2021
6481 Clouds 9 1013 87 10000 6.17 220 17:40 08.09.2021
6482 Clouds 10 1013 81 10000 6.17 220 15:35 08.09.2021
6483 Drizzle 10 1013 82 10000 5.66 230 13:33 08.09.2021
6484 Clouds 10 1013 80 10000 5.14 240 12:41 08.09.2021
6485 Clouds 10 1012 81 10000 5.14 240 12:23 08.09.2021
6486 Clouds 9 1012 87 10000 3.6 200 11:26 08.09.2021
6487 Clouds 8 1013 91 10000 3.6 190 10:31 08.09.2021
6488 Clouds 7 1012 90 10000 3.09 170 09:55 08.09.2021
6489 Clouds 9 1011 71 10000 3.09 290 07:45 08.09.2021
6490 Clouds 9 1011 71 10000 3.09 290 07:19 08.09.2021
6491 Clouds 11 1010 87 10000 4.12 300 23:28 07.09.2021
6492 Clouds 11 1010 87 10000 4.12 300 22:19 07.09.2021
6493 Clouds 12 1009 82 10000 3.6 290 20:42 07.09.2021
6494 Clouds 12 1008 85 10000 4.63 260 18:53 07.09.2021
6495 Clouds 12 1007 85 10000 4.63 260 18:28 07.09.2021
6496 Clouds 11 1007 82 10000 5.66 260 17:35 07.09.2021
6497 Clouds 12 1006 76 10000 5.14 250 15:57 07.09.2021
6498 Clouds 12 1005 82 10000 4.63 250 14:53 07.09.2021
6499 Clouds 10 1005 87 10000 4.63 220 13:52 07.09.2021
6500 Clouds 10 1004 81 10000 4.12 190 11:59 07.09.2021
6501 Clouds 9 1003 81 10000 3.09 170 10:59 07.09.2021
6502 Clouds 9 1003 81 10000 3.09 170 10:18 07.09.2021
6503 Clouds 9 1001 81 10000 4.63 200 07:47 07.09.2021
6504 Clouds 9 1001 81 10000 4.12 170 06:20 07.09.2021
6505 Clouds 9 1001 90 10000 2.57 140 02:39 07.09.2021
6506 Clouds 9 1001 90 10000 2.57 140 02:19 07.09.2021
6507 Clouds 9 999 81 10000 3.09 270 23:52 06.09.2021
6508 Clouds 9 999 81 10000 3.09 270 23:31 06.09.2021
6509 Clouds 10 999 87 10000 2.57 270 22:51 06.09.2021
6510 Clouds 10 999 87 10000 2.57 270 22:21 06.09.2021
6511 Clouds 10 997 93 10000 2.06 270 20:35 06.09.2021
6512 Drizzle 11 997 87 5000 2.57 280 19:19 06.09.2021
6513 Drizzle 11 996 87 10000 3.6 290 18:35 06.09.2021
6514 Clouds 11 996 87 10000 2.57 300 17:52 06.09.2021
6515 Clouds 11 996 87 9000 2.06 100 16:20 06.09.2021
6516 Rain 11 996 82 4000 2.57 140 14:59 06.09.2021
6517 Rain 11 997 87 10000 3.6 160 12:59 06.09.2021
6518 Rain 11 997 87 10000 3.6 160 12:41 06.09.2021
6519 Rain 11 997 87 10000 3.6 160 12:41 06.09.2021
6520 Rain 11 997 82 10000 3.6 150 10:27 06.09.2021
6521 Clouds 10 998 81 10000 5.14 150 07:39 06.09.2021
6522 Drizzle 10 1000 87 10000 4.12 160 04:27 06.09.2021
6523 Clouds 10 1000 82 10000 5.14 170 23:23 05.09.2021
6524 Clouds 10 1000 81 10000 6.69 200 22:32 05.09.2021
6525 Clouds 11 1000 78 10000 7.2 210 21:56 05.09.2021
6526 Clouds 11 1000 77 10000 7.2 210 21:20 05.09.2021
6527 Clouds 11 999 76 10000 10.29 210 19:45 05.09.2021
6528 Clouds 11 998 81 10000 9.26 220 17:52 05.09.2021
6529 Clouds 10 997 86 10000 7.72 220 15:58 05.09.2021
6530 Clouds 10 997 86 10000 7.72 220 15:19 05.09.2021
6531 Clouds 11 995 82 10000 5.66 190 12:44 05.09.2021
6532 Clouds 11 995 82 10000 5.14 190 11:31 05.09.2021
6533 Clouds 10 995 87 10000 4.12 170 10:40 05.09.2021
6534 Clouds 10 995 81 10000 4.63 180 09:33 05.09.2021
6535 Clouds 10 995 87 10000 4.63 190 08:31 05.09.2021
6536 Clouds 11 994 91 9000 7.72 220 03:52 05.09.2021
6537 Rain 13 993 88 9000 12.35 120 00:39 05.09.2021
6538 Rain 13 995 88 7000 13.38 130 23:55 04.09.2021
6539 Rain 13 995 87 7000 13.38 130 23:22 04.09.2021
6540 Rain 13 996 84 8000 13.38 140 22:35 04.09.2021
6541 Rain 13 996 84 8000 13.38 140 22:35 04.09.2021
6542 Drizzle 12 999 83 8000 13.38 140 20:58 04.09.2021
6543 Drizzle 13 1000 76 9000 13.89 140 19:33 04.09.2021
6544 Clouds 14 1003 67 10000 9.77 130 17:25 04.09.2021
6545 Clouds 14 1005 72 10000 11.32 150 14:37 04.09.2021
6546 Clouds 13 1008 76 10000 6.69 140 11:37 04.09.2021
6547 Clouds 13 1008 76 10000 7.2 150 10:38 04.09.2021
6548 Clouds 13 1009 82 10000 7.72 160 07:43 04.09.2021
6549 Clear 13 1015 76 10000 4.12 140 00:50 04.09.2021
6550 Clear 13 1015 76 10000 4.63 150 23:49 03.09.2021
6551 Clear 13 1015 76 10000 4.63 150 23:20 03.09.2021
6552 Clear 14 1016 72 10000 5.66 160 21:43 03.09.2021
6553 Clouds 14 1016 78 10000 6.17 170 20:54 03.09.2021
6554 Clouds 14 1016 78 10000 6.17 170 20:28 03.09.2021
6555 Clouds 15 1017 78 10000 6.17 170 19:35 03.09.2021
6556 Clouds 14 1017 80 10000 7.2 180 18:21 03.09.2021
6557 Clouds 15 1019 79 10000 6.69 180 16:50 03.09.2021
6558 Clouds 15 1019 81 10000 7.2 170 15:39 03.09.2021
6559 Clouds 14 1019 83 10000 7.72 150 14:28 03.09.2021
6560 Clouds 14 1019 83 10000 7.72 150 14:28 03.09.2021
6561 Clouds 13 1021 84 10000 5.14 140 11:21 03.09.2021
6562 Clouds 13 1021 84 10000 5.14 140 09:21 03.09.2021
6563 Clouds 13 1021 82 10000 5.66 100 08:18 03.09.2021
6564 Clouds 13 1022 82 10000 5.14 120 06:49 03.09.2021
6565 Clouds 13 1026 82 10000 3.6 100 23:56 02.09.2021
6566 Clouds 13 1026 81 10000 4.12 120 22:21 02.09.2021
6567 Clouds 14 1026 78 10000 4.63 140 20:46 02.09.2021
6568 Clouds 14 1027 79 10000 3.6 150 18:27 02.09.2021
6569 Clouds 14 1028 78 10000 3.6 140 16:39 02.09.2021
6570 Clouds 14 1028 78 10000 4.63 140 15:30 02.09.2021
6571 Clouds 13 1028 79 10000 2.57 120 13:33 02.09.2021
6572 Clouds 13 1027 76 10000 3.6 100 11:43 02.09.2021
6573 Clouds 13 1027 76 10000 3.6 100 11:18 02.09.2021
6574 Clouds 12 1028 76 10000 2.57 150 08:57 02.09.2021
6575 Clouds 13 1028 71 10000 4.12 140 07:28 02.09.2021
6576 Clouds 12 1028 82 10000 3.09 170 05:32 02.09.2021
6577 Clouds 12 1029 86 10000 3.6 170 02:37 02.09.2021
6578 Clouds 12 1030 87 10000 3.6 170 01:49 02.09.2021
6579 Clouds 13 1030 86 10000 4.63 170 23:41 01.09.2021
6580 Clouds 13 1030 87 10000 4.63 170 23:20 01.09.2021
6581 Clouds 13 1030 87 10000 5.14 180 22:29 01.09.2021
6582 Clouds 13 1030 86 10000 4.63 170 21:32 01.09.2021
6583 Clouds 13 1031 91 10000 5.14 170 19:37 01.09.2021
6584 Clouds 14 1031 82 10000 6.17 180 17:55 01.09.2021
6585 Clouds 14 1031 82 10000 5.14 170 16:59 01.09.2021
6586 Clouds 14 1031 82 10000 5.14 170 16:36 01.09.2021
6587 Clouds 14 1032 77 10000 5.66 180 14:59 01.09.2021
6588 Clouds 13 1032 82 10000 4.12 180 11:47 01.09.2021
6589 Clouds 12 1032 87 10000 4.63 170 10:23 01.09.2021
6590 Clouds 12 1032 87 10000 3.09 180 08:42 01.09.2021
6591 Clouds 12 1032 87 10000 4.63 170 06:59 01.09.2021
6592 Clouds 13 1034 82 10000 4.12 180 23:33 31.08.2021
6593 Clouds 13 1033 82 10000 4.63 190 22:23 31.08.2021
6594 Clouds 14 1033 77 10000 5.66 200 20:19 31.08.2021
6595 Clouds 14 1033 77 10000 3.6 210 19:43 31.08.2021
6596 Clouds 14 1033 82 10000 5.14 200 17:52 31.08.2021
6597 Clouds 14 1033 82 10000 5.14 200 17:26 31.08.2021
6598 Clouds 15 1033 77 10000 6.69 190 16:41 31.08.2021
6599 Clouds 16 1033 72 10000 6.17 190 15:26 31.08.2021
6600 Clouds 13 1032 88 10000 3.09 190 12:43 31.08.2021
6601 Clouds 13 1032 88 10000 4.12 200 11:20 31.08.2021
6602 Clouds 13 1031 88 10000 4.12 190 10:43 31.08.2021
6603 Clear 13 1031 82 10000 4.63 180 09:41 31.08.2021
6604 Clouds 13 1030 82 10000 4.12 180 07:52 31.08.2021
6605 Clouds 13 1030 82 10000 4.12 180 05:57 31.08.2021
6606 Drizzle 12 1029 94 4000 5.66 200 23:36 30.08.2021
6607 Drizzle 13 1029 88 3500 5.14 190 22:52 30.08.2021
6608 Clouds 13 1028 88 10000 5.14 190 21:38 30.08.2021
6609 Clouds 13 1028 88 10000 4.63 200 20:41 30.08.2021
6610 Clouds 13 1027 88 10000 3.6 200 19:54 30.08.2021
6611 Clouds 13 1027 88 10000 3.6 200 19:24 30.08.2021
6612 Drizzle 12 1027 94 3300 4.63 210 17:51 30.08.2021
6613 Drizzle 12 1026 94 6000 5.14 200 16:29 30.08.2021
6614 Drizzle 12 1026 94 10000 5.66 220 15:45 30.08.2021
6615 Clouds 12 1025 94 3800 6.17 220 13:59 30.08.2021
6616 Clouds 12 1025 94 3800 6.17 220 13:19 30.08.2021
6617 Clouds 12 1023 94 2500 6.69 210 11:29 30.08.2021
6618 Drizzle 12 1022 91 10000 7.2 190 04:57 30.08.2021
6619 Drizzle 12 1022 87 5000 2.06 200 21:57 29.08.2021
6620 Clouds 11 1023 93 5000 3.6 190 20:54 29.08.2021
6621 Drizzle 12 1023 82 8000 5.14 180 19:28 29.08.2021
6622 Clouds 12 1023 82 10000 6.69 190 18:25 29.08.2021
6623 Clouds 12 1024 71 10000 6.17 210 15:58 29.08.2021
6624 Clouds 12 1024 71 10000 6.17 210 15:58 29.08.2021
6625 Clouds 12 1024 71 10000 7.2 210 14:28 29.08.2021
6626 Clouds 12 1024 71 10000 6.69 220 13:55 29.08.2021
6627 Clouds 11 1024 82 10000 6.69 210 12:58 29.08.2021
6628 Clouds 11 1024 82 10000 6.69 210 12:18 29.08.2021
6629 Clouds 11 1024 82 10000 6.17 200 11:40 29.08.2021
6630 Clouds 11 1024 82 10000 5.14 200 10:46 29.08.2021
6631 Clouds 11 1024 82 10000 5.14 200 10:28 29.08.2021
6632 Clouds 11 1024 76 10000 5.14 200 09:32 29.08.2021
6633 Clouds 11 1024 82 10000 6.17 200 04:19 29.08.2021
6634 Clouds 11 1023 82 10000 5.66 200 22:57 28.08.2021
6635 Clouds 11 1022 76 10000 6.69 200 20:33 28.08.2021
6636 Clouds 11 1022 76 10000 6.69 190 19:29 28.08.2021
6637 Clouds 11 1022 76 10000 7.72 200 18:24 28.08.2021
6638 Clouds 11 1021 76 10000 6.17 200 17:46 28.08.2021
6639 Clouds 11 1021 76 10000 6.17 200 16:32 28.08.2021
6640 Clouds 11 1021 76 10000 6.69 190 15:20 28.08.2021
6641 Clouds 11 1020 76 10000 7.2 200 13:58 28.08.2021
6642 Clouds 11 1020 76 10000 7.2 200 13:39 28.08.2021
6643 Clouds 11 1020 76 10000 6.17 210 12:30 28.08.2021
6644 Clouds 10 1018 81 10000 6.69 210 10:47 28.08.2021
6645 Clouds 10 1018 81 10000 3.6 170 09:34 28.08.2021
6646 Drizzle 10 1017 87 10000 5.66 210 07:56 28.08.2021
6647 Clouds 12 1015 82 10000 6.69 180 23:49 27.08.2021
6648 Clouds 12 1014 82 10000 9.26 190 21:29 27.08.2021
6649 Clouds 13 1013 76 10000 8.75 180 20:52 27.08.2021
6650 Clouds 14 1013 72 10000 9.26 180 19:34 27.08.2021
6651 Clouds 14 1012 77 10000 9.26 170 18:39 27.08.2021
6652 Clouds 13 1011 82 10000 10.8 180 17:54 27.08.2021
6653 Mist 14 1011 82 8000 10.8 180 16:35 27.08.2021
6654 Mist 14 1011 82 8000 12.35 150 14:46 27.08.2021
6655 Rain 14 1011 82 8000 11.83 140 13:30 27.08.2021
6656 Rain 14 1011 82 10000 12.35 150 11:58 27.08.2021
6657 Drizzle 14 1011 82 9000 12.35 150 10:50 27.08.2021
6658 Drizzle 14 1011 82 9000 12.35 150 10:23 27.08.2021
6659 Drizzle 14 1012 82 10000 10.8 150 08:57 27.08.2021
6660 Drizzle 14 1012 82 10000 10.8 150 08:35 27.08.2021
6661 Clouds 14 1013 82 7000 12.86 140 05:37 27.08.2021
6662 Drizzle 14 1015 82 10000 8.23 140 00:47 27.08.2021
6663 Drizzle 14 1015 82 10000 8.23 140 00:28 27.08.2021
6664 Clouds 13 1017 82 10000 6.17 90 22:26 26.08.2021
6665 Rain 13 1017 76 10000 6.17 110 21:47 26.08.2021
6666 Clouds 13 1018 76 10000 7.2 140 19:33 26.08.2021
6667 Clouds 13 1019 76 10000 7.2 150 18:26 26.08.2021
6668 Clouds 14 1019 67 10000 6.17 140 17:25 26.08.2021
6669 Clouds 14 1020 72 10000 5.14 180 16:27 26.08.2021
6670 Clouds 14 1020 72 10000 5.14 180